<?xml version="1.0" encoding="UTF-8" standalone="no" ?>
<gpx xmlns="http://www.topografix.com/GPX/1/1" xmlns:xsi="http://www.w3.org/2001/XMLSchema-instance" xsi:schemaLocation="http://www.topografix.com/GPX/1/1 http://www.topografix.com/GPX/1/1/gpx.xsd" version="1.1" creator="VisuGPX - https://www.visugpx.com">
  <metadata>
    <name>J7 Tarvisio - Tolmin</name>
  </metadata>
  <trk>
    <name><![CDATA[J7 Tarvisio - Tolmin]]></name>
    <trkseg>
      <trkpt lat="46.50532" lon="13.57618">
        <ele>763.084461</ele>
        <time>2026-07-13T06:58:01.000Z</time>
      </trkpt>
      <trkpt lat="46.50542" lon="13.5763">
        <ele>763.084461</ele>
        <time>2026-07-13T06:58:53.000Z</time>
      </trkpt>
      <trkpt lat="46.50542" lon="13.57629">
        <ele>763.084461</ele>
        <time>2026-07-13T06:58:54.000Z</time>
      </trkpt>
      <trkpt lat="46.50542" lon="13.5763">
        <ele>763.084461</ele>
        <time>2026-07-13T06:58:55.000Z</time>
      </trkpt>
      <trkpt lat="46.50545" lon="13.57604">
        <ele>763.084461</ele>
        <time>2026-07-13T07:02:31.000Z</time>
      </trkpt>
      <trkpt lat="46.50545" lon="13.57603">
        <ele>763.084461</ele>
        <time>2026-07-13T07:02:32.000Z</time>
      </trkpt>
      <trkpt lat="46.50542" lon="13.57605">
        <ele>763.084461</ele>
        <time>2026-07-13T07:04:09.000Z</time>
      </trkpt>
      <trkpt lat="46.50539" lon="13.57604">
        <ele>763.084461</ele>
        <time>2026-07-13T07:04:10.000Z</time>
      </trkpt>
      <trkpt lat="46.50529" lon="13.57605">
        <ele>763.084461</ele>
        <time>2026-07-13T07:04:14.000Z</time>
      </trkpt>
      <trkpt lat="46.50528" lon="13.57605">
        <ele>763.084461</ele>
        <time>2026-07-13T07:04:16.000Z</time>
      </trkpt>
      <trkpt lat="46.50523" lon="13.57596">
        <ele>763.084461</ele>
        <time>2026-07-13T07:04:28.000Z</time>
      </trkpt>
      <trkpt lat="46.50524" lon="13.57593">
        <ele>763.084461</ele>
        <time>2026-07-13T07:04:29.000Z</time>
      </trkpt>
      <trkpt lat="46.50523" lon="13.57569">
        <ele>763.084461</ele>
        <time>2026-07-13T07:04:35.000Z</time>
      </trkpt>
      <trkpt lat="46.50522" lon="13.57564">
        <ele>763.084461</ele>
        <time>2026-07-13T07:04:36.000Z</time>
      </trkpt>
      <trkpt lat="46.50521" lon="13.57522">
        <ele>762.88357</ele>
        <time>2026-07-13T07:04:44.000Z</time>
      </trkpt>
      <trkpt lat="46.50523" lon="13.57487">
        <ele>762.652</ele>
        <time>2026-07-13T07:04:50.000Z</time>
      </trkpt>
      <trkpt lat="46.50529" lon="13.57441">
        <ele>762.333776</ele>
        <time>2026-07-13T07:04:58.000Z</time>
      </trkpt>
      <trkpt lat="46.50535" lon="13.57419">
        <ele>762.171796</ele>
        <time>2026-07-13T07:05:02.000Z</time>
      </trkpt>
      <trkpt lat="46.5054" lon="13.57402">
        <ele>762.048383</ele>
        <time>2026-07-13T07:05:05.000Z</time>
      </trkpt>
      <trkpt lat="46.50546" lon="13.57387">
        <ele>761.931514</ele>
        <time>2026-07-13T07:05:08.000Z</time>
      </trkpt>
      <trkpt lat="46.50554" lon="13.57368">
        <ele>761.781513</ele>
        <time>2026-07-13T07:05:12.000Z</time>
      </trkpt>
      <trkpt lat="46.5056" lon="13.57364">
        <ele>761.719778</ele>
        <time>2026-07-13T07:05:14.000Z</time>
      </trkpt>
      <trkpt lat="46.50563" lon="13.57365">
        <ele>761.688927</ele>
        <time>2026-07-13T07:05:15.000Z</time>
      </trkpt>
      <trkpt lat="46.50565" lon="13.57368">
        <ele>761.664527</ele>
        <time>2026-07-13T07:05:16.000Z</time>
      </trkpt>
      <trkpt lat="46.50565" lon="13.57376">
        <ele>761.609864</ele>
        <time>2026-07-13T07:05:18.000Z</time>
      </trkpt>
      <trkpt lat="46.50569" lon="13.57402">
        <ele>761.425151</ele>
        <time>2026-07-13T07:05:24.000Z</time>
      </trkpt>
      <trkpt lat="46.50583" lon="13.57409">
        <ele>761.457639</ele>
        <time>2026-07-13T07:05:29.000Z</time>
      </trkpt>
      <trkpt lat="46.50586" lon="13.57409">
        <ele>761.537124</ele>
        <time>2026-07-13T07:05:30.000Z</time>
      </trkpt>
      <trkpt lat="46.50594" lon="13.57411">
        <ele>761.801349</ele>
        <time>2026-07-13T07:05:33.000Z</time>
      </trkpt>
      <trkpt lat="46.50606" lon="13.57406">
        <ele>762.212565</ele>
        <time>2026-07-13T07:05:38.000Z</time>
      </trkpt>
      <trkpt lat="46.50609" lon="13.57394">
        <ele>762.508934</ele>
        <time>2026-07-13T07:05:43.000Z</time>
      </trkpt>
      <trkpt lat="46.50609" lon="13.57392">
        <ele>762.555722</ele>
        <time>2026-07-13T07:05:44.000Z</time>
      </trkpt>
      <trkpt lat="46.5061" lon="13.57386">
        <ele>762.69489</ele>
        <time>2026-07-13T07:05:47.000Z</time>
      </trkpt>
      <trkpt lat="46.50611" lon="13.57385">
        <ele>762.734065</ele>
        <time>2026-07-13T07:05:48.000Z</time>
      </trkpt>
      <trkpt lat="46.50613" lon="13.57379">
        <ele>762.86791</ele>
        <time>2026-07-13T07:05:51.000Z</time>
      </trkpt>
      <trkpt lat="46.50613" lon="13.57374">
        <ele>762.97031</ele>
        <time>2026-07-13T07:05:53.000Z</time>
      </trkpt>
      <trkpt lat="46.50615" lon="13.57359">
        <ele>763.326388</ele>
        <time>2026-07-13T07:06:01.000Z</time>
      </trkpt>
      <trkpt lat="46.50615" lon="13.57355">
        <ele>763.411754</ele>
        <time>2026-07-13T07:06:03.000Z</time>
      </trkpt>
      <trkpt lat="46.50616" lon="13.57343">
        <ele>763.684161</ele>
        <time>2026-07-13T07:06:09.000Z</time>
      </trkpt>
      <trkpt lat="46.50616" lon="13.57326">
        <ele>764.054958</ele>
        <time>2026-07-13T07:06:18.000Z</time>
      </trkpt>
      <trkpt lat="46.50614" lon="13.57317">
        <ele>764.28137</ele>
        <time>2026-07-13T07:06:23.000Z</time>
      </trkpt>
      <trkpt lat="46.50615" lon="13.57311">
        <ele>764.403074</ele>
        <time>2026-07-13T07:06:26.000Z</time>
      </trkpt>
      <trkpt lat="46.50615" lon="13.57299">
        <ele>764.667547</ele>
        <time>2026-07-13T07:06:32.000Z</time>
      </trkpt>
      <trkpt lat="46.50615" lon="13.57286">
        <ele>764.960481</ele>
        <time>2026-07-13T07:06:39.000Z</time>
      </trkpt>
      <trkpt lat="46.50617" lon="13.57266">
        <ele>765.436483</ele>
        <time>2026-07-13T07:06:49.000Z</time>
      </trkpt>
      <trkpt lat="46.50619" lon="13.57262">
        <ele>765.545741</ele>
        <time>2026-07-13T07:06:51.000Z</time>
      </trkpt>
      <trkpt lat="46.50622" lon="13.57259">
        <ele>765.652725</ele>
        <time>2026-07-13T07:06:53.000Z</time>
      </trkpt>
      <trkpt lat="46.50627" lon="13.57256">
        <ele>765.824174</ele>
        <time>2026-07-13T07:06:56.000Z</time>
      </trkpt>
      <trkpt lat="46.50628" lon="13.57255">
        <ele>765.866526</ele>
        <time>2026-07-13T07:06:57.000Z</time>
      </trkpt>
      <trkpt lat="46.50628" lon="13.57254">
        <ele>765.883186</ele>
        <time>2026-07-13T07:06:59.000Z</time>
      </trkpt>
      <trkpt lat="46.50629" lon="13.57242">
        <ele>766.163653</ele>
        <time>2026-07-13T07:07:12.000Z</time>
      </trkpt>
      <trkpt lat="46.50636" lon="13.57228">
        <ele>766.537804</ele>
        <time>2026-07-13T07:07:16.000Z</time>
      </trkpt>
      <trkpt lat="46.50639" lon="13.57223">
        <ele>766.705557</ele>
        <time>2026-07-13T07:07:18.000Z</time>
      </trkpt>
      <trkpt lat="46.50638" lon="13.57221">
        <ele>766.76964</ele>
        <time>2026-07-13T07:07:19.000Z</time>
      </trkpt>
      <trkpt lat="46.50628" lon="13.57226">
        <ele>767.100392</ele>
        <time>2026-07-13T07:07:23.000Z</time>
      </trkpt>
      <trkpt lat="46.50625" lon="13.57228">
        <ele>767.178043</ele>
        <time>2026-07-13T07:07:25.000Z</time>
      </trkpt>
      <trkpt lat="46.50624" lon="13.57227">
        <ele>767.142544</ele>
        <time>2026-07-13T07:07:26.000Z</time>
      </trkpt>
      <trkpt lat="46.50624" lon="13.57226">
        <ele>767.120756</ele>
        <time>2026-07-13T07:07:28.000Z</time>
      </trkpt>
      <trkpt lat="46.50627" lon="13.57217">
        <ele>766.934078</ele>
        <time>2026-07-13T07:07:33.000Z</time>
      </trkpt>
      <trkpt lat="46.50627" lon="13.57213">
        <ele>766.848208</ele>
        <time>2026-07-13T07:07:34.000Z</time>
      </trkpt>
      <trkpt lat="46.50623" lon="13.57195">
        <ele>766.490817</ele>
        <time>2026-07-13T07:07:38.000Z</time>
      </trkpt>
      <trkpt lat="46.50621" lon="13.5718">
        <ele>766.199683</ele>
        <time>2026-07-13T07:07:42.000Z</time>
      </trkpt>
      <trkpt lat="46.50629" lon="13.5717">
        <ele>765.921975</ele>
        <time>2026-07-13T07:07:46.000Z</time>
      </trkpt>
      <trkpt lat="46.50636" lon="13.57165">
        <ele>765.710768</ele>
        <time>2026-07-13T07:07:50.000Z</time>
      </trkpt>
      <trkpt lat="46.50638" lon="13.57163">
        <ele>765.648291</ele>
        <time>2026-07-13T07:07:53.000Z</time>
      </trkpt>
      <trkpt lat="46.50632" lon="13.57171">
        <ele>765.433979</ele>
        <time>2026-07-13T07:08:03.000Z</time>
      </trkpt>
      <trkpt lat="46.50621" lon="13.57184">
        <ele>765.057619</ele>
        <time>2026-07-13T07:08:09.000Z</time>
      </trkpt>
      <trkpt lat="46.50609" lon="13.57199">
        <ele>764.615332</ele>
        <time>2026-07-13T07:08:16.000Z</time>
      </trkpt>
      <trkpt lat="46.50593" lon="13.57216">
        <ele>764.068235</ele>
        <time>2026-07-13T07:08:23.000Z</time>
      </trkpt>
      <trkpt lat="46.50576" lon="13.5724">
        <ele>763.427871</ele>
        <time>2026-07-13T07:08:30.000Z</time>
      </trkpt>
      <trkpt lat="46.50558" lon="13.57264">
        <ele>762.750787</ele>
        <time>2026-07-13T07:08:37.000Z</time>
      </trkpt>
      <trkpt lat="46.50547" lon="13.5728">
        <ele>762.33723</ele>
        <time>2026-07-13T07:08:41.000Z</time>
      </trkpt>
      <trkpt lat="46.50538" lon="13.57295">
        <ele>762.024591</ele>
        <time>2026-07-13T07:08:44.000Z</time>
      </trkpt>
      <trkpt lat="46.50535" lon="13.573">
        <ele>761.920931</ele>
        <time>2026-07-13T07:08:45.000Z</time>
      </trkpt>
      <trkpt lat="46.50528" lon="13.57311">
        <ele>761.714472</ele>
        <time>2026-07-13T07:08:47.000Z</time>
      </trkpt>
      <trkpt lat="46.50522" lon="13.57322">
        <ele>761.501741</ele>
        <time>2026-07-13T07:08:49.000Z</time>
      </trkpt>
      <trkpt lat="46.5052" lon="13.57329">
        <ele>761.391973</ele>
        <time>2026-07-13T07:08:50.000Z</time>
      </trkpt>
      <trkpt lat="46.50502" lon="13.57382">
        <ele>760.517693</ele>
        <time>2026-07-13T07:08:58.000Z</time>
      </trkpt>
      <trkpt lat="46.50494" lon="13.5742">
        <ele>759.931711</ele>
        <time>2026-07-13T07:09:03.000Z</time>
      </trkpt>
      <trkpt lat="46.50492" lon="13.57435">
        <ele>759.697502</ele>
        <time>2026-07-13T07:09:05.000Z</time>
      </trkpt>
      <trkpt lat="46.50489" lon="13.57468">
        <ele>759.211466</ele>
        <time>2026-07-13T07:09:09.000Z</time>
      </trkpt>
      <trkpt lat="46.50488" lon="13.57493">
        <ele>758.849377</ele>
        <time>2026-07-13T07:09:12.000Z</time>
      </trkpt>
      <trkpt lat="46.50481" lon="13.57553">
        <ele>758.034475</ele>
        <time>2026-07-13T07:09:19.000Z</time>
      </trkpt>
      <trkpt lat="46.50479" lon="13.57562">
        <ele>757.928102</ele>
        <time>2026-07-13T07:09:20.000Z</time>
      </trkpt>
      <trkpt lat="46.50471" lon="13.57643">
        <ele>756.953612</ele>
        <time>2026-07-13T07:09:29.000Z</time>
      </trkpt>
      <trkpt lat="46.50464" lon="13.57722">
        <ele>756.002073</ele>
        <time>2026-07-13T07:09:38.000Z</time>
      </trkpt>
      <trkpt lat="46.50458" lon="13.57783">
        <ele>755.23275</ele>
        <time>2026-07-13T07:09:45.000Z</time>
      </trkpt>
      <trkpt lat="46.50456" lon="13.57863">
        <ele>752.847119</ele>
        <time>2026-07-13T07:09:54.000Z</time>
      </trkpt>
      <trkpt lat="46.50456" lon="13.57871">
        <ele>752.589337</ele>
        <time>2026-07-13T07:09:55.000Z</time>
      </trkpt>
      <trkpt lat="46.50462" lon="13.57911">
        <ele>751.376271</ele>
        <time>2026-07-13T07:10:00.000Z</time>
      </trkpt>
      <trkpt lat="46.50469" lon="13.57948">
        <ele>750.233083</ele>
        <time>2026-07-13T07:10:05.000Z</time>
      </trkpt>
      <trkpt lat="46.50474" lon="13.5797">
        <ele>749.543281</ele>
        <time>2026-07-13T07:10:08.000Z</time>
      </trkpt>
      <trkpt lat="46.50478" lon="13.57995">
        <ele>748.76613</ele>
        <time>2026-07-13T07:10:12.000Z</time>
      </trkpt>
      <trkpt lat="46.50479" lon="13.58">
        <ele>748.622724</ele>
        <time>2026-07-13T07:10:13.000Z</time>
      </trkpt>
      <trkpt lat="46.50485" lon="13.58034">
        <ele>747.573103</ele>
        <time>2026-07-13T07:10:21.000Z</time>
      </trkpt>
      <trkpt lat="46.50486" lon="13.58047">
        <ele>747.356938</ele>
        <time>2026-07-13T07:10:24.000Z</time>
      </trkpt>
      <trkpt lat="46.50487" lon="13.58067">
        <ele>747.071621</ele>
        <time>2026-07-13T07:10:29.000Z</time>
      </trkpt>
      <trkpt lat="46.50487" lon="13.58074">
        <ele>746.961791</ele>
        <time>2026-07-13T07:10:31.000Z</time>
      </trkpt>
      <trkpt lat="46.50487" lon="13.58111">
        <ele>746.43432</ele>
        <time>2026-07-13T07:10:39.000Z</time>
      </trkpt>
      <trkpt lat="46.50484" lon="13.5814">
        <ele>746.007393</ele>
        <time>2026-07-13T07:10:46.000Z</time>
      </trkpt>
      <trkpt lat="46.5048" lon="13.58166">
        <ele>745.61956</ele>
        <time>2026-07-13T07:10:52.000Z</time>
      </trkpt>
      <trkpt lat="46.50479" lon="13.58169">
        <ele>745.56354</ele>
        <time>2026-07-13T07:10:53.000Z</time>
      </trkpt>
      <trkpt lat="46.50475" lon="13.58173">
        <ele>745.471802</ele>
        <time>2026-07-13T07:10:55.000Z</time>
      </trkpt>
      <trkpt lat="46.50469" lon="13.58173">
        <ele>745.339458</ele>
        <time>2026-07-13T07:10:58.000Z</time>
      </trkpt>
      <trkpt lat="46.50468" lon="13.58171">
        <ele>745.296589</ele>
        <time>2026-07-13T07:10:59.000Z</time>
      </trkpt>
      <trkpt lat="46.50469" lon="13.58151">
        <ele>745.001036</ele>
        <time>2026-07-13T07:11:04.000Z</time>
      </trkpt>
      <trkpt lat="46.5047" lon="13.58129">
        <ele>744.683377</ele>
        <time>2026-07-13T07:11:09.000Z</time>
      </trkpt>
      <trkpt lat="46.50473" lon="13.58117">
        <ele>744.499583</ele>
        <time>2026-07-13T07:11:12.000Z</time>
      </trkpt>
      <trkpt lat="46.50476" lon="13.58104">
        <ele>744.299344</ele>
        <time>2026-07-13T07:11:15.000Z</time>
      </trkpt>
      <trkpt lat="46.50477" lon="13.58092">
        <ele>744.1347</ele>
        <time>2026-07-13T07:11:17.000Z</time>
      </trkpt>
      <trkpt lat="46.50476" lon="13.58079">
        <ele>743.93968</ele>
        <time>2026-07-13T07:11:19.000Z</time>
      </trkpt>
      <trkpt lat="46.50474" lon="13.58065">
        <ele>743.736783</ele>
        <time>2026-07-13T07:11:21.000Z</time>
      </trkpt>
      <trkpt lat="46.50471" lon="13.58038">
        <ele>743.464846</ele>
        <time>2026-07-13T07:11:26.000Z</time>
      </trkpt>
      <trkpt lat="46.5047" lon="13.58027">
        <ele>743.36155</ele>
        <time>2026-07-13T07:11:30.000Z</time>
      </trkpt>
      <trkpt lat="46.5047" lon="13.58027">
        <ele>743.36155</ele>
        <time>2026-07-13T07:11:31.000Z</time>
      </trkpt>
      <trkpt lat="46.50467" lon="13.58025">
        <ele>743.314059</ele>
        <time>2026-07-13T07:11:41.000Z</time>
      </trkpt>
      <trkpt lat="46.50465" lon="13.58026">
        <ele>743.279453</ele>
        <time>2026-07-13T07:11:42.000Z</time>
      </trkpt>
      <trkpt lat="46.50454" lon="13.58029">
        <ele>743.116322</ele>
        <time>2026-07-13T07:11:47.000Z</time>
      </trkpt>
      <trkpt lat="46.50453" lon="13.58029">
        <ele>743.109889</ele>
        <time>2026-07-13T07:11:49.000Z</time>
      </trkpt>
      <trkpt lat="46.50448" lon="13.58032">
        <ele>743.026269</ele>
        <time>2026-07-13T07:12:01.000Z</time>
      </trkpt>
      <trkpt lat="46.50447" lon="13.58036">
        <ele>742.985143</ele>
        <time>2026-07-13T07:12:02.000Z</time>
      </trkpt>
      <trkpt lat="46.50443" lon="13.58063">
        <ele>742.717906</ele>
        <time>2026-07-13T07:12:08.000Z</time>
      </trkpt>
      <trkpt lat="46.50438" lon="13.5808">
        <ele>742.532716</ele>
        <time>2026-07-13T07:12:11.000Z</time>
      </trkpt>
      <trkpt lat="46.50435" lon="13.58095">
        <ele>742.380161</ele>
        <time>2026-07-13T07:12:13.000Z</time>
      </trkpt>
      <trkpt lat="46.50427" lon="13.58136">
        <ele>741.961311</ele>
        <time>2026-07-13T07:12:18.000Z</time>
      </trkpt>
      <trkpt lat="46.5042" lon="13.58171">
        <ele>741.59685</ele>
        <time>2026-07-13T07:12:22.000Z</time>
      </trkpt>
      <trkpt lat="46.50416" lon="13.582">
        <ele>741.307921</ele>
        <time>2026-07-13T07:12:25.000Z</time>
      </trkpt>
      <trkpt lat="46.50402" lon="13.58264">
        <ele>739.597402</ele>
        <time>2026-07-13T07:12:32.000Z</time>
      </trkpt>
      <trkpt lat="46.50394" lon="13.58303">
        <ele>738.369243</ele>
        <time>2026-07-13T07:12:37.000Z</time>
      </trkpt>
      <trkpt lat="46.5039" lon="13.58326">
        <ele>737.670486</ele>
        <time>2026-07-13T07:12:40.000Z</time>
      </trkpt>
      <trkpt lat="46.50388" lon="13.5835">
        <ele>736.947662</ele>
        <time>2026-07-13T07:12:43.000Z</time>
      </trkpt>
      <trkpt lat="46.50387" lon="13.58358">
        <ele>736.693032</ele>
        <time>2026-07-13T07:12:44.000Z</time>
      </trkpt>
      <trkpt lat="46.50385" lon="13.58396">
        <ele>735.552971</ele>
        <time>2026-07-13T07:12:48.000Z</time>
      </trkpt>
      <trkpt lat="46.50386" lon="13.58406">
        <ele>735.259148</ele>
        <time>2026-07-13T07:12:49.000Z</time>
      </trkpt>
      <trkpt lat="46.50385" lon="13.58434">
        <ele>734.417081</ele>
        <time>2026-07-13T07:12:52.000Z</time>
      </trkpt>
      <trkpt lat="46.50385" lon="13.58453">
        <ele>733.835858</ele>
        <time>2026-07-13T07:12:54.000Z</time>
      </trkpt>
      <trkpt lat="46.50389" lon="13.58472">
        <ele>733.23561</ele>
        <time>2026-07-13T07:12:56.000Z</time>
      </trkpt>
      <trkpt lat="46.50391" lon="13.5848">
        <ele>732.917221</ele>
        <time>2026-07-13T07:12:57.000Z</time>
      </trkpt>
      <trkpt lat="46.50397" lon="13.58494">
        <ele>732.315602</ele>
        <time>2026-07-13T07:12:59.000Z</time>
      </trkpt>
      <trkpt lat="46.50398" lon="13.585">
        <ele>732.092119</ele>
        <time>2026-07-13T07:13:00.000Z</time>
      </trkpt>
      <trkpt lat="46.50397" lon="13.58506">
        <ele>731.893736</ele>
        <time>2026-07-13T07:13:01.000Z</time>
      </trkpt>
      <trkpt lat="46.50393" lon="13.5851">
        <ele>731.612367</ele>
        <time>2026-07-13T07:13:03.000Z</time>
      </trkpt>
      <trkpt lat="46.50388" lon="13.58507">
        <ele>731.328806</ele>
        <time>2026-07-13T07:13:05.000Z</time>
      </trkpt>
      <trkpt lat="46.50386" lon="13.58505">
        <ele>731.177452</ele>
        <time>2026-07-13T07:13:06.000Z</time>
      </trkpt>
      <trkpt lat="46.50373" lon="13.58488">
        <ele>730.291718</ele>
        <time>2026-07-13T07:13:11.000Z</time>
      </trkpt>
      <trkpt lat="46.50363" lon="13.58475">
        <ele>729.567057</ele>
        <time>2026-07-13T07:13:15.000Z</time>
      </trkpt>
      <trkpt lat="46.50355" lon="13.58469">
        <ele>729.134458</ele>
        <time>2026-07-13T07:13:17.000Z</time>
      </trkpt>
      <trkpt lat="46.50345" lon="13.58466">
        <ele>728.565786</ele>
        <time>2026-07-13T07:13:19.000Z</time>
      </trkpt>
      <trkpt lat="46.50328" lon="13.58467">
        <ele>727.677118</ele>
        <time>2026-07-13T07:13:22.000Z</time>
      </trkpt>
      <trkpt lat="46.50319" lon="13.5847">
        <ele>727.231164</ele>
        <time>2026-07-13T07:13:24.000Z</time>
      </trkpt>
      <trkpt lat="46.50316" lon="13.58478">
        <ele>726.886506</ele>
        <time>2026-07-13T07:13:26.000Z</time>
      </trkpt>
      <trkpt lat="46.50317" lon="13.58484">
        <ele>726.666712</ele>
        <time>2026-07-13T07:13:27.000Z</time>
      </trkpt>
      <trkpt lat="46.50319" lon="13.58489">
        <ele>726.448692</ele>
        <time>2026-07-13T07:13:28.000Z</time>
      </trkpt>
      <trkpt lat="46.50324" lon="13.58517">
        <ele>725.407974</ele>
        <time>2026-07-13T07:13:32.000Z</time>
      </trkpt>
      <trkpt lat="46.50333" lon="13.58562">
        <ele>723.860006</ele>
        <time>2026-07-13T07:13:38.000Z</time>
      </trkpt>
      <trkpt lat="46.50335" lon="13.58569">
        <ele>723.758551</ele>
        <time>2026-07-13T07:13:39.000Z</time>
      </trkpt>
      <trkpt lat="46.50343" lon="13.58602">
        <ele>723.281303</ele>
        <time>2026-07-13T07:13:44.000Z</time>
      </trkpt>
      <trkpt lat="46.50346" lon="13.58608">
        <ele>723.191738</ele>
        <time>2026-07-13T07:13:45.000Z</time>
      </trkpt>
      <trkpt lat="46.50356" lon="13.58633">
        <ele>722.795137</ele>
        <time>2026-07-13T07:13:50.000Z</time>
      </trkpt>
      <trkpt lat="46.50376" lon="13.58656">
        <ele>722.29731</ele>
        <time>2026-07-13T07:13:57.000Z</time>
      </trkpt>
      <trkpt lat="46.50383" lon="13.58673">
        <ele>722.023679</ele>
        <time>2026-07-13T07:14:01.000Z</time>
      </trkpt>
      <trkpt lat="46.50389" lon="13.58687">
        <ele>721.796648</ele>
        <time>2026-07-13T07:14:05.000Z</time>
      </trkpt>
      <trkpt lat="46.50388" lon="13.58696">
        <ele>721.681516</ele>
        <time>2026-07-13T07:14:08.000Z</time>
      </trkpt>
      <trkpt lat="46.50384" lon="13.58701">
        <ele>721.573544</ele>
        <time>2026-07-13T07:14:10.000Z</time>
      </trkpt>
      <trkpt lat="46.50373" lon="13.58712">
        <ele>721.314154</ele>
        <time>2026-07-13T07:14:14.000Z</time>
      </trkpt>
      <trkpt lat="46.50363" lon="13.5873">
        <ele>720.990363</ele>
        <time>2026-07-13T07:14:20.000Z</time>
      </trkpt>
      <trkpt lat="46.50364" lon="13.58749">
        <ele>720.735708</ele>
        <time>2026-07-13T07:14:25.000Z</time>
      </trkpt>
      <trkpt lat="46.50367" lon="13.58771">
        <ele>720.429263</ele>
        <time>2026-07-13T07:14:31.000Z</time>
      </trkpt>
      <trkpt lat="46.50367" lon="13.58781">
        <ele>720.751275</ele>
        <time>2026-07-13T07:14:34.000Z</time>
      </trkpt>
      <trkpt lat="46.50365" lon="13.58784">
        <ele>720.935807</ele>
        <time>2026-07-13T07:14:35.000Z</time>
      </trkpt>
      <trkpt lat="46.50365" lon="13.58801">
        <ele>721.758795</ele>
        <time>2026-07-13T07:14:41.000Z</time>
      </trkpt>
      <trkpt lat="46.50367" lon="13.58817">
        <ele>722.572389</ele>
        <time>2026-07-13T07:14:47.000Z</time>
      </trkpt>
      <trkpt lat="46.50364" lon="13.58835">
        <ele>723.463157</ele>
        <time>2026-07-13T07:14:54.000Z</time>
      </trkpt>
      <trkpt lat="46.5036" lon="13.58847">
        <ele>724.073947</ele>
        <time>2026-07-13T07:14:58.000Z</time>
      </trkpt>
      <trkpt lat="46.50355" lon="13.58855">
        <ele>724.633671</ele>
        <time>2026-07-13T07:15:02.000Z</time>
      </trkpt>
      <trkpt lat="46.50342" lon="13.58871">
        <ele>725.843233</ele>
        <time>2026-07-13T07:15:09.000Z</time>
      </trkpt>
      <trkpt lat="46.50327" lon="13.58888">
        <ele>727.144348</ele>
        <time>2026-07-13T07:15:18.000Z</time>
      </trkpt>
      <trkpt lat="46.50312" lon="13.58908">
        <ele>728.568426</ele>
        <time>2026-07-13T07:15:29.000Z</time>
      </trkpt>
      <trkpt lat="46.50299" lon="13.58918">
        <ele>729.620751</ele>
        <time>2026-07-13T07:15:37.000Z</time>
      </trkpt>
      <trkpt lat="46.50299" lon="13.58918">
        <ele>729.620751</ele>
        <time>2026-07-13T07:15:39.000Z</time>
      </trkpt>
      <trkpt lat="46.50296" lon="13.58922">
        <ele>729.899167</ele>
        <time>2026-07-13T07:16:42.000Z</time>
      </trkpt>
      <trkpt lat="46.50295" lon="13.58923">
        <ele>730.018882</ele>
        <time>2026-07-13T07:16:43.000Z</time>
      </trkpt>
      <trkpt lat="46.50282" lon="13.58923">
        <ele>730.945907</ele>
        <time>2026-07-13T07:16:50.000Z</time>
      </trkpt>
      <trkpt lat="46.50275" lon="13.58921">
        <ele>731.432982</ele>
        <time>2026-07-13T07:16:53.000Z</time>
      </trkpt>
      <trkpt lat="46.50274" lon="13.58917">
        <ele>731.647182</ele>
        <time>2026-07-13T07:16:54.000Z</time>
      </trkpt>
      <trkpt lat="46.50272" lon="13.58915">
        <ele>731.81678</ele>
        <time>2026-07-13T07:16:55.000Z</time>
      </trkpt>
      <trkpt lat="46.50268" lon="13.58911">
        <ele>732.170358</ele>
        <time>2026-07-13T07:16:57.000Z</time>
      </trkpt>
      <trkpt lat="46.50246" lon="13.58897">
        <ele>733.434432</ele>
        <time>2026-07-13T07:17:06.000Z</time>
      </trkpt>
      <trkpt lat="46.50228" lon="13.58882">
        <ele>734.044655</ele>
        <time>2026-07-13T07:17:13.000Z</time>
      </trkpt>
      <trkpt lat="46.50223" lon="13.58877">
        <ele>734.232526</ele>
        <time>2026-07-13T07:17:15.000Z</time>
      </trkpt>
      <trkpt lat="46.50203" lon="13.58859">
        <ele>734.928905</ele>
        <time>2026-07-13T07:17:22.000Z</time>
      </trkpt>
      <trkpt lat="46.50179" lon="13.58849">
        <ele>735.671189</ele>
        <time>2026-07-13T07:17:29.000Z</time>
      </trkpt>
      <trkpt lat="46.5016" lon="13.5884">
        <ele>736.275873</ele>
        <time>2026-07-13T07:17:35.000Z</time>
      </trkpt>
      <trkpt lat="46.50145" lon="13.58833">
        <ele>736.748917</ele>
        <time>2026-07-13T07:17:40.000Z</time>
      </trkpt>
      <trkpt lat="46.50136" lon="13.5883">
        <ele>737.028347</ele>
        <time>2026-07-13T07:17:43.000Z</time>
      </trkpt>
      <trkpt lat="46.5013" lon="13.58827">
        <ele>737.199738</ele>
        <time>2026-07-13T07:17:45.000Z</time>
      </trkpt>
      <trkpt lat="46.50112" lon="13.58825">
        <ele>737.744466</ele>
        <time>2026-07-13T07:17:52.000Z</time>
      </trkpt>
      <trkpt lat="46.50091" lon="13.58822">
        <ele>738.380581</ele>
        <time>2026-07-13T07:18:01.000Z</time>
      </trkpt>
      <trkpt lat="46.50078" lon="13.58824">
        <ele>738.715448</ele>
        <time>2026-07-13T07:18:08.000Z</time>
      </trkpt>
      <trkpt lat="46.50067" lon="13.58826">
        <ele>738.961461</ele>
        <time>2026-07-13T07:18:15.000Z</time>
      </trkpt>
      <trkpt lat="46.50067" lon="13.58826">
        <ele>738.973097</ele>
        <time>2026-07-13T07:18:16.000Z</time>
      </trkpt>
      <trkpt lat="46.5006" lon="13.58825">
        <ele>739.144572</ele>
        <time>2026-07-13T07:18:26.000Z</time>
      </trkpt>
      <trkpt lat="46.50054" lon="13.58825">
        <ele>739.286032</ele>
        <time>2026-07-13T07:18:29.000Z</time>
      </trkpt>
      <trkpt lat="46.50044" lon="13.58827">
        <ele>739.520146</ele>
        <time>2026-07-13T07:18:33.000Z</time>
      </trkpt>
      <trkpt lat="46.50036" lon="13.58826">
        <ele>739.731068</ele>
        <time>2026-07-13T07:18:36.000Z</time>
      </trkpt>
      <trkpt lat="46.50003" lon="13.58832">
        <ele>740.527375</ele>
        <time>2026-07-13T07:18:48.000Z</time>
      </trkpt>
      <trkpt lat="46.49989" lon="13.58833">
        <ele>740.849177</ele>
        <time>2026-07-13T07:18:53.000Z</time>
      </trkpt>
      <trkpt lat="46.49983" lon="13.58834">
        <ele>740.990792</ele>
        <time>2026-07-13T07:18:55.000Z</time>
      </trkpt>
      <trkpt lat="46.49962" lon="13.58836">
        <ele>741.49468</ele>
        <time>2026-07-13T07:19:04.000Z</time>
      </trkpt>
      <trkpt lat="46.49943" lon="13.58839">
        <ele>741.970446</ele>
        <time>2026-07-13T07:19:13.000Z</time>
      </trkpt>
      <trkpt lat="46.49925" lon="13.58842">
        <ele>742.387197</ele>
        <time>2026-07-13T07:19:20.000Z</time>
      </trkpt>
      <trkpt lat="46.4992" lon="13.58842">
        <ele>742.509446</ele>
        <time>2026-07-13T07:19:22.000Z</time>
      </trkpt>
      <trkpt lat="46.49892" lon="13.58844">
        <ele>742.701826</ele>
        <time>2026-07-13T07:19:33.000Z</time>
      </trkpt>
      <trkpt lat="46.49867" lon="13.58849">
        <ele>742.544034</ele>
        <time>2026-07-13T07:19:42.000Z</time>
      </trkpt>
      <trkpt lat="46.49846" lon="13.58851">
        <ele>742.409805</ele>
        <time>2026-07-13T07:19:49.000Z</time>
      </trkpt>
      <trkpt lat="46.49817" lon="13.58854">
        <ele>742.224457</ele>
        <time>2026-07-13T07:19:59.000Z</time>
      </trkpt>
      <trkpt lat="46.49785" lon="13.58858">
        <ele>742.02451</ele>
        <time>2026-07-13T07:20:09.000Z</time>
      </trkpt>
      <trkpt lat="46.49775" lon="13.58857">
        <ele>741.960751</ele>
        <time>2026-07-13T07:20:12.000Z</time>
      </trkpt>
      <trkpt lat="46.49755" lon="13.58855">
        <ele>741.83169</ele>
        <time>2026-07-13T07:20:18.000Z</time>
      </trkpt>
      <trkpt lat="46.49752" lon="13.58855">
        <ele>741.816492</ele>
        <time>2026-07-13T07:20:19.000Z</time>
      </trkpt>
      <trkpt lat="46.49716" lon="13.58849">
        <ele>741.712279</ele>
        <time>2026-07-13T07:20:31.000Z</time>
      </trkpt>
      <trkpt lat="46.49685" lon="13.58842">
        <ele>741.820071</ele>
        <time>2026-07-13T07:20:41.000Z</time>
      </trkpt>
      <trkpt lat="46.49671" lon="13.5884">
        <ele>741.871502</ele>
        <time>2026-07-13T07:20:47.000Z</time>
      </trkpt>
      <trkpt lat="46.49666" lon="13.58839">
        <ele>741.888671</ele>
        <time>2026-07-13T07:20:49.000Z</time>
      </trkpt>
      <trkpt lat="46.49662" lon="13.58836">
        <ele>741.902252</ele>
        <time>2026-07-13T07:20:51.000Z</time>
      </trkpt>
      <trkpt lat="46.49657" lon="13.58836">
        <ele>741.919328</ele>
        <time>2026-07-13T07:20:53.000Z</time>
      </trkpt>
      <trkpt lat="46.49638" lon="13.58831">
        <ele>741.986822</ele>
        <time>2026-07-13T07:20:59.000Z</time>
      </trkpt>
      <trkpt lat="46.49607" lon="13.58822">
        <ele>742.096407</ele>
        <time>2026-07-13T07:21:09.000Z</time>
      </trkpt>
      <trkpt lat="46.49583" lon="13.58806">
        <ele>742.188473</ele>
        <time>2026-07-13T07:21:18.000Z</time>
      </trkpt>
      <trkpt lat="46.4956" lon="13.5878">
        <ele>742.291453</ele>
        <time>2026-07-13T07:21:28.000Z</time>
      </trkpt>
      <trkpt lat="46.49541" lon="13.58751">
        <ele>743.17059</ele>
        <time>2026-07-13T07:21:37.000Z</time>
      </trkpt>
      <trkpt lat="46.49525" lon="13.58715">
        <ele>744.127333</ele>
        <time>2026-07-13T07:21:46.000Z</time>
      </trkpt>
      <trkpt lat="46.49514" lon="13.58685">
        <ele>744.890867</ele>
        <time>2026-07-13T07:21:55.000Z</time>
      </trkpt>
      <trkpt lat="46.49504" lon="13.58658">
        <ele>745.57939</ele>
        <time>2026-07-13T07:22:03.000Z</time>
      </trkpt>
      <trkpt lat="46.49494" lon="13.58637">
        <ele>746.163544</ele>
        <time>2026-07-13T07:22:10.000Z</time>
      </trkpt>
      <trkpt lat="46.49476" lon="13.58613">
        <ele>746.940481</ele>
        <time>2026-07-13T07:22:19.000Z</time>
      </trkpt>
      <trkpt lat="46.4946" lon="13.586">
        <ele>747.562445</ele>
        <time>2026-07-13T07:22:26.000Z</time>
      </trkpt>
      <trkpt lat="46.49442" lon="13.58593">
        <ele>748.165691</ele>
        <time>2026-07-13T07:22:33.000Z</time>
      </trkpt>
      <trkpt lat="46.49425" lon="13.58593">
        <ele>748.900171</ele>
        <time>2026-07-13T07:22:40.000Z</time>
      </trkpt>
      <trkpt lat="46.49409" lon="13.58589">
        <ele>749.594865</ele>
        <time>2026-07-13T07:22:47.000Z</time>
      </trkpt>
      <trkpt lat="46.49389" lon="13.58594">
        <ele>750.440782</ele>
        <time>2026-07-13T07:22:55.000Z</time>
      </trkpt>
      <trkpt lat="46.49365" lon="13.58603">
        <ele>751.491303</ele>
        <time>2026-07-13T07:23:04.000Z</time>
      </trkpt>
      <trkpt lat="46.49342" lon="13.5862">
        <ele>752.601881</ele>
        <time>2026-07-13T07:23:12.000Z</time>
      </trkpt>
      <trkpt lat="46.49324" lon="13.58641">
        <ele>753.596414</ele>
        <time>2026-07-13T07:23:20.000Z</time>
      </trkpt>
      <trkpt lat="46.49306" lon="13.58652">
        <ele>754.419514</ele>
        <time>2026-07-13T07:23:27.000Z</time>
      </trkpt>
      <trkpt lat="46.49286" lon="13.58653">
        <ele>755.291068</ele>
        <time>2026-07-13T07:23:34.000Z</time>
      </trkpt>
      <trkpt lat="46.49283" lon="13.58653">
        <ele>755.406678</ele>
        <time>2026-07-13T07:23:35.000Z</time>
      </trkpt>
      <trkpt lat="46.49253" lon="13.58657">
        <ele>756.013123</ele>
        <time>2026-07-13T07:23:45.000Z</time>
      </trkpt>
      <trkpt lat="46.49224" lon="13.5866">
        <ele>756.274521</ele>
        <time>2026-07-13T07:23:55.000Z</time>
      </trkpt>
      <trkpt lat="46.492" lon="13.58662">
        <ele>756.492499</ele>
        <time>2026-07-13T07:24:04.000Z</time>
      </trkpt>
      <trkpt lat="46.49171" lon="13.58666">
        <ele>756.749377</ele>
        <time>2026-07-13T07:24:13.000Z</time>
      </trkpt>
      <trkpt lat="46.49148" lon="13.58671">
        <ele>756.955698</ele>
        <time>2026-07-13T07:24:19.000Z</time>
      </trkpt>
      <trkpt lat="46.49123" lon="13.58678">
        <ele>757.181433</ele>
        <time>2026-07-13T07:24:25.000Z</time>
      </trkpt>
      <trkpt lat="46.491" lon="13.58684">
        <ele>757.394233</ele>
        <time>2026-07-13T07:24:30.000Z</time>
      </trkpt>
      <trkpt lat="46.49088" lon="13.58688">
        <ele>757.261365</ele>
        <time>2026-07-13T07:24:32.000Z</time>
      </trkpt>
      <trkpt lat="46.49064" lon="13.58692">
        <ele>756.619683</ele>
        <time>2026-07-13T07:24:36.000Z</time>
      </trkpt>
      <trkpt lat="46.49057" lon="13.58692">
        <ele>756.43698</ele>
        <time>2026-07-13T07:24:37.000Z</time>
      </trkpt>
      <trkpt lat="46.49017" lon="13.5868">
        <ele>755.370661</ele>
        <time>2026-07-13T07:24:43.000Z</time>
      </trkpt>
      <trkpt lat="46.48991" lon="13.58657">
        <ele>754.578838</ele>
        <time>2026-07-13T07:24:48.000Z</time>
      </trkpt>
      <trkpt lat="46.48986" lon="13.58652">
        <ele>754.434189</ele>
        <time>2026-07-13T07:24:49.000Z</time>
      </trkpt>
      <trkpt lat="46.48974" lon="13.58634">
        <ele>753.962927</ele>
        <time>2026-07-13T07:24:53.000Z</time>
      </trkpt>
      <trkpt lat="46.48952" lon="13.58598">
        <ele>753.108882</ele>
        <time>2026-07-13T07:25:01.000Z</time>
      </trkpt>
      <trkpt lat="46.48924" lon="13.58564">
        <ele>751.995047</ele>
        <time>2026-07-13T07:25:10.000Z</time>
      </trkpt>
      <trkpt lat="46.4892" lon="13.58561">
        <ele>751.863151</ele>
        <time>2026-07-13T07:25:11.000Z</time>
      </trkpt>
      <trkpt lat="46.48911" lon="13.58545">
        <ele>751.400379</ele>
        <time>2026-07-13T07:25:15.000Z</time>
      </trkpt>
      <trkpt lat="46.48897" lon="13.58516">
        <ele>750.578415</ele>
        <time>2026-07-13T07:25:20.000Z</time>
      </trkpt>
      <trkpt lat="46.48878" lon="13.58474">
        <ele>749.455966</ele>
        <time>2026-07-13T07:25:26.000Z</time>
      </trkpt>
      <trkpt lat="46.48852" lon="13.5842">
        <ele>747.958353</ele>
        <time>2026-07-13T07:25:34.000Z</time>
      </trkpt>
      <trkpt lat="46.48848" lon="13.58415">
        <ele>747.790789</ele>
        <time>2026-07-13T07:25:35.000Z</time>
      </trkpt>
      <trkpt lat="46.48841" lon="13.58406">
        <ele>747.481472</ele>
        <time>2026-07-13T07:25:37.000Z</time>
      </trkpt>
      <trkpt lat="46.48838" lon="13.58403">
        <ele>747.347661</ele>
        <time>2026-07-13T07:25:38.000Z</time>
      </trkpt>
      <trkpt lat="46.48834" lon="13.58401">
        <ele>747.216023</ele>
        <time>2026-07-13T07:25:39.000Z</time>
      </trkpt>
      <trkpt lat="46.48818" lon="13.58397">
        <ele>746.982176</ele>
        <time>2026-07-13T07:25:43.000Z</time>
      </trkpt>
      <trkpt lat="46.488" lon="13.58392">
        <ele>747.593997</ele>
        <time>2026-07-13T07:25:47.000Z</time>
      </trkpt>
      <trkpt lat="46.48792" lon="13.58386">
        <ele>747.912067</ele>
        <time>2026-07-13T07:25:49.000Z</time>
      </trkpt>
      <trkpt lat="46.48759" lon="13.58357">
        <ele>749.24044</ele>
        <time>2026-07-13T07:25:57.000Z</time>
      </trkpt>
      <trkpt lat="46.48732" lon="13.58336">
        <ele>750.299366</ele>
        <time>2026-07-13T07:26:05.000Z</time>
      </trkpt>
      <trkpt lat="46.4872" lon="13.58323">
        <ele>750.814627</ele>
        <time>2026-07-13T07:26:10.000Z</time>
      </trkpt>
      <trkpt lat="46.48712" lon="13.58316">
        <ele>751.115365</ele>
        <time>2026-07-13T07:26:13.000Z</time>
      </trkpt>
      <trkpt lat="46.48701" lon="13.58293">
        <ele>751.783016</ele>
        <time>2026-07-13T07:26:20.000Z</time>
      </trkpt>
      <trkpt lat="46.48693" lon="13.58261">
        <ele>752.599753</ele>
        <time>2026-07-13T07:26:29.000Z</time>
      </trkpt>
      <trkpt lat="46.48686" lon="13.58232">
        <ele>753.652291</ele>
        <time>2026-07-13T07:26:36.000Z</time>
      </trkpt>
      <trkpt lat="46.48674" lon="13.58198">
        <ele>755.55062</ele>
        <time>2026-07-13T07:26:45.000Z</time>
      </trkpt>
      <trkpt lat="46.48651" lon="13.58173">
        <ele>757.621748</ele>
        <time>2026-07-13T07:26:54.000Z</time>
      </trkpt>
      <trkpt lat="46.48625" lon="13.5814">
        <ele>760.142213</ele>
        <time>2026-07-13T07:27:06.000Z</time>
      </trkpt>
      <trkpt lat="46.48602" lon="13.5811">
        <ele>762.392811</ele>
        <time>2026-07-13T07:27:16.000Z</time>
      </trkpt>
      <trkpt lat="46.48582" lon="13.58094">
        <ele>764.067608</ele>
        <time>2026-07-13T07:27:23.000Z</time>
      </trkpt>
      <trkpt lat="46.48556" lon="13.58068">
        <ele>766.128946</ele>
        <time>2026-07-13T07:27:32.000Z</time>
      </trkpt>
      <trkpt lat="46.48538" lon="13.58036">
        <ele>766.671437</ele>
        <time>2026-07-13T07:27:41.000Z</time>
      </trkpt>
      <trkpt lat="46.48517" lon="13.58015">
        <ele>767.160281</ele>
        <time>2026-07-13T07:27:49.000Z</time>
      </trkpt>
      <trkpt lat="46.48492" lon="13.57997">
        <ele>767.708947</ele>
        <time>2026-07-13T07:27:57.000Z</time>
      </trkpt>
      <trkpt lat="46.48471" lon="13.57986">
        <ele>768.128605</ele>
        <time>2026-07-13T07:28:03.000Z</time>
      </trkpt>
      <trkpt lat="46.4844" lon="13.57971">
        <ele>768.764397</ele>
        <time>2026-07-13T07:28:13.000Z</time>
      </trkpt>
      <trkpt lat="46.48415" lon="13.57963">
        <ele>769.255688</ele>
        <time>2026-07-13T07:28:21.000Z</time>
      </trkpt>
      <trkpt lat="46.48385" lon="13.57947">
        <ele>769.6376</ele>
        <time>2026-07-13T07:28:32.000Z</time>
      </trkpt>
      <trkpt lat="46.48362" lon="13.57929">
        <ele>769.796046</ele>
        <time>2026-07-13T07:28:41.000Z</time>
      </trkpt>
      <trkpt lat="46.48338" lon="13.579">
        <ele>769.978451</ele>
        <time>2026-07-13T07:28:51.000Z</time>
      </trkpt>
      <trkpt lat="46.48309" lon="13.57857">
        <ele>770.227638</ele>
        <time>2026-07-13T07:29:04.000Z</time>
      </trkpt>
      <trkpt lat="46.4828" lon="13.57825">
        <ele>770.446627</ele>
        <time>2026-07-13T07:29:15.000Z</time>
      </trkpt>
      <trkpt lat="46.48263" lon="13.57811">
        <ele>770.563072</ele>
        <time>2026-07-13T07:29:21.000Z</time>
      </trkpt>
      <trkpt lat="46.48248" lon="13.57801">
        <ele>770.986174</ele>
        <time>2026-07-13T07:29:26.000Z</time>
      </trkpt>
      <trkpt lat="46.48215" lon="13.5778">
        <ele>772.418406</ele>
        <time>2026-07-13T07:29:37.000Z</time>
      </trkpt>
      <trkpt lat="46.48192" lon="13.57759">
        <ele>773.536037</ele>
        <time>2026-07-13T07:29:45.000Z</time>
      </trkpt>
      <trkpt lat="46.48174" lon="13.57739">
        <ele>774.421907</ele>
        <time>2026-07-13T07:29:52.000Z</time>
      </trkpt>
      <trkpt lat="46.48155" lon="13.57718">
        <ele>775.379501</ele>
        <time>2026-07-13T07:30:01.000Z</time>
      </trkpt>
      <trkpt lat="46.48136" lon="13.57692">
        <ele>776.429797</ele>
        <time>2026-07-13T07:30:11.000Z</time>
      </trkpt>
      <trkpt lat="46.4812" lon="13.57659">
        <ele>777.545161</ele>
        <time>2026-07-13T07:30:22.000Z</time>
      </trkpt>
      <trkpt lat="46.48111" lon="13.57628">
        <ele>778.860594</ele>
        <time>2026-07-13T07:30:31.000Z</time>
      </trkpt>
      <trkpt lat="46.48105" lon="13.57598">
        <ele>780.189211</ele>
        <time>2026-07-13T07:30:39.000Z</time>
      </trkpt>
      <trkpt lat="46.48099" lon="13.57568">
        <ele>781.568819</ele>
        <time>2026-07-13T07:30:48.000Z</time>
      </trkpt>
      <trkpt lat="46.48089" lon="13.57534">
        <ele>783.144269</ele>
        <time>2026-07-13T07:30:57.000Z</time>
      </trkpt>
      <trkpt lat="46.48081" lon="13.5751">
        <ele>784.315586</ele>
        <time>2026-07-13T07:31:04.000Z</time>
      </trkpt>
      <trkpt lat="46.48079" lon="13.57502">
        <ele>784.693297</ele>
        <time>2026-07-13T07:31:06.000Z</time>
      </trkpt>
      <trkpt lat="46.48075" lon="13.57495">
        <ele>785.060551</ele>
        <time>2026-07-13T07:31:08.000Z</time>
      </trkpt>
      <trkpt lat="46.48065" lon="13.57478">
        <ele>786.043645</ele>
        <time>2026-07-13T07:31:13.000Z</time>
      </trkpt>
      <trkpt lat="46.48037" lon="13.57456">
        <ele>788.045487</ele>
        <time>2026-07-13T07:31:22.000Z</time>
      </trkpt>
      <trkpt lat="46.48006" lon="13.57445">
        <ele>788.750483</ele>
        <time>2026-07-13T07:31:29.000Z</time>
      </trkpt>
      <trkpt lat="46.48001" lon="13.57444">
        <ele>788.637721</ele>
        <time>2026-07-13T07:31:30.000Z</time>
      </trkpt>
      <trkpt lat="46.47976" lon="13.57449">
        <ele>788.038673</ele>
        <time>2026-07-13T07:31:35.000Z</time>
      </trkpt>
      <trkpt lat="46.47956" lon="13.57455">
        <ele>787.541463</ele>
        <time>2026-07-13T07:31:39.000Z</time>
      </trkpt>
      <trkpt lat="46.47946" lon="13.57458">
        <ele>787.291684</ele>
        <time>2026-07-13T07:31:41.000Z</time>
      </trkpt>
      <trkpt lat="46.47901" lon="13.57476">
        <ele>786.181164</ele>
        <time>2026-07-13T07:31:50.000Z</time>
      </trkpt>
      <trkpt lat="46.47876" lon="13.57484">
        <ele>785.579266</ele>
        <time>2026-07-13T07:31:55.000Z</time>
      </trkpt>
      <trkpt lat="46.47867" lon="13.57483">
        <ele>785.363446</ele>
        <time>2026-07-13T07:31:57.000Z</time>
      </trkpt>
      <trkpt lat="46.47857" lon="13.57481">
        <ele>785.105779</ele>
        <time>2026-07-13T07:31:59.000Z</time>
      </trkpt>
      <trkpt lat="46.47839" lon="13.57469">
        <ele>785.048257</ele>
        <time>2026-07-13T07:32:03.000Z</time>
      </trkpt>
      <trkpt lat="46.47816" lon="13.57449">
        <ele>786.117526</ele>
        <time>2026-07-13T07:32:10.000Z</time>
      </trkpt>
      <trkpt lat="46.47792" lon="13.5743">
        <ele>787.17681</ele>
        <time>2026-07-13T07:32:18.000Z</time>
      </trkpt>
      <trkpt lat="46.4778" lon="13.57415">
        <ele>787.769375</ele>
        <time>2026-07-13T07:32:23.000Z</time>
      </trkpt>
      <trkpt lat="46.4776" lon="13.57393">
        <ele>788.736419</ele>
        <time>2026-07-13T07:32:32.000Z</time>
      </trkpt>
      <trkpt lat="46.47744" lon="13.57374">
        <ele>789.54817</ele>
        <time>2026-07-13T07:32:39.000Z</time>
      </trkpt>
      <trkpt lat="46.4772" lon="13.57343">
        <ele>790.793504</ele>
        <time>2026-07-13T07:32:50.000Z</time>
      </trkpt>
      <trkpt lat="46.47699" lon="13.57321">
        <ele>791.786226</ele>
        <time>2026-07-13T07:32:58.000Z</time>
      </trkpt>
      <trkpt lat="46.47678" lon="13.57303">
        <ele>792.551307</ele>
        <time>2026-07-13T07:33:05.000Z</time>
      </trkpt>
      <trkpt lat="46.47663" lon="13.57293">
        <ele>793.067055</ele>
        <time>2026-07-13T07:33:10.000Z</time>
      </trkpt>
      <trkpt lat="46.47643" lon="13.5728">
        <ele>793.729791</ele>
        <time>2026-07-13T07:33:16.000Z</time>
      </trkpt>
      <trkpt lat="46.47622" lon="13.57266">
        <ele>794.462525</ele>
        <time>2026-07-13T07:33:23.000Z</time>
      </trkpt>
      <trkpt lat="46.47596" lon="13.57254">
        <ele>795.310179</ele>
        <time>2026-07-13T07:33:32.000Z</time>
      </trkpt>
      <trkpt lat="46.47576" lon="13.57248">
        <ele>795.928998</ele>
        <time>2026-07-13T07:33:39.000Z</time>
      </trkpt>
      <trkpt lat="46.47573" lon="13.57248">
        <ele>796.012786</ele>
        <time>2026-07-13T07:33:40.000Z</time>
      </trkpt>
      <trkpt lat="46.47546" lon="13.57248">
        <ele>796.865911</ele>
        <time>2026-07-13T07:33:50.000Z</time>
      </trkpt>
      <trkpt lat="46.47523" lon="13.57247">
        <ele>797.395449</ele>
        <time>2026-07-13T07:33:58.000Z</time>
      </trkpt>
      <trkpt lat="46.47502" lon="13.57249">
        <ele>797.548524</ele>
        <time>2026-07-13T07:34:06.000Z</time>
      </trkpt>
      <trkpt lat="46.47477" lon="13.57249">
        <ele>797.720544</ele>
        <time>2026-07-13T07:34:15.000Z</time>
      </trkpt>
      <trkpt lat="46.47453" lon="13.57251">
        <ele>797.894103</ele>
        <time>2026-07-13T07:34:24.000Z</time>
      </trkpt>
      <trkpt lat="46.47431" lon="13.57251">
        <ele>798.04707</ele>
        <time>2026-07-13T07:34:32.000Z</time>
      </trkpt>
      <trkpt lat="46.47411" lon="13.57256">
        <ele>798.189955</ele>
        <time>2026-07-13T07:34:40.000Z</time>
      </trkpt>
      <trkpt lat="46.47393" lon="13.57263">
        <ele>798.322372</ele>
        <time>2026-07-13T07:34:47.000Z</time>
      </trkpt>
      <trkpt lat="46.47374" lon="13.57274">
        <ele>798.462743</ele>
        <time>2026-07-13T07:34:54.000Z</time>
      </trkpt>
      <trkpt lat="46.47359" lon="13.57279">
        <ele>798.571229</ele>
        <time>2026-07-13T07:35:00.000Z</time>
      </trkpt>
      <trkpt lat="46.47339" lon="13.57285">
        <ele>798.839598</ele>
        <time>2026-07-13T07:35:08.000Z</time>
      </trkpt>
      <trkpt lat="46.47313" lon="13.57287">
        <ele>799.235483</ele>
        <time>2026-07-13T07:35:18.000Z</time>
      </trkpt>
      <trkpt lat="46.47297" lon="13.57288">
        <ele>799.469643</ele>
        <time>2026-07-13T07:35:24.000Z</time>
      </trkpt>
      <trkpt lat="46.47277" lon="13.57281">
        <ele>799.776533</ele>
        <time>2026-07-13T07:35:31.000Z</time>
      </trkpt>
      <trkpt lat="46.47257" lon="13.57265">
        <ele>800.12372</ele>
        <time>2026-07-13T07:35:39.000Z</time>
      </trkpt>
      <trkpt lat="46.47235" lon="13.57236">
        <ele>800.582313</ele>
        <time>2026-07-13T07:35:50.000Z</time>
      </trkpt>
      <trkpt lat="46.47221" lon="13.57209">
        <ele>800.928611</ele>
        <time>2026-07-13T07:35:58.000Z</time>
      </trkpt>
      <trkpt lat="46.47206" lon="13.57184">
        <ele>801.276088</ele>
        <time>2026-07-13T07:36:06.000Z</time>
      </trkpt>
      <trkpt lat="46.47188" lon="13.57152">
        <ele>803.073655</ele>
        <time>2026-07-13T07:36:16.000Z</time>
      </trkpt>
      <trkpt lat="46.47174" lon="13.57129">
        <ele>804.568261</ele>
        <time>2026-07-13T07:36:24.000Z</time>
      </trkpt>
      <trkpt lat="46.47154" lon="13.57101">
        <ele>806.539234</ele>
        <time>2026-07-13T07:36:34.000Z</time>
      </trkpt>
      <trkpt lat="46.47135" lon="13.57076">
        <ele>808.367078</ele>
        <time>2026-07-13T07:36:44.000Z</time>
      </trkpt>
      <trkpt lat="46.47118" lon="13.57054">
        <ele>809.977057</ele>
        <time>2026-07-13T07:36:53.000Z</time>
      </trkpt>
      <trkpt lat="46.47105" lon="13.57039">
        <ele>811.158575</ele>
        <time>2026-07-13T07:37:00.000Z</time>
      </trkpt>
      <trkpt lat="46.47087" lon="13.57017">
        <ele>812.780221</ele>
        <time>2026-07-13T07:37:09.000Z</time>
      </trkpt>
      <trkpt lat="46.47073" lon="13.57013">
        <ele>813.802866</ele>
        <time>2026-07-13T07:37:14.000Z</time>
      </trkpt>
      <trkpt lat="46.47058" lon="13.57028">
        <ele>814.989711</ele>
        <time>2026-07-13T07:37:20.000Z</time>
      </trkpt>
      <trkpt lat="46.47041" lon="13.57053">
        <ele>816.496113</ele>
        <time>2026-07-13T07:37:28.000Z</time>
      </trkpt>
      <trkpt lat="46.47043" lon="13.57074">
        <ele>817.401879</ele>
        <time>2026-07-13T07:37:33.000Z</time>
      </trkpt>
      <trkpt lat="46.47046" lon="13.57093">
        <ele>818.291642</ele>
        <time>2026-07-13T07:37:39.000Z</time>
      </trkpt>
      <trkpt lat="46.47046" lon="13.57117">
        <ele>819.330149</ele>
        <time>2026-07-13T07:37:47.000Z</time>
      </trkpt>
      <trkpt lat="46.47046" lon="13.57143">
        <ele>820.438385</ele>
        <time>2026-07-13T07:37:56.000Z</time>
      </trkpt>
      <trkpt lat="46.47047" lon="13.57162">
        <ele>821.263656</ele>
        <time>2026-07-13T07:38:03.000Z</time>
      </trkpt>
      <trkpt lat="46.4705" lon="13.5718">
        <ele>822.085867</ele>
        <time>2026-07-13T07:38:10.000Z</time>
      </trkpt>
      <trkpt lat="46.47055" lon="13.57198">
        <ele>822.921649</ele>
        <time>2026-07-13T07:38:17.000Z</time>
      </trkpt>
      <trkpt lat="46.47061" lon="13.57214">
        <ele>823.700469</ele>
        <time>2026-07-13T07:38:23.000Z</time>
      </trkpt>
      <trkpt lat="46.47064" lon="13.57217">
        <ele>823.958278</ele>
        <time>2026-07-13T07:38:25.000Z</time>
      </trkpt>
      <trkpt lat="46.47075" lon="13.57229">
        <ele>824.793044</ele>
        <time>2026-07-13T07:38:32.000Z</time>
      </trkpt>
      <trkpt lat="46.4709" lon="13.57234">
        <ele>825.727893</ele>
        <time>2026-07-13T07:38:40.000Z</time>
      </trkpt>
      <trkpt lat="46.47102" lon="13.57246">
        <ele>826.577194</ele>
        <time>2026-07-13T07:38:47.000Z</time>
      </trkpt>
      <trkpt lat="46.47102" lon="13.57249">
        <ele>826.714618</ele>
        <time>2026-07-13T07:38:48.000Z</time>
      </trkpt>
      <trkpt lat="46.47099" lon="13.57257">
        <ele>827.062736</ele>
        <time>2026-07-13T07:38:51.000Z</time>
      </trkpt>
      <trkpt lat="46.47092" lon="13.57257">
        <ele>827.513626</ele>
        <time>2026-07-13T07:38:55.000Z</time>
      </trkpt>
      <trkpt lat="46.47089" lon="13.57256">
        <ele>827.65625</ele>
        <time>2026-07-13T07:38:56.000Z</time>
      </trkpt>
      <trkpt lat="46.47078" lon="13.57241">
        <ele>828.538999</ele>
        <time>2026-07-13T07:39:03.000Z</time>
      </trkpt>
      <trkpt lat="46.47067" lon="13.57224">
        <ele>829.446775</ele>
        <time>2026-07-13T07:39:10.000Z</time>
      </trkpt>
      <trkpt lat="46.47055" lon="13.5721">
        <ele>830.355914</ele>
        <time>2026-07-13T07:39:18.000Z</time>
      </trkpt>
      <trkpt lat="46.47042" lon="13.57193">
        <ele>831.350269</ele>
        <time>2026-07-13T07:39:27.000Z</time>
      </trkpt>
      <trkpt lat="46.47032" lon="13.57178">
        <ele>832.203335</ele>
        <time>2026-07-13T07:39:35.000Z</time>
      </trkpt>
      <trkpt lat="46.4702" lon="13.57154">
        <ele>833.37046</ele>
        <time>2026-07-13T07:39:44.000Z</time>
      </trkpt>
      <trkpt lat="46.47011" lon="13.57132">
        <ele>834.374468</ele>
        <time>2026-07-13T07:39:52.000Z</time>
      </trkpt>
      <trkpt lat="46.47003" lon="13.57111">
        <ele>835.322139</ele>
        <time>2026-07-13T07:40:00.000Z</time>
      </trkpt>
      <trkpt lat="46.46995" lon="13.57094">
        <ele>836.078768</ele>
        <time>2026-07-13T07:40:07.000Z</time>
      </trkpt>
      <trkpt lat="46.46985" lon="13.57082">
        <ele>836.695968</ele>
        <time>2026-07-13T07:40:14.000Z</time>
      </trkpt>
      <trkpt lat="46.4697" lon="13.57075">
        <ele>837.390313</ele>
        <time>2026-07-13T07:40:21.000Z</time>
      </trkpt>
      <trkpt lat="46.46951" lon="13.57074">
        <ele>838.267923</ele>
        <time>2026-07-13T07:40:30.000Z</time>
      </trkpt>
      <trkpt lat="46.46945" lon="13.57076">
        <ele>838.578745</ele>
        <time>2026-07-13T07:40:33.000Z</time>
      </trkpt>
      <trkpt lat="46.46936" lon="13.57078">
        <ele>838.982112</ele>
        <time>2026-07-13T07:40:37.000Z</time>
      </trkpt>
      <trkpt lat="46.46929" lon="13.57079">
        <ele>839.287163</ele>
        <time>2026-07-13T07:40:40.000Z</time>
      </trkpt>
      <trkpt lat="46.4691" lon="13.57084">
        <ele>840.182864</ele>
        <time>2026-07-13T07:40:49.000Z</time>
      </trkpt>
      <trkpt lat="46.46908" lon="13.57085">
        <ele>840.27153</ele>
        <time>2026-07-13T07:40:50.000Z</time>
      </trkpt>
      <trkpt lat="46.46892" lon="13.5709">
        <ele>841.05927</ele>
        <time>2026-07-13T07:40:58.000Z</time>
      </trkpt>
      <trkpt lat="46.46872" lon="13.571">
        <ele>841.992034</ele>
        <time>2026-07-13T07:41:07.000Z</time>
      </trkpt>
      <trkpt lat="46.46856" lon="13.57112">
        <ele>842.851053</ele>
        <time>2026-07-13T07:41:16.000Z</time>
      </trkpt>
      <trkpt lat="46.46843" lon="13.57121">
        <ele>843.498592</ele>
        <time>2026-07-13T07:41:23.000Z</time>
      </trkpt>
      <trkpt lat="46.46831" lon="13.57129">
        <ele>844.158669</ele>
        <time>2026-07-13T07:41:29.000Z</time>
      </trkpt>
      <trkpt lat="46.46818" lon="13.57141">
        <ele>845.356952</ele>
        <time>2026-07-13T07:41:36.000Z</time>
      </trkpt>
      <trkpt lat="46.46799" lon="13.57145">
        <ele>846.909621</ele>
        <time>2026-07-13T07:41:45.000Z</time>
      </trkpt>
      <trkpt lat="46.46785" lon="13.57144">
        <ele>847.956569</ele>
        <time>2026-07-13T07:41:52.000Z</time>
      </trkpt>
      <trkpt lat="46.46769" lon="13.57142">
        <ele>849.281774</ele>
        <time>2026-07-13T07:42:01.000Z</time>
      </trkpt>
      <trkpt lat="46.46751" lon="13.5714">
        <ele>850.697387</ele>
        <time>2026-07-13T07:42:09.000Z</time>
      </trkpt>
      <trkpt lat="46.46735" lon="13.57145">
        <ele>852.032279</ele>
        <time>2026-07-13T07:42:17.000Z</time>
      </trkpt>
      <trkpt lat="46.46718" lon="13.57152">
        <ele>853.364749</ele>
        <time>2026-07-13T07:42:25.000Z</time>
      </trkpt>
      <trkpt lat="46.46704" lon="13.57157">
        <ele>854.569176</ele>
        <time>2026-07-13T07:42:32.000Z</time>
      </trkpt>
      <trkpt lat="46.46687" lon="13.57168">
        <ele>855.982994</ele>
        <time>2026-07-13T07:42:41.000Z</time>
      </trkpt>
      <trkpt lat="46.46678" lon="13.57173">
        <ele>856.779275</ele>
        <time>2026-07-13T07:42:46.000Z</time>
      </trkpt>
      <trkpt lat="46.46676" lon="13.57175">
        <ele>856.951973</ele>
        <time>2026-07-13T07:42:47.000Z</time>
      </trkpt>
      <trkpt lat="46.4667" lon="13.57182">
        <ele>857.608693</ele>
        <time>2026-07-13T07:42:51.000Z</time>
      </trkpt>
      <trkpt lat="46.46664" lon="13.57187">
        <ele>858.103173</ele>
        <time>2026-07-13T07:42:54.000Z</time>
      </trkpt>
      <trkpt lat="46.4665" lon="13.57197">
        <ele>858.912992</ele>
        <time>2026-07-13T07:43:01.000Z</time>
      </trkpt>
      <trkpt lat="46.46633" lon="13.57209">
        <ele>859.77225</ele>
        <time>2026-07-13T07:43:09.000Z</time>
      </trkpt>
      <trkpt lat="46.46626" lon="13.57213">
        <ele>860.147602</ele>
        <time>2026-07-13T07:43:13.000Z</time>
      </trkpt>
      <trkpt lat="46.46614" lon="13.5722">
        <ele>860.756127</ele>
        <time>2026-07-13T07:43:20.000Z</time>
      </trkpt>
      <trkpt lat="46.46599" lon="13.57225">
        <ele>861.44788</ele>
        <time>2026-07-13T07:43:28.000Z</time>
      </trkpt>
      <trkpt lat="46.46581" lon="13.57224">
        <ele>862.277792</ele>
        <time>2026-07-13T07:43:36.000Z</time>
      </trkpt>
      <trkpt lat="46.46568" lon="13.57217">
        <ele>862.951989</ele>
        <time>2026-07-13T07:43:43.000Z</time>
      </trkpt>
      <trkpt lat="46.46556" lon="13.57204">
        <ele>863.623353</ele>
        <time>2026-07-13T07:43:52.000Z</time>
      </trkpt>
      <trkpt lat="46.46543" lon="13.5719">
        <ele>864.382721</ele>
        <time>2026-07-13T07:44:00.000Z</time>
      </trkpt>
      <trkpt lat="46.46529" lon="13.57186">
        <ele>865.072855</ele>
        <time>2026-07-13T07:44:07.000Z</time>
      </trkpt>
      <trkpt lat="46.4651" lon="13.57196">
        <ele>865.972393</ele>
        <time>2026-07-13T07:44:15.000Z</time>
      </trkpt>
      <trkpt lat="46.46497" lon="13.57216">
        <ele>866.783687</ele>
        <time>2026-07-13T07:44:23.000Z</time>
      </trkpt>
      <trkpt lat="46.46482" lon="13.57237">
        <ele>867.33376</ele>
        <time>2026-07-13T07:44:31.000Z</time>
      </trkpt>
      <trkpt lat="46.46468" lon="13.57251">
        <ele>867.801738</ele>
        <time>2026-07-13T07:44:38.000Z</time>
      </trkpt>
      <trkpt lat="46.46454" lon="13.57262">
        <ele>868.246554</ele>
        <time>2026-07-13T07:44:45.000Z</time>
      </trkpt>
      <trkpt lat="46.46437" lon="13.57267">
        <ele>868.710649</ele>
        <time>2026-07-13T07:44:52.000Z</time>
      </trkpt>
      <trkpt lat="46.46419" lon="13.5727">
        <ele>869.204419</ele>
        <time>2026-07-13T07:45:00.000Z</time>
      </trkpt>
      <trkpt lat="46.46405" lon="13.57274">
        <ele>869.57605</ele>
        <time>2026-07-13T07:45:06.000Z</time>
      </trkpt>
      <trkpt lat="46.46401" lon="13.57275">
        <ele>869.693924</ele>
        <time>2026-07-13T07:45:08.000Z</time>
      </trkpt>
      <trkpt lat="46.46384" lon="13.57287">
        <ele>870.199738</ele>
        <time>2026-07-13T07:45:16.000Z</time>
      </trkpt>
      <trkpt lat="46.46361" lon="13.57302">
        <ele>870.892622</ele>
        <time>2026-07-13T07:45:26.000Z</time>
      </trkpt>
      <trkpt lat="46.46343" lon="13.57308">
        <ele>871.396596</ele>
        <time>2026-07-13T07:45:32.000Z</time>
      </trkpt>
      <trkpt lat="46.46319" lon="13.57312">
        <ele>871.717773</ele>
        <time>2026-07-13T07:45:40.000Z</time>
      </trkpt>
      <trkpt lat="46.4631" lon="13.57313">
        <ele>871.801784</ele>
        <time>2026-07-13T07:45:43.000Z</time>
      </trkpt>
      <trkpt lat="46.46299" lon="13.57315">
        <ele>871.903029</ele>
        <time>2026-07-13T07:45:47.000Z</time>
      </trkpt>
      <trkpt lat="46.46276" lon="13.57314">
        <ele>872.118298</ele>
        <time>2026-07-13T07:45:56.000Z</time>
      </trkpt>
      <trkpt lat="46.46265" lon="13.57313">
        <ele>872.226339</ele>
        <time>2026-07-13T07:46:01.000Z</time>
      </trkpt>
      <trkpt lat="46.46241" lon="13.57313">
        <ele>872.448991</ele>
        <time>2026-07-13T07:46:10.000Z</time>
      </trkpt>
      <trkpt lat="46.4622" lon="13.57323">
        <ele>872.659583</ele>
        <time>2026-07-13T07:46:18.000Z</time>
      </trkpt>
      <trkpt lat="46.46193" lon="13.57332">
        <ele>872.919064</ele>
        <time>2026-07-13T07:46:26.000Z</time>
      </trkpt>
      <trkpt lat="46.46165" lon="13.57344">
        <ele>873.19777</ele>
        <time>2026-07-13T07:46:34.000Z</time>
      </trkpt>
      <trkpt lat="46.46137" lon="13.57363">
        <ele>873.281383</ele>
        <time>2026-07-13T07:46:43.000Z</time>
      </trkpt>
      <trkpt lat="46.46115" lon="13.5738">
        <ele>873.329742</ele>
        <time>2026-07-13T07:46:49.000Z</time>
      </trkpt>
      <trkpt lat="46.46099" lon="13.57389">
        <ele>873.36285</ele>
        <time>2026-07-13T07:46:53.000Z</time>
      </trkpt>
      <trkpt lat="46.46092" lon="13.57395">
        <ele>873.378979</ele>
        <time>2026-07-13T07:46:55.000Z</time>
      </trkpt>
      <trkpt lat="46.46063" lon="13.57413">
        <ele>873.438832</ele>
        <time>2026-07-13T07:47:03.000Z</time>
      </trkpt>
      <trkpt lat="46.46041" lon="13.57424">
        <ele>873.483329</ele>
        <time>2026-07-13T07:47:09.000Z</time>
      </trkpt>
      <trkpt lat="46.46008" lon="13.57436">
        <ele>873.549817</ele>
        <time>2026-07-13T07:47:18.000Z</time>
      </trkpt>
      <trkpt lat="46.45965" lon="13.57445">
        <ele>873.198165</ele>
        <time>2026-07-13T07:47:29.000Z</time>
      </trkpt>
      <trkpt lat="46.45936" lon="13.57448">
        <ele>872.82</ele>
        <time>2026-07-13T07:47:37.000Z</time>
      </trkpt>
      <trkpt lat="46.45905" lon="13.57443">
        <ele>872.421627</ele>
        <time>2026-07-13T07:47:45.000Z</time>
      </trkpt>
      <trkpt lat="46.45869" lon="13.57441">
        <ele>871.96521</ele>
        <time>2026-07-13T07:47:54.000Z</time>
      </trkpt>
      <trkpt lat="46.45834" lon="13.57439">
        <ele>871.525113</ele>
        <time>2026-07-13T07:48:03.000Z</time>
      </trkpt>
      <trkpt lat="46.45796" lon="13.57436">
        <ele>872.230405</ele>
        <time>2026-07-13T07:48:13.000Z</time>
      </trkpt>
      <trkpt lat="46.45772" lon="13.57436">
        <ele>873.386292</ele>
        <time>2026-07-13T07:48:20.000Z</time>
      </trkpt>
      <trkpt lat="46.45753" lon="13.57435">
        <ele>874.254356</ele>
        <time>2026-07-13T07:48:25.000Z</time>
      </trkpt>
      <trkpt lat="46.45741" lon="13.57438">
        <ele>874.87214</ele>
        <time>2026-07-13T07:48:29.000Z</time>
      </trkpt>
      <trkpt lat="46.45714" lon="13.5745">
        <ele>876.212616</ele>
        <time>2026-07-13T07:48:37.000Z</time>
      </trkpt>
      <trkpt lat="46.45685" lon="13.57466">
        <ele>877.706871</ele>
        <time>2026-07-13T07:48:45.000Z</time>
      </trkpt>
      <trkpt lat="46.45663" lon="13.57483">
        <ele>878.907559</ele>
        <time>2026-07-13T07:48:51.000Z</time>
      </trkpt>
      <trkpt lat="46.45659" lon="13.57485">
        <ele>879.117195</ele>
        <time>2026-07-13T07:48:52.000Z</time>
      </trkpt>
      <trkpt lat="46.45624" lon="13.57506">
        <ele>879.738523</ele>
        <time>2026-07-13T07:49:01.000Z</time>
      </trkpt>
      <trkpt lat="46.45587" lon="13.57516">
        <ele>879.416983</ele>
        <time>2026-07-13T07:49:10.000Z</time>
      </trkpt>
      <trkpt lat="46.45577" lon="13.57518">
        <ele>879.339724</ele>
        <time>2026-07-13T07:49:12.000Z</time>
      </trkpt>
      <trkpt lat="46.45556" lon="13.57519">
        <ele>879.161527</ele>
        <time>2026-07-13T07:49:17.000Z</time>
      </trkpt>
      <trkpt lat="46.45535" lon="13.57519">
        <ele>878.981928</ele>
        <time>2026-07-13T07:49:22.000Z</time>
      </trkpt>
      <trkpt lat="46.45526" lon="13.5752">
        <ele>878.911581</ele>
        <time>2026-07-13T07:49:24.000Z</time>
      </trkpt>
      <trkpt lat="46.45507" lon="13.57519">
        <ele>878.753645</ele>
        <time>2026-07-13T07:49:28.000Z</time>
      </trkpt>
      <trkpt lat="46.455" lon="13.57519">
        <ele>878.689209</ele>
        <time>2026-07-13T07:49:30.000Z</time>
      </trkpt>
      <trkpt lat="46.45474" lon="13.5752">
        <ele>878.472022</ele>
        <time>2026-07-13T07:49:36.000Z</time>
      </trkpt>
      <trkpt lat="46.45464" lon="13.5752">
        <ele>878.42702</ele>
        <time>2026-07-13T07:49:38.000Z</time>
      </trkpt>
      <trkpt lat="46.45428" lon="13.57521">
        <ele>878.886179</ele>
        <time>2026-07-13T07:49:46.000Z</time>
      </trkpt>
      <trkpt lat="46.45423" lon="13.5752">
        <ele>878.943624</ele>
        <time>2026-07-13T07:49:47.000Z</time>
      </trkpt>
      <trkpt lat="46.45383" lon="13.57522">
        <ele>879.442764</ele>
        <time>2026-07-13T07:49:56.000Z</time>
      </trkpt>
      <trkpt lat="46.45347" lon="13.57524">
        <ele>879.893722</ele>
        <time>2026-07-13T07:50:04.000Z</time>
      </trkpt>
      <trkpt lat="46.45334" lon="13.57527">
        <ele>880.055084</ele>
        <time>2026-07-13T07:50:07.000Z</time>
      </trkpt>
      <trkpt lat="46.45315" lon="13.57527">
        <ele>880.29213</ele>
        <time>2026-07-13T07:50:11.000Z</time>
      </trkpt>
      <trkpt lat="46.45277" lon="13.57525">
        <ele>880.836455</ele>
        <time>2026-07-13T07:50:19.000Z</time>
      </trkpt>
      <trkpt lat="46.45227" lon="13.5752">
        <ele>881.833739</ele>
        <time>2026-07-13T07:50:29.000Z</time>
      </trkpt>
      <trkpt lat="46.45196" lon="13.5752">
        <ele>882.442275</ele>
        <time>2026-07-13T07:50:36.000Z</time>
      </trkpt>
      <trkpt lat="46.45146" lon="13.5752">
        <ele>883.452546</ele>
        <time>2026-07-13T07:50:47.000Z</time>
      </trkpt>
      <trkpt lat="46.45123" lon="13.5752">
        <ele>883.904004</ele>
        <time>2026-07-13T07:50:52.000Z</time>
      </trkpt>
      <trkpt lat="46.45101" lon="13.5752">
        <ele>884.338269</ele>
        <time>2026-07-13T07:50:57.000Z</time>
      </trkpt>
      <trkpt lat="46.45089" lon="13.57522">
        <ele>884.598337</ele>
        <time>2026-07-13T07:51:00.000Z</time>
      </trkpt>
      <trkpt lat="46.45073" lon="13.57523">
        <ele>884.944019</ele>
        <time>2026-07-13T07:51:04.000Z</time>
      </trkpt>
      <trkpt lat="46.45061" lon="13.57522">
        <ele>885.212264</ele>
        <time>2026-07-13T07:51:07.000Z</time>
      </trkpt>
      <trkpt lat="46.45018" lon="13.57511">
        <ele>886.147899</ele>
        <time>2026-07-13T07:51:17.000Z</time>
      </trkpt>
      <trkpt lat="46.44979" lon="13.57491">
        <ele>887.052272</ele>
        <time>2026-07-13T07:51:27.000Z</time>
      </trkpt>
      <trkpt lat="46.44941" lon="13.57463">
        <ele>887.974315</ele>
        <time>2026-07-13T07:51:38.000Z</time>
      </trkpt>
      <trkpt lat="46.44918" lon="13.57443">
        <ele>889.41753</ele>
        <time>2026-07-13T07:51:45.000Z</time>
      </trkpt>
      <trkpt lat="46.44908" lon="13.57434">
        <ele>890.140241</ele>
        <time>2026-07-13T07:51:48.000Z</time>
      </trkpt>
      <trkpt lat="46.44878" lon="13.57405">
        <ele>892.44405</ele>
        <time>2026-07-13T07:51:59.000Z</time>
      </trkpt>
      <trkpt lat="46.44854" lon="13.57378">
        <ele>894.444076</ele>
        <time>2026-07-13T07:52:08.000Z</time>
      </trkpt>
      <trkpt lat="46.44831" lon="13.57356">
        <ele>896.170927</ele>
        <time>2026-07-13T07:52:16.000Z</time>
      </trkpt>
      <trkpt lat="46.44792" lon="13.57338">
        <ele>898.767738</ele>
        <time>2026-07-13T07:52:27.000Z</time>
      </trkpt>
      <trkpt lat="46.44758" lon="13.57328">
        <ele>899.994588</ele>
        <time>2026-07-13T07:52:36.000Z</time>
      </trkpt>
      <trkpt lat="46.44723" lon="13.57327">
        <ele>900.560386</ele>
        <time>2026-07-13T07:52:45.000Z</time>
      </trkpt>
      <trkpt lat="46.44695" lon="13.57329">
        <ele>901.028377</ele>
        <time>2026-07-13T07:52:52.000Z</time>
      </trkpt>
      <trkpt lat="46.44664" lon="13.57336">
        <ele>901.537079</ele>
        <time>2026-07-13T07:53:00.000Z</time>
      </trkpt>
      <trkpt lat="46.44618" lon="13.57343">
        <ele>902.285118</ele>
        <time>2026-07-13T07:53:11.000Z</time>
      </trkpt>
      <trkpt lat="46.44599" lon="13.57346">
        <ele>902.527962</ele>
        <time>2026-07-13T07:53:16.000Z</time>
      </trkpt>
      <trkpt lat="46.44581" lon="13.57349">
        <ele>902.017039</ele>
        <time>2026-07-13T07:53:20.000Z</time>
      </trkpt>
      <trkpt lat="46.44558" lon="13.57351">
        <ele>901.377146</ele>
        <time>2026-07-13T07:53:25.000Z</time>
      </trkpt>
      <trkpt lat="46.44554" lon="13.57351">
        <ele>901.246429</ele>
        <time>2026-07-13T07:53:26.000Z</time>
      </trkpt>
      <trkpt lat="46.44549" lon="13.5735">
        <ele>901.120174</ele>
        <time>2026-07-13T07:53:27.000Z</time>
      </trkpt>
      <trkpt lat="46.44537" lon="13.57346">
        <ele>900.761587</ele>
        <time>2026-07-13T07:53:30.000Z</time>
      </trkpt>
      <trkpt lat="46.44525" lon="13.5734">
        <ele>900.408471</ele>
        <time>2026-07-13T07:53:33.000Z</time>
      </trkpt>
      <trkpt lat="46.44493" lon="13.57323">
        <ele>899.427542</ele>
        <time>2026-07-13T07:53:42.000Z</time>
      </trkpt>
      <trkpt lat="46.44461" lon="13.57308">
        <ele>898.477462</ele>
        <time>2026-07-13T07:53:51.000Z</time>
      </trkpt>
      <trkpt lat="46.44437" lon="13.57306">
        <ele>897.791216</ele>
        <time>2026-07-13T07:53:57.000Z</time>
      </trkpt>
      <trkpt lat="46.44424" lon="13.57306">
        <ele>897.4541</ele>
        <time>2026-07-13T07:54:00.000Z</time>
      </trkpt>
      <trkpt lat="46.4439" lon="13.57306">
        <ele>897.166467</ele>
        <time>2026-07-13T07:54:08.000Z</time>
      </trkpt>
      <trkpt lat="46.44362" lon="13.57301">
        <ele>896.920112</ele>
        <time>2026-07-13T07:54:14.000Z</time>
      </trkpt>
      <trkpt lat="46.44331" lon="13.57293">
        <ele>896.651087</ele>
        <time>2026-07-13T07:54:19.000Z</time>
      </trkpt>
      <trkpt lat="46.44324" lon="13.57291">
        <ele>896.591564</ele>
        <time>2026-07-13T07:54:20.000Z</time>
      </trkpt>
      <trkpt lat="46.44278" lon="13.57277">
        <ele>896.181163</ele>
        <time>2026-07-13T07:54:27.000Z</time>
      </trkpt>
      <trkpt lat="46.44271" lon="13.57275">
        <ele>896.125982</ele>
        <time>2026-07-13T07:54:28.000Z</time>
      </trkpt>
      <trkpt lat="46.44253" lon="13.57271">
        <ele>895.966247</ele>
        <time>2026-07-13T07:54:31.000Z</time>
      </trkpt>
      <trkpt lat="46.44248" lon="13.57268">
        <ele>895.919043</ele>
        <time>2026-07-13T07:54:32.000Z</time>
      </trkpt>
      <trkpt lat="46.4424" lon="13.5726">
        <ele>895.913063</ele>
        <time>2026-07-13T07:54:34.000Z</time>
      </trkpt>
      <trkpt lat="46.44229" lon="13.57241">
        <ele>895.902939</ele>
        <time>2026-07-13T07:54:37.000Z</time>
      </trkpt>
      <trkpt lat="46.44225" lon="13.57227">
        <ele>895.896629</ele>
        <time>2026-07-13T07:54:39.000Z</time>
      </trkpt>
      <trkpt lat="46.44214" lon="13.57192">
        <ele>895.880499</ele>
        <time>2026-07-13T07:54:44.000Z</time>
      </trkpt>
      <trkpt lat="46.44211" lon="13.57186">
        <ele>895.877153</ele>
        <time>2026-07-13T07:54:45.000Z</time>
      </trkpt>
      <trkpt lat="46.44206" lon="13.5718">
        <ele>895.873386</ele>
        <time>2026-07-13T07:54:46.000Z</time>
      </trkpt>
      <trkpt lat="46.44201" lon="13.57175">
        <ele>895.869892</ele>
        <time>2026-07-13T07:54:47.000Z</time>
      </trkpt>
      <trkpt lat="46.44189" lon="13.57164">
        <ele>895.861105</ele>
        <time>2026-07-13T07:54:50.000Z</time>
      </trkpt>
      <trkpt lat="46.44184" lon="13.5716">
        <ele>895.857931</ele>
        <time>2026-07-13T07:54:51.000Z</time>
      </trkpt>
      <trkpt lat="46.44176" lon="13.57156">
        <ele>895.85251</ele>
        <time>2026-07-13T07:54:53.000Z</time>
      </trkpt>
      <trkpt lat="46.44169" lon="13.57153">
        <ele>895.848106</ele>
        <time>2026-07-13T07:54:54.000Z</time>
      </trkpt>
      <trkpt lat="46.44155" lon="13.57143">
        <ele>895.838454</ele>
        <time>2026-07-13T07:54:57.000Z</time>
      </trkpt>
      <trkpt lat="46.44145" lon="13.57144">
        <ele>895.832858</ele>
        <time>2026-07-13T07:54:59.000Z</time>
      </trkpt>
      <trkpt lat="46.44137" lon="13.57143">
        <ele>895.828037</ele>
        <time>2026-07-13T07:55:01.000Z</time>
      </trkpt>
      <trkpt lat="46.44131" lon="13.57138">
        <ele>895.823713</ele>
        <time>2026-07-13T07:55:03.000Z</time>
      </trkpt>
      <trkpt lat="46.44118" lon="13.57135">
        <ele>895.815479</ele>
        <time>2026-07-13T07:55:06.000Z</time>
      </trkpt>
      <trkpt lat="46.44109" lon="13.57133">
        <ele>895.810287</ele>
        <time>2026-07-13T07:55:08.000Z</time>
      </trkpt>
      <trkpt lat="46.44105" lon="13.57133">
        <ele>896.005751</ele>
        <time>2026-07-13T07:55:09.000Z</time>
      </trkpt>
      <trkpt lat="46.44081" lon="13.57131">
        <ele>897.267397</ele>
        <time>2026-07-13T07:55:14.000Z</time>
      </trkpt>
      <trkpt lat="46.44073" lon="13.57134">
        <ele>897.713615</ele>
        <time>2026-07-13T07:55:16.000Z</time>
      </trkpt>
      <trkpt lat="46.44065" lon="13.57137">
        <ele>898.147692</ele>
        <time>2026-07-13T07:55:18.000Z</time>
      </trkpt>
      <trkpt lat="46.44053" lon="13.57135">
        <ele>898.813253</ele>
        <time>2026-07-13T07:55:21.000Z</time>
      </trkpt>
      <trkpt lat="46.44045" lon="13.57132">
        <ele>899.232712</ele>
        <time>2026-07-13T07:55:23.000Z</time>
      </trkpt>
      <trkpt lat="46.4403" lon="13.57121">
        <ele>900.171351</ele>
        <time>2026-07-13T07:55:27.000Z</time>
      </trkpt>
      <trkpt lat="46.44019" lon="13.57113">
        <ele>900.810504</ele>
        <time>2026-07-13T07:55:30.000Z</time>
      </trkpt>
      <trkpt lat="46.44002" lon="13.57095">
        <ele>901.921248</ele>
        <time>2026-07-13T07:55:35.000Z</time>
      </trkpt>
      <trkpt lat="46.43983" lon="13.57073">
        <ele>903.236238</ele>
        <time>2026-07-13T07:55:42.000Z</time>
      </trkpt>
      <trkpt lat="46.4397" lon="13.57059">
        <ele>904.102471</ele>
        <time>2026-07-13T07:55:49.000Z</time>
      </trkpt>
      <trkpt lat="46.4397" lon="13.57058">
        <ele>904.130155</ele>
        <time>2026-07-13T07:55:52.000Z</time>
      </trkpt>
      <trkpt lat="46.43967" lon="13.57052">
        <ele>904.390894</ele>
        <time>2026-07-13T07:56:54.000Z</time>
      </trkpt>
      <trkpt lat="46.43967" lon="13.57046">
        <ele>904.6059</ele>
        <time>2026-07-13T07:56:59.000Z</time>
      </trkpt>
      <trkpt lat="46.4396" lon="13.57041">
        <ele>905.033779</ele>
        <time>2026-07-13T08:00:45.000Z</time>
      </trkpt>
      <trkpt lat="46.43959" lon="13.57039">
        <ele>905.134126</ele>
        <time>2026-07-13T08:00:46.000Z</time>
      </trkpt>
      <trkpt lat="46.43956" lon="13.57028">
        <ele>905.549248</ele>
        <time>2026-07-13T08:00:49.000Z</time>
      </trkpt>
      <trkpt lat="46.43951" lon="13.56997">
        <ele>906.848028</ele>
        <time>2026-07-13T08:00:55.000Z</time>
      </trkpt>
      <trkpt lat="46.43944" lon="13.56976">
        <ele>907.76466</ele>
        <time>2026-07-13T08:00:59.000Z</time>
      </trkpt>
      <trkpt lat="46.43941" lon="13.56972">
        <ele>907.971711</ele>
        <time>2026-07-13T08:01:00.000Z</time>
      </trkpt>
      <trkpt lat="46.43918" lon="13.56943">
        <ele>909.719148</ele>
        <time>2026-07-13T08:01:08.000Z</time>
      </trkpt>
      <trkpt lat="46.43902" lon="13.56924">
        <ele>910.891895</ele>
        <time>2026-07-13T08:01:14.000Z</time>
      </trkpt>
      <trkpt lat="46.43894" lon="13.56916">
        <ele>911.473341</ele>
        <time>2026-07-13T08:01:17.000Z</time>
      </trkpt>
      <trkpt lat="46.43877" lon="13.56897">
        <ele>912.720077</ele>
        <time>2026-07-13T08:01:24.000Z</time>
      </trkpt>
      <trkpt lat="46.43862" lon="13.56884">
        <ele>913.736896</ele>
        <time>2026-07-13T08:01:30.000Z</time>
      </trkpt>
      <trkpt lat="46.43859" lon="13.56883">
        <ele>913.876839</ele>
        <time>2026-07-13T08:01:31.000Z</time>
      </trkpt>
      <trkpt lat="46.43847" lon="13.56876">
        <ele>914.645043</ele>
        <time>2026-07-13T08:01:36.000Z</time>
      </trkpt>
      <trkpt lat="46.43838" lon="13.56869">
        <ele>915.204082</ele>
        <time>2026-07-13T08:01:40.000Z</time>
      </trkpt>
      <trkpt lat="46.43836" lon="13.56868">
        <ele>915.330012</ele>
        <time>2026-07-13T08:01:41.000Z</time>
      </trkpt>
      <trkpt lat="46.43827" lon="13.56861">
        <ele>915.948505</ele>
        <time>2026-07-13T08:01:45.000Z</time>
      </trkpt>
      <trkpt lat="46.43805" lon="13.56848">
        <ele>917.353934</ele>
        <time>2026-07-13T08:01:53.000Z</time>
      </trkpt>
      <trkpt lat="46.43774" lon="13.56832">
        <ele>919.321391</ele>
        <time>2026-07-13T08:02:05.000Z</time>
      </trkpt>
      <trkpt lat="46.43753" lon="13.5682">
        <ele>920.687298</ele>
        <time>2026-07-13T08:02:13.000Z</time>
      </trkpt>
      <trkpt lat="46.43733" lon="13.56812">
        <ele>921.960722</ele>
        <time>2026-07-13T08:02:20.000Z</time>
      </trkpt>
      <trkpt lat="46.4373" lon="13.56811">
        <ele>922.125352</ele>
        <time>2026-07-13T08:02:21.000Z</time>
      </trkpt>
      <trkpt lat="46.43712" lon="13.56808">
        <ele>923.240864</ele>
        <time>2026-07-13T08:02:28.000Z</time>
      </trkpt>
      <trkpt lat="46.43702" lon="13.56807">
        <ele>923.864</ele>
        <time>2026-07-13T08:02:32.000Z</time>
      </trkpt>
      <trkpt lat="46.43683" lon="13.56802">
        <ele>925.010805</ele>
        <time>2026-07-13T08:02:39.000Z</time>
      </trkpt>
      <trkpt lat="46.43664" lon="13.568">
        <ele>926.12204</ele>
        <time>2026-07-13T08:02:47.000Z</time>
      </trkpt>
      <trkpt lat="46.43644" lon="13.568">
        <ele>926.676684</ele>
        <time>2026-07-13T08:02:55.000Z</time>
      </trkpt>
      <trkpt lat="46.43629" lon="13.56799">
        <ele>926.776915</ele>
        <time>2026-07-13T08:03:01.000Z</time>
      </trkpt>
      <trkpt lat="46.43606" lon="13.56798">
        <ele>926.932794</ele>
        <time>2026-07-13T08:03:11.000Z</time>
      </trkpt>
      <trkpt lat="46.43589" lon="13.56798">
        <ele>927.051547</ele>
        <time>2026-07-13T08:03:19.000Z</time>
      </trkpt>
      <trkpt lat="46.43573" lon="13.56797">
        <ele>927.163429</ele>
        <time>2026-07-13T08:03:27.000Z</time>
      </trkpt>
      <trkpt lat="46.43557" lon="13.56798">
        <ele>927.271905</ele>
        <time>2026-07-13T08:03:36.000Z</time>
      </trkpt>
      <trkpt lat="46.43545" lon="13.56799">
        <ele>927.355818</ele>
        <time>2026-07-13T08:03:43.000Z</time>
      </trkpt>
      <trkpt lat="46.43539" lon="13.568">
        <ele>927.395073</ele>
        <time>2026-07-13T08:03:46.000Z</time>
      </trkpt>
      <trkpt lat="46.43523" lon="13.5681">
        <ele>927.513176</ele>
        <time>2026-07-13T08:03:55.000Z</time>
      </trkpt>
      <trkpt lat="46.43504" lon="13.56817">
        <ele>927.649625</ele>
        <time>2026-07-13T08:04:04.000Z</time>
      </trkpt>
      <trkpt lat="46.43483" lon="13.56824">
        <ele>927.799089</ele>
        <time>2026-07-13T08:04:13.000Z</time>
      </trkpt>
      <trkpt lat="46.43467" lon="13.56827">
        <ele>929.043237</ele>
        <time>2026-07-13T08:04:19.000Z</time>
      </trkpt>
      <trkpt lat="46.43459" lon="13.56827">
        <ele>929.893043</ele>
        <time>2026-07-13T08:04:23.000Z</time>
      </trkpt>
      <trkpt lat="46.43453" lon="13.56826">
        <ele>930.458137</ele>
        <time>2026-07-13T08:04:26.000Z</time>
      </trkpt>
      <trkpt lat="46.43436" lon="13.56823">
        <ele>932.191637</ele>
        <time>2026-07-13T08:04:35.000Z</time>
      </trkpt>
      <trkpt lat="46.43417" lon="13.5682">
        <ele>934.010925</ele>
        <time>2026-07-13T08:04:44.000Z</time>
      </trkpt>
      <trkpt lat="46.43393" lon="13.56817">
        <ele>936.402248</ele>
        <time>2026-07-13T08:04:55.000Z</time>
      </trkpt>
      <trkpt lat="46.43377" lon="13.56814">
        <ele>938.015565</ele>
        <time>2026-07-13T08:05:02.000Z</time>
      </trkpt>
      <trkpt lat="46.43363" lon="13.56812">
        <ele>939.420705</ele>
        <time>2026-07-13T08:05:08.000Z</time>
      </trkpt>
      <trkpt lat="46.43344" lon="13.56811">
        <ele>941.25191</ele>
        <time>2026-07-13T08:05:16.000Z</time>
      </trkpt>
      <trkpt lat="46.4332" lon="13.5681">
        <ele>943.692536</ele>
        <time>2026-07-13T08:05:27.000Z</time>
      </trkpt>
      <trkpt lat="46.43294" lon="13.56809">
        <ele>945.981502</ele>
        <time>2026-07-13T08:05:38.000Z</time>
      </trkpt>
      <trkpt lat="46.43279" lon="13.56807">
        <ele>946.9021</ele>
        <time>2026-07-13T08:05:45.000Z</time>
      </trkpt>
      <trkpt lat="46.4326" lon="13.56808">
        <ele>948.076916</ele>
        <time>2026-07-13T08:05:54.000Z</time>
      </trkpt>
      <trkpt lat="46.43242" lon="13.56805">
        <ele>949.154321</ele>
        <time>2026-07-13T08:06:03.000Z</time>
      </trkpt>
      <trkpt lat="46.4323" lon="13.56799">
        <ele>949.970518</ele>
        <time>2026-07-13T08:06:11.000Z</time>
      </trkpt>
      <trkpt lat="46.43215" lon="13.56797">
        <ele>950.838514</ele>
        <time>2026-07-13T08:06:19.000Z</time>
      </trkpt>
      <trkpt lat="46.43203" lon="13.56796">
        <ele>951.615732</ele>
        <time>2026-07-13T08:06:27.000Z</time>
      </trkpt>
      <trkpt lat="46.43195" lon="13.56797">
        <ele>952.064459</ele>
        <time>2026-07-13T08:06:32.000Z</time>
      </trkpt>
      <trkpt lat="46.4319" lon="13.56798">
        <ele>952.376988</ele>
        <time>2026-07-13T08:06:35.000Z</time>
      </trkpt>
      <trkpt lat="46.43174" lon="13.56792">
        <ele>953.393305</ele>
        <time>2026-07-13T08:06:45.000Z</time>
      </trkpt>
      <trkpt lat="46.43159" lon="13.56783">
        <ele>954.379075</ele>
        <time>2026-07-13T08:06:54.000Z</time>
      </trkpt>
      <trkpt lat="46.43146" lon="13.56768">
        <ele>955.408527</ele>
        <time>2026-07-13T08:07:03.000Z</time>
      </trkpt>
      <trkpt lat="46.43141" lon="13.56753">
        <ele>956.10957</ele>
        <time>2026-07-13T08:07:09.000Z</time>
      </trkpt>
      <trkpt lat="46.43135" lon="13.56733">
        <ele>957.170798</ele>
        <time>2026-07-13T08:07:16.000Z</time>
      </trkpt>
      <trkpt lat="46.43126" lon="13.56712">
        <ele>958.654268</ele>
        <time>2026-07-13T08:07:26.000Z</time>
      </trkpt>
      <trkpt lat="46.43116" lon="13.56694">
        <ele>960.041542</ele>
        <time>2026-07-13T08:07:34.000Z</time>
      </trkpt>
      <trkpt lat="46.43107" lon="13.56677">
        <ele>961.257402</ele>
        <time>2026-07-13T08:07:41.000Z</time>
      </trkpt>
      <trkpt lat="46.43097" lon="13.56658">
        <ele>962.68136</ele>
        <time>2026-07-13T08:07:49.000Z</time>
      </trkpt>
      <trkpt lat="46.43086" lon="13.56643">
        <ele>963.961975</ele>
        <time>2026-07-13T08:07:56.000Z</time>
      </trkpt>
      <trkpt lat="46.43076" lon="13.56627">
        <ele>965.232286</ele>
        <time>2026-07-13T08:08:03.000Z</time>
      </trkpt>
      <trkpt lat="46.43058" lon="13.56621">
        <ele>966.746316</ele>
        <time>2026-07-13T08:08:12.000Z</time>
      </trkpt>
      <trkpt lat="46.43044" lon="13.56625">
        <ele>968.007408</ele>
        <time>2026-07-13T08:08:19.000Z</time>
      </trkpt>
      <trkpt lat="46.43027" lon="13.56636">
        <ele>969.55045</ele>
        <time>2026-07-13T08:08:28.000Z</time>
      </trkpt>
      <trkpt lat="46.43011" lon="13.56647">
        <ele>971.062176</ele>
        <time>2026-07-13T08:08:36.000Z</time>
      </trkpt>
      <trkpt lat="46.42991" lon="13.5665">
        <ele>972.00518</ele>
        <time>2026-07-13T08:08:45.000Z</time>
      </trkpt>
      <trkpt lat="46.42969" lon="13.56639">
        <ele>972.317193</ele>
        <time>2026-07-13T08:08:55.000Z</time>
      </trkpt>
      <trkpt lat="46.42956" lon="13.56621">
        <ele>972.550263</ele>
        <time>2026-07-13T08:09:02.000Z</time>
      </trkpt>
      <trkpt lat="46.42945" lon="13.56607">
        <ele>972.747229</ele>
        <time>2026-07-13T08:09:08.000Z</time>
      </trkpt>
      <trkpt lat="46.4293" lon="13.56602">
        <ele>972.955092</ele>
        <time>2026-07-13T08:09:14.000Z</time>
      </trkpt>
      <trkpt lat="46.42913" lon="13.56612">
        <ele>973.188358</ele>
        <time>2026-07-13T08:09:21.000Z</time>
      </trkpt>
      <trkpt lat="46.42895" lon="13.56636">
        <ele>973.515253</ele>
        <time>2026-07-13T08:09:30.000Z</time>
      </trkpt>
      <trkpt lat="46.4288" lon="13.56654">
        <ele>973.772817</ele>
        <time>2026-07-13T08:09:38.000Z</time>
      </trkpt>
      <trkpt lat="46.42864" lon="13.56681">
        <ele>974.102045</ele>
        <time>2026-07-13T08:09:46.000Z</time>
      </trkpt>
      <trkpt lat="46.42855" lon="13.567">
        <ele>974.057382</ele>
        <time>2026-07-13T08:09:49.000Z</time>
      </trkpt>
      <trkpt lat="46.42852" lon="13.56709">
        <ele>973.766761</ele>
        <time>2026-07-13T08:09:50.000Z</time>
      </trkpt>
      <trkpt lat="46.42837" lon="13.56752">
        <ele>972.367587</ele>
        <time>2026-07-13T08:09:54.000Z</time>
      </trkpt>
      <trkpt lat="46.42821" lon="13.56783">
        <ele>971.229635</ele>
        <time>2026-07-13T08:09:57.000Z</time>
      </trkpt>
      <trkpt lat="46.42815" lon="13.56792">
        <ele>970.873927</ele>
        <time>2026-07-13T08:09:58.000Z</time>
      </trkpt>
      <trkpt lat="46.42795" lon="13.56818">
        <ele>969.760093</ele>
        <time>2026-07-13T08:10:02.000Z</time>
      </trkpt>
      <trkpt lat="46.42777" lon="13.56842">
        <ele>968.740281</ele>
        <time>2026-07-13T08:10:07.000Z</time>
      </trkpt>
      <trkpt lat="46.42756" lon="13.56873">
        <ele>967.469541</ele>
        <time>2026-07-13T08:10:14.000Z</time>
      </trkpt>
      <trkpt lat="46.42745" lon="13.56889">
        <ele>966.808264</ele>
        <time>2026-07-13T08:10:19.000Z</time>
      </trkpt>
      <trkpt lat="46.42727" lon="13.56904">
        <ele>967.320392</ele>
        <time>2026-07-13T08:10:25.000Z</time>
      </trkpt>
      <trkpt lat="46.427" lon="13.56911">
        <ele>968.257277</ele>
        <time>2026-07-13T08:10:32.000Z</time>
      </trkpt>
      <trkpt lat="46.42683" lon="13.56923">
        <ele>968.928741</ele>
        <time>2026-07-13T08:10:38.000Z</time>
      </trkpt>
      <trkpt lat="46.42675" lon="13.56925">
        <ele>969.199703</ele>
        <time>2026-07-13T08:10:43.000Z</time>
      </trkpt>
      <trkpt lat="46.42675" lon="13.56925">
        <ele>969.199703</ele>
        <time>2026-07-13T08:10:44.000Z</time>
      </trkpt>
      <trkpt lat="46.42684" lon="13.56922">
        <ele>969.522351</ele>
        <time>2026-07-13T08:11:09.000Z</time>
      </trkpt>
      <trkpt lat="46.42685" lon="13.5692">
        <ele>969.572124</ele>
        <time>2026-07-13T08:11:10.000Z</time>
      </trkpt>
      <trkpt lat="46.42686" lon="13.56919">
        <ele>969.619207</ele>
        <time>2026-07-13T08:11:11.000Z</time>
      </trkpt>
      <trkpt lat="46.42688" lon="13.56914">
        <ele>969.753957</ele>
        <time>2026-07-13T08:11:14.000Z</time>
      </trkpt>
      <trkpt lat="46.42671" lon="13.56902">
        <ele>970.431605</ele>
        <time>2026-07-13T08:11:27.000Z</time>
      </trkpt>
      <trkpt lat="46.42669" lon="13.56901">
        <ele>970.507495</ele>
        <time>2026-07-13T08:11:28.000Z</time>
      </trkpt>
      <trkpt lat="46.42662" lon="13.56896">
        <ele>970.754808</ele>
        <time>2026-07-13T08:11:33.000Z</time>
      </trkpt>
      <trkpt lat="46.42662" lon="13.56896">
        <ele>970.754808</ele>
        <time>2026-07-13T08:11:35.000Z</time>
      </trkpt>
      <trkpt lat="46.42685" lon="13.56916">
        <ele>971.669061</ele>
        <time>2026-07-13T08:12:32.000Z</time>
      </trkpt>
      <trkpt lat="46.42684" lon="13.56917">
        <ele>971.720371</ele>
        <time>2026-07-13T08:12:33.000Z</time>
      </trkpt>
      <trkpt lat="46.4268" lon="13.5692">
        <ele>971.87404</ele>
        <time>2026-07-13T08:12:37.000Z</time>
      </trkpt>
      <trkpt lat="46.42675" lon="13.56926">
        <ele>972.095434</ele>
        <time>2026-07-13T08:12:42.000Z</time>
      </trkpt>
      <trkpt lat="46.42673" lon="13.56927">
        <ele>972.161725</ele>
        <time>2026-07-13T08:12:44.000Z</time>
      </trkpt>
      <trkpt lat="46.42673" lon="13.56928">
        <ele>972.195616</ele>
        <time>2026-07-13T08:12:47.000Z</time>
      </trkpt>
      <trkpt lat="46.42673" lon="13.56932">
        <ele>972.298093</ele>
        <time>2026-07-13T08:14:24.000Z</time>
      </trkpt>
      <trkpt lat="46.42672" lon="13.56935">
        <ele>972.361787</ele>
        <time>2026-07-13T08:14:25.000Z</time>
      </trkpt>
      <trkpt lat="46.4267" lon="13.56937">
        <ele>972.442487</ele>
        <time>2026-07-13T08:14:26.000Z</time>
      </trkpt>
      <trkpt lat="46.42663" lon="13.56944">
        <ele>972.74708</ele>
        <time>2026-07-13T08:14:29.000Z</time>
      </trkpt>
      <trkpt lat="46.42649" lon="13.56952">
        <ele>973.414164</ele>
        <time>2026-07-13T08:14:34.000Z</time>
      </trkpt>
      <trkpt lat="46.42647" lon="13.56953">
        <ele>973.557104</ele>
        <time>2026-07-13T08:14:35.000Z</time>
      </trkpt>
      <trkpt lat="46.42639" lon="13.56955">
        <ele>973.971133</ele>
        <time>2026-07-13T08:14:38.000Z</time>
      </trkpt>
      <trkpt lat="46.42635" lon="13.56957">
        <ele>974.207606</ele>
        <time>2026-07-13T08:14:40.000Z</time>
      </trkpt>
      <trkpt lat="46.42622" lon="13.56959">
        <ele>974.917005</ele>
        <time>2026-07-13T08:14:46.000Z</time>
      </trkpt>
      <trkpt lat="46.42609" lon="13.56962">
        <ele>975.664466</ele>
        <time>2026-07-13T08:14:53.000Z</time>
      </trkpt>
      <trkpt lat="46.42591" lon="13.56964">
        <ele>976.638177</ele>
        <time>2026-07-13T08:15:02.000Z</time>
      </trkpt>
      <trkpt lat="46.42575" lon="13.56965">
        <ele>977.497015</ele>
        <time>2026-07-13T08:15:10.000Z</time>
      </trkpt>
      <trkpt lat="46.42556" lon="13.56968">
        <ele>978.548136</ele>
        <time>2026-07-13T08:15:20.000Z</time>
      </trkpt>
      <trkpt lat="46.42544" lon="13.56971">
        <ele>979.201524</ele>
        <time>2026-07-13T08:15:26.000Z</time>
      </trkpt>
      <trkpt lat="46.4254" lon="13.56972">
        <ele>979.39066</ele>
        <time>2026-07-13T08:15:28.000Z</time>
      </trkpt>
      <trkpt lat="46.42532" lon="13.56974">
        <ele>979.85168</ele>
        <time>2026-07-13T08:15:32.000Z</time>
      </trkpt>
      <trkpt lat="46.42526" lon="13.56977">
        <ele>980.206478</ele>
        <time>2026-07-13T08:15:35.000Z</time>
      </trkpt>
      <trkpt lat="46.42521" lon="13.5698">
        <ele>980.501639</ele>
        <time>2026-07-13T08:15:38.000Z</time>
      </trkpt>
      <trkpt lat="46.42513" lon="13.56983">
        <ele>980.929278</ele>
        <time>2026-07-13T08:15:42.000Z</time>
      </trkpt>
      <trkpt lat="46.42511" lon="13.56983">
        <ele>981.035712</ele>
        <time>2026-07-13T08:15:43.000Z</time>
      </trkpt>
      <trkpt lat="46.425" lon="13.56989">
        <ele>981.67644</ele>
        <time>2026-07-13T08:15:49.000Z</time>
      </trkpt>
      <trkpt lat="46.42491" lon="13.56999">
        <ele>982.305279</ele>
        <time>2026-07-13T08:15:55.000Z</time>
      </trkpt>
      <trkpt lat="46.42482" lon="13.57008">
        <ele>982.870983</ele>
        <time>2026-07-13T08:16:00.000Z</time>
      </trkpt>
      <trkpt lat="46.42477" lon="13.57014">
        <ele>983.237869</ele>
        <time>2026-07-13T08:16:03.000Z</time>
      </trkpt>
      <trkpt lat="46.42467" lon="13.57025">
        <ele>983.932147</ele>
        <time>2026-07-13T08:16:09.000Z</time>
      </trkpt>
      <trkpt lat="46.42458" lon="13.57038">
        <ele>984.672501</ele>
        <time>2026-07-13T08:16:17.000Z</time>
      </trkpt>
      <trkpt lat="46.42458" lon="13.57038">
        <ele>984.672501</ele>
        <time>2026-07-13T08:16:18.000Z</time>
      </trkpt>
      <trkpt lat="46.42455" lon="13.57045">
        <ele>984.989659</ele>
        <time>2026-07-13T08:16:33.000Z</time>
      </trkpt>
      <trkpt lat="46.42452" lon="13.57051">
        <ele>985.250207</ele>
        <time>2026-07-13T08:16:35.000Z</time>
      </trkpt>
      <trkpt lat="46.42446" lon="13.57063">
        <ele>985.856127</ele>
        <time>2026-07-13T08:16:40.000Z</time>
      </trkpt>
      <trkpt lat="46.42444" lon="13.57065">
        <ele>985.968476</ele>
        <time>2026-07-13T08:16:41.000Z</time>
      </trkpt>
      <trkpt lat="46.42444" lon="13.57065">
        <ele>985.968476</ele>
        <time>2026-07-13T08:16:46.000Z</time>
      </trkpt>
      <trkpt lat="46.42313" lon="13.57061">
        <ele>993.793775</ele>
        <time>2026-07-13T08:17:52.000Z</time>
      </trkpt>
      <trkpt lat="46.42317" lon="13.57061">
        <ele>994.25283</ele>
        <time>2026-07-13T08:17:53.000Z</time>
      </trkpt>
      <trkpt lat="46.42309" lon="13.57098">
        <ele>997.22719</ele>
        <time>2026-07-13T08:17:56.000Z</time>
      </trkpt>
      <trkpt lat="46.42314" lon="13.57093">
        <ele>997.930326</ele>
        <time>2026-07-13T08:17:57.000Z</time>
      </trkpt>
      <trkpt lat="46.42295" lon="13.57026">
        <ele>1003.499706</ele>
        <time>2026-07-13T08:18:36.000Z</time>
      </trkpt>
      <trkpt lat="46.42295" lon="13.57028">
        <ele>1003.648028</ele>
        <time>2026-07-13T08:18:37.000Z</time>
      </trkpt>
      <trkpt lat="46.42294" lon="13.57028">
        <ele>1003.822218</ele>
        <time>2026-07-13T08:18:38.000Z</time>
      </trkpt>
      <trkpt lat="46.42289" lon="13.57029">
        <ele>1004.386237</ele>
        <time>2026-07-13T08:18:43.000Z</time>
      </trkpt>
      <trkpt lat="46.42282" lon="13.57032">
        <ele>1005.139045</ele>
        <time>2026-07-13T08:18:47.000Z</time>
      </trkpt>
      <trkpt lat="46.42265" lon="13.57036">
        <ele>1007.111261</ele>
        <time>2026-07-13T08:18:56.000Z</time>
      </trkpt>
      <trkpt lat="46.42252" lon="13.57038">
        <ele>1008.516059</ele>
        <time>2026-07-13T08:19:03.000Z</time>
      </trkpt>
      <trkpt lat="46.42239" lon="13.57037">
        <ele>1009.972704</ele>
        <time>2026-07-13T08:19:10.000Z</time>
      </trkpt>
      <trkpt lat="46.4223" lon="13.57043">
        <ele>1011.182944</ele>
        <time>2026-07-13T08:19:17.000Z</time>
      </trkpt>
      <trkpt lat="46.42214" lon="13.57041">
        <ele>1012.922539</ele>
        <time>2026-07-13T08:19:25.000Z</time>
      </trkpt>
      <trkpt lat="46.42206" lon="13.57039">
        <ele>1014.011669</ele>
        <time>2026-07-13T08:19:29.000Z</time>
      </trkpt>
      <trkpt lat="46.42204" lon="13.57039">
        <ele>1014.275233</ele>
        <time>2026-07-13T08:19:30.000Z</time>
      </trkpt>
      <trkpt lat="46.42196" lon="13.57043">
        <ele>1015.567717</ele>
        <time>2026-07-13T08:19:35.000Z</time>
      </trkpt>
      <trkpt lat="46.42187" lon="13.57048">
        <ele>1016.865268</ele>
        <time>2026-07-13T08:19:40.000Z</time>
      </trkpt>
      <trkpt lat="46.42176" lon="13.57059">
        <ele>1018.679264</ele>
        <time>2026-07-13T08:19:48.000Z</time>
      </trkpt>
      <trkpt lat="46.42171" lon="13.57067">
        <ele>1019.702609</ele>
        <time>2026-07-13T08:19:52.000Z</time>
      </trkpt>
      <trkpt lat="46.42164" lon="13.5707">
        <ele>1020.810704</ele>
        <time>2026-07-13T08:19:56.000Z</time>
      </trkpt>
      <trkpt lat="46.42153" lon="13.57075">
        <ele>1022.385636</ele>
        <time>2026-07-13T08:20:03.000Z</time>
      </trkpt>
      <trkpt lat="46.42139" lon="13.5708">
        <ele>1024.341621</ele>
        <time>2026-07-13T08:20:11.000Z</time>
      </trkpt>
      <trkpt lat="46.42129" lon="13.57078">
        <ele>1025.724516</ele>
        <time>2026-07-13T08:20:16.000Z</time>
      </trkpt>
      <trkpt lat="46.42125" lon="13.57076">
        <ele>1026.393471</ele>
        <time>2026-07-13T08:20:18.000Z</time>
      </trkpt>
      <trkpt lat="46.42113" lon="13.57066">
        <ele>1028.267595</ele>
        <time>2026-07-13T08:20:24.000Z</time>
      </trkpt>
      <trkpt lat="46.42103" lon="13.57067">
        <ele>1029.632703</ele>
        <time>2026-07-13T08:20:31.000Z</time>
      </trkpt>
      <trkpt lat="46.42088" lon="13.57062">
        <ele>1031.821812</ele>
        <time>2026-07-13T08:20:39.000Z</time>
      </trkpt>
      <trkpt lat="46.42082" lon="13.57074">
        <ele>1033.178205</ele>
        <time>2026-07-13T08:20:44.000Z</time>
      </trkpt>
      <trkpt lat="46.42085" lon="13.57092">
        <ele>1035.03334</ele>
        <time>2026-07-13T08:20:50.000Z</time>
      </trkpt>
      <trkpt lat="46.42096" lon="13.57104">
        <ele>1036.853161</ele>
        <time>2026-07-13T08:20:56.000Z</time>
      </trkpt>
      <trkpt lat="46.42116" lon="13.57111">
        <ele>1039.109817</ele>
        <time>2026-07-13T08:21:05.000Z</time>
      </trkpt>
      <trkpt lat="46.42124" lon="13.57112">
        <ele>1039.754583</ele>
        <time>2026-07-13T08:21:09.000Z</time>
      </trkpt>
      <trkpt lat="46.42127" lon="13.57111">
        <ele>1040.048001</ele>
        <time>2026-07-13T08:21:11.000Z</time>
      </trkpt>
      <trkpt lat="46.42129" lon="13.57111">
        <ele>1040.230777</ele>
        <time>2026-07-13T08:21:12.000Z</time>
      </trkpt>
      <trkpt lat="46.42148" lon="13.57108">
        <ele>1041.883717</ele>
        <time>2026-07-13T08:21:21.000Z</time>
      </trkpt>
      <trkpt lat="46.42162" lon="13.5711">
        <ele>1043.08407</ele>
        <time>2026-07-13T08:21:28.000Z</time>
      </trkpt>
      <trkpt lat="46.42178" lon="13.57111">
        <ele>1044.45945</ele>
        <time>2026-07-13T08:21:36.000Z</time>
      </trkpt>
      <trkpt lat="46.42188" lon="13.57105">
        <ele>1045.433582</ele>
        <time>2026-07-13T08:21:42.000Z</time>
      </trkpt>
      <trkpt lat="46.42199" lon="13.57099">
        <ele>1046.415739</ele>
        <time>2026-07-13T08:21:48.000Z</time>
      </trkpt>
      <trkpt lat="46.42214" lon="13.57098">
        <ele>1047.743088</ele>
        <time>2026-07-13T08:21:55.000Z</time>
      </trkpt>
      <trkpt lat="46.42227" lon="13.57098">
        <ele>1048.840006</ele>
        <time>2026-07-13T08:22:01.000Z</time>
      </trkpt>
      <trkpt lat="46.42241" lon="13.571">
        <ele>1050.134287</ele>
        <time>2026-07-13T08:22:08.000Z</time>
      </trkpt>
      <trkpt lat="46.42256" lon="13.57103">
        <ele>1051.410831</ele>
        <time>2026-07-13T08:22:16.000Z</time>
      </trkpt>
      <trkpt lat="46.42267" lon="13.57107">
        <ele>1052.362931</ele>
        <time>2026-07-13T08:22:21.000Z</time>
      </trkpt>
      <trkpt lat="46.42272" lon="13.57107">
        <ele>1052.867883</ele>
        <time>2026-07-13T08:22:26.000Z</time>
      </trkpt>
      <trkpt lat="46.42277" lon="13.57103">
        <ele>1053.322794</ele>
        <time>2026-07-13T08:22:51.000Z</time>
      </trkpt>
      <trkpt lat="46.42284" lon="13.57103">
        <ele>1053.79416</ele>
        <time>2026-07-13T08:22:54.000Z</time>
      </trkpt>
      <trkpt lat="46.42295" lon="13.57101">
        <ele>1054.395656</ele>
        <time>2026-07-13T08:23:00.000Z</time>
      </trkpt>
      <trkpt lat="46.42307" lon="13.57101">
        <ele>1055.052166</ele>
        <time>2026-07-13T08:23:07.000Z</time>
      </trkpt>
      <trkpt lat="46.42319" lon="13.57101">
        <ele>1055.692934</ele>
        <time>2026-07-13T08:23:14.000Z</time>
      </trkpt>
      <trkpt lat="46.42329" lon="13.57103">
        <ele>1056.253581</ele>
        <time>2026-07-13T08:23:20.000Z</time>
      </trkpt>
      <trkpt lat="46.42334" lon="13.57103">
        <ele>1056.494179</ele>
        <time>2026-07-13T08:23:22.000Z</time>
      </trkpt>
      <trkpt lat="46.42337" lon="13.57105">
        <ele>1056.69828</ele>
        <time>2026-07-13T08:23:24.000Z</time>
      </trkpt>
      <trkpt lat="46.4234" lon="13.57107">
        <ele>1056.885911</ele>
        <time>2026-07-13T08:23:26.000Z</time>
      </trkpt>
      <trkpt lat="46.42344" lon="13.57107">
        <ele>1057.097547</ele>
        <time>2026-07-13T08:23:28.000Z</time>
      </trkpt>
      <trkpt lat="46.42347" lon="13.57108">
        <ele>1057.230163</ele>
        <time>2026-07-13T08:23:29.000Z</time>
      </trkpt>
      <trkpt lat="46.42348" lon="13.57107">
        <ele>1057.340111</ele>
        <time>2026-07-13T08:23:31.000Z</time>
      </trkpt>
      <trkpt lat="46.42352" lon="13.57109">
        <ele>1057.545612</ele>
        <time>2026-07-13T08:23:33.000Z</time>
      </trkpt>
      <trkpt lat="46.42361" lon="13.57111">
        <ele>1058.041444</ele>
        <time>2026-07-13T08:23:38.000Z</time>
      </trkpt>
      <trkpt lat="46.42365" lon="13.57112">
        <ele>1058.282536</ele>
        <time>2026-07-13T08:23:40.000Z</time>
      </trkpt>
      <trkpt lat="46.42372" lon="13.57115">
        <ele>1058.680385</ele>
        <time>2026-07-13T08:23:43.000Z</time>
      </trkpt>
      <trkpt lat="46.42386" lon="13.57117">
        <ele>1059.416294</ele>
        <time>2026-07-13T08:23:50.000Z</time>
      </trkpt>
      <trkpt lat="46.42388" lon="13.57118">
        <ele>1059.521065</ele>
        <time>2026-07-13T08:23:51.000Z</time>
      </trkpt>
      <trkpt lat="46.4239" lon="13.57118">
        <ele>1059.678454</ele>
        <time>2026-07-13T08:23:53.000Z</time>
      </trkpt>
      <trkpt lat="46.42409" lon="13.57123">
        <ele>1060.696846</ele>
        <time>2026-07-13T08:24:01.000Z</time>
      </trkpt>
      <trkpt lat="46.42427" lon="13.57126">
        <ele>1061.669117</ele>
        <time>2026-07-13T08:24:09.000Z</time>
      </trkpt>
      <trkpt lat="46.4243" lon="13.57126">
        <ele>1061.859935</ele>
        <time>2026-07-13T08:24:11.000Z</time>
      </trkpt>
      <trkpt lat="46.42434" lon="13.57128">
        <ele>1062.067784</ele>
        <time>2026-07-13T08:24:13.000Z</time>
      </trkpt>
      <trkpt lat="46.42437" lon="13.57136">
        <ele>1062.419283</ele>
        <time>2026-07-13T08:24:16.000Z</time>
      </trkpt>
      <trkpt lat="46.42437" lon="13.57141">
        <ele>1062.621316</ele>
        <time>2026-07-13T08:24:18.000Z</time>
      </trkpt>
      <trkpt lat="46.42434" lon="13.57142">
        <ele>1062.798921</ele>
        <time>2026-07-13T08:24:20.000Z</time>
      </trkpt>
      <trkpt lat="46.42421" lon="13.57133">
        <ele>1063.596366</ele>
        <time>2026-07-13T08:24:27.000Z</time>
      </trkpt>
      <trkpt lat="46.42405" lon="13.57129">
        <ele>1064.448357</ele>
        <time>2026-07-13T08:24:34.000Z</time>
      </trkpt>
      <trkpt lat="46.42387" lon="13.57126">
        <ele>1065.407244</ele>
        <time>2026-07-13T08:24:42.000Z</time>
      </trkpt>
      <trkpt lat="46.42365" lon="13.57126">
        <ele>1066.611436</ele>
        <time>2026-07-13T08:24:52.000Z</time>
      </trkpt>
      <trkpt lat="46.42348" lon="13.57125">
        <ele>1067.517704</ele>
        <time>2026-07-13T08:25:00.000Z</time>
      </trkpt>
      <trkpt lat="46.42334" lon="13.57126">
        <ele>1068.232823</ele>
        <time>2026-07-13T08:25:07.000Z</time>
      </trkpt>
      <trkpt lat="46.4232" lon="13.57131">
        <ele>1069.007097</ele>
        <time>2026-07-13T08:25:15.000Z</time>
      </trkpt>
      <trkpt lat="46.42312" lon="13.57136">
        <ele>1069.464883</ele>
        <time>2026-07-13T08:25:20.000Z</time>
      </trkpt>
      <trkpt lat="46.42301" lon="13.57141">
        <ele>1070.107604</ele>
        <time>2026-07-13T08:25:26.000Z</time>
      </trkpt>
      <trkpt lat="46.42286" lon="13.57141">
        <ele>1070.891158</ele>
        <time>2026-07-13T08:25:33.000Z</time>
      </trkpt>
      <trkpt lat="46.42275" lon="13.5715">
        <ele>1071.535441</ele>
        <time>2026-07-13T08:25:39.000Z</time>
      </trkpt>
      <trkpt lat="46.42263" lon="13.57153">
        <ele>1072.186904</ele>
        <time>2026-07-13T08:25:45.000Z</time>
      </trkpt>
      <trkpt lat="46.42252" lon="13.57153">
        <ele>1072.773292</ele>
        <time>2026-07-13T08:25:50.000Z</time>
      </trkpt>
      <trkpt lat="46.42241" lon="13.57151">
        <ele>1074.118058</ele>
        <time>2026-07-13T08:25:56.000Z</time>
      </trkpt>
      <trkpt lat="46.42224" lon="13.57148">
        <ele>1076.456772</ele>
        <time>2026-07-13T08:26:04.000Z</time>
      </trkpt>
      <trkpt lat="46.4221" lon="13.57152">
        <ele>1078.438623</ele>
        <time>2026-07-13T08:26:11.000Z</time>
      </trkpt>
      <trkpt lat="46.42199" lon="13.5716">
        <ele>1080.129436</ele>
        <time>2026-07-13T08:26:17.000Z</time>
      </trkpt>
      <trkpt lat="46.42184" lon="13.57175">
        <ele>1082.602755</ele>
        <time>2026-07-13T08:26:26.000Z</time>
      </trkpt>
      <trkpt lat="46.42174" lon="13.57182">
        <ele>1084.163581</ele>
        <time>2026-07-13T08:26:32.000Z</time>
      </trkpt>
      <trkpt lat="46.42161" lon="13.57186">
        <ele>1085.952931</ele>
        <time>2026-07-13T08:26:39.000Z</time>
      </trkpt>
      <trkpt lat="46.4215" lon="13.57189">
        <ele>1087.552183</ele>
        <time>2026-07-13T08:26:46.000Z</time>
      </trkpt>
      <trkpt lat="46.42133" lon="13.57187">
        <ele>1089.860119</ele>
        <time>2026-07-13T08:26:53.000Z</time>
      </trkpt>
      <trkpt lat="46.42117" lon="13.57185">
        <ele>1092.049097</ele>
        <time>2026-07-13T08:27:01.000Z</time>
      </trkpt>
      <trkpt lat="46.42109" lon="13.57178">
        <ele>1093.304464</ele>
        <time>2026-07-13T08:27:07.000Z</time>
      </trkpt>
      <trkpt lat="46.42107" lon="13.57175">
        <ele>1093.632777</ele>
        <time>2026-07-13T08:27:08.000Z</time>
      </trkpt>
      <trkpt lat="46.42093" lon="13.57172">
        <ele>1095.691603</ele>
        <time>2026-07-13T08:27:15.000Z</time>
      </trkpt>
      <trkpt lat="46.42086" lon="13.57167">
        <ele>1096.660967</ele>
        <time>2026-07-13T08:27:19.000Z</time>
      </trkpt>
      <trkpt lat="46.42083" lon="13.57165">
        <ele>1097.137539</ele>
        <time>2026-07-13T08:27:21.000Z</time>
      </trkpt>
      <trkpt lat="46.42069" lon="13.57153">
        <ele>1097.828813</ele>
        <time>2026-07-13T08:27:30.000Z</time>
      </trkpt>
      <trkpt lat="46.4205" lon="13.57141">
        <ele>1098.31005</ele>
        <time>2026-07-13T08:27:39.000Z</time>
      </trkpt>
      <trkpt lat="46.42031" lon="13.57144">
        <ele>1098.755682</ele>
        <time>2026-07-13T08:27:47.000Z</time>
      </trkpt>
      <trkpt lat="46.42021" lon="13.57145">
        <ele>1098.985916</ele>
        <time>2026-07-13T08:27:51.000Z</time>
      </trkpt>
      <trkpt lat="46.42017" lon="13.57149">
        <ele>1099.122871</ele>
        <time>2026-07-13T08:27:54.000Z</time>
      </trkpt>
      <trkpt lat="46.42005" lon="13.57153">
        <ele>1099.391371</ele>
        <time>2026-07-13T08:28:00.000Z</time>
      </trkpt>
      <trkpt lat="46.41993" lon="13.57163">
        <ele>1099.733281</ele>
        <time>2026-07-13T08:28:07.000Z</time>
      </trkpt>
      <trkpt lat="46.41975" lon="13.57173">
        <ele>1100.170682</ele>
        <time>2026-07-13T08:28:16.000Z</time>
      </trkpt>
      <trkpt lat="46.41955" lon="13.57177">
        <ele>1100.65881</ele>
        <time>2026-07-13T08:28:26.000Z</time>
      </trkpt>
      <trkpt lat="46.41941" lon="13.57184">
        <ele>1100.992462</ele>
        <time>2026-07-13T08:28:33.000Z</time>
      </trkpt>
      <trkpt lat="46.41931" lon="13.57194">
        <ele>1101.286015</ele>
        <time>2026-07-13T08:28:39.000Z</time>
      </trkpt>
      <trkpt lat="46.4192" lon="13.57211">
        <ele>1101.650061</ele>
        <time>2026-07-13T08:28:47.000Z</time>
      </trkpt>
      <trkpt lat="46.41912" lon="13.5723">
        <ele>1103.174344</ele>
        <time>2026-07-13T08:28:56.000Z</time>
      </trkpt>
      <trkpt lat="46.41905" lon="13.57243">
        <ele>1104.443796</ele>
        <time>2026-07-13T08:29:02.000Z</time>
      </trkpt>
      <trkpt lat="46.41903" lon="13.57255">
        <ele>1105.389359</ele>
        <time>2026-07-13T08:29:08.000Z</time>
      </trkpt>
      <trkpt lat="46.41904" lon="13.57262">
        <ele>1105.955203</ele>
        <time>2026-07-13T08:29:24.000Z</time>
      </trkpt>
      <trkpt lat="46.41905" lon="13.57269">
        <ele>1106.525582</ele>
        <time>2026-07-13T08:29:27.000Z</time>
      </trkpt>
      <trkpt lat="46.41911" lon="13.57275">
        <ele>1107.407474</ele>
        <time>2026-07-13T08:29:31.000Z</time>
      </trkpt>
      <trkpt lat="46.41917" lon="13.57278">
        <ele>1108.107034</ele>
        <time>2026-07-13T08:29:34.000Z</time>
      </trkpt>
      <trkpt lat="46.41921" lon="13.57277">
        <ele>1108.518929</ele>
        <time>2026-07-13T08:29:36.000Z</time>
      </trkpt>
      <trkpt lat="46.41924" lon="13.57272">
        <ele>1109.000705</ele>
        <time>2026-07-13T08:29:38.000Z</time>
      </trkpt>
      <trkpt lat="46.41935" lon="13.57255">
        <ele>1110.837663</ele>
        <time>2026-07-13T08:29:45.000Z</time>
      </trkpt>
      <trkpt lat="46.4195" lon="13.57236">
        <ele>1113.163747</ele>
        <time>2026-07-13T08:29:55.000Z</time>
      </trkpt>
      <trkpt lat="46.4196" lon="13.57232">
        <ele>1114.323064</ele>
        <time>2026-07-13T08:30:00.000Z</time>
      </trkpt>
      <trkpt lat="46.41974" lon="13.57226">
        <ele>1115.927691</ele>
        <time>2026-07-13T08:30:08.000Z</time>
      </trkpt>
      <trkpt lat="46.41985" lon="13.57227">
        <ele>1117.198546</ele>
        <time>2026-07-13T08:30:15.000Z</time>
      </trkpt>
      <trkpt lat="46.41995" lon="13.57234">
        <ele>1118.441308</ele>
        <time>2026-07-13T08:30:21.000Z</time>
      </trkpt>
      <trkpt lat="46.42006" lon="13.57237">
        <ele>1119.729373</ele>
        <time>2026-07-13T08:30:28.000Z</time>
      </trkpt>
      <trkpt lat="46.42014" lon="13.57236">
        <ele>1120.659957</ele>
        <time>2026-07-13T08:30:33.000Z</time>
      </trkpt>
      <trkpt lat="46.42018" lon="13.57236">
        <ele>1121.038324</ele>
        <time>2026-07-13T08:30:35.000Z</time>
      </trkpt>
      <trkpt lat="46.4202" lon="13.57235">
        <ele>1121.301127</ele>
        <time>2026-07-13T08:30:37.000Z</time>
      </trkpt>
      <trkpt lat="46.42026" lon="13.57238">
        <ele>1121.985383</ele>
        <time>2026-07-13T08:30:41.000Z</time>
      </trkpt>
      <trkpt lat="46.4203" lon="13.57243">
        <ele>1122.474036</ele>
        <time>2026-07-13T08:30:45.000Z</time>
      </trkpt>
      <trkpt lat="46.42031" lon="13.57247">
        <ele>1122.67275</ele>
        <time>2026-07-13T08:30:47.000Z</time>
      </trkpt>
      <trkpt lat="46.42026" lon="13.57255">
        <ele>1123.223274</ele>
        <time>2026-07-13T08:30:52.000Z</time>
      </trkpt>
      <trkpt lat="46.4202" lon="13.57258">
        <ele>1123.72763</ele>
        <time>2026-07-13T08:30:56.000Z</time>
      </trkpt>
      <trkpt lat="46.42015" lon="13.57262">
        <ele>1124.181682</ele>
        <time>2026-07-13T08:30:59.000Z</time>
      </trkpt>
      <trkpt lat="46.42003" lon="13.57271">
        <ele>1125.135246</ele>
        <time>2026-07-13T08:31:06.000Z</time>
      </trkpt>
      <trkpt lat="46.41993" lon="13.57284">
        <ele>1126.13567</ele>
        <time>2026-07-13T08:31:14.000Z</time>
      </trkpt>
      <trkpt lat="46.41987" lon="13.57295">
        <ele>1126.899061</ele>
        <time>2026-07-13T08:31:21.000Z</time>
      </trkpt>
      <trkpt lat="46.41978" lon="13.57308">
        <ele>1127.821541</ele>
        <time>2026-07-13T08:31:29.000Z</time>
      </trkpt>
      <trkpt lat="46.41973" lon="13.57321">
        <ele>1128.592183</ele>
        <time>2026-07-13T08:31:35.000Z</time>
      </trkpt>
      <trkpt lat="46.41965" lon="13.57345">
        <ele>1129.974928</ele>
        <time>2026-07-13T08:31:45.000Z</time>
      </trkpt>
      <trkpt lat="46.41962" lon="13.57359">
        <ele>1130.716486</ele>
        <time>2026-07-13T08:31:51.000Z</time>
      </trkpt>
      <trkpt lat="46.41962" lon="13.57365">
        <ele>1131.074436</ele>
        <time>2026-07-13T08:31:54.000Z</time>
      </trkpt>
      <trkpt lat="46.41957" lon="13.5739">
        <ele>1132.381162</ele>
        <time>2026-07-13T08:32:05.000Z</time>
      </trkpt>
      <trkpt lat="46.41951" lon="13.57411">
        <ele>1133.532792</ele>
        <time>2026-07-13T08:32:14.000Z</time>
      </trkpt>
      <trkpt lat="46.41944" lon="13.57434">
        <ele>1134.851297</ele>
        <time>2026-07-13T08:32:24.000Z</time>
      </trkpt>
      <trkpt lat="46.41939" lon="13.57449">
        <ele>1135.751806</ele>
        <time>2026-07-13T08:32:30.000Z</time>
      </trkpt>
      <trkpt lat="46.41938" lon="13.57454">
        <ele>1136.101565</ele>
        <time>2026-07-13T08:32:32.000Z</time>
      </trkpt>
      <trkpt lat="46.41932" lon="13.57474">
        <ele>1137.442675</ele>
        <time>2026-07-13T08:32:40.000Z</time>
      </trkpt>
      <trkpt lat="46.41926" lon="13.57496">
        <ele>1138.886756</ele>
        <time>2026-07-13T08:32:49.000Z</time>
      </trkpt>
      <trkpt lat="46.41925" lon="13.57497">
        <ele>1139.01062</ele>
        <time>2026-07-13T08:32:50.000Z</time>
      </trkpt>
      <trkpt lat="46.41921" lon="13.57515">
        <ele>1140.20039</ele>
        <time>2026-07-13T08:32:58.000Z</time>
      </trkpt>
      <trkpt lat="46.41917" lon="13.57526">
        <ele>1140.973808</ele>
        <time>2026-07-13T08:33:03.000Z</time>
      </trkpt>
      <trkpt lat="46.41915" lon="13.5753">
        <ele>1141.3043</ele>
        <time>2026-07-13T08:33:05.000Z</time>
      </trkpt>
      <trkpt lat="46.41907" lon="13.57557">
        <ele>1143.123304</ele>
        <time>2026-07-13T08:33:15.000Z</time>
      </trkpt>
      <trkpt lat="46.419" lon="13.5758">
        <ele>1144.690271</ele>
        <time>2026-07-13T08:33:24.000Z</time>
      </trkpt>
      <trkpt lat="46.41894" lon="13.576">
        <ele>1146.046384</ele>
        <time>2026-07-13T08:33:32.000Z</time>
      </trkpt>
      <trkpt lat="46.41889" lon="13.57621">
        <ele>1147.45427</ele>
        <time>2026-07-13T08:33:40.000Z</time>
      </trkpt>
      <trkpt lat="46.41882" lon="13.57642">
        <ele>1148.896248</ele>
        <time>2026-07-13T08:33:48.000Z</time>
      </trkpt>
      <trkpt lat="46.41876" lon="13.57663">
        <ele>1150.326785</ele>
        <time>2026-07-13T08:33:56.000Z</time>
      </trkpt>
      <trkpt lat="46.41868" lon="13.57688">
        <ele>1152.004152</ele>
        <time>2026-07-13T08:34:06.000Z</time>
      </trkpt>
      <trkpt lat="46.41865" lon="13.577">
        <ele>1152.406448</ele>
        <time>2026-07-13T08:34:11.000Z</time>
      </trkpt>
      <trkpt lat="46.41864" lon="13.57702">
        <ele>1152.472963</ele>
        <time>2026-07-13T08:34:13.000Z</time>
      </trkpt>
      <trkpt lat="46.41863" lon="13.57705">
        <ele>1152.575896</ele>
        <time>2026-07-13T08:34:15.000Z</time>
      </trkpt>
      <trkpt lat="46.41862" lon="13.57706">
        <ele>1152.62239</ele>
        <time>2026-07-13T08:34:17.000Z</time>
      </trkpt>
      <trkpt lat="46.41862" lon="13.57706">
        <ele>1152.627862</ele>
        <time>2026-07-13T08:34:18.000Z</time>
      </trkpt>
      <trkpt lat="46.4186" lon="13.57715">
        <ele>1152.932687</ele>
        <time>2026-07-13T08:39:31.000Z</time>
      </trkpt>
      <trkpt lat="46.4186" lon="13.57717">
        <ele>1152.993224</ele>
        <time>2026-07-13T08:39:32.000Z</time>
      </trkpt>
      <trkpt lat="46.41858" lon="13.57733">
        <ele>1153.493668</ele>
        <time>2026-07-13T08:39:41.000Z</time>
      </trkpt>
      <trkpt lat="46.41852" lon="13.57749">
        <ele>1154.050262</ele>
        <time>2026-07-13T08:39:51.000Z</time>
      </trkpt>
      <trkpt lat="46.41849" lon="13.57754">
        <ele>1154.236944</ele>
        <time>2026-07-13T08:39:54.000Z</time>
      </trkpt>
      <trkpt lat="46.41842" lon="13.57767">
        <ele>1154.754167</ele>
        <time>2026-07-13T08:40:04.000Z</time>
      </trkpt>
      <trkpt lat="46.41842" lon="13.57776">
        <ele>1155.046977</ele>
        <time>2026-07-13T08:40:10.000Z</time>
      </trkpt>
      <trkpt lat="46.41843" lon="13.57779">
        <ele>1155.136567</ele>
        <time>2026-07-13T08:40:13.000Z</time>
      </trkpt>
      <trkpt lat="46.41843" lon="13.57781">
        <ele>1155.186259</ele>
        <time>2026-07-13T08:40:15.000Z</time>
      </trkpt>
      <trkpt lat="46.41842" lon="13.57785">
        <ele>1155.330592</ele>
        <time>2026-07-13T08:40:17.000Z</time>
      </trkpt>
      <trkpt lat="46.41843" lon="13.57792">
        <ele>1155.538717</ele>
        <time>2026-07-13T08:40:20.000Z</time>
      </trkpt>
      <trkpt lat="46.41842" lon="13.57792">
        <ele>1155.549661</ele>
        <time>2026-07-13T08:40:21.000Z</time>
      </trkpt>
      <trkpt lat="46.41845" lon="13.57802">
        <ele>1155.866806</ele>
        <time>2026-07-13T08:40:27.000Z</time>
      </trkpt>
      <trkpt lat="46.41851" lon="13.57815">
        <ele>1156.385887</ele>
        <time>2026-07-13T08:40:33.000Z</time>
      </trkpt>
      <trkpt lat="46.41854" lon="13.57823">
        <ele>1156.67091</ele>
        <time>2026-07-13T08:40:37.000Z</time>
      </trkpt>
      <trkpt lat="46.41855" lon="13.57829">
        <ele>1156.850077</ele>
        <time>2026-07-13T08:40:39.000Z</time>
      </trkpt>
      <trkpt lat="46.41856" lon="13.57832">
        <ele>1156.942544</ele>
        <time>2026-07-13T08:40:40.000Z</time>
      </trkpt>
      <trkpt lat="46.41859" lon="13.57836">
        <ele>1157.133129</ele>
        <time>2026-07-13T08:40:42.000Z</time>
      </trkpt>
      <trkpt lat="46.41862" lon="13.57842">
        <ele>1157.345891</ele>
        <time>2026-07-13T08:40:44.000Z</time>
      </trkpt>
      <trkpt lat="46.4187" lon="13.57864">
        <ele>1158.131478</ele>
        <time>2026-07-13T08:40:51.000Z</time>
      </trkpt>
      <trkpt lat="46.4187" lon="13.57868">
        <ele>1158.234473</ele>
        <time>2026-07-13T08:40:52.000Z</time>
      </trkpt>
      <trkpt lat="46.41873" lon="13.57891">
        <ele>1158.967947</ele>
        <time>2026-07-13T08:40:58.000Z</time>
      </trkpt>
      <trkpt lat="46.41873" lon="13.57893">
        <ele>1159.022447</ele>
        <time>2026-07-13T08:41:01.000Z</time>
      </trkpt>
      <trkpt lat="46.41877" lon="13.57894">
        <ele>1159.20975</ele>
        <time>2026-07-13T08:43:42.000Z</time>
      </trkpt>
      <trkpt lat="46.41883" lon="13.57892">
        <ele>1159.507872</ele>
        <time>2026-07-13T08:43:45.000Z</time>
      </trkpt>
      <trkpt lat="46.4186" lon="13.57905">
        <ele>1159.874803</ele>
        <time>2026-07-13T09:10:07.000Z</time>
      </trkpt>
      <trkpt lat="46.4186" lon="13.57904">
        <ele>1159.86329</ele>
        <time>2026-07-13T09:10:08.000Z</time>
      </trkpt>
      <trkpt lat="46.41861" lon="13.57903">
        <ele>1159.839897</ele>
        <time>2026-07-13T09:10:09.000Z</time>
      </trkpt>
      <trkpt lat="46.41862" lon="13.57904">
        <ele>1159.835655</ele>
        <time>2026-07-13T09:10:11.000Z</time>
      </trkpt>
      <trkpt lat="46.41862" lon="13.57904">
        <ele>1159.833086</ele>
        <time>2026-07-13T09:10:12.000Z</time>
      </trkpt>
      <trkpt lat="46.41859" lon="13.57909">
        <ele>1159.775047</ele>
        <time>2026-07-13T09:10:30.000Z</time>
      </trkpt>
      <trkpt lat="46.41859" lon="13.57908">
        <ele>1159.769612</ele>
        <time>2026-07-13T09:10:31.000Z</time>
      </trkpt>
      <trkpt lat="46.41859" lon="13.57908">
        <ele>1159.766955</ele>
        <time>2026-07-13T09:10:32.000Z</time>
      </trkpt>
      <trkpt lat="46.41875" lon="13.57893">
        <ele>1159.528655</ele>
        <time>2026-07-13T09:12:01.000Z</time>
      </trkpt>
      <trkpt lat="46.41875" lon="13.57891">
        <ele>1159.508125</ele>
        <time>2026-07-13T09:12:02.000Z</time>
      </trkpt>
      <trkpt lat="46.41874" lon="13.57889">
        <ele>1159.49202</ele>
        <time>2026-07-13T09:12:03.000Z</time>
      </trkpt>
      <trkpt lat="46.41873" lon="13.57888">
        <ele>1159.479603</ele>
        <time>2026-07-13T09:12:05.000Z</time>
      </trkpt>
      <trkpt lat="46.41868" lon="13.57892">
        <ele>1159.402446</ele>
        <time>2026-07-13T09:15:01.000Z</time>
      </trkpt>
      <trkpt lat="46.41867" lon="13.57892">
        <ele>1159.395962</ele>
        <time>2026-07-13T09:15:02.000Z</time>
      </trkpt>
      <trkpt lat="46.41867" lon="13.57891">
        <ele>1159.391586</ele>
        <time>2026-07-13T09:15:03.000Z</time>
      </trkpt>
      <trkpt lat="46.41881" lon="13.57899">
        <ele>1159.206279</ele>
        <time>2026-07-13T09:15:53.000Z</time>
      </trkpt>
      <trkpt lat="46.41881" lon="13.57903">
        <ele>1159.177678</ele>
        <time>2026-07-13T09:15:54.000Z</time>
      </trkpt>
      <trkpt lat="46.41882" lon="13.57906">
        <ele>1159.1471</ele>
        <time>2026-07-13T09:15:55.000Z</time>
      </trkpt>
      <trkpt lat="46.41884" lon="13.57931">
        <ele>1158.924937</ele>
        <time>2026-07-13T09:16:01.000Z</time>
      </trkpt>
      <trkpt lat="46.41884" lon="13.57949">
        <ele>1158.762864</ele>
        <time>2026-07-13T09:16:04.000Z</time>
      </trkpt>
      <trkpt lat="46.41887" lon="13.57965">
        <ele>1158.614111</ele>
        <time>2026-07-13T09:16:07.000Z</time>
      </trkpt>
      <trkpt lat="46.41893" lon="13.57989">
        <ele>1158.394733</ele>
        <time>2026-07-13T09:16:11.000Z</time>
      </trkpt>
      <trkpt lat="46.41897" lon="13.57999">
        <ele>1158.286788</ele>
        <time>2026-07-13T09:16:13.000Z</time>
      </trkpt>
      <trkpt lat="46.419" lon="13.58004">
        <ele>1158.229899</ele>
        <time>2026-07-13T09:16:14.000Z</time>
      </trkpt>
      <trkpt lat="46.41908" lon="13.58028">
        <ele>1157.995056</ele>
        <time>2026-07-13T09:16:18.000Z</time>
      </trkpt>
      <trkpt lat="46.41909" lon="13.58042">
        <ele>1157.873177</ele>
        <time>2026-07-13T09:16:20.000Z</time>
      </trkpt>
      <trkpt lat="46.41905" lon="13.58091">
        <ele>1156.539402</ele>
        <time>2026-07-13T09:16:27.000Z</time>
      </trkpt>
      <trkpt lat="46.41906" lon="13.58099">
        <ele>1156.282239</ele>
        <time>2026-07-13T09:16:28.000Z</time>
      </trkpt>
      <trkpt lat="46.4191" lon="13.58122">
        <ele>1155.459746</ele>
        <time>2026-07-13T09:16:31.000Z</time>
      </trkpt>
      <trkpt lat="46.41912" lon="13.58129">
        <ele>1155.178433</ele>
        <time>2026-07-13T09:16:32.000Z</time>
      </trkpt>
      <trkpt lat="46.41915" lon="13.58136">
        <ele>1154.897904</ele>
        <time>2026-07-13T09:16:33.000Z</time>
      </trkpt>
      <trkpt lat="46.41924" lon="13.58158">
        <ele>1153.993672</ele>
        <time>2026-07-13T09:16:36.000Z</time>
      </trkpt>
      <trkpt lat="46.41929" lon="13.58166">
        <ele>1153.668147</ele>
        <time>2026-07-13T09:16:37.000Z</time>
      </trkpt>
      <trkpt lat="46.41952" lon="13.58205">
        <ele>1151.856259</ele>
        <time>2026-07-13T09:16:43.000Z</time>
      </trkpt>
      <trkpt lat="46.41955" lon="13.58212">
        <ele>1151.605793</ele>
        <time>2026-07-13T09:16:44.000Z</time>
      </trkpt>
      <trkpt lat="46.41959" lon="13.58224">
        <ele>1151.116529</ele>
        <time>2026-07-13T09:16:46.000Z</time>
      </trkpt>
      <trkpt lat="46.41961" lon="13.58246">
        <ele>1150.37648</ele>
        <time>2026-07-13T09:16:49.000Z</time>
      </trkpt>
      <trkpt lat="46.41961" lon="13.5826">
        <ele>1149.872184</ele>
        <time>2026-07-13T09:16:51.000Z</time>
      </trkpt>
      <trkpt lat="46.41963" lon="13.58274">
        <ele>1149.384431</ele>
        <time>2026-07-13T09:16:53.000Z</time>
      </trkpt>
      <trkpt lat="46.41968" lon="13.58286">
        <ele>1148.897887</ele>
        <time>2026-07-13T09:16:55.000Z</time>
      </trkpt>
      <trkpt lat="46.41976" lon="13.58298">
        <ele>1148.336684</ele>
        <time>2026-07-13T09:16:57.000Z</time>
      </trkpt>
      <trkpt lat="46.41991" lon="13.58311">
        <ele>1147.474103</ele>
        <time>2026-07-13T09:17:00.000Z</time>
      </trkpt>
      <trkpt lat="46.42024" lon="13.58342">
        <ele>1145.476322</ele>
        <time>2026-07-13T09:17:06.000Z</time>
      </trkpt>
      <trkpt lat="46.42034" lon="13.58357">
        <ele>1144.767417</ele>
        <time>2026-07-13T09:17:08.000Z</time>
      </trkpt>
      <trkpt lat="46.42037" lon="13.58366">
        <ele>1144.423815</ele>
        <time>2026-07-13T09:17:09.000Z</time>
      </trkpt>
      <trkpt lat="46.42038" lon="13.58376">
        <ele>1144.059862</ele>
        <time>2026-07-13T09:17:10.000Z</time>
      </trkpt>
      <trkpt lat="46.42036" lon="13.58396">
        <ele>1143.340308</ele>
        <time>2026-07-13T09:17:12.000Z</time>
      </trkpt>
      <trkpt lat="46.42027" lon="13.58414">
        <ele>1142.556821</ele>
        <time>2026-07-13T09:17:14.000Z</time>
      </trkpt>
      <trkpt lat="46.42021" lon="13.58423">
        <ele>1142.144851</ele>
        <time>2026-07-13T09:17:15.000Z</time>
      </trkpt>
      <trkpt lat="46.42012" lon="13.58443">
        <ele>1141.305323</ele>
        <time>2026-07-13T09:17:17.000Z</time>
      </trkpt>
      <trkpt lat="46.4201" lon="13.58454">
        <ele>1140.920819</ele>
        <time>2026-07-13T09:17:18.000Z</time>
      </trkpt>
      <trkpt lat="46.4201" lon="13.58464">
        <ele>1140.549715</ele>
        <time>2026-07-13T09:17:19.000Z</time>
      </trkpt>
      <trkpt lat="46.42016" lon="13.58484">
        <ele>1139.817478</ele>
        <time>2026-07-13T09:17:21.000Z</time>
      </trkpt>
      <trkpt lat="46.42036" lon="13.58507">
        <ele>1138.877614</ele>
        <time>2026-07-13T09:17:24.000Z</time>
      </trkpt>
      <trkpt lat="46.42049" lon="13.58529">
        <ele>1138.213822</ele>
        <time>2026-07-13T09:17:26.000Z</time>
      </trkpt>
      <trkpt lat="46.42053" lon="13.58542">
        <ele>1137.874037</ele>
        <time>2026-07-13T09:17:27.000Z</time>
      </trkpt>
      <trkpt lat="46.42056" lon="13.58556">
        <ele>1137.532647</ele>
        <time>2026-07-13T09:17:28.000Z</time>
      </trkpt>
      <trkpt lat="46.42067" lon="13.58579">
        <ele>1136.862047</ele>
        <time>2026-07-13T09:17:30.000Z</time>
      </trkpt>
      <trkpt lat="46.4209" lon="13.58602">
        <ele>1135.905648</ele>
        <time>2026-07-13T09:17:33.000Z</time>
      </trkpt>
      <trkpt lat="46.42095" lon="13.5862">
        <ele>1135.438813</ele>
        <time>2026-07-13T09:17:35.000Z</time>
      </trkpt>
      <trkpt lat="46.42092" lon="13.58637">
        <ele>1135.030896</ele>
        <time>2026-07-13T09:17:37.000Z</time>
      </trkpt>
      <trkpt lat="46.4208" lon="13.58673">
        <ele>1134.087776</ele>
        <time>2026-07-13T09:17:42.000Z</time>
      </trkpt>
      <trkpt lat="46.42079" lon="13.58679">
        <ele>1133.939501</ele>
        <time>2026-07-13T09:17:43.000Z</time>
      </trkpt>
      <trkpt lat="46.42078" lon="13.58704">
        <ele>1133.238119</ele>
        <time>2026-07-13T09:17:47.000Z</time>
      </trkpt>
      <trkpt lat="46.42077" lon="13.5871">
        <ele>1132.999974</ele>
        <time>2026-07-13T09:17:48.000Z</time>
      </trkpt>
      <trkpt lat="46.42075" lon="13.58715">
        <ele>1132.763092</ele>
        <time>2026-07-13T09:17:49.000Z</time>
      </trkpt>
      <trkpt lat="46.42066" lon="13.58738">
        <ele>1131.698866</ele>
        <time>2026-07-13T09:17:53.000Z</time>
      </trkpt>
      <trkpt lat="46.42062" lon="13.5875">
        <ele>1131.13481</ele>
        <time>2026-07-13T09:17:55.000Z</time>
      </trkpt>
      <trkpt lat="46.4206" lon="13.58765">
        <ele>1130.549983</ele>
        <time>2026-07-13T09:17:57.000Z</time>
      </trkpt>
      <trkpt lat="46.42059" lon="13.58779">
        <ele>1129.968192</ele>
        <time>2026-07-13T09:17:59.000Z</time>
      </trkpt>
      <trkpt lat="46.42061" lon="13.5881">
        <ele>1128.72054</ele>
        <time>2026-07-13T09:18:03.000Z</time>
      </trkpt>
      <trkpt lat="46.42063" lon="13.58825">
        <ele>1128.115512</ele>
        <time>2026-07-13T09:18:05.000Z</time>
      </trkpt>
      <trkpt lat="46.42068" lon="13.58838">
        <ele>1127.483976</ele>
        <time>2026-07-13T09:18:07.000Z</time>
      </trkpt>
      <trkpt lat="46.42077" lon="13.58849">
        <ele>1126.802207</ele>
        <time>2026-07-13T09:18:09.000Z</time>
      </trkpt>
      <trkpt lat="46.42088" lon="13.58861">
        <ele>1126.01424</ele>
        <time>2026-07-13T09:18:11.000Z</time>
      </trkpt>
      <trkpt lat="46.42098" lon="13.58878">
        <ele>1125.119189</ele>
        <time>2026-07-13T09:18:13.000Z</time>
      </trkpt>
      <trkpt lat="46.42101" lon="13.58889">
        <ele>1124.627263</ele>
        <time>2026-07-13T09:18:14.000Z</time>
      </trkpt>
      <trkpt lat="46.42114" lon="13.58943">
        <ele>1122.310433</ele>
        <time>2026-07-13T09:18:18.000Z</time>
      </trkpt>
      <trkpt lat="46.42132" lon="13.59029">
        <ele>1118.545478</ele>
        <time>2026-07-13T09:18:24.000Z</time>
      </trkpt>
      <trkpt lat="46.42153" lon="13.59114">
        <ele>1114.772008</ele>
        <time>2026-07-13T09:18:30.000Z</time>
      </trkpt>
      <trkpt lat="46.42178" lon="13.59161">
        <ele>1112.290256</ele>
        <time>2026-07-13T09:18:34.000Z</time>
      </trkpt>
      <trkpt lat="46.42205" lon="13.59204">
        <ele>1109.672107</ele>
        <time>2026-07-13T09:18:38.000Z</time>
      </trkpt>
      <trkpt lat="46.42211" lon="13.59215">
        <ele>1109.022976</ele>
        <time>2026-07-13T09:18:39.000Z</time>
      </trkpt>
      <trkpt lat="46.42224" lon="13.59236">
        <ele>1107.787354</ele>
        <time>2026-07-13T09:18:41.000Z</time>
      </trkpt>
      <trkpt lat="46.42239" lon="13.59252">
        <ele>1106.554747</ele>
        <time>2026-07-13T09:18:43.000Z</time>
      </trkpt>
      <trkpt lat="46.42255" lon="13.59263">
        <ele>1105.389223</ele>
        <time>2026-07-13T09:18:45.000Z</time>
      </trkpt>
      <trkpt lat="46.42263" lon="13.59269">
        <ele>1104.823874</ele>
        <time>2026-07-13T09:18:46.000Z</time>
      </trkpt>
      <trkpt lat="46.42274" lon="13.59287">
        <ele>1103.758002</ele>
        <time>2026-07-13T09:18:48.000Z</time>
      </trkpt>
      <trkpt lat="46.42276" lon="13.59298">
        <ele>1103.23473</ele>
        <time>2026-07-13T09:18:49.000Z</time>
      </trkpt>
      <trkpt lat="46.42277" lon="13.59309">
        <ele>1102.70517</ele>
        <time>2026-07-13T09:18:50.000Z</time>
      </trkpt>
      <trkpt lat="46.42281" lon="13.59341">
        <ele>1101.248112</ele>
        <time>2026-07-13T09:18:53.000Z</time>
      </trkpt>
      <trkpt lat="46.42285" lon="13.5936">
        <ele>1100.370408</ele>
        <time>2026-07-13T09:18:55.000Z</time>
      </trkpt>
      <trkpt lat="46.42291" lon="13.59375">
        <ele>1099.915876</ele>
        <time>2026-07-13T09:18:57.000Z</time>
      </trkpt>
      <trkpt lat="46.42298" lon="13.59386">
        <ele>1099.535302</ele>
        <time>2026-07-13T09:18:59.000Z</time>
      </trkpt>
      <trkpt lat="46.42306" lon="13.59394">
        <ele>1099.194074</ele>
        <time>2026-07-13T09:19:01.000Z</time>
      </trkpt>
      <trkpt lat="46.42308" lon="13.59405">
        <ele>1098.909786</ele>
        <time>2026-07-13T09:19:03.000Z</time>
      </trkpt>
      <trkpt lat="46.42304" lon="13.59418">
        <ele>1098.548955</ele>
        <time>2026-07-13T09:19:05.000Z</time>
      </trkpt>
      <trkpt lat="46.42296" lon="13.59432">
        <ele>1098.112256</ele>
        <time>2026-07-13T09:19:07.000Z</time>
      </trkpt>
      <trkpt lat="46.42261" lon="13.59485">
        <ele>1096.310978</ele>
        <time>2026-07-13T09:19:14.000Z</time>
      </trkpt>
      <trkpt lat="46.4223" lon="13.59529">
        <ele>1094.749287</ele>
        <time>2026-07-13T09:19:19.000Z</time>
      </trkpt>
      <trkpt lat="46.42192" lon="13.59588">
        <ele>1091.466401</ele>
        <time>2026-07-13T09:19:25.000Z</time>
      </trkpt>
      <trkpt lat="46.42185" lon="13.59599">
        <ele>1090.68893</ele>
        <time>2026-07-13T09:19:26.000Z</time>
      </trkpt>
      <trkpt lat="46.42179" lon="13.5961">
        <ele>1089.934601</ele>
        <time>2026-07-13T09:19:27.000Z</time>
      </trkpt>
      <trkpt lat="46.42153" lon="13.59657">
        <ele>1086.802259</ele>
        <time>2026-07-13T09:19:31.000Z</time>
      </trkpt>
      <trkpt lat="46.42149" lon="13.59671">
        <ele>1085.988878</ele>
        <time>2026-07-13T09:19:32.000Z</time>
      </trkpt>
      <trkpt lat="46.42128" lon="13.59728">
        <ele>1082.606278</ele>
        <time>2026-07-13T09:19:36.000Z</time>
      </trkpt>
      <trkpt lat="46.42095" lon="13.59798">
        <ele>1078.363749</ele>
        <time>2026-07-13T09:19:41.000Z</time>
      </trkpt>
      <trkpt lat="46.42089" lon="13.59812">
        <ele>1077.547238</ele>
        <time>2026-07-13T09:19:42.000Z</time>
      </trkpt>
      <trkpt lat="46.42071" lon="13.59854">
        <ele>1075.184694</ele>
        <time>2026-07-13T09:19:45.000Z</time>
      </trkpt>
      <trkpt lat="46.42067" lon="13.59868">
        <ele>1074.460877</ele>
        <time>2026-07-13T09:19:46.000Z</time>
      </trkpt>
      <trkpt lat="46.42063" lon="13.59882">
        <ele>1073.713173</ele>
        <time>2026-07-13T09:19:47.000Z</time>
      </trkpt>
      <trkpt lat="46.42044" lon="13.5994">
        <ele>1070.624505</ele>
        <time>2026-07-13T09:19:52.000Z</time>
      </trkpt>
      <trkpt lat="46.42038" lon="13.59959">
        <ele>1069.673135</ele>
        <time>2026-07-13T09:19:54.000Z</time>
      </trkpt>
      <trkpt lat="46.42039" lon="13.59976">
        <ele>1068.835207</ele>
        <time>2026-07-13T09:19:56.000Z</time>
      </trkpt>
      <trkpt lat="46.4205" lon="13.60005">
        <ele>1067.176999</ele>
        <time>2026-07-13T09:19:59.000Z</time>
      </trkpt>
      <trkpt lat="46.4206" lon="13.60027">
        <ele>1065.698444</ele>
        <time>2026-07-13T09:20:01.000Z</time>
      </trkpt>
      <trkpt lat="46.42063" lon="13.60039">
        <ele>1064.935857</ele>
        <time>2026-07-13T09:20:02.000Z</time>
      </trkpt>
      <trkpt lat="46.42065" lon="13.60053">
        <ele>1064.15251</ele>
        <time>2026-07-13T09:20:03.000Z</time>
      </trkpt>
      <trkpt lat="46.42065" lon="13.60081">
        <ele>1062.561895</ele>
        <time>2026-07-13T09:20:05.000Z</time>
      </trkpt>
      <trkpt lat="46.42059" lon="13.60108">
        <ele>1060.98376</ele>
        <time>2026-07-13T09:20:07.000Z</time>
      </trkpt>
      <trkpt lat="46.42054" lon="13.60131">
        <ele>1059.568305</ele>
        <time>2026-07-13T09:20:09.000Z</time>
      </trkpt>
      <trkpt lat="46.42049" lon="13.60166">
        <ele>1057.565675</ele>
        <time>2026-07-13T09:20:12.000Z</time>
      </trkpt>
      <trkpt lat="46.42046" lon="13.60178">
        <ele>1056.842671</ele>
        <time>2026-07-13T09:20:13.000Z</time>
      </trkpt>
      <trkpt lat="46.42027" lon="13.60228">
        <ele>1053.607434</ele>
        <time>2026-07-13T09:20:17.000Z</time>
      </trkpt>
      <trkpt lat="46.42013" lon="13.60264">
        <ele>1051.158158</ele>
        <time>2026-07-13T09:20:20.000Z</time>
      </trkpt>
      <trkpt lat="46.42007" lon="13.60291">
        <ele>1049.463712</ele>
        <time>2026-07-13T09:20:22.000Z</time>
      </trkpt>
      <trkpt lat="46.41984" lon="13.60363">
        <ele>1044.68265</ele>
        <time>2026-07-13T09:20:27.000Z</time>
      </trkpt>
      <trkpt lat="46.41955" lon="13.60443">
        <ele>1039.286383</ele>
        <time>2026-07-13T09:20:33.000Z</time>
      </trkpt>
      <trkpt lat="46.41927" lon="13.60516">
        <ele>1034.55755</ele>
        <time>2026-07-13T09:20:38.000Z</time>
      </trkpt>
      <trkpt lat="46.41921" lon="13.6053">
        <ele>1033.693575</ele>
        <time>2026-07-13T09:20:39.000Z</time>
      </trkpt>
      <trkpt lat="46.41901" lon="13.60568">
        <ele>1031.14943</ele>
        <time>2026-07-13T09:20:42.000Z</time>
      </trkpt>
      <trkpt lat="46.41876" lon="13.60632">
        <ele>1027.168303</ele>
        <time>2026-07-13T09:20:47.000Z</time>
      </trkpt>
      <trkpt lat="46.41846" lon="13.60702">
        <ele>1022.777325</ele>
        <time>2026-07-13T09:20:53.000Z</time>
      </trkpt>
      <trkpt lat="46.41837" lon="13.60721">
        <ele>1021.578702</ele>
        <time>2026-07-13T09:20:55.000Z</time>
      </trkpt>
      <trkpt lat="46.41825" lon="13.60738">
        <ele>1020.40031</ele>
        <time>2026-07-13T09:20:57.000Z</time>
      </trkpt>
      <trkpt lat="46.41819" lon="13.60744">
        <ele>1019.805677</ele>
        <time>2026-07-13T09:20:58.000Z</time>
      </trkpt>
      <trkpt lat="46.41799" lon="13.60766">
        <ele>1018.000566</ele>
        <time>2026-07-13T09:21:01.000Z</time>
      </trkpt>
      <trkpt lat="46.41778" lon="13.608">
        <ele>1015.693646</ele>
        <time>2026-07-13T09:21:05.000Z</time>
      </trkpt>
      <trkpt lat="46.41774" lon="13.60808">
        <ele>1015.195951</ele>
        <time>2026-07-13T09:21:06.000Z</time>
      </trkpt>
      <trkpt lat="46.4177" lon="13.60828">
        <ele>1014.148937</ele>
        <time>2026-07-13T09:21:08.000Z</time>
      </trkpt>
      <trkpt lat="46.41769" lon="13.60847">
        <ele>1013.17397</ele>
        <time>2026-07-13T09:21:10.000Z</time>
      </trkpt>
      <trkpt lat="46.41767" lon="13.60855">
        <ele>1012.730722</ele>
        <time>2026-07-13T09:21:11.000Z</time>
      </trkpt>
      <trkpt lat="46.41763" lon="13.60864">
        <ele>1012.220583</ele>
        <time>2026-07-13T09:21:12.000Z</time>
      </trkpt>
      <trkpt lat="46.41752" lon="13.60872">
        <ele>1011.318691</ele>
        <time>2026-07-13T09:21:14.000Z</time>
      </trkpt>
      <trkpt lat="46.41745" lon="13.60873">
        <ele>1010.860946</ele>
        <time>2026-07-13T09:21:15.000Z</time>
      </trkpt>
      <trkpt lat="46.41733" lon="13.60874">
        <ele>1009.819326</ele>
        <time>2026-07-13T09:21:17.000Z</time>
      </trkpt>
      <trkpt lat="46.41728" lon="13.60875">
        <ele>1008.761058</ele>
        <time>2026-07-13T09:21:18.000Z</time>
      </trkpt>
      <trkpt lat="46.41717" lon="13.60881">
        <ele>1006.518366</ele>
        <time>2026-07-13T09:21:20.000Z</time>
      </trkpt>
      <trkpt lat="46.41712" lon="13.60886">
        <ele>1005.441001</ele>
        <time>2026-07-13T09:21:21.000Z</time>
      </trkpt>
      <trkpt lat="46.41708" lon="13.60891">
        <ele>1004.360666</ele>
        <time>2026-07-13T09:21:22.000Z</time>
      </trkpt>
      <trkpt lat="46.41685" lon="13.60925">
        <ele>998.364364</ele>
        <time>2026-07-13T09:21:27.000Z</time>
      </trkpt>
      <trkpt lat="46.41665" lon="13.60953">
        <ele>993.136602</ele>
        <time>2026-07-13T09:21:32.000Z</time>
      </trkpt>
      <trkpt lat="46.41658" lon="13.60963">
        <ele>991.317857</ele>
        <time>2026-07-13T09:21:34.000Z</time>
      </trkpt>
      <trkpt lat="46.41645" lon="13.60976">
        <ele>988.389496</ele>
        <time>2026-07-13T09:21:37.000Z</time>
      </trkpt>
      <trkpt lat="46.41641" lon="13.60978">
        <ele>987.550223</ele>
        <time>2026-07-13T09:21:38.000Z</time>
      </trkpt>
      <trkpt lat="46.41638" lon="13.6098">
        <ele>986.881988</ele>
        <time>2026-07-13T09:21:39.000Z</time>
      </trkpt>
      <trkpt lat="46.41629" lon="13.60981">
        <ele>985.233622</ele>
        <time>2026-07-13T09:21:41.000Z</time>
      </trkpt>
      <trkpt lat="46.41624" lon="13.60979">
        <ele>984.282003</ele>
        <time>2026-07-13T09:21:42.000Z</time>
      </trkpt>
      <trkpt lat="46.4162" lon="13.60975">
        <ele>983.324671</ele>
        <time>2026-07-13T09:21:43.000Z</time>
      </trkpt>
      <trkpt lat="46.41606" lon="13.6096">
        <ele>980.214253</ele>
        <time>2026-07-13T09:21:46.000Z</time>
      </trkpt>
      <trkpt lat="46.41602" lon="13.60956">
        <ele>979.168487</ele>
        <time>2026-07-13T09:21:47.000Z</time>
      </trkpt>
      <trkpt lat="46.41586" lon="13.6095">
        <ele>976.246159</ele>
        <time>2026-07-13T09:21:50.000Z</time>
      </trkpt>
      <trkpt lat="46.41574" lon="13.60952">
        <ele>974.708811</ele>
        <time>2026-07-13T09:21:52.000Z</time>
      </trkpt>
      <trkpt lat="46.41569" lon="13.60956">
        <ele>973.992155</ele>
        <time>2026-07-13T09:21:53.000Z</time>
      </trkpt>
      <trkpt lat="46.41565" lon="13.60961">
        <ele>973.359686</ele>
        <time>2026-07-13T09:21:54.000Z</time>
      </trkpt>
      <trkpt lat="46.41557" lon="13.60978">
        <ele>971.51822</ele>
        <time>2026-07-13T09:21:56.000Z</time>
      </trkpt>
      <trkpt lat="46.41555" lon="13.60987">
        <ele>970.658337</ele>
        <time>2026-07-13T09:21:57.000Z</time>
      </trkpt>
      <trkpt lat="46.41552" lon="13.61006">
        <ele>968.956221</ele>
        <time>2026-07-13T09:21:59.000Z</time>
      </trkpt>
      <trkpt lat="46.4155" lon="13.61039">
        <ele>966.112717</ele>
        <time>2026-07-13T09:22:02.000Z</time>
      </trkpt>
      <trkpt lat="46.4155" lon="13.61093">
        <ele>961.377653</ele>
        <time>2026-07-13T09:22:07.000Z</time>
      </trkpt>
      <trkpt lat="46.41549" lon="13.61111">
        <ele>959.871179</ele>
        <time>2026-07-13T09:22:09.000Z</time>
      </trkpt>
      <trkpt lat="46.41554" lon="13.61127">
        <ele>958.347488</ele>
        <time>2026-07-13T09:22:11.000Z</time>
      </trkpt>
      <trkpt lat="46.41565" lon="13.6114">
        <ele>956.566773</ele>
        <time>2026-07-13T09:22:13.000Z</time>
      </trkpt>
      <trkpt lat="46.41571" lon="13.61147">
        <ele>955.575046</ele>
        <time>2026-07-13T09:22:14.000Z</time>
      </trkpt>
      <trkpt lat="46.41591" lon="13.61164">
        <ele>953.263449</ele>
        <time>2026-07-13T09:22:17.000Z</time>
      </trkpt>
      <trkpt lat="46.41599" lon="13.61175">
        <ele>952.62416</ele>
        <time>2026-07-13T09:22:19.000Z</time>
      </trkpt>
      <trkpt lat="46.41599" lon="13.61192">
        <ele>951.969394</ele>
        <time>2026-07-13T09:22:21.000Z</time>
      </trkpt>
      <trkpt lat="46.41596" lon="13.612">
        <ele>951.593172</ele>
        <time>2026-07-13T09:22:22.000Z</time>
      </trkpt>
      <trkpt lat="46.41592" lon="13.61208">
        <ele>951.209093</ele>
        <time>2026-07-13T09:22:23.000Z</time>
      </trkpt>
      <trkpt lat="46.4158" lon="13.61238">
        <ele>949.837871</ele>
        <time>2026-07-13T09:22:26.000Z</time>
      </trkpt>
      <trkpt lat="46.41576" lon="13.6125">
        <ele>949.321244</ele>
        <time>2026-07-13T09:22:27.000Z</time>
      </trkpt>
      <trkpt lat="46.41567" lon="13.6129">
        <ele>947.677542</ele>
        <time>2026-07-13T09:22:30.000Z</time>
      </trkpt>
      <trkpt lat="46.41548" lon="13.61368">
        <ele>944.419331</ele>
        <time>2026-07-13T09:22:35.000Z</time>
      </trkpt>
      <trkpt lat="46.41528" lon="13.61426">
        <ele>941.360379</ele>
        <time>2026-07-13T09:22:39.000Z</time>
      </trkpt>
      <trkpt lat="46.41521" lon="13.61437">
        <ele>940.597859</ele>
        <time>2026-07-13T09:22:40.000Z</time>
      </trkpt>
      <trkpt lat="46.41503" lon="13.61465">
        <ele>938.591681</ele>
        <time>2026-07-13T09:22:43.000Z</time>
      </trkpt>
      <trkpt lat="46.41499" lon="13.61477">
        <ele>937.921204</ele>
        <time>2026-07-13T09:22:44.000Z</time>
      </trkpt>
      <trkpt lat="46.41496" lon="13.61489">
        <ele>937.231821</ele>
        <time>2026-07-13T09:22:45.000Z</time>
      </trkpt>
      <trkpt lat="46.41496" lon="13.61517">
        <ele>935.79495</ele>
        <time>2026-07-13T09:22:47.000Z</time>
      </trkpt>
      <trkpt lat="46.41506" lon="13.61559">
        <ele>933.507176</ele>
        <time>2026-07-13T09:22:50.000Z</time>
      </trkpt>
      <trkpt lat="46.41518" lon="13.61607">
        <ele>930.861407</ele>
        <time>2026-07-13T09:22:53.000Z</time>
      </trkpt>
      <trkpt lat="46.41526" lon="13.61639">
        <ele>928.67796</ele>
        <time>2026-07-13T09:22:55.000Z</time>
      </trkpt>
      <trkpt lat="46.4153" lon="13.61656">
        <ele>927.339718</ele>
        <time>2026-07-13T09:22:56.000Z</time>
      </trkpt>
      <trkpt lat="46.41551" lon="13.61739">
        <ele>920.565673</ele>
        <time>2026-07-13T09:23:01.000Z</time>
      </trkpt>
      <trkpt lat="46.41554" lon="13.61755">
        <ele>919.301153</ele>
        <time>2026-07-13T09:23:02.000Z</time>
      </trkpt>
      <trkpt lat="46.41557" lon="13.61771">
        <ele>918.072641</ele>
        <time>2026-07-13T09:23:03.000Z</time>
      </trkpt>
      <trkpt lat="46.41563" lon="13.61845">
        <ele>912.399593</ele>
        <time>2026-07-13T09:23:08.000Z</time>
      </trkpt>
      <trkpt lat="46.41567" lon="13.61868">
        <ele>910.582843</ele>
        <time>2026-07-13T09:23:10.000Z</time>
      </trkpt>
      <trkpt lat="46.4157" lon="13.61878">
        <ele>909.732933</ele>
        <time>2026-07-13T09:23:11.000Z</time>
      </trkpt>
      <trkpt lat="46.41575" lon="13.61887">
        <ele>908.7344</ele>
        <time>2026-07-13T09:23:12.000Z</time>
      </trkpt>
      <trkpt lat="46.4159" lon="13.61902">
        <ele>906.591998</ele>
        <time>2026-07-13T09:23:14.000Z</time>
      </trkpt>
      <trkpt lat="46.41607" lon="13.61915">
        <ele>904.26468</ele>
        <time>2026-07-13T09:23:16.000Z</time>
      </trkpt>
      <trkpt lat="46.41622" lon="13.61933">
        <ele>901.934926</ele>
        <time>2026-07-13T09:23:18.000Z</time>
      </trkpt>
      <trkpt lat="46.41636" lon="13.6197">
        <ele>898.441855</ele>
        <time>2026-07-13T09:23:21.000Z</time>
      </trkpt>
      <trkpt lat="46.41638" lon="13.62">
        <ele>896.011113</ele>
        <time>2026-07-13T09:23:23.000Z</time>
      </trkpt>
      <trkpt lat="46.41639" lon="13.62015">
        <ele>894.724966</ele>
        <time>2026-07-13T09:23:24.000Z</time>
      </trkpt>
      <trkpt lat="46.41641" lon="13.62031">
        <ele>893.432718</ele>
        <time>2026-07-13T09:23:25.000Z</time>
      </trkpt>
      <trkpt lat="46.41646" lon="13.62063">
        <ele>890.747812</ele>
        <time>2026-07-13T09:23:27.000Z</time>
      </trkpt>
      <trkpt lat="46.4165" lon="13.62078">
        <ele>889.379052</ele>
        <time>2026-07-13T09:23:28.000Z</time>
      </trkpt>
      <trkpt lat="46.41661" lon="13.62107">
        <ele>886.981159</ele>
        <time>2026-07-13T09:23:30.000Z</time>
      </trkpt>
      <trkpt lat="46.41665" lon="13.62121">
        <ele>885.904097</ele>
        <time>2026-07-13T09:23:31.000Z</time>
      </trkpt>
      <trkpt lat="46.41673" lon="13.62149">
        <ele>883.825615</ele>
        <time>2026-07-13T09:23:33.000Z</time>
      </trkpt>
      <trkpt lat="46.41684" lon="13.62213">
        <ele>879.220818</ele>
        <time>2026-07-13T09:23:37.000Z</time>
      </trkpt>
      <trkpt lat="46.41687" lon="13.6223">
        <ele>878.020473</ele>
        <time>2026-07-13T09:23:38.000Z</time>
      </trkpt>
      <trkpt lat="46.41696" lon="13.62261">
        <ele>875.659823</ele>
        <time>2026-07-13T09:23:40.000Z</time>
      </trkpt>
      <trkpt lat="46.417" lon="13.62277">
        <ele>874.527232</ele>
        <time>2026-07-13T09:23:41.000Z</time>
      </trkpt>
      <trkpt lat="46.41704" lon="13.62306">
        <ele>872.404207</ele>
        <time>2026-07-13T09:23:43.000Z</time>
      </trkpt>
      <trkpt lat="46.41711" lon="13.62331">
        <ele>870.562168</ele>
        <time>2026-07-13T09:23:45.000Z</time>
      </trkpt>
      <trkpt lat="46.41714" lon="13.62342">
        <ele>869.625827</ele>
        <time>2026-07-13T09:23:46.000Z</time>
      </trkpt>
      <trkpt lat="46.41718" lon="13.62352">
        <ele>868.709398</ele>
        <time>2026-07-13T09:23:47.000Z</time>
      </trkpt>
      <trkpt lat="46.41723" lon="13.62374">
        <ele>866.895418</ele>
        <time>2026-07-13T09:23:49.000Z</time>
      </trkpt>
      <trkpt lat="46.41722" lon="13.62398">
        <ele>865.000468</ele>
        <time>2026-07-13T09:23:51.000Z</time>
      </trkpt>
      <trkpt lat="46.4172" lon="13.62409">
        <ele>864.097965</ele>
        <time>2026-07-13T09:23:52.000Z</time>
      </trkpt>
      <trkpt lat="46.41718" lon="13.62428">
        <ele>862.608209</ele>
        <time>2026-07-13T09:23:54.000Z</time>
      </trkpt>
      <trkpt lat="46.41717" lon="13.62437">
        <ele>861.863335</ele>
        <time>2026-07-13T09:23:55.000Z</time>
      </trkpt>
      <trkpt lat="46.41718" lon="13.62446">
        <ele>861.196437</ele>
        <time>2026-07-13T09:23:56.000Z</time>
      </trkpt>
      <trkpt lat="46.41726" lon="13.62457">
        <ele>859.951321</ele>
        <time>2026-07-13T09:23:58.000Z</time>
      </trkpt>
      <trkpt lat="46.41738" lon="13.62455">
        <ele>858.606996</ele>
        <time>2026-07-13T09:24:00.000Z</time>
      </trkpt>
      <trkpt lat="46.41743" lon="13.6245">
        <ele>857.887656</ele>
        <time>2026-07-13T09:24:01.000Z</time>
      </trkpt>
      <trkpt lat="46.41747" lon="13.62444">
        <ele>857.19615</ele>
        <time>2026-07-13T09:24:02.000Z</time>
      </trkpt>
      <trkpt lat="46.41755" lon="13.62435">
        <ele>856.014466</ele>
        <time>2026-07-13T09:24:04.000Z</time>
      </trkpt>
      <trkpt lat="46.41767" lon="13.62436">
        <ele>854.727837</ele>
        <time>2026-07-13T09:24:06.000Z</time>
      </trkpt>
      <trkpt lat="46.41773" lon="13.62445">
        <ele>853.709086</ele>
        <time>2026-07-13T09:24:08.000Z</time>
      </trkpt>
      <trkpt lat="46.41774" lon="13.62451">
        <ele>853.213367</ele>
        <time>2026-07-13T09:24:09.000Z</time>
      </trkpt>
      <trkpt lat="46.41772" lon="13.62457">
        <ele>852.668309</ele>
        <time>2026-07-13T09:24:10.000Z</time>
      </trkpt>
      <trkpt lat="46.41763" lon="13.62468">
        <ele>851.36915</ele>
        <time>2026-07-13T09:24:12.000Z</time>
      </trkpt>
      <trkpt lat="46.41741" lon="13.62476">
        <ele>849.27623</ele>
        <time>2026-07-13T09:24:15.000Z</time>
      </trkpt>
      <trkpt lat="46.41714" lon="13.62476">
        <ele>847.545297</ele>
        <time>2026-07-13T09:24:19.000Z</time>
      </trkpt>
      <trkpt lat="46.41707" lon="13.62475">
        <ele>847.112455</ele>
        <time>2026-07-13T09:24:20.000Z</time>
      </trkpt>
      <trkpt lat="46.41695" lon="13.62461">
        <ele>846.165449</ele>
        <time>2026-07-13T09:24:22.000Z</time>
      </trkpt>
      <trkpt lat="46.41689" lon="13.62434">
        <ele>844.922692</ele>
        <time>2026-07-13T09:24:24.000Z</time>
      </trkpt>
      <trkpt lat="46.41679" lon="13.62412">
        <ele>843.760958</ele>
        <time>2026-07-13T09:24:26.000Z</time>
      </trkpt>
      <trkpt lat="46.41671" lon="13.62389">
        <ele>842.653194</ele>
        <time>2026-07-13T09:24:28.000Z</time>
      </trkpt>
      <trkpt lat="46.41665" lon="13.62365">
        <ele>841.499655</ele>
        <time>2026-07-13T09:24:30.000Z</time>
      </trkpt>
      <trkpt lat="46.41662" lon="13.62352">
        <ele>840.902133</ele>
        <time>2026-07-13T09:24:31.000Z</time>
      </trkpt>
      <trkpt lat="46.41652" lon="13.62325">
        <ele>839.586684</ele>
        <time>2026-07-13T09:24:33.000Z</time>
      </trkpt>
      <trkpt lat="46.41641" lon="13.62302">
        <ele>838.222207</ele>
        <time>2026-07-13T09:24:35.000Z</time>
      </trkpt>
      <trkpt lat="46.41637" lon="13.6229">
        <ele>837.255001</ele>
        <time>2026-07-13T09:24:36.000Z</time>
      </trkpt>
      <trkpt lat="46.41633" lon="13.62279">
        <ele>836.32902</ele>
        <time>2026-07-13T09:24:37.000Z</time>
      </trkpt>
      <trkpt lat="46.41629" lon="13.62268">
        <ele>835.407922</ele>
        <time>2026-07-13T09:24:38.000Z</time>
      </trkpt>
      <trkpt lat="46.41624" lon="13.62259">
        <ele>834.499496</ele>
        <time>2026-07-13T09:24:39.000Z</time>
      </trkpt>
      <trkpt lat="46.41608" lon="13.62246">
        <ele>832.570155</ele>
        <time>2026-07-13T09:24:41.000Z</time>
      </trkpt>
      <trkpt lat="46.41585" lon="13.62234">
        <ele>829.989302</ele>
        <time>2026-07-13T09:24:44.000Z</time>
      </trkpt>
      <trkpt lat="46.41579" lon="13.62227">
        <ele>829.15519</ele>
        <time>2026-07-13T09:24:45.000Z</time>
      </trkpt>
      <trkpt lat="46.41574" lon="13.62217">
        <ele>828.260386</ele>
        <time>2026-07-13T09:24:46.000Z</time>
      </trkpt>
      <trkpt lat="46.41559" lon="13.62186">
        <ele>825.465727</ele>
        <time>2026-07-13T09:24:49.000Z</time>
      </trkpt>
      <trkpt lat="46.41542" lon="13.62159">
        <ele>822.739974</ele>
        <time>2026-07-13T09:24:52.000Z</time>
      </trkpt>
      <trkpt lat="46.41528" lon="13.62144">
        <ele>820.85127</ele>
        <time>2026-07-13T09:24:54.000Z</time>
      </trkpt>
      <trkpt lat="46.41521" lon="13.62135">
        <ele>819.846204</ele>
        <time>2026-07-13T09:24:55.000Z</time>
      </trkpt>
      <trkpt lat="46.41502" lon="13.62103">
        <ele>816.771576</ele>
        <time>2026-07-13T09:24:58.000Z</time>
      </trkpt>
      <trkpt lat="46.41468" lon="13.62056">
        <ele>811.75068</ele>
        <time>2026-07-13T09:25:03.000Z</time>
      </trkpt>
      <trkpt lat="46.41441" lon="13.62017">
        <ele>807.610951</ele>
        <time>2026-07-13T09:25:07.000Z</time>
      </trkpt>
      <trkpt lat="46.41427" lon="13.61996">
        <ele>805.516321</ele>
        <time>2026-07-13T09:25:09.000Z</time>
      </trkpt>
      <trkpt lat="46.41395" lon="13.61941">
        <ele>800.176226</ele>
        <time>2026-07-13T09:25:14.000Z</time>
      </trkpt>
      <trkpt lat="46.41362" lon="13.61868">
        <ele>793.048884</ele>
        <time>2026-07-13T09:25:20.000Z</time>
      </trkpt>
      <trkpt lat="46.41347" lon="13.61818">
        <ele>788.549698</ele>
        <time>2026-07-13T09:25:24.000Z</time>
      </trkpt>
      <trkpt lat="46.41345" lon="13.61804">
        <ele>787.363425</ele>
        <time>2026-07-13T09:25:25.000Z</time>
      </trkpt>
      <trkpt lat="46.41332" lon="13.61726">
        <ele>780.812061</ele>
        <time>2026-07-13T09:25:30.000Z</time>
      </trkpt>
      <trkpt lat="46.41332" lon="13.61707">
        <ele>779.235844</ele>
        <time>2026-07-13T09:25:31.000Z</time>
      </trkpt>
      <trkpt lat="46.41327" lon="13.61672">
        <ele>776.842812</ele>
        <time>2026-07-13T09:25:33.000Z</time>
      </trkpt>
      <trkpt lat="46.4131" lon="13.6161">
        <ele>772.653155</ele>
        <time>2026-07-13T09:25:37.000Z</time>
      </trkpt>
      <trkpt lat="46.4129" lon="13.61545">
        <ele>768.233489</ele>
        <time>2026-07-13T09:25:41.000Z</time>
      </trkpt>
      <trkpt lat="46.41285" lon="13.61527">
        <ele>767.035973</ele>
        <time>2026-07-13T09:25:42.000Z</time>
      </trkpt>
      <trkpt lat="46.41264" lon="13.61452">
        <ele>761.881645</ele>
        <time>2026-07-13T09:25:46.000Z</time>
      </trkpt>
      <trkpt lat="46.41259" lon="13.61433">
        <ele>760.494731</ele>
        <time>2026-07-13T09:25:47.000Z</time>
      </trkpt>
      <trkpt lat="46.41249" lon="13.61398">
        <ele>757.952222</ele>
        <time>2026-07-13T09:25:49.000Z</time>
      </trkpt>
      <trkpt lat="46.4124" lon="13.61363">
        <ele>755.428013</ele>
        <time>2026-07-13T09:25:51.000Z</time>
      </trkpt>
      <trkpt lat="46.41226" lon="13.613">
        <ele>750.89557</ele>
        <time>2026-07-13T09:25:55.000Z</time>
      </trkpt>
      <trkpt lat="46.41217" lon="13.61273">
        <ele>748.888629</ele>
        <time>2026-07-13T09:25:57.000Z</time>
      </trkpt>
      <trkpt lat="46.41212" lon="13.61245">
        <ele>746.85742</ele>
        <time>2026-07-13T09:25:59.000Z</time>
      </trkpt>
      <trkpt lat="46.41201" lon="13.61198">
        <ele>743.434266</ele>
        <time>2026-07-13T09:26:02.000Z</time>
      </trkpt>
      <trkpt lat="46.41196" lon="13.61182">
        <ele>742.110098</ele>
        <time>2026-07-13T09:26:03.000Z</time>
      </trkpt>
      <trkpt lat="46.41177" lon="13.61115">
        <ele>736.694897</ele>
        <time>2026-07-13T09:26:07.000Z</time>
      </trkpt>
      <trkpt lat="46.41171" lon="13.611">
        <ele>735.422082</ele>
        <time>2026-07-13T09:26:08.000Z</time>
      </trkpt>
      <trkpt lat="46.41146" lon="13.6105">
        <ele>730.768442</ele>
        <time>2026-07-13T09:26:12.000Z</time>
      </trkpt>
      <trkpt lat="46.41115" lon="13.60995">
        <ele>725.53857</ele>
        <time>2026-07-13T09:26:17.000Z</time>
      </trkpt>
      <trkpt lat="46.4111" lon="13.60984">
        <ele>724.556854</ele>
        <time>2026-07-13T09:26:18.000Z</time>
      </trkpt>
      <trkpt lat="46.41102" lon="13.60956">
        <ele>722.452784</ele>
        <time>2026-07-13T09:26:20.000Z</time>
      </trkpt>
      <trkpt lat="46.41083" lon="13.60902">
        <ele>718.182625</ele>
        <time>2026-07-13T09:26:24.000Z</time>
      </trkpt>
      <trkpt lat="46.41074" lon="13.60875">
        <ele>716.038655</ele>
        <time>2026-07-13T09:26:26.000Z</time>
      </trkpt>
      <trkpt lat="46.41067" lon="13.60844">
        <ele>713.732029</ele>
        <time>2026-07-13T09:26:28.000Z</time>
      </trkpt>
      <trkpt lat="46.41048" lon="13.60779">
        <ele>708.801532</ele>
        <time>2026-07-13T09:26:32.000Z</time>
      </trkpt>
      <trkpt lat="46.4103" lon="13.60722">
        <ele>704.49389</ele>
        <time>2026-07-13T09:26:36.000Z</time>
      </trkpt>
      <trkpt lat="46.41011" lon="13.60675">
        <ele>700.890042</ele>
        <time>2026-07-13T09:26:40.000Z</time>
      </trkpt>
      <trkpt lat="46.41008" lon="13.60665">
        <ele>700.133727</ele>
        <time>2026-07-13T09:26:41.000Z</time>
      </trkpt>
      <trkpt lat="46.40997" lon="13.60638">
        <ele>698.015436</ele>
        <time>2026-07-13T09:26:44.000Z</time>
      </trkpt>
      <trkpt lat="46.40992" lon="13.60631">
        <ele>697.369837</ele>
        <time>2026-07-13T09:26:45.000Z</time>
      </trkpt>
      <trkpt lat="46.40985" lon="13.60627">
        <ele>696.65221</ele>
        <time>2026-07-13T09:26:46.000Z</time>
      </trkpt>
      <trkpt lat="46.40969" lon="13.60621">
        <ele>695.018016</ele>
        <time>2026-07-13T09:26:48.000Z</time>
      </trkpt>
      <trkpt lat="46.4094" lon="13.60613">
        <ele>692.218518</ele>
        <time>2026-07-13T09:26:51.000Z</time>
      </trkpt>
      <trkpt lat="46.40931" lon="13.60609">
        <ele>691.221337</ele>
        <time>2026-07-13T09:26:52.000Z</time>
      </trkpt>
      <trkpt lat="46.40888" lon="13.60583">
        <ele>686.843163</ele>
        <time>2026-07-13T09:26:56.000Z</time>
      </trkpt>
      <trkpt lat="46.40839" lon="13.60557">
        <ele>681.905236</ele>
        <time>2026-07-13T09:27:01.000Z</time>
      </trkpt>
      <trkpt lat="46.40833" lon="13.60555">
        <ele>681.256817</ele>
        <time>2026-07-13T09:27:02.000Z</time>
      </trkpt>
      <trkpt lat="46.40822" lon="13.60548">
        <ele>680.136936</ele>
        <time>2026-07-13T09:27:04.000Z</time>
      </trkpt>
      <trkpt lat="46.40815" lon="13.60537">
        <ele>679.158803</ele>
        <time>2026-07-13T09:27:06.000Z</time>
      </trkpt>
      <trkpt lat="46.40812" lon="13.60528">
        <ele>678.53707</ele>
        <time>2026-07-13T09:27:07.000Z</time>
      </trkpt>
      <trkpt lat="46.40811" lon="13.60518">
        <ele>677.844706</ele>
        <time>2026-07-13T09:27:08.000Z</time>
      </trkpt>
      <trkpt lat="46.40811" lon="13.60491">
        <ele>676.072462</ele>
        <time>2026-07-13T09:27:10.000Z</time>
      </trkpt>
      <trkpt lat="46.40812" lon="13.60481">
        <ele>675.430054</ele>
        <time>2026-07-13T09:27:11.000Z</time>
      </trkpt>
      <trkpt lat="46.40813" lon="13.60438">
        <ele>672.656615</ele>
        <time>2026-07-13T09:27:15.000Z</time>
      </trkpt>
      <trkpt lat="46.40811" lon="13.60407">
        <ele>670.628375</ele>
        <time>2026-07-13T09:27:19.000Z</time>
      </trkpt>
      <trkpt lat="46.40802" lon="13.60386">
        <ele>668.994787</ele>
        <time>2026-07-13T09:27:23.000Z</time>
      </trkpt>
      <trkpt lat="46.40777" lon="13.60364">
        <ele>666.309257</ele>
        <time>2026-07-13T09:27:29.000Z</time>
      </trkpt>
      <trkpt lat="46.40747" lon="13.60343">
        <ele>663.208046</ele>
        <time>2026-07-13T09:27:36.000Z</time>
      </trkpt>
      <trkpt lat="46.40737" lon="13.60341">
        <ele>662.23939</ele>
        <time>2026-07-13T09:27:38.000Z</time>
      </trkpt>
      <trkpt lat="46.40726" lon="13.60341">
        <ele>661.210104</ele>
        <time>2026-07-13T09:27:40.000Z</time>
      </trkpt>
      <trkpt lat="46.40704" lon="13.60344">
        <ele>659.148994</ele>
        <time>2026-07-13T09:27:44.000Z</time>
      </trkpt>
      <trkpt lat="46.40696" lon="13.60345">
        <ele>658.37142</ele>
        <time>2026-07-13T09:27:46.000Z</time>
      </trkpt>
      <trkpt lat="46.40686" lon="13.60347">
        <ele>657.432617</ele>
        <time>2026-07-13T09:27:50.000Z</time>
      </trkpt>
      <trkpt lat="46.4068" lon="13.6035">
        <ele>656.833117</ele>
        <time>2026-07-13T09:27:53.000Z</time>
      </trkpt>
      <trkpt lat="46.4068" lon="13.60351">
        <ele>656.717164</ele>
        <time>2026-07-13T09:27:54.000Z</time>
      </trkpt>
      <trkpt lat="46.40686" lon="13.60351">
        <ele>656.15659</ele>
        <time>2026-07-13T09:27:57.000Z</time>
      </trkpt>
      <trkpt lat="46.40686" lon="13.60351">
        <ele>656.109436</ele>
        <time>2026-07-13T09:28:00.000Z</time>
      </trkpt>
      <trkpt lat="46.40683" lon="13.60351">
        <ele>655.782392</ele>
        <time>2026-07-13T09:31:19.000Z</time>
      </trkpt>
      <trkpt lat="46.40681" lon="13.6035">
        <ele>655.57204</ele>
        <time>2026-07-13T09:31:20.000Z</time>
      </trkpt>
      <trkpt lat="46.40671" lon="13.60347">
        <ele>654.956384</ele>
        <time>2026-07-13T09:31:24.000Z</time>
      </trkpt>
      <trkpt lat="46.40655" lon="13.60343">
        <ele>654.112746</ele>
        <time>2026-07-13T09:31:28.000Z</time>
      </trkpt>
      <trkpt lat="46.40647" lon="13.60335">
        <ele>653.597273</ele>
        <time>2026-07-13T09:31:30.000Z</time>
      </trkpt>
      <trkpt lat="46.40637" lon="13.60324">
        <ele>652.928511</ele>
        <time>2026-07-13T09:31:32.000Z</time>
      </trkpt>
      <trkpt lat="46.40606" lon="13.60293">
        <ele>650.983917</ele>
        <time>2026-07-13T09:31:37.000Z</time>
      </trkpt>
      <trkpt lat="46.40598" lon="13.60288">
        <ele>650.524538</ele>
        <time>2026-07-13T09:31:38.000Z</time>
      </trkpt>
      <trkpt lat="46.40573" lon="13.60272">
        <ele>649.062082</ele>
        <time>2026-07-13T09:31:41.000Z</time>
      </trkpt>
      <trkpt lat="46.4052" lon="13.60231">
        <ele>645.889208</ele>
        <time>2026-07-13T09:31:47.000Z</time>
      </trkpt>
      <trkpt lat="46.40504" lon="13.6021">
        <ele>644.822172</ele>
        <time>2026-07-13T09:31:49.000Z</time>
      </trkpt>
      <trkpt lat="46.40497" lon="13.60198">
        <ele>644.26705</ele>
        <time>2026-07-13T09:31:50.000Z</time>
      </trkpt>
      <trkpt lat="46.40491" lon="13.60184">
        <ele>643.699558</ele>
        <time>2026-07-13T09:31:51.000Z</time>
      </trkpt>
      <trkpt lat="46.40473" lon="13.60141">
        <ele>641.958118</ele>
        <time>2026-07-13T09:31:54.000Z</time>
      </trkpt>
      <trkpt lat="46.40463" lon="13.60111">
        <ele>640.794708</ele>
        <time>2026-07-13T09:31:56.000Z</time>
      </trkpt>
      <trkpt lat="46.40458" lon="13.60098">
        <ele>640.245426</ele>
        <time>2026-07-13T09:31:57.000Z</time>
      </trkpt>
      <trkpt lat="46.40446" lon="13.60071">
        <ele>639.15759</ele>
        <time>2026-07-13T09:31:59.000Z</time>
      </trkpt>
      <trkpt lat="46.40422" lon="13.60022">
        <ele>637.056697</ele>
        <time>2026-07-13T09:32:03.000Z</time>
      </trkpt>
      <trkpt lat="46.40416" lon="13.60011">
        <ele>636.684328</ele>
        <time>2026-07-13T09:32:04.000Z</time>
      </trkpt>
      <trkpt lat="46.40402" lon="13.59991">
        <ele>636.141489</ele>
        <time>2026-07-13T09:32:06.000Z</time>
      </trkpt>
      <trkpt lat="46.40388" lon="13.59975">
        <ele>635.633588</ele>
        <time>2026-07-13T09:32:08.000Z</time>
      </trkpt>
      <trkpt lat="46.40352" lon="13.59945">
        <ele>634.493198</ele>
        <time>2026-07-13T09:32:13.000Z</time>
      </trkpt>
      <trkpt lat="46.40309" lon="13.59908">
        <ele>633.112072</ele>
        <time>2026-07-13T09:32:19.000Z</time>
      </trkpt>
      <trkpt lat="46.40259" lon="13.5986">
        <ele>631.30152</ele>
        <time>2026-07-13T09:32:26.000Z</time>
      </trkpt>
      <trkpt lat="46.40209" lon="13.59807">
        <ele>628.914179</ele>
        <time>2026-07-13T09:32:33.000Z</time>
      </trkpt>
      <trkpt lat="46.40202" lon="13.598">
        <ele>628.572464</ele>
        <time>2026-07-13T09:32:34.000Z</time>
      </trkpt>
      <trkpt lat="46.40152" lon="13.59747">
        <ele>626.202205</ele>
        <time>2026-07-13T09:32:41.000Z</time>
      </trkpt>
      <trkpt lat="46.401" lon="13.59708">
        <ele>623.833963</ele>
        <time>2026-07-13T09:32:48.000Z</time>
      </trkpt>
      <trkpt lat="46.40071" lon="13.59689">
        <ele>622.445229</ele>
        <time>2026-07-13T09:32:52.000Z</time>
      </trkpt>
      <trkpt lat="46.40056" lon="13.5968">
        <ele>621.764672</ele>
        <time>2026-07-13T09:32:54.000Z</time>
      </trkpt>
      <trkpt lat="46.40004" lon="13.59649">
        <ele>619.299038</ele>
        <time>2026-07-13T09:33:01.000Z</time>
      </trkpt>
      <trkpt lat="46.39996" lon="13.59644">
        <ele>618.920294</ele>
        <time>2026-07-13T09:33:02.000Z</time>
      </trkpt>
      <trkpt lat="46.39947" lon="13.59609">
        <ele>616.547438</ele>
        <time>2026-07-13T09:33:08.000Z</time>
      </trkpt>
      <trkpt lat="46.39939" lon="13.59602">
        <ele>616.147332</ele>
        <time>2026-07-13T09:33:09.000Z</time>
      </trkpt>
      <trkpt lat="46.39907" lon="13.59576">
        <ele>614.570403</ele>
        <time>2026-07-13T09:33:13.000Z</time>
      </trkpt>
      <trkpt lat="46.39899" lon="13.5957">
        <ele>614.176093</ele>
        <time>2026-07-13T09:33:14.000Z</time>
      </trkpt>
      <trkpt lat="46.39858" lon="13.59547">
        <ele>612.276358</ele>
        <time>2026-07-13T09:33:19.000Z</time>
      </trkpt>
      <trkpt lat="46.39844" lon="13.59532">
        <ele>611.539777</ele>
        <time>2026-07-13T09:33:21.000Z</time>
      </trkpt>
      <trkpt lat="46.39833" lon="13.59515">
        <ele>610.810292</ele>
        <time>2026-07-13T09:33:23.000Z</time>
      </trkpt>
      <trkpt lat="46.39806" lon="13.59471">
        <ele>609.168654</ele>
        <time>2026-07-13T09:33:28.000Z</time>
      </trkpt>
      <trkpt lat="46.39798" lon="13.59451">
        <ele>608.737745</ele>
        <time>2026-07-13T09:33:30.000Z</time>
      </trkpt>
      <trkpt lat="46.39785" lon="13.59407">
        <ele>607.839731</ele>
        <time>2026-07-13T09:33:34.000Z</time>
      </trkpt>
      <trkpt lat="46.39778" lon="13.59385">
        <ele>607.37943</ele>
        <time>2026-07-13T09:33:36.000Z</time>
      </trkpt>
      <trkpt lat="46.39768" lon="13.59351">
        <ele>606.683143</ele>
        <time>2026-07-13T09:33:39.000Z</time>
      </trkpt>
      <trkpt lat="46.39758" lon="13.59332">
        <ele>606.232037</ele>
        <time>2026-07-13T09:33:41.000Z</time>
      </trkpt>
      <trkpt lat="46.3974" lon="13.59308">
        <ele>605.567068</ele>
        <time>2026-07-13T09:33:44.000Z</time>
      </trkpt>
      <trkpt lat="46.39733" lon="13.59301">
        <ele>605.333533</ele>
        <time>2026-07-13T09:33:45.000Z</time>
      </trkpt>
      <trkpt lat="46.39718" lon="13.59292">
        <ele>604.878454</ele>
        <time>2026-07-13T09:33:47.000Z</time>
      </trkpt>
      <trkpt lat="46.39701" lon="13.59288">
        <ele>604.415257</ele>
        <time>2026-07-13T09:33:49.000Z</time>
      </trkpt>
      <trkpt lat="46.3965" lon="13.59286">
        <ele>603.698964</ele>
        <time>2026-07-13T09:33:55.000Z</time>
      </trkpt>
      <trkpt lat="46.39627" lon="13.59289">
        <ele>603.371128</ele>
        <time>2026-07-13T09:33:58.000Z</time>
      </trkpt>
      <trkpt lat="46.39611" lon="13.59288">
        <ele>603.1526</ele>
        <time>2026-07-13T09:34:00.000Z</time>
      </trkpt>
      <trkpt lat="46.39582" lon="13.59283">
        <ele>602.734894</ele>
        <time>2026-07-13T09:34:04.000Z</time>
      </trkpt>
      <trkpt lat="46.39568" lon="13.59278">
        <ele>602.530297</ele>
        <time>2026-07-13T09:34:06.000Z</time>
      </trkpt>
      <trkpt lat="46.39518" lon="13.5925">
        <ele>601.774708</ele>
        <time>2026-07-13T09:34:13.000Z</time>
      </trkpt>
      <trkpt lat="46.39485" lon="13.59222">
        <ele>601.215633</ele>
        <time>2026-07-13T09:34:18.000Z</time>
      </trkpt>
      <trkpt lat="46.3947" lon="13.59198">
        <ele>600.883883</ele>
        <time>2026-07-13T09:34:21.000Z</time>
      </trkpt>
      <trkpt lat="46.39466" lon="13.59189">
        <ele>600.773214</ele>
        <time>2026-07-13T09:34:22.000Z</time>
      </trkpt>
      <trkpt lat="46.39462" lon="13.5918">
        <ele>600.669042</ele>
        <time>2026-07-13T09:34:23.000Z</time>
      </trkpt>
      <trkpt lat="46.39452" lon="13.59142">
        <ele>600.251702</ele>
        <time>2026-07-13T09:34:27.000Z</time>
      </trkpt>
      <trkpt lat="46.3945" lon="13.59133">
        <ele>600.15446</ele>
        <time>2026-07-13T09:34:28.000Z</time>
      </trkpt>
      <trkpt lat="46.39447" lon="13.59124">
        <ele>600.05756</ele>
        <time>2026-07-13T09:34:29.000Z</time>
      </trkpt>
      <trkpt lat="46.39442" lon="13.59097">
        <ele>599.772449</ele>
        <time>2026-07-13T09:34:32.000Z</time>
      </trkpt>
      <trkpt lat="46.39436" lon="13.59072">
        <ele>599.502687</ele>
        <time>2026-07-13T09:34:35.000Z</time>
      </trkpt>
      <trkpt lat="46.39431" lon="13.59056">
        <ele>599.322603</ele>
        <time>2026-07-13T09:34:37.000Z</time>
      </trkpt>
      <trkpt lat="46.39425" lon="13.59042">
        <ele>599.215741</ele>
        <time>2026-07-13T09:34:39.000Z</time>
      </trkpt>
      <trkpt lat="46.39413" lon="13.59022">
        <ele>599.149051</ele>
        <time>2026-07-13T09:34:42.000Z</time>
      </trkpt>
      <trkpt lat="46.39406" lon="13.59009">
        <ele>599.105314</ele>
        <time>2026-07-13T09:34:44.000Z</time>
      </trkpt>
      <trkpt lat="46.39393" lon="13.58991">
        <ele>599.038545</ele>
        <time>2026-07-13T09:34:47.000Z</time>
      </trkpt>
      <trkpt lat="46.39368" lon="13.58968">
        <ele>598.930107</ele>
        <time>2026-07-13T09:34:52.000Z</time>
      </trkpt>
      <trkpt lat="46.39359" lon="13.5896">
        <ele>598.887502</ele>
        <time>2026-07-13T09:34:54.000Z</time>
      </trkpt>
      <trkpt lat="46.39342" lon="13.5895">
        <ele>598.820582</ele>
        <time>2026-07-13T09:34:57.000Z</time>
      </trkpt>
      <trkpt lat="46.39331" lon="13.58944">
        <ele>598.776386</ele>
        <time>2026-07-13T09:34:59.000Z</time>
      </trkpt>
      <trkpt lat="46.39319" lon="13.58939">
        <ele>598.730504</ele>
        <time>2026-07-13T09:35:01.000Z</time>
      </trkpt>
      <trkpt lat="46.39308" lon="13.58934">
        <ele>598.686923</ele>
        <time>2026-07-13T09:35:03.000Z</time>
      </trkpt>
      <trkpt lat="46.39302" lon="13.5893">
        <ele>598.664119</ele>
        <time>2026-07-13T09:35:04.000Z</time>
      </trkpt>
      <trkpt lat="46.39285" lon="13.58918">
        <ele>598.593017</ele>
        <time>2026-07-13T09:35:07.000Z</time>
      </trkpt>
      <trkpt lat="46.3928" lon="13.58915">
        <ele>598.570843</ele>
        <time>2026-07-13T09:35:08.000Z</time>
      </trkpt>
      <trkpt lat="46.39265" lon="13.58901">
        <ele>599.014031</ele>
        <time>2026-07-13T09:35:11.000Z</time>
      </trkpt>
      <trkpt lat="46.3926" lon="13.58896">
        <ele>599.169409</ele>
        <time>2026-07-13T09:35:12.000Z</time>
      </trkpt>
      <trkpt lat="46.39238" lon="13.58868">
        <ele>599.938648</ele>
        <time>2026-07-13T09:35:17.000Z</time>
      </trkpt>
      <trkpt lat="46.39228" lon="13.58858">
        <ele>600.257881</ele>
        <time>2026-07-13T09:35:19.000Z</time>
      </trkpt>
      <trkpt lat="46.39223" lon="13.58855">
        <ele>600.414583</ele>
        <time>2026-07-13T09:35:20.000Z</time>
      </trkpt>
      <trkpt lat="46.39202" lon="13.5884">
        <ele>601.038514</ele>
        <time>2026-07-13T09:35:24.000Z</time>
      </trkpt>
      <trkpt lat="46.39197" lon="13.58835">
        <ele>601.20342</ele>
        <time>2026-07-13T09:35:25.000Z</time>
      </trkpt>
      <trkpt lat="46.39192" lon="13.5883">
        <ele>601.369204</ele>
        <time>2026-07-13T09:35:26.000Z</time>
      </trkpt>
      <trkpt lat="46.39174" lon="13.58819">
        <ele>601.881382</ele>
        <time>2026-07-13T09:35:29.000Z</time>
      </trkpt>
      <trkpt lat="46.39169" lon="13.58815">
        <ele>602.044348</ele>
        <time>2026-07-13T09:35:30.000Z</time>
      </trkpt>
      <trkpt lat="46.39146" lon="13.58803">
        <ele>602.688116</ele>
        <time>2026-07-13T09:35:34.000Z</time>
      </trkpt>
      <trkpt lat="46.39134" lon="13.588">
        <ele>603.002417</ele>
        <time>2026-07-13T09:35:36.000Z</time>
      </trkpt>
      <trkpt lat="46.39093" lon="13.58786">
        <ele>604.034203</ele>
        <time>2026-07-13T09:35:43.000Z</time>
      </trkpt>
      <trkpt lat="46.39083" lon="13.58781">
        <ele>604.287735</ele>
        <time>2026-07-13T09:35:45.000Z</time>
      </trkpt>
      <trkpt lat="46.39067" lon="13.58776">
        <ele>604.653814</ele>
        <time>2026-07-13T09:35:48.000Z</time>
      </trkpt>
      <trkpt lat="46.39035" lon="13.5877">
        <ele>605.413492</ele>
        <time>2026-07-13T09:35:54.000Z</time>
      </trkpt>
      <trkpt lat="46.38996" lon="13.58776">
        <ele>606.327289</ele>
        <time>2026-07-13T09:36:01.000Z</time>
      </trkpt>
      <trkpt lat="46.38991" lon="13.5878">
        <ele>606.459782</ele>
        <time>2026-07-13T09:36:02.000Z</time>
      </trkpt>
      <trkpt lat="46.38986" lon="13.58783">
        <ele>606.59081</ele>
        <time>2026-07-13T09:36:03.000Z</time>
      </trkpt>
      <trkpt lat="46.38965" lon="13.58802">
        <ele>607.158708</ele>
        <time>2026-07-13T09:36:07.000Z</time>
      </trkpt>
      <trkpt lat="46.38959" lon="13.58805">
        <ele>607.317804</ele>
        <time>2026-07-13T09:36:08.000Z</time>
      </trkpt>
      <trkpt lat="46.38945" lon="13.58808">
        <ele>607.542524</ele>
        <time>2026-07-13T09:36:10.000Z</time>
      </trkpt>
      <trkpt lat="46.38938" lon="13.58808">
        <ele>607.523557</ele>
        <time>2026-07-13T09:36:11.000Z</time>
      </trkpt>
      <trkpt lat="46.38932" lon="13.58808">
        <ele>607.50482</ele>
        <time>2026-07-13T09:36:12.000Z</time>
      </trkpt>
      <trkpt lat="46.38918" lon="13.58804">
        <ele>607.466019</ele>
        <time>2026-07-13T09:36:14.000Z</time>
      </trkpt>
      <trkpt lat="46.38911" lon="13.58803">
        <ele>607.446282</ele>
        <time>2026-07-13T09:36:15.000Z</time>
      </trkpt>
      <trkpt lat="46.38904" lon="13.58802">
        <ele>607.427824</ele>
        <time>2026-07-13T09:36:16.000Z</time>
      </trkpt>
      <trkpt lat="46.3889" lon="13.58803">
        <ele>607.388751</ele>
        <time>2026-07-13T09:36:18.000Z</time>
      </trkpt>
      <trkpt lat="46.38877" lon="13.58806">
        <ele>607.350656</ele>
        <time>2026-07-13T09:36:20.000Z</time>
      </trkpt>
      <trkpt lat="46.38871" lon="13.58807">
        <ele>607.332782</ele>
        <time>2026-07-13T09:36:21.000Z</time>
      </trkpt>
      <trkpt lat="46.38852" lon="13.58819">
        <ele>607.27712</ele>
        <time>2026-07-13T09:36:24.000Z</time>
      </trkpt>
      <trkpt lat="46.38811" lon="13.58848">
        <ele>607.147784</ele>
        <time>2026-07-13T09:36:31.000Z</time>
      </trkpt>
      <trkpt lat="46.38787" lon="13.58867">
        <ele>607.071877</ele>
        <time>2026-07-13T09:36:35.000Z</time>
      </trkpt>
      <trkpt lat="46.38765" lon="13.58882">
        <ele>606.427686</ele>
        <time>2026-07-13T09:36:38.000Z</time>
      </trkpt>
      <trkpt lat="46.38751" lon="13.58893">
        <ele>605.820656</ele>
        <time>2026-07-13T09:36:40.000Z</time>
      </trkpt>
      <trkpt lat="46.38734" lon="13.589">
        <ele>605.188236</ele>
        <time>2026-07-13T09:36:42.000Z</time>
      </trkpt>
      <trkpt lat="46.3872" lon="13.58899">
        <ele>604.632662</ele>
        <time>2026-07-13T09:36:44.000Z</time>
      </trkpt>
      <trkpt lat="46.38713" lon="13.58894">
        <ele>604.365357</ele>
        <time>2026-07-13T09:36:45.000Z</time>
      </trkpt>
      <trkpt lat="46.38709" lon="13.58886">
        <ele>604.110191</ele>
        <time>2026-07-13T09:36:46.000Z</time>
      </trkpt>
      <trkpt lat="46.38706" lon="13.58876">
        <ele>603.825058</ele>
        <time>2026-07-13T09:36:47.000Z</time>
      </trkpt>
      <trkpt lat="46.38704" lon="13.58866">
        <ele>603.541216</ele>
        <time>2026-07-13T09:36:48.000Z</time>
      </trkpt>
      <trkpt lat="46.38703" lon="13.58845">
        <ele>603.009648</ele>
        <time>2026-07-13T09:36:50.000Z</time>
      </trkpt>
      <trkpt lat="46.38703" lon="13.58835">
        <ele>602.748298</ele>
        <time>2026-07-13T09:36:51.000Z</time>
      </trkpt>
      <trkpt lat="46.38701" lon="13.58807">
        <ele>602.000958</ele>
        <time>2026-07-13T09:36:54.000Z</time>
      </trkpt>
      <trkpt lat="46.38696" lon="13.58789">
        <ele>601.512439</ele>
        <time>2026-07-13T09:36:56.000Z</time>
      </trkpt>
      <trkpt lat="46.38682" lon="13.58771">
        <ele>600.797537</ele>
        <time>2026-07-13T09:36:59.000Z</time>
      </trkpt>
      <trkpt lat="46.38676" lon="13.58766">
        <ele>600.536728</ele>
        <time>2026-07-13T09:37:00.000Z</time>
      </trkpt>
      <trkpt lat="46.38663" lon="13.58755">
        <ele>599.72485</ele>
        <time>2026-07-13T09:37:02.000Z</time>
      </trkpt>
      <trkpt lat="46.38652" lon="13.58738">
        <ele>598.699328</ele>
        <time>2026-07-13T09:37:04.000Z</time>
      </trkpt>
      <trkpt lat="46.38631" lon="13.58704">
        <ele>596.605001</ele>
        <time>2026-07-13T09:37:08.000Z</time>
      </trkpt>
      <trkpt lat="46.38624" lon="13.58695">
        <ele>596.006602</ele>
        <time>2026-07-13T09:37:09.000Z</time>
      </trkpt>
      <trkpt lat="46.38605" lon="13.58662">
        <ele>594.046594</ele>
        <time>2026-07-13T09:37:12.000Z</time>
      </trkpt>
      <trkpt lat="46.38599" lon="13.58649">
        <ele>593.355994</ele>
        <time>2026-07-13T09:37:13.000Z</time>
      </trkpt>
      <trkpt lat="46.38569" lon="13.58578">
        <ele>589.568685</ele>
        <time>2026-07-13T09:37:18.000Z</time>
      </trkpt>
      <trkpt lat="46.38561" lon="13.58567">
        <ele>588.887182</ele>
        <time>2026-07-13T09:37:19.000Z</time>
      </trkpt>
      <trkpt lat="46.38553" lon="13.58559">
        <ele>588.125109</ele>
        <time>2026-07-13T09:37:20.000Z</time>
      </trkpt>
      <trkpt lat="46.38543" lon="13.58554">
        <ele>587.238642</ele>
        <time>2026-07-13T09:37:21.000Z</time>
      </trkpt>
      <trkpt lat="46.38524" lon="13.58546">
        <ele>585.494802</ele>
        <time>2026-07-13T09:37:23.000Z</time>
      </trkpt>
      <trkpt lat="46.38515" lon="13.5854">
        <ele>584.635979</ele>
        <time>2026-07-13T09:37:24.000Z</time>
      </trkpt>
      <trkpt lat="46.38498" lon="13.58523">
        <ele>582.814205</ele>
        <time>2026-07-13T09:37:26.000Z</time>
      </trkpt>
      <trkpt lat="46.38465" lon="13.58481">
        <ele>579.027865</ele>
        <time>2026-07-13T09:37:30.000Z</time>
      </trkpt>
      <trkpt lat="46.38444" lon="13.58461">
        <ele>576.861364</ele>
        <time>2026-07-13T09:37:32.000Z</time>
      </trkpt>
      <trkpt lat="46.3842" lon="13.58446">
        <ele>574.545252</ele>
        <time>2026-07-13T09:37:34.000Z</time>
      </trkpt>
      <trkpt lat="46.38395" lon="13.58436">
        <ele>572.595232</ele>
        <time>2026-07-13T09:37:36.000Z</time>
      </trkpt>
      <trkpt lat="46.38333" lon="13.58412">
        <ele>569.920975</ele>
        <time>2026-07-13T09:37:41.000Z</time>
      </trkpt>
      <trkpt lat="46.38319" lon="13.58409">
        <ele>569.34127</ele>
        <time>2026-07-13T09:37:42.000Z</time>
      </trkpt>
      <trkpt lat="46.38293" lon="13.58407">
        <ele>568.255349</ele>
        <time>2026-07-13T09:37:44.000Z</time>
      </trkpt>
      <trkpt lat="46.3828" lon="13.58409">
        <ele>567.705959</ele>
        <time>2026-07-13T09:37:45.000Z</time>
      </trkpt>
      <trkpt lat="46.38267" lon="13.58412">
        <ele>567.161501</ele>
        <time>2026-07-13T09:37:46.000Z</time>
      </trkpt>
      <trkpt lat="46.38241" lon="13.58425">
        <ele>566.014532</ele>
        <time>2026-07-13T09:37:48.000Z</time>
      </trkpt>
      <trkpt lat="46.38214" lon="13.58429">
        <ele>564.758895</ele>
        <time>2026-07-13T09:37:50.000Z</time>
      </trkpt>
      <trkpt lat="46.382" lon="13.58428">
        <ele>564.051654</ele>
        <time>2026-07-13T09:37:51.000Z</time>
      </trkpt>
      <trkpt lat="46.38177" lon="13.5842">
        <ele>562.820093</ele>
        <time>2026-07-13T09:37:53.000Z</time>
      </trkpt>
      <trkpt lat="46.38155" lon="13.58413">
        <ele>561.630371</ele>
        <time>2026-07-13T09:37:55.000Z</time>
      </trkpt>
      <trkpt lat="46.38144" lon="13.58414">
        <ele>561.062494</ele>
        <time>2026-07-13T09:37:56.000Z</time>
      </trkpt>
      <trkpt lat="46.38131" lon="13.58419">
        <ele>560.409258</ele>
        <time>2026-07-13T09:37:57.000Z</time>
      </trkpt>
      <trkpt lat="46.38122" lon="13.58425">
        <ele>559.85635</ele>
        <time>2026-07-13T09:37:58.000Z</time>
      </trkpt>
      <trkpt lat="46.38113" lon="13.58434">
        <ele>559.304429</ele>
        <time>2026-07-13T09:37:59.000Z</time>
      </trkpt>
      <trkpt lat="46.38098" lon="13.58455">
        <ele>558.234475</ele>
        <time>2026-07-13T09:38:01.000Z</time>
      </trkpt>
      <trkpt lat="46.3808" lon="13.58474">
        <ele>557.099295</ele>
        <time>2026-07-13T09:38:03.000Z</time>
      </trkpt>
      <trkpt lat="46.38071" lon="13.58482">
        <ele>556.547534</ele>
        <time>2026-07-13T09:38:04.000Z</time>
      </trkpt>
      <trkpt lat="46.38062" lon="13.58488">
        <ele>556.037744</ele>
        <time>2026-07-13T09:38:05.000Z</time>
      </trkpt>
      <trkpt lat="46.38052" lon="13.58493">
        <ele>555.634286</ele>
        <time>2026-07-13T09:38:06.000Z</time>
      </trkpt>
      <trkpt lat="46.38021" lon="13.58501">
        <ele>554.392036</ele>
        <time>2026-07-13T09:38:09.000Z</time>
      </trkpt>
      <trkpt lat="46.37981" lon="13.58508">
        <ele>552.8095</ele>
        <time>2026-07-13T09:38:13.000Z</time>
      </trkpt>
      <trkpt lat="46.37972" lon="13.58513">
        <ele>552.449937</ele>
        <time>2026-07-13T09:38:14.000Z</time>
      </trkpt>
      <trkpt lat="46.37964" lon="13.58519">
        <ele>552.103529</ele>
        <time>2026-07-13T09:38:15.000Z</time>
      </trkpt>
      <trkpt lat="46.37957" lon="13.58526">
        <ele>551.771139</ele>
        <time>2026-07-13T09:38:16.000Z</time>
      </trkpt>
      <trkpt lat="46.37951" lon="13.58533">
        <ele>551.452995</ele>
        <time>2026-07-13T09:38:17.000Z</time>
      </trkpt>
      <trkpt lat="46.37924" lon="13.58561">
        <ele>550.171156</ele>
        <time>2026-07-13T09:38:21.000Z</time>
      </trkpt>
      <trkpt lat="46.37909" lon="13.58571">
        <ele>549.522284</ele>
        <time>2026-07-13T09:38:23.000Z</time>
      </trkpt>
      <trkpt lat="46.37879" lon="13.58587">
        <ele>547.491728</ele>
        <time>2026-07-13T09:38:27.000Z</time>
      </trkpt>
      <trkpt lat="46.37864" lon="13.58591">
        <ele>546.304867</ele>
        <time>2026-07-13T09:38:29.000Z</time>
      </trkpt>
      <trkpt lat="46.37844" lon="13.5859">
        <ele>544.733357</ele>
        <time>2026-07-13T09:38:32.000Z</time>
      </trkpt>
      <trkpt lat="46.37837" lon="13.58589">
        <ele>544.201714</ele>
        <time>2026-07-13T09:38:33.000Z</time>
      </trkpt>
      <trkpt lat="46.37797" lon="13.58583">
        <ele>541.016765</ele>
        <time>2026-07-13T09:38:39.000Z</time>
      </trkpt>
      <trkpt lat="46.37785" lon="13.58575">
        <ele>539.956479</ele>
        <time>2026-07-13T09:38:41.000Z</time>
      </trkpt>
      <trkpt lat="46.37778" lon="13.58567">
        <ele>539.339229</ele>
        <time>2026-07-13T09:38:42.000Z</time>
      </trkpt>
      <trkpt lat="46.37752" lon="13.58532">
        <ele>536.503117</ele>
        <time>2026-07-13T09:38:46.000Z</time>
      </trkpt>
      <trkpt lat="46.37733" lon="13.58503">
        <ele>534.363078</ele>
        <time>2026-07-13T09:38:49.000Z</time>
      </trkpt>
      <trkpt lat="46.37726" lon="13.58495">
        <ele>533.583494</ele>
        <time>2026-07-13T09:38:50.000Z</time>
      </trkpt>
      <trkpt lat="46.37691" lon="13.58474">
        <ele>530.492423</ele>
        <time>2026-07-13T09:38:54.000Z</time>
      </trkpt>
      <trkpt lat="46.37636" lon="13.58443">
        <ele>525.582027</ele>
        <time>2026-07-13T09:39:00.000Z</time>
      </trkpt>
      <trkpt lat="46.37627" lon="13.58437">
        <ele>524.807804</ele>
        <time>2026-07-13T09:39:01.000Z</time>
      </trkpt>
      <trkpt lat="46.37579" lon="13.58412">
        <ele>520.530299</ele>
        <time>2026-07-13T09:39:07.000Z</time>
      </trkpt>
      <trkpt lat="46.37541" lon="13.58405">
        <ele>518.703772</ele>
        <time>2026-07-13T09:39:12.000Z</time>
      </trkpt>
      <trkpt lat="46.37518" lon="13.58403">
        <ele>517.745971</ele>
        <time>2026-07-13T09:39:15.000Z</time>
      </trkpt>
      <trkpt lat="46.37504" lon="13.58406">
        <ele>517.09701</ele>
        <time>2026-07-13T09:39:17.000Z</time>
      </trkpt>
      <trkpt lat="46.37461" lon="13.5842">
        <ele>515.227643</ele>
        <time>2026-07-13T09:39:22.000Z</time>
      </trkpt>
      <trkpt lat="46.37415" lon="13.58439">
        <ele>513.170894</ele>
        <time>2026-07-13T09:39:27.000Z</time>
      </trkpt>
      <trkpt lat="46.37357" lon="13.58456">
        <ele>510.141812</ele>
        <time>2026-07-13T09:39:33.000Z</time>
      </trkpt>
      <trkpt lat="46.37347" lon="13.58459">
        <ele>509.609389</ele>
        <time>2026-07-13T09:39:34.000Z</time>
      </trkpt>
      <trkpt lat="46.3731" lon="13.58465">
        <ele>507.621183</ele>
        <time>2026-07-13T09:39:38.000Z</time>
      </trkpt>
      <trkpt lat="46.37293" lon="13.58463">
        <ele>506.712144</ele>
        <time>2026-07-13T09:39:40.000Z</time>
      </trkpt>
      <trkpt lat="46.37249" lon="13.5845">
        <ele>504.280941</ele>
        <time>2026-07-13T09:39:46.000Z</time>
      </trkpt>
      <trkpt lat="46.37232" lon="13.58443">
        <ele>503.359856</ele>
        <time>2026-07-13T09:39:49.000Z</time>
      </trkpt>
      <trkpt lat="46.37229" lon="13.58441">
        <ele>503.172759</ele>
        <time>2026-07-13T09:39:50.000Z</time>
      </trkpt>
      <trkpt lat="46.37228" lon="13.5844">
        <ele>503.101408</ele>
        <time>2026-07-13T09:39:53.000Z</time>
      </trkpt>
      <trkpt lat="46.37224" lon="13.5844">
        <ele>502.913461</ele>
        <time>2026-07-13T09:40:15.000Z</time>
      </trkpt>
      <trkpt lat="46.37221" lon="13.5844">
        <ele>502.757764</ele>
        <time>2026-07-13T09:40:16.000Z</time>
      </trkpt>
      <trkpt lat="46.37218" lon="13.58439">
        <ele>502.748417</ele>
        <time>2026-07-13T09:40:17.000Z</time>
      </trkpt>
      <trkpt lat="46.37203" lon="13.58436">
        <ele>502.763253</ele>
        <time>2026-07-13T09:40:21.000Z</time>
      </trkpt>
      <trkpt lat="46.37199" lon="13.58435">
        <ele>502.767688</ele>
        <time>2026-07-13T09:40:22.000Z</time>
      </trkpt>
      <trkpt lat="46.37177" lon="13.58436">
        <ele>502.789341</ele>
        <time>2026-07-13T09:40:26.000Z</time>
      </trkpt>
      <trkpt lat="46.37171" lon="13.58438">
        <ele>502.795311</ele>
        <time>2026-07-13T09:40:27.000Z</time>
      </trkpt>
      <trkpt lat="46.37164" lon="13.5844">
        <ele>502.801514</ele>
        <time>2026-07-13T09:40:28.000Z</time>
      </trkpt>
      <trkpt lat="46.37152" lon="13.58445">
        <ele>502.813717</ele>
        <time>2026-07-13T09:40:30.000Z</time>
      </trkpt>
      <trkpt lat="46.3714" lon="13.58452">
        <ele>502.826336</ele>
        <time>2026-07-13T09:40:32.000Z</time>
      </trkpt>
      <trkpt lat="46.37134" lon="13.58454">
        <ele>502.832663</ele>
        <time>2026-07-13T09:40:33.000Z</time>
      </trkpt>
      <trkpt lat="46.37122" lon="13.5846">
        <ele>502.84545</ele>
        <time>2026-07-13T09:40:35.000Z</time>
      </trkpt>
      <trkpt lat="46.3711" lon="13.58467">
        <ele>502.857963</ele>
        <time>2026-07-13T09:40:37.000Z</time>
      </trkpt>
      <trkpt lat="46.37093" lon="13.5848">
        <ele>502.876358</ele>
        <time>2026-07-13T09:40:40.000Z</time>
      </trkpt>
      <trkpt lat="46.37067" lon="13.58511">
        <ele>502.908551</ele>
        <time>2026-07-13T09:40:46.000Z</time>
      </trkpt>
      <trkpt lat="46.37057" lon="13.58523">
        <ele>502.971537</ele>
        <time>2026-07-13T09:40:49.000Z</time>
      </trkpt>
      <trkpt lat="46.37055" lon="13.58527">
        <ele>503.287591</ele>
        <time>2026-07-13T09:40:50.000Z</time>
      </trkpt>
      <trkpt lat="46.37053" lon="13.5853">
        <ele>503.556257</ele>
        <time>2026-07-13T09:40:51.000Z</time>
      </trkpt>
      <trkpt lat="46.37047" lon="13.58537">
        <ele>504.178554</ele>
        <time>2026-07-13T09:40:53.000Z</time>
      </trkpt>
      <trkpt lat="46.37038" lon="13.58547">
        <ele>505.190562</ele>
        <time>2026-07-13T09:40:57.000Z</time>
      </trkpt>
      <trkpt lat="46.37024" lon="13.58567">
        <ele>506.889979</ele>
        <time>2026-07-13T09:41:03.000Z</time>
      </trkpt>
      <trkpt lat="46.3702" lon="13.58574">
        <ele>507.461122</ele>
        <time>2026-07-13T09:41:05.000Z</time>
      </trkpt>
      <trkpt lat="46.37007" lon="13.58597">
        <ele>509.208287</ele>
        <time>2026-07-13T09:41:11.000Z</time>
      </trkpt>
      <trkpt lat="46.37" lon="13.58608">
        <ele>510.098902</ele>
        <time>2026-07-13T09:41:14.000Z</time>
      </trkpt>
      <trkpt lat="46.36977" lon="13.58644">
        <ele>513.064819</ele>
        <time>2026-07-13T09:41:25.000Z</time>
      </trkpt>
      <trkpt lat="46.36965" lon="13.5866">
        <ele>514.441283</ele>
        <time>2026-07-13T09:41:31.000Z</time>
      </trkpt>
      <trkpt lat="46.36955" lon="13.58676">
        <ele>515.783424</ele>
        <time>2026-07-13T09:41:38.000Z</time>
      </trkpt>
      <trkpt lat="46.36941" lon="13.58696">
        <ele>517.431168</ele>
        <time>2026-07-13T09:41:47.000Z</time>
      </trkpt>
      <trkpt lat="46.36927" lon="13.58712">
        <ele>519.051144</ele>
        <time>2026-07-13T09:41:56.000Z</time>
      </trkpt>
      <trkpt lat="46.36921" lon="13.58719">
        <ele>519.839174</ele>
        <time>2026-07-13T09:42:00.000Z</time>
      </trkpt>
      <trkpt lat="46.36916" lon="13.58723">
        <ele>520.363789</ele>
        <time>2026-07-13T09:42:03.000Z</time>
      </trkpt>
      <trkpt lat="46.36911" lon="13.58728">
        <ele>520.934306</ele>
        <time>2026-07-13T09:42:06.000Z</time>
      </trkpt>
      <trkpt lat="46.36902" lon="13.58737">
        <ele>521.984848</ele>
        <time>2026-07-13T09:42:12.000Z</time>
      </trkpt>
      <trkpt lat="46.36888" lon="13.58744">
        <ele>523.536428</ele>
        <time>2026-07-13T09:42:20.000Z</time>
      </trkpt>
      <trkpt lat="46.36872" lon="13.58751">
        <ele>525.161513</ele>
        <time>2026-07-13T09:42:29.000Z</time>
      </trkpt>
      <trkpt lat="46.36859" lon="13.58751">
        <ele>526.433478</ele>
        <time>2026-07-13T09:42:36.000Z</time>
      </trkpt>
      <trkpt lat="46.36844" lon="13.58755">
        <ele>527.844418</ele>
        <time>2026-07-13T09:42:44.000Z</time>
      </trkpt>
      <trkpt lat="46.36828" lon="13.58759">
        <ele>529.450524</ele>
        <time>2026-07-13T09:42:53.000Z</time>
      </trkpt>
      <trkpt lat="46.36823" lon="13.58765">
        <ele>530.064989</ele>
        <time>2026-07-13T09:42:56.000Z</time>
      </trkpt>
      <trkpt lat="46.36818" lon="13.58766">
        <ele>530.589584</ele>
        <time>2026-07-13T09:42:59.000Z</time>
      </trkpt>
      <trkpt lat="46.36806" lon="13.5877">
        <ele>531.759276</ele>
        <time>2026-07-13T09:43:05.000Z</time>
      </trkpt>
      <trkpt lat="46.36796" lon="13.58779">
        <ele>532.998292</ele>
        <time>2026-07-13T09:43:12.000Z</time>
      </trkpt>
      <trkpt lat="46.36778" lon="13.58791">
        <ele>534.876853</ele>
        <time>2026-07-13T09:43:22.000Z</time>
      </trkpt>
      <trkpt lat="46.36763" lon="13.58801">
        <ele>536.357758</ele>
        <time>2026-07-13T09:43:31.000Z</time>
      </trkpt>
      <trkpt lat="46.36748" lon="13.58807">
        <ele>537.193773</ele>
        <time>2026-07-13T09:43:39.000Z</time>
      </trkpt>
      <trkpt lat="46.36734" lon="13.58811">
        <ele>537.932568</ele>
        <time>2026-07-13T09:43:47.000Z</time>
      </trkpt>
      <trkpt lat="46.3672" lon="13.58815">
        <ele>538.747942</ele>
        <time>2026-07-13T09:43:55.000Z</time>
      </trkpt>
      <trkpt lat="46.36716" lon="13.58816">
        <ele>538.961953</ele>
        <time>2026-07-13T09:43:57.000Z</time>
      </trkpt>
      <trkpt lat="46.3671" lon="13.58817">
        <ele>539.258779</ele>
        <time>2026-07-13T09:44:00.000Z</time>
      </trkpt>
      <trkpt lat="46.36693" lon="13.5882">
        <ele>540.227925</ele>
        <time>2026-07-13T09:44:09.000Z</time>
      </trkpt>
      <trkpt lat="46.36676" lon="13.58828">
        <ele>541.18824</ele>
        <time>2026-07-13T09:44:16.000Z</time>
      </trkpt>
      <trkpt lat="46.36661" lon="13.58837">
        <ele>542.069694</ele>
        <time>2026-07-13T09:44:22.000Z</time>
      </trkpt>
      <trkpt lat="46.36636" lon="13.58854">
        <ele>543.561893</ele>
        <time>2026-07-13T09:44:32.000Z</time>
      </trkpt>
      <trkpt lat="46.36633" lon="13.58856">
        <ele>543.72337</ele>
        <time>2026-07-13T09:44:33.000Z</time>
      </trkpt>
      <trkpt lat="46.36612" lon="13.58863">
        <ele>544.888021</ele>
        <time>2026-07-13T09:44:40.000Z</time>
      </trkpt>
      <trkpt lat="46.366" lon="13.58862">
        <ele>545.573272</ele>
        <time>2026-07-13T09:44:44.000Z</time>
      </trkpt>
      <trkpt lat="46.3659" lon="13.5886">
        <ele>545.739122</ele>
        <time>2026-07-13T09:44:47.000Z</time>
      </trkpt>
      <trkpt lat="46.3656" lon="13.58854">
        <ele>544.698185</ele>
        <time>2026-07-13T09:44:55.000Z</time>
      </trkpt>
      <trkpt lat="46.36555" lon="13.58853">
        <ele>544.52334</ele>
        <time>2026-07-13T09:44:56.000Z</time>
      </trkpt>
      <trkpt lat="46.36545" lon="13.58855">
        <ele>544.151481</ele>
        <time>2026-07-13T09:44:58.000Z</time>
      </trkpt>
      <trkpt lat="46.3654" lon="13.58857">
        <ele>543.963853</ele>
        <time>2026-07-13T09:44:59.000Z</time>
      </trkpt>
      <trkpt lat="46.36511" lon="13.58875">
        <ele>542.884759</ele>
        <time>2026-07-13T09:45:04.000Z</time>
      </trkpt>
      <trkpt lat="46.365" lon="13.58883">
        <ele>542.452851</ele>
        <time>2026-07-13T09:45:06.000Z</time>
      </trkpt>
      <trkpt lat="46.36488" lon="13.58889">
        <ele>542.023461</ele>
        <time>2026-07-13T09:45:08.000Z</time>
      </trkpt>
      <trkpt lat="46.36483" lon="13.5889">
        <ele>541.816779</ele>
        <time>2026-07-13T09:45:09.000Z</time>
      </trkpt>
      <trkpt lat="46.36477" lon="13.58891">
        <ele>541.614486</ele>
        <time>2026-07-13T09:45:10.000Z</time>
      </trkpt>
      <trkpt lat="46.3646" lon="13.58891">
        <ele>541.047807</ele>
        <time>2026-07-13T09:45:13.000Z</time>
      </trkpt>
      <trkpt lat="46.36434" lon="13.58887">
        <ele>540.111851</ele>
        <time>2026-07-13T09:45:18.000Z</time>
      </trkpt>
      <trkpt lat="46.36428" lon="13.58887">
        <ele>539.906766</ele>
        <time>2026-07-13T09:45:19.000Z</time>
      </trkpt>
      <trkpt lat="46.36422" lon="13.58888">
        <ele>539.690788</ele>
        <time>2026-07-13T09:45:20.000Z</time>
      </trkpt>
      <trkpt lat="46.36402" lon="13.58894">
        <ele>538.952271</ele>
        <time>2026-07-13T09:45:23.000Z</time>
      </trkpt>
      <trkpt lat="46.36373" lon="13.58918">
        <ele>537.755872</ele>
        <time>2026-07-13T09:45:27.000Z</time>
      </trkpt>
      <trkpt lat="46.36345" lon="13.58934">
        <ele>536.663475</ele>
        <time>2026-07-13T09:45:30.000Z</time>
      </trkpt>
      <trkpt lat="46.36334" lon="13.58936">
        <ele>536.281717</ele>
        <time>2026-07-13T09:45:31.000Z</time>
      </trkpt>
      <trkpt lat="46.36293" lon="13.58941">
        <ele>534.780926</ele>
        <time>2026-07-13T09:45:35.000Z</time>
      </trkpt>
      <trkpt lat="46.36283" lon="13.58943">
        <ele>534.418601</ele>
        <time>2026-07-13T09:45:36.000Z</time>
      </trkpt>
      <trkpt lat="46.36264" lon="13.58948">
        <ele>533.728594</ele>
        <time>2026-07-13T09:45:38.000Z</time>
      </trkpt>
      <trkpt lat="46.36241" lon="13.58958">
        <ele>532.775114</ele>
        <time>2026-07-13T09:45:41.000Z</time>
      </trkpt>
      <trkpt lat="46.36228" lon="13.58962">
        <ele>532.157957</ele>
        <time>2026-07-13T09:45:43.000Z</time>
      </trkpt>
      <trkpt lat="46.36216" lon="13.58964">
        <ele>531.592944</ele>
        <time>2026-07-13T09:45:45.000Z</time>
      </trkpt>
      <trkpt lat="46.3621" lon="13.58964">
        <ele>531.304778</ele>
        <time>2026-07-13T09:45:46.000Z</time>
      </trkpt>
      <trkpt lat="46.36204" lon="13.58964">
        <ele>531.021987</ele>
        <time>2026-07-13T09:45:47.000Z</time>
      </trkpt>
      <trkpt lat="46.36187" lon="13.58961">
        <ele>530.212235</ele>
        <time>2026-07-13T09:45:50.000Z</time>
      </trkpt>
      <trkpt lat="46.36137" lon="13.5894">
        <ele>527.757706</ele>
        <time>2026-07-13T09:45:59.000Z</time>
      </trkpt>
      <trkpt lat="46.36132" lon="13.58938">
        <ele>527.501138</ele>
        <time>2026-07-13T09:46:00.000Z</time>
      </trkpt>
      <trkpt lat="46.36115" lon="13.58933">
        <ele>526.684199</ele>
        <time>2026-07-13T09:46:04.000Z</time>
      </trkpt>
      <trkpt lat="46.36111" lon="13.58932">
        <ele>526.49025</ele>
        <time>2026-07-13T09:46:08.000Z</time>
      </trkpt>
      <trkpt lat="46.36103" lon="13.58933">
        <ele>526.097422</ele>
        <time>2026-07-13T09:47:58.000Z</time>
      </trkpt>
      <trkpt lat="46.36098" lon="13.58934">
        <ele>525.877683</ele>
        <time>2026-07-13T09:48:00.000Z</time>
      </trkpt>
      <trkpt lat="46.36095" lon="13.58936">
        <ele>525.73024</ele>
        <time>2026-07-13T09:48:01.000Z</time>
      </trkpt>
      <trkpt lat="46.36088" lon="13.5894">
        <ele>525.383476</ele>
        <time>2026-07-13T09:48:03.000Z</time>
      </trkpt>
      <trkpt lat="46.36078" lon="13.58943">
        <ele>524.877157</ele>
        <time>2026-07-13T09:48:05.000Z</time>
      </trkpt>
      <trkpt lat="46.36069" lon="13.58954">
        <ele>524.281945</ele>
        <time>2026-07-13T09:48:07.000Z</time>
      </trkpt>
      <trkpt lat="46.36063" lon="13.58958">
        <ele>523.927804</ele>
        <time>2026-07-13T09:48:08.000Z</time>
      </trkpt>
      <trkpt lat="46.36057" lon="13.58961">
        <ele>523.516298</ele>
        <time>2026-07-13T09:48:09.000Z</time>
      </trkpt>
      <trkpt lat="46.36036" lon="13.5897">
        <ele>522.269735</ele>
        <time>2026-07-13T09:48:12.000Z</time>
      </trkpt>
      <trkpt lat="46.36022" lon="13.58977">
        <ele>521.458339</ele>
        <time>2026-07-13T09:48:14.000Z</time>
      </trkpt>
      <trkpt lat="46.36007" lon="13.58978">
        <ele>520.586366</ele>
        <time>2026-07-13T09:48:16.000Z</time>
      </trkpt>
      <trkpt lat="46.35999" lon="13.58979">
        <ele>520.141774</ele>
        <time>2026-07-13T09:48:17.000Z</time>
      </trkpt>
      <trkpt lat="46.35982" lon="13.58975">
        <ele>519.13259</ele>
        <time>2026-07-13T09:48:19.000Z</time>
      </trkpt>
      <trkpt lat="46.35975" lon="13.5897">
        <ele>518.711518</ele>
        <time>2026-07-13T09:48:20.000Z</time>
      </trkpt>
      <trkpt lat="46.3593" lon="13.58957">
        <ele>516.083441</ele>
        <time>2026-07-13T09:48:25.000Z</time>
      </trkpt>
      <trkpt lat="46.35886" lon="13.58939">
        <ele>513.814957</ele>
        <time>2026-07-13T09:48:30.000Z</time>
      </trkpt>
      <trkpt lat="46.35832" lon="13.58894">
        <ele>511.544197</ele>
        <time>2026-07-13T09:48:37.000Z</time>
      </trkpt>
      <trkpt lat="46.35825" lon="13.58887">
        <ele>511.240114</ele>
        <time>2026-07-13T09:48:38.000Z</time>
      </trkpt>
      <trkpt lat="46.35796" lon="13.58861">
        <ele>509.987426</ele>
        <time>2026-07-13T09:48:42.000Z</time>
      </trkpt>
      <trkpt lat="46.35774" lon="13.58839">
        <ele>508.992109</ele>
        <time>2026-07-13T09:48:45.000Z</time>
      </trkpt>
      <trkpt lat="46.35767" lon="13.5883">
        <ele>508.657573</ele>
        <time>2026-07-13T09:48:46.000Z</time>
      </trkpt>
      <trkpt lat="46.35754" lon="13.58809">
        <ele>507.949445</ele>
        <time>2026-07-13T09:48:48.000Z</time>
      </trkpt>
      <trkpt lat="46.35743" lon="13.58784">
        <ele>507.213565</ele>
        <time>2026-07-13T09:48:50.000Z</time>
      </trkpt>
      <trkpt lat="46.35712" lon="13.58723">
        <ele>505.356663</ele>
        <time>2026-07-13T09:48:55.000Z</time>
      </trkpt>
      <trkpt lat="46.35704" lon="13.58712">
        <ele>504.974085</ele>
        <time>2026-07-13T09:48:56.000Z</time>
      </trkpt>
      <trkpt lat="46.35656" lon="13.58665">
        <ele>502.886186</ele>
        <time>2026-07-13T09:49:01.000Z</time>
      </trkpt>
      <trkpt lat="46.35606" lon="13.58614">
        <ele>500.782269</ele>
        <time>2026-07-13T09:49:06.000Z</time>
      </trkpt>
      <trkpt lat="46.35596" lon="13.58603">
        <ele>500.382752</ele>
        <time>2026-07-13T09:49:07.000Z</time>
      </trkpt>
      <trkpt lat="46.35569" lon="13.58576">
        <ele>499.311982</ele>
        <time>2026-07-13T09:49:10.000Z</time>
      </trkpt>
      <trkpt lat="46.3553" lon="13.58537">
        <ele>497.800175</ele>
        <time>2026-07-13T09:49:14.000Z</time>
      </trkpt>
      <trkpt lat="46.355" lon="13.58505">
        <ele>496.600028</ele>
        <time>2026-07-13T09:49:17.000Z</time>
      </trkpt>
      <trkpt lat="46.35454" lon="13.58457">
        <ele>494.494775</ele>
        <time>2026-07-13T09:49:22.000Z</time>
      </trkpt>
      <trkpt lat="46.35427" lon="13.58431">
        <ele>493.087687</ele>
        <time>2026-07-13T09:49:25.000Z</time>
      </trkpt>
      <trkpt lat="46.35377" lon="13.58376">
        <ele>490.415012</ele>
        <time>2026-07-13T09:49:31.000Z</time>
      </trkpt>
      <trkpt lat="46.35369" lon="13.58368">
        <ele>489.978253</ele>
        <time>2026-07-13T09:49:32.000Z</time>
      </trkpt>
      <trkpt lat="46.35329" lon="13.58326">
        <ele>487.872921</ele>
        <time>2026-07-13T09:49:37.000Z</time>
      </trkpt>
      <trkpt lat="46.35297" lon="13.58295">
        <ele>486.411076</ele>
        <time>2026-07-13T09:49:41.000Z</time>
      </trkpt>
      <trkpt lat="46.35289" lon="13.58287">
        <ele>486.034494</ele>
        <time>2026-07-13T09:49:42.000Z</time>
      </trkpt>
      <trkpt lat="46.35251" lon="13.58248">
        <ele>484.249686</ele>
        <time>2026-07-13T09:49:47.000Z</time>
      </trkpt>
      <trkpt lat="46.35208" lon="13.58204">
        <ele>482.226609</ele>
        <time>2026-07-13T09:49:52.000Z</time>
      </trkpt>
      <trkpt lat="46.35158" lon="13.58151">
        <ele>479.953524</ele>
        <time>2026-07-13T09:49:58.000Z</time>
      </trkpt>
      <trkpt lat="46.35123" lon="13.58116">
        <ele>478.487978</ele>
        <time>2026-07-13T09:50:02.000Z</time>
      </trkpt>
      <trkpt lat="46.35115" lon="13.58106">
        <ele>478.13374</ele>
        <time>2026-07-13T09:50:03.000Z</time>
      </trkpt>
      <trkpt lat="46.35107" lon="13.58097">
        <ele>477.781046</ele>
        <time>2026-07-13T09:50:04.000Z</time>
      </trkpt>
      <trkpt lat="46.35065" lon="13.58054">
        <ele>476.011416</ele>
        <time>2026-07-13T09:50:09.000Z</time>
      </trkpt>
      <trkpt lat="46.35038" lon="13.5803">
        <ele>474.919802</ele>
        <time>2026-07-13T09:50:12.000Z</time>
      </trkpt>
      <trkpt lat="46.35018" lon="13.58019">
        <ele>474.131073</ele>
        <time>2026-07-13T09:50:14.000Z</time>
      </trkpt>
      <trkpt lat="46.34962" lon="13.57998">
        <ele>472.017037</ele>
        <time>2026-07-13T09:50:19.000Z</time>
      </trkpt>
      <trkpt lat="46.34906" lon="13.57973">
        <ele>469.900157</ele>
        <time>2026-07-13T09:50:24.000Z</time>
      </trkpt>
      <trkpt lat="46.34852" lon="13.57935">
        <ele>467.773431</ele>
        <time>2026-07-13T09:50:29.000Z</time>
      </trkpt>
      <trkpt lat="46.34797" lon="13.57898">
        <ele>465.839111</ele>
        <time>2026-07-13T09:50:34.000Z</time>
      </trkpt>
      <trkpt lat="46.34752" lon="13.57875">
        <ele>464.32216</ele>
        <time>2026-07-13T09:50:38.000Z</time>
      </trkpt>
      <trkpt lat="46.34741" lon="13.57869">
        <ele>463.9338</ele>
        <time>2026-07-13T09:50:39.000Z</time>
      </trkpt>
      <trkpt lat="46.34705" lon="13.5785">
        <ele>462.724736</ele>
        <time>2026-07-13T09:50:42.000Z</time>
      </trkpt>
      <trkpt lat="46.3468" lon="13.57841">
        <ele>461.935109</ele>
        <time>2026-07-13T09:50:44.000Z</time>
      </trkpt>
      <trkpt lat="46.3462" lon="13.57822">
        <ele>460.005572</ele>
        <time>2026-07-13T09:50:49.000Z</time>
      </trkpt>
      <trkpt lat="46.34598" lon="13.57813">
        <ele>459.282957</ele>
        <time>2026-07-13T09:50:51.000Z</time>
      </trkpt>
      <trkpt lat="46.34557" lon="13.57786">
        <ele>457.889369</ele>
        <time>2026-07-13T09:50:55.000Z</time>
      </trkpt>
      <trkpt lat="46.3454" lon="13.57766">
        <ele>457.205068</ele>
        <time>2026-07-13T09:50:57.000Z</time>
      </trkpt>
      <trkpt lat="46.34526" lon="13.57743">
        <ele>456.620512</ele>
        <time>2026-07-13T09:50:59.000Z</time>
      </trkpt>
      <trkpt lat="46.34497" lon="13.5769">
        <ele>455.47136</ele>
        <time>2026-07-13T09:51:04.000Z</time>
      </trkpt>
      <trkpt lat="46.34464" lon="13.57631">
        <ele>454.216461</ele>
        <time>2026-07-13T09:51:10.000Z</time>
      </trkpt>
      <trkpt lat="46.3444" lon="13.57584">
        <ele>453.218502</ele>
        <time>2026-07-13T09:51:15.000Z</time>
      </trkpt>
      <trkpt lat="46.34412" lon="13.57527">
        <ele>452.465407</ele>
        <time>2026-07-13T09:51:21.000Z</time>
      </trkpt>
      <trkpt lat="46.34386" lon="13.57472">
        <ele>452.329698</ele>
        <time>2026-07-13T09:51:27.000Z</time>
      </trkpt>
      <trkpt lat="46.34373" lon="13.57425">
        <ele>452.227348</ele>
        <time>2026-07-13T09:51:32.000Z</time>
      </trkpt>
      <trkpt lat="46.34371" lon="13.57416">
        <ele>452.208837</ele>
        <time>2026-07-13T09:51:33.000Z</time>
      </trkpt>
      <trkpt lat="46.34367" lon="13.57375">
        <ele>452.124956</ele>
        <time>2026-07-13T09:51:38.000Z</time>
      </trkpt>
      <trkpt lat="46.34366" lon="13.57368">
        <ele>452.109983</ele>
        <time>2026-07-13T09:51:39.000Z</time>
      </trkpt>
      <trkpt lat="46.34365" lon="13.57346">
        <ele>452.065833</ele>
        <time>2026-07-13T09:51:42.000Z</time>
      </trkpt>
      <trkpt lat="46.34365" lon="13.57324">
        <ele>452.021454</ele>
        <time>2026-07-13T09:51:45.000Z</time>
      </trkpt>
      <trkpt lat="46.34363" lon="13.57312">
        <ele>451.995001</ele>
        <time>2026-07-13T09:51:47.000Z</time>
      </trkpt>
      <trkpt lat="46.34361" lon="13.57299">
        <ele>452.251129</ele>
        <time>2026-07-13T09:51:49.000Z</time>
      </trkpt>
      <trkpt lat="46.34359" lon="13.57293">
        <ele>452.396389</ele>
        <time>2026-07-13T09:51:50.000Z</time>
      </trkpt>
      <trkpt lat="46.34356" lon="13.57279">
        <ele>452.681921</ele>
        <time>2026-07-13T09:51:52.000Z</time>
      </trkpt>
      <trkpt lat="46.34353" lon="13.57266">
        <ele>452.960957</ele>
        <time>2026-07-13T09:51:54.000Z</time>
      </trkpt>
      <trkpt lat="46.34352" lon="13.57261">
        <ele>453.092446</ele>
        <time>2026-07-13T09:51:55.000Z</time>
      </trkpt>
      <trkpt lat="46.34349" lon="13.57255">
        <ele>453.221783</ele>
        <time>2026-07-13T09:51:56.000Z</time>
      </trkpt>
      <trkpt lat="46.34342" lon="13.57239">
        <ele>453.620904</ele>
        <time>2026-07-13T09:51:59.000Z</time>
      </trkpt>
      <trkpt lat="46.34335" lon="13.57223">
        <ele>454.015681</ele>
        <time>2026-07-13T09:52:02.000Z</time>
      </trkpt>
      <trkpt lat="46.3433" lon="13.57212">
        <ele>454.282839</ele>
        <time>2026-07-13T09:52:04.000Z</time>
      </trkpt>
      <trkpt lat="46.34317" lon="13.57194">
        <ele>454.829381</ele>
        <time>2026-07-13T09:52:08.000Z</time>
      </trkpt>
      <trkpt lat="46.34292" lon="13.57167">
        <ele>455.762243</ele>
        <time>2026-07-13T09:52:15.000Z</time>
      </trkpt>
      <trkpt lat="46.34288" lon="13.57163">
        <ele>455.898375</ele>
        <time>2026-07-13T09:52:16.000Z</time>
      </trkpt>
      <trkpt lat="46.34261" lon="13.57129">
        <ele>456.978863</ele>
        <time>2026-07-13T09:52:25.000Z</time>
      </trkpt>
      <trkpt lat="46.34238" lon="13.57108">
        <ele>457.706218</ele>
        <time>2026-07-13T09:52:32.000Z</time>
      </trkpt>
      <trkpt lat="46.34208" lon="13.57086">
        <ele>458.565281</ele>
        <time>2026-07-13T09:52:42.000Z</time>
      </trkpt>
      <trkpt lat="46.34175" lon="13.57073">
        <ele>459.410547</ele>
        <time>2026-07-13T09:52:51.000Z</time>
      </trkpt>
      <trkpt lat="46.34154" lon="13.57064">
        <ele>459.95831</ele>
        <time>2026-07-13T09:52:57.000Z</time>
      </trkpt>
      <trkpt lat="46.34141" lon="13.57055">
        <ele>460.314143</ele>
        <time>2026-07-13T09:53:01.000Z</time>
      </trkpt>
      <trkpt lat="46.34137" lon="13.57052">
        <ele>460.42824</ele>
        <time>2026-07-13T09:53:02.000Z</time>
      </trkpt>
      <trkpt lat="46.34121" lon="13.5704">
        <ele>460.896732</ele>
        <time>2026-07-13T09:53:07.000Z</time>
      </trkpt>
      <trkpt lat="46.34118" lon="13.57038">
        <ele>460.981594</ele>
        <time>2026-07-13T09:53:08.000Z</time>
      </trkpt>
      <trkpt lat="46.34085" lon="13.57005">
        <ele>461.957637</ele>
        <time>2026-07-13T09:53:18.000Z</time>
      </trkpt>
      <trkpt lat="46.34064" lon="13.5697">
        <ele>462.684692</ele>
        <time>2026-07-13T09:53:26.000Z</time>
      </trkpt>
      <trkpt lat="46.3405" lon="13.5694">
        <ele>463.247782</ele>
        <time>2026-07-13T09:53:32.000Z</time>
      </trkpt>
      <trkpt lat="46.34046" lon="13.56929">
        <ele>463.443065</ele>
        <time>2026-07-13T09:53:34.000Z</time>
      </trkpt>
      <trkpt lat="46.34033" lon="13.56892">
        <ele>464.086425</ele>
        <time>2026-07-13T09:53:40.000Z</time>
      </trkpt>
      <trkpt lat="46.34028" lon="13.56877">
        <ele>464.345659</ele>
        <time>2026-07-13T09:53:42.000Z</time>
      </trkpt>
      <trkpt lat="46.34018" lon="13.56851">
        <ele>464.810602</ele>
        <time>2026-07-13T09:53:46.000Z</time>
      </trkpt>
      <trkpt lat="46.34015" lon="13.56843">
        <ele>464.955922</ele>
        <time>2026-07-13T09:53:47.000Z</time>
      </trkpt>
      <trkpt lat="46.34005" lon="13.56804">
        <ele>465.603855</ele>
        <time>2026-07-13T09:53:52.000Z</time>
      </trkpt>
      <trkpt lat="46.33996" lon="13.56759">
        <ele>465.542285</ele>
        <time>2026-07-13T09:53:58.000Z</time>
      </trkpt>
      <trkpt lat="46.33986" lon="13.56689">
        <ele>464.422192</ele>
        <time>2026-07-13T09:54:06.000Z</time>
      </trkpt>
      <trkpt lat="46.33979" lon="13.56609">
        <ele>463.132771</ele>
        <time>2026-07-13T09:54:15.000Z</time>
      </trkpt>
      <trkpt lat="46.33976" lon="13.56531">
        <ele>461.89424</ele>
        <time>2026-07-13T09:54:23.000Z</time>
      </trkpt>
      <trkpt lat="46.33971" lon="13.56451">
        <ele>460.826376</ele>
        <time>2026-07-13T09:54:31.000Z</time>
      </trkpt>
      <trkpt lat="46.33958" lon="13.56386">
        <ele>459.941422</ele>
        <time>2026-07-13T09:54:38.000Z</time>
      </trkpt>
      <trkpt lat="46.3395" lon="13.56359">
        <ele>459.561449</ele>
        <time>2026-07-13T09:54:41.000Z</time>
      </trkpt>
      <trkpt lat="46.3394" lon="13.56334">
        <ele>459.180175</ele>
        <time>2026-07-13T09:54:44.000Z</time>
      </trkpt>
      <trkpt lat="46.33914" lon="13.56278">
        <ele>458.309617</ele>
        <time>2026-07-13T09:54:51.000Z</time>
      </trkpt>
      <trkpt lat="46.33887" lon="13.56221">
        <ele>457.480265</ele>
        <time>2026-07-13T09:54:59.000Z</time>
      </trkpt>
      <trkpt lat="46.33855" lon="13.56155">
        <ele>456.507043</ele>
        <time>2026-07-13T09:55:08.000Z</time>
      </trkpt>
      <trkpt lat="46.33848" lon="13.5614">
        <ele>456.285826</ele>
        <time>2026-07-13T09:55:10.000Z</time>
      </trkpt>
      <trkpt lat="46.33821" lon="13.56079">
        <ele>455.401542</ele>
        <time>2026-07-13T09:55:18.000Z</time>
      </trkpt>
      <trkpt lat="46.338" lon="13.56034">
        <ele>455.568366</ele>
        <time>2026-07-13T09:55:24.000Z</time>
      </trkpt>
      <trkpt lat="46.33791" lon="13.56015">
        <ele>455.739825</ele>
        <time>2026-07-13T09:55:27.000Z</time>
      </trkpt>
      <trkpt lat="46.33785" lon="13.56003">
        <ele>455.846007</ele>
        <time>2026-07-13T09:55:29.000Z</time>
      </trkpt>
      <trkpt lat="46.33784" lon="13.55993">
        <ele>455.914562</ele>
        <time>2026-07-13T09:55:31.000Z</time>
      </trkpt>
      <trkpt lat="46.33785" lon="13.55987">
        <ele>455.958205</ele>
        <time>2026-07-13T09:55:34.000Z</time>
      </trkpt>
      <trkpt lat="46.33785" lon="13.55987">
        <ele>455.958205</ele>
        <time>2026-07-13T09:55:36.000Z</time>
      </trkpt>
      <trkpt lat="46.33785" lon="13.55981">
        <ele>456.007397</ele>
        <time>2026-07-13T09:56:58.000Z</time>
      </trkpt>
      <trkpt lat="46.33785" lon="13.5598">
        <ele>456.011846</ele>
        <time>2026-07-13T09:57:00.000Z</time>
      </trkpt>
      <trkpt lat="46.33787" lon="13.55975">
        <ele>456.059893</ele>
        <time>2026-07-13T09:57:09.000Z</time>
      </trkpt>
      <trkpt lat="46.33788" lon="13.55972">
        <ele>456.079755</ele>
        <time>2026-07-13T09:57:10.000Z</time>
      </trkpt>
      <trkpt lat="46.33789" lon="13.5596">
        <ele>456.168439</ele>
        <time>2026-07-13T09:57:14.000Z</time>
      </trkpt>
      <trkpt lat="46.33791" lon="13.55953">
        <ele>456.218604</ele>
        <time>2026-07-13T09:57:16.000Z</time>
      </trkpt>
      <trkpt lat="46.33794" lon="13.55926">
        <ele>456.419648</ele>
        <time>2026-07-13T09:57:23.000Z</time>
      </trkpt>
      <trkpt lat="46.338" lon="13.55903">
        <ele>456.593392</ele>
        <time>2026-07-13T09:57:28.000Z</time>
      </trkpt>
      <trkpt lat="46.33805" lon="13.55867">
        <ele>456.855413</ele>
        <time>2026-07-13T09:57:34.000Z</time>
      </trkpt>
      <trkpt lat="46.33815" lon="13.55823">
        <ele>457.164687</ele>
        <time>2026-07-13T09:57:42.000Z</time>
      </trkpt>
      <trkpt lat="46.33822" lon="13.55797">
        <ele>457.258653</ele>
        <time>2026-07-13T09:57:48.000Z</time>
      </trkpt>
      <trkpt lat="46.33826" lon="13.55774">
        <ele>457.334103</ele>
        <time>2026-07-13T09:57:53.000Z</time>
      </trkpt>
      <trkpt lat="46.33835" lon="13.55741">
        <ele>457.454551</ele>
        <time>2026-07-13T09:58:00.000Z</time>
      </trkpt>
      <trkpt lat="46.33845" lon="13.557">
        <ele>457.596823</ele>
        <time>2026-07-13T09:58:08.000Z</time>
      </trkpt>
      <trkpt lat="46.33857" lon="13.55662">
        <ele>457.733209</ele>
        <time>2026-07-13T09:58:16.000Z</time>
      </trkpt>
      <trkpt lat="46.33863" lon="13.55643">
        <ele>457.802024</ele>
        <time>2026-07-13T09:58:20.000Z</time>
      </trkpt>
      <trkpt lat="46.33871" lon="13.5563">
        <ele>457.858134</ele>
        <time>2026-07-13T09:58:23.000Z</time>
      </trkpt>
      <trkpt lat="46.3389" lon="13.55611">
        <ele>457.969818</ele>
        <time>2026-07-13T09:58:29.000Z</time>
      </trkpt>
      <trkpt lat="46.33894" lon="13.55609">
        <ele>457.988311</ele>
        <time>2026-07-13T09:58:30.000Z</time>
      </trkpt>
      <trkpt lat="46.33914" lon="13.55595">
        <ele>458.406811</ele>
        <time>2026-07-13T09:58:36.000Z</time>
      </trkpt>
      <trkpt lat="46.33924" lon="13.55586">
        <ele>458.642161</ele>
        <time>2026-07-13T09:58:39.000Z</time>
      </trkpt>
      <trkpt lat="46.33931" lon="13.55581">
        <ele>458.795261</ele>
        <time>2026-07-13T09:58:41.000Z</time>
      </trkpt>
      <trkpt lat="46.3394" lon="13.55571">
        <ele>459.018193</ele>
        <time>2026-07-13T09:58:44.000Z</time>
      </trkpt>
      <trkpt lat="46.33945" lon="13.5556">
        <ele>459.206997</ele>
        <time>2026-07-13T09:58:47.000Z</time>
      </trkpt>
      <trkpt lat="46.33947" lon="13.55541">
        <ele>459.473329</ele>
        <time>2026-07-13T09:58:52.000Z</time>
      </trkpt>
      <trkpt lat="46.33947" lon="13.55524">
        <ele>459.715344</ele>
        <time>2026-07-13T09:58:58.000Z</time>
      </trkpt>
      <trkpt lat="46.33948" lon="13.55519">
        <ele>459.795756</ele>
        <time>2026-07-13T09:59:03.000Z</time>
      </trkpt>
      <trkpt lat="46.33946" lon="13.55516">
        <ele>459.857835</ele>
        <time>2026-07-13T10:01:51.000Z</time>
      </trkpt>
      <trkpt lat="46.33944" lon="13.55518">
        <ele>459.906814</ele>
        <time>2026-07-13T10:01:53.000Z</time>
      </trkpt>
      <trkpt lat="46.33943" lon="13.55522">
        <ele>459.965953</ele>
        <time>2026-07-13T10:01:55.000Z</time>
      </trkpt>
      <trkpt lat="46.33944" lon="13.55533">
        <ele>460.118144</ele>
        <time>2026-07-13T10:02:00.000Z</time>
      </trkpt>
      <trkpt lat="46.33944" lon="13.55538">
        <ele>460.18487</ele>
        <time>2026-07-13T10:02:03.000Z</time>
      </trkpt>
      <trkpt lat="46.33944" lon="13.55539">
        <ele>460.194601</ele>
        <time>2026-07-13T10:02:05.000Z</time>
      </trkpt>
      <trkpt lat="46.33944" lon="13.55538">
        <ele>460.2093</ele>
        <time>2026-07-13T10:02:08.000Z</time>
      </trkpt>
      <trkpt lat="46.33954" lon="13.55544">
        <ele>460.424682</ele>
        <time>2026-07-13T10:10:33.000Z</time>
      </trkpt>
      <trkpt lat="46.33954" lon="13.55544">
        <ele>460.424682</ele>
        <time>2026-07-13T10:10:34.000Z</time>
      </trkpt>
      <trkpt lat="46.33954" lon="13.55544">
        <ele>460.426695</ele>
        <time>2026-07-13T10:10:35.000Z</time>
      </trkpt>
      <trkpt lat="46.33954" lon="13.55544">
        <ele>460.432493</ele>
        <time>2026-07-13T10:10:36.000Z</time>
      </trkpt>
      <trkpt lat="46.33954" lon="13.55544">
        <ele>460.43652</ele>
        <time>2026-07-13T10:10:38.000Z</time>
      </trkpt>
      <trkpt lat="46.33947" lon="13.55534">
        <ele>460.640831</ele>
        <time>2026-07-13T10:12:27.000Z</time>
      </trkpt>
      <trkpt lat="46.33947" lon="13.55533">
        <ele>460.649901</ele>
        <time>2026-07-13T10:12:28.000Z</time>
      </trkpt>
      <trkpt lat="46.33947" lon="13.55534">
        <ele>460.657934</ele>
        <time>2026-07-13T10:12:29.000Z</time>
      </trkpt>
      <trkpt lat="46.3396" lon="13.55544">
        <ele>460.945903</ele>
        <time>2026-07-13T10:32:05.000Z</time>
      </trkpt>
      <trkpt lat="46.3396" lon="13.55543">
        <ele>460.949336</ele>
        <time>2026-07-13T10:32:06.000Z</time>
      </trkpt>
      <trkpt lat="46.33961" lon="13.55544">
        <ele>460.967289</ele>
        <time>2026-07-13T10:32:07.000Z</time>
      </trkpt>
      <trkpt lat="46.33961" lon="13.55545">
        <ele>460.982441</ele>
        <time>2026-07-13T10:32:09.000Z</time>
      </trkpt>
      <trkpt lat="46.33949" lon="13.55542">
        <ele>461.229393</ele>
        <time>2026-07-13T11:16:43.000Z</time>
      </trkpt>
      <trkpt lat="46.33957" lon="13.55514">
        <ele>461.61885</ele>
        <time>2026-07-13T11:16:44.000Z</time>
      </trkpt>
      <trkpt lat="46.33951" lon="13.55543">
        <ele>461.552747</ele>
        <time>2026-07-13T11:16:48.000Z</time>
      </trkpt>
      <trkpt lat="46.33949" lon="13.55545">
        <ele>461.546228</ele>
        <time>2026-07-13T11:16:49.000Z</time>
      </trkpt>
      <trkpt lat="46.3395" lon="13.55543">
        <ele>461.54229</ele>
        <time>2026-07-13T11:16:50.000Z</time>
      </trkpt>
      <trkpt lat="46.33951" lon="13.55544">
        <ele>461.538763</ele>
        <time>2026-07-13T11:16:51.000Z</time>
      </trkpt>
      <trkpt lat="46.33954" lon="13.55542">
        <ele>461.526307</ele>
        <time>2026-07-13T11:16:54.000Z</time>
      </trkpt>
      <trkpt lat="46.33954" lon="13.55543">
        <ele>461.525048</ele>
        <time>2026-07-13T11:16:55.000Z</time>
      </trkpt>
      <trkpt lat="46.33947" lon="13.5553">
        <ele>461.489745</ele>
        <time>2026-07-13T11:18:32.000Z</time>
      </trkpt>
      <trkpt lat="46.33947" lon="13.55527">
        <ele>461.483917</ele>
        <time>2026-07-13T11:18:33.000Z</time>
      </trkpt>
      <trkpt lat="46.33948" lon="13.55524">
        <ele>461.477008</ele>
        <time>2026-07-13T11:18:34.000Z</time>
      </trkpt>
      <trkpt lat="46.3395" lon="13.55504">
        <ele>461.434346</ele>
        <time>2026-07-13T11:18:40.000Z</time>
      </trkpt>
      <trkpt lat="46.3394" lon="13.55475">
        <ele>461.366381</ele>
        <time>2026-07-13T11:18:46.000Z</time>
      </trkpt>
      <trkpt lat="46.33926" lon="13.55451">
        <ele>461.297801</ele>
        <time>2026-07-13T11:18:52.000Z</time>
      </trkpt>
      <trkpt lat="46.33899" lon="13.55422">
        <ele>461.194125</ele>
        <time>2026-07-13T11:19:01.000Z</time>
      </trkpt>
      <trkpt lat="46.33879" lon="13.55395">
        <ele>461.111051</ele>
        <time>2026-07-13T11:19:09.000Z</time>
      </trkpt>
      <trkpt lat="46.33858" lon="13.55374">
        <ele>461.382464</ele>
        <time>2026-07-13T11:19:16.000Z</time>
      </trkpt>
      <trkpt lat="46.33829" lon="13.55349">
        <ele>462.28693</ele>
        <time>2026-07-13T11:19:25.000Z</time>
      </trkpt>
      <trkpt lat="46.33821" lon="13.55333">
        <ele>462.645768</ele>
        <time>2026-07-13T11:19:29.000Z</time>
      </trkpt>
      <trkpt lat="46.33815" lon="13.55313">
        <ele>463.037481</ele>
        <time>2026-07-13T11:19:34.000Z</time>
      </trkpt>
      <trkpt lat="46.3381" lon="13.55288">
        <ele>463.516729</ele>
        <time>2026-07-13T11:19:40.000Z</time>
      </trkpt>
      <trkpt lat="46.33804" lon="13.55264">
        <ele>463.995052</ele>
        <time>2026-07-13T11:19:47.000Z</time>
      </trkpt>
      <trkpt lat="46.33802" lon="13.5524">
        <ele>464.439406</ele>
        <time>2026-07-13T11:19:54.000Z</time>
      </trkpt>
      <trkpt lat="46.33801" lon="13.55237">
        <ele>464.487342</ele>
        <time>2026-07-13T11:19:55.000Z</time>
      </trkpt>
      <trkpt lat="46.33798" lon="13.5523">
        <ele>464.651008</ele>
        <time>2026-07-13T11:19:58.000Z</time>
      </trkpt>
      <trkpt lat="46.33787" lon="13.55205">
        <ele>465.18823</ele>
        <time>2026-07-13T11:20:05.000Z</time>
      </trkpt>
      <trkpt lat="46.33784" lon="13.55198">
        <ele>465.351897</ele>
        <time>2026-07-13T11:20:07.000Z</time>
      </trkpt>
      <trkpt lat="46.33772" lon="13.55173">
        <ele>465.772065</ele>
        <time>2026-07-13T11:20:14.000Z</time>
      </trkpt>
      <trkpt lat="46.33768" lon="13.55142">
        <ele>464.748313</ele>
        <time>2026-07-13T11:20:20.000Z</time>
      </trkpt>
      <trkpt lat="46.33767" lon="13.55114">
        <ele>463.84698</ele>
        <time>2026-07-13T11:20:25.000Z</time>
      </trkpt>
      <trkpt lat="46.33766" lon="13.55109">
        <ele>463.67989</ele>
        <time>2026-07-13T11:20:26.000Z</time>
      </trkpt>
      <trkpt lat="46.33755" lon="13.5509">
        <ele>462.883223</ele>
        <time>2026-07-13T11:20:30.000Z</time>
      </trkpt>
      <trkpt lat="46.33735" lon="13.55058">
        <ele>461.505886</ele>
        <time>2026-07-13T11:20:36.000Z</time>
      </trkpt>
      <trkpt lat="46.33731" lon="13.55054">
        <ele>461.247334</ele>
        <time>2026-07-13T11:20:37.000Z</time>
      </trkpt>
      <trkpt lat="46.33715" lon="13.55045">
        <ele>460.437414</ele>
        <time>2026-07-13T11:20:40.000Z</time>
      </trkpt>
      <trkpt lat="46.33709" lon="13.55043">
        <ele>460.168197</ele>
        <time>2026-07-13T11:20:41.000Z</time>
      </trkpt>
      <trkpt lat="46.33699" lon="13.55034">
        <ele>459.599995</ele>
        <time>2026-07-13T11:20:43.000Z</time>
      </trkpt>
      <trkpt lat="46.33691" lon="13.5502">
        <ele>458.998864</ele>
        <time>2026-07-13T11:20:45.000Z</time>
      </trkpt>
      <trkpt lat="46.33681" lon="13.54984">
        <ele>457.746795</ele>
        <time>2026-07-13T11:20:49.000Z</time>
      </trkpt>
      <trkpt lat="46.33678" lon="13.54975">
        <ele>457.420552</ele>
        <time>2026-07-13T11:20:50.000Z</time>
      </trkpt>
      <trkpt lat="46.33674" lon="13.54958">
        <ele>456.812923</ele>
        <time>2026-07-13T11:20:52.000Z</time>
      </trkpt>
      <trkpt lat="46.33671" lon="13.54948">
        <ele>456.405452</ele>
        <time>2026-07-13T11:20:54.000Z</time>
      </trkpt>
      <trkpt lat="46.33666" lon="13.54939">
        <ele>455.991274</ele>
        <time>2026-07-13T11:20:58.000Z</time>
      </trkpt>
      <trkpt lat="46.33666" lon="13.54938">
        <ele>455.948763</ele>
        <time>2026-07-13T11:20:59.000Z</time>
      </trkpt>
      <trkpt lat="46.33666" lon="13.54937">
        <ele>455.920423</ele>
        <time>2026-07-13T11:21:00.000Z</time>
      </trkpt>
      <trkpt lat="46.33661" lon="13.54935">
        <ele>455.687587</ele>
        <time>2026-07-13T11:22:55.000Z</time>
      </trkpt>
      <trkpt lat="46.3366" lon="13.54934">
        <ele>455.613656</ele>
        <time>2026-07-13T11:22:56.000Z</time>
      </trkpt>
      <trkpt lat="46.33647" lon="13.54933">
        <ele>454.935619</ele>
        <time>2026-07-13T11:23:02.000Z</time>
      </trkpt>
      <trkpt lat="46.33635" lon="13.54932">
        <ele>454.319077</ele>
        <time>2026-07-13T11:23:05.000Z</time>
      </trkpt>
      <trkpt lat="46.33626" lon="13.5493">
        <ele>453.831063</ele>
        <time>2026-07-13T11:23:07.000Z</time>
      </trkpt>
      <trkpt lat="46.33605" lon="13.54928">
        <ele>452.750994</ele>
        <time>2026-07-13T11:23:12.000Z</time>
      </trkpt>
      <trkpt lat="46.336" lon="13.54928">
        <ele>452.519666</ele>
        <time>2026-07-13T11:23:13.000Z</time>
      </trkpt>
      <trkpt lat="46.33596" lon="13.54927">
        <ele>452.334409</ele>
        <time>2026-07-13T11:23:14.000Z</time>
      </trkpt>
      <trkpt lat="46.33588" lon="13.54926">
        <ele>451.912463</ele>
        <time>2026-07-13T11:23:16.000Z</time>
      </trkpt>
      <trkpt lat="46.33576" lon="13.54919">
        <ele>451.231041</ele>
        <time>2026-07-13T11:23:19.000Z</time>
      </trkpt>
      <trkpt lat="46.33568" lon="13.54908">
        <ele>450.66876</ele>
        <time>2026-07-13T11:23:21.000Z</time>
      </trkpt>
      <trkpt lat="46.33561" lon="13.54897">
        <ele>450.150083</ele>
        <time>2026-07-13T11:23:23.000Z</time>
      </trkpt>
      <trkpt lat="46.33555" lon="13.54875">
        <ele>449.30032</ele>
        <time>2026-07-13T11:23:26.000Z</time>
      </trkpt>
      <trkpt lat="46.33553" lon="13.54868">
        <ele>449.023945</ele>
        <time>2026-07-13T11:23:27.000Z</time>
      </trkpt>
      <trkpt lat="46.33548" lon="13.54855">
        <ele>448.511048</ele>
        <time>2026-07-13T11:23:29.000Z</time>
      </trkpt>
      <trkpt lat="46.33542" lon="13.54836">
        <ele>447.881987</ele>
        <time>2026-07-13T11:23:32.000Z</time>
      </trkpt>
      <trkpt lat="46.33537" lon="13.54824">
        <ele>447.542496</ele>
        <time>2026-07-13T11:23:34.000Z</time>
      </trkpt>
      <trkpt lat="46.33532" lon="13.54813">
        <ele>447.211156</ele>
        <time>2026-07-13T11:23:36.000Z</time>
      </trkpt>
      <trkpt lat="46.3353" lon="13.54807">
        <ele>447.042517</ele>
        <time>2026-07-13T11:23:37.000Z</time>
      </trkpt>
      <trkpt lat="46.33528" lon="13.54801">
        <ele>446.875579</ele>
        <time>2026-07-13T11:23:38.000Z</time>
      </trkpt>
      <trkpt lat="46.33518" lon="13.54777">
        <ele>446.176181</ele>
        <time>2026-07-13T11:23:42.000Z</time>
      </trkpt>
      <trkpt lat="46.33513" lon="13.54767">
        <ele>445.861124</ele>
        <time>2026-07-13T11:23:44.000Z</time>
      </trkpt>
      <trkpt lat="46.33502" lon="13.54743">
        <ele>445.140907</ele>
        <time>2026-07-13T11:23:48.000Z</time>
      </trkpt>
      <trkpt lat="46.33491" lon="13.54717">
        <ele>444.376488</ele>
        <time>2026-07-13T11:23:52.000Z</time>
      </trkpt>
      <trkpt lat="46.33482" lon="13.54699">
        <ele>443.792266</ele>
        <time>2026-07-13T11:23:55.000Z</time>
      </trkpt>
      <trkpt lat="46.33458" lon="13.54654">
        <ele>442.382817</ele>
        <time>2026-07-13T11:24:01.000Z</time>
      </trkpt>
      <trkpt lat="46.33453" lon="13.54646">
        <ele>442.10956</ele>
        <time>2026-07-13T11:24:02.000Z</time>
      </trkpt>
      <trkpt lat="46.33441" lon="13.54621">
        <ele>441.29942</ele>
        <time>2026-07-13T11:24:05.000Z</time>
      </trkpt>
      <trkpt lat="46.33438" lon="13.54612">
        <ele>440.988666</ele>
        <time>2026-07-13T11:24:06.000Z</time>
      </trkpt>
      <trkpt lat="46.33435" lon="13.54605">
        <ele>440.769814</ele>
        <time>2026-07-13T11:24:07.000Z</time>
      </trkpt>
      <trkpt lat="46.33424" lon="13.5458">
        <ele>439.89014</ele>
        <time>2026-07-13T11:24:10.000Z</time>
      </trkpt>
      <trkpt lat="46.3342" lon="13.54563">
        <ele>439.365858</ele>
        <time>2026-07-13T11:24:12.000Z</time>
      </trkpt>
      <trkpt lat="46.33418" lon="13.54555">
        <ele>439.105615</ele>
        <time>2026-07-13T11:24:13.000Z</time>
      </trkpt>
      <trkpt lat="46.33409" lon="13.54503">
        <ele>437.532772</ele>
        <time>2026-07-13T11:24:19.000Z</time>
      </trkpt>
      <trkpt lat="46.33404" lon="13.54486">
        <ele>436.991194</ele>
        <time>2026-07-13T11:24:21.000Z</time>
      </trkpt>
      <trkpt lat="46.33397" lon="13.54472">
        <ele>436.49071</ele>
        <time>2026-07-13T11:24:23.000Z</time>
      </trkpt>
      <trkpt lat="46.33382" lon="13.54452">
        <ele>435.620505</ele>
        <time>2026-07-13T11:24:26.000Z</time>
      </trkpt>
      <trkpt lat="46.33374" lon="13.54436">
        <ele>435.0529</ele>
        <time>2026-07-13T11:24:28.000Z</time>
      </trkpt>
      <trkpt lat="46.33366" lon="13.54401">
        <ele>433.989815</ele>
        <time>2026-07-13T11:24:32.000Z</time>
      </trkpt>
      <trkpt lat="46.33364" lon="13.54392">
        <ele>433.905058</ele>
        <time>2026-07-13T11:24:33.000Z</time>
      </trkpt>
      <trkpt lat="46.33363" lon="13.54382">
        <ele>433.805902</ele>
        <time>2026-07-13T11:24:34.000Z</time>
      </trkpt>
      <trkpt lat="46.3336" lon="13.54349">
        <ele>433.511097</ele>
        <time>2026-07-13T11:24:38.000Z</time>
      </trkpt>
      <trkpt lat="46.33358" lon="13.54331">
        <ele>433.341899</ele>
        <time>2026-07-13T11:24:40.000Z</time>
      </trkpt>
      <trkpt lat="46.33357" lon="13.54317">
        <ele>433.212583</ele>
        <time>2026-07-13T11:24:42.000Z</time>
      </trkpt>
      <trkpt lat="46.33356" lon="13.54305">
        <ele>433.100913</ele>
        <time>2026-07-13T11:24:44.000Z</time>
      </trkpt>
      <trkpt lat="46.33353" lon="13.54292">
        <ele>432.977455</ele>
        <time>2026-07-13T11:24:46.000Z</time>
      </trkpt>
      <trkpt lat="46.33352" lon="13.54278">
        <ele>432.853032</ele>
        <time>2026-07-13T11:24:48.000Z</time>
      </trkpt>
      <trkpt lat="46.33347" lon="13.5425">
        <ele>432.590646</ele>
        <time>2026-07-13T11:24:52.000Z</time>
      </trkpt>
      <trkpt lat="46.33341" lon="13.54232">
        <ele>432.413504</ele>
        <time>2026-07-13T11:24:55.000Z</time>
      </trkpt>
      <trkpt lat="46.33335" lon="13.5421">
        <ele>432.199591</ele>
        <time>2026-07-13T11:24:59.000Z</time>
      </trkpt>
      <trkpt lat="46.33332" lon="13.542">
        <ele>432.094123</ele>
        <time>2026-07-13T11:25:01.000Z</time>
      </trkpt>
      <trkpt lat="46.33319" lon="13.5417">
        <ele>431.774954</ele>
        <time>2026-07-13T11:25:07.000Z</time>
      </trkpt>
      <trkpt lat="46.33314" lon="13.54153">
        <ele>431.606013</ele>
        <time>2026-07-13T11:25:10.000Z</time>
      </trkpt>
      <trkpt lat="46.33308" lon="13.54134">
        <ele>431.397134</ele>
        <time>2026-07-13T11:25:15.000Z</time>
      </trkpt>
      <trkpt lat="46.33307" lon="13.54133">
        <ele>431.376686</ele>
        <time>2026-07-13T11:25:18.000Z</time>
      </trkpt>
      <trkpt lat="46.33302" lon="13.54129">
        <ele>431.303625</ele>
        <time>2026-07-13T11:25:42.000Z</time>
      </trkpt>
      <trkpt lat="46.33294" lon="13.54109">
        <ele>431.079369</ele>
        <time>2026-07-13T11:25:47.000Z</time>
      </trkpt>
      <trkpt lat="46.33282" lon="13.54073">
        <ele>430.687657</ele>
        <time>2026-07-13T11:25:53.000Z</time>
      </trkpt>
      <trkpt lat="46.33276" lon="13.54053">
        <ele>430.470197</ele>
        <time>2026-07-13T11:25:56.000Z</time>
      </trkpt>
      <trkpt lat="46.33268" lon="13.54024">
        <ele>430.165478</ele>
        <time>2026-07-13T11:26:00.000Z</time>
      </trkpt>
      <trkpt lat="46.33262" lon="13.5401">
        <ele>430.006791</ele>
        <time>2026-07-13T11:26:02.000Z</time>
      </trkpt>
      <trkpt lat="46.33254" lon="13.53998">
        <ele>429.833911</ele>
        <time>2026-07-13T11:26:04.000Z</time>
      </trkpt>
      <trkpt lat="46.33239" lon="13.53987">
        <ele>429.598324</ele>
        <time>2026-07-13T11:26:07.000Z</time>
      </trkpt>
      <trkpt lat="46.33234" lon="13.53983">
        <ele>429.521154</ele>
        <time>2026-07-13T11:26:08.000Z</time>
      </trkpt>
      <trkpt lat="46.3323" lon="13.53977">
        <ele>429.445909</ele>
        <time>2026-07-13T11:26:09.000Z</time>
      </trkpt>
      <trkpt lat="46.33225" lon="13.53963">
        <ele>429.283613</ele>
        <time>2026-07-13T11:26:11.000Z</time>
      </trkpt>
      <trkpt lat="46.33223" lon="13.53955">
        <ele>429.19878</ele>
        <time>2026-07-13T11:26:12.000Z</time>
      </trkpt>
      <trkpt lat="46.33209" lon="13.53913">
        <ele>428.634768</ele>
        <time>2026-07-13T11:26:17.000Z</time>
      </trkpt>
      <trkpt lat="46.33196" lon="13.53889">
        <ele>428.240971</ele>
        <time>2026-07-13T11:26:20.000Z</time>
      </trkpt>
      <trkpt lat="46.33186" lon="13.53874">
        <ele>427.96934</ele>
        <time>2026-07-13T11:26:22.000Z</time>
      </trkpt>
      <trkpt lat="46.33169" lon="13.53853">
        <ele>427.551391</ele>
        <time>2026-07-13T11:26:25.000Z</time>
      </trkpt>
      <trkpt lat="46.33152" lon="13.53831">
        <ele>427.135694</ele>
        <time>2026-07-13T11:26:28.000Z</time>
      </trkpt>
      <trkpt lat="46.33136" lon="13.5381">
        <ele>426.726279</ele>
        <time>2026-07-13T11:26:31.000Z</time>
      </trkpt>
      <trkpt lat="46.33118" lon="13.53791">
        <ele>426.304653</ele>
        <time>2026-07-13T11:26:34.000Z</time>
      </trkpt>
      <trkpt lat="46.33096" lon="13.53759">
        <ele>425.727772</ele>
        <time>2026-07-13T11:26:38.000Z</time>
      </trkpt>
      <trkpt lat="46.3308" lon="13.53731">
        <ele>425.096309</ele>
        <time>2026-07-13T11:26:41.000Z</time>
      </trkpt>
      <trkpt lat="46.33047" lon="13.53675">
        <ele>423.77447</ele>
        <time>2026-07-13T11:26:47.000Z</time>
      </trkpt>
      <trkpt lat="46.33041" lon="13.53666">
        <ele>423.552429</ele>
        <time>2026-07-13T11:26:48.000Z</time>
      </trkpt>
      <trkpt lat="46.33035" lon="13.53658">
        <ele>423.330739</ele>
        <time>2026-07-13T11:26:49.000Z</time>
      </trkpt>
      <trkpt lat="46.33008" lon="13.53627">
        <ele>422.455118</ele>
        <time>2026-07-13T11:26:53.000Z</time>
      </trkpt>
      <trkpt lat="46.33002" lon="13.53619">
        <ele>422.231179</ele>
        <time>2026-07-13T11:26:54.000Z</time>
      </trkpt>
      <trkpt lat="46.32978" lon="13.53583">
        <ele>421.355943</ele>
        <time>2026-07-13T11:26:58.000Z</time>
      </trkpt>
      <trkpt lat="46.32946" lon="13.53526">
        <ele>420.137287</ele>
        <time>2026-07-13T11:27:04.000Z</time>
      </trkpt>
      <trkpt lat="46.32922" lon="13.53489">
        <ele>419.330816</ele>
        <time>2026-07-13T11:27:08.000Z</time>
      </trkpt>
      <trkpt lat="46.32915" lon="13.53482">
        <ele>419.128529</ele>
        <time>2026-07-13T11:27:09.000Z</time>
      </trkpt>
      <trkpt lat="46.32865" lon="13.5344">
        <ele>417.781727</ele>
        <time>2026-07-13T11:27:16.000Z</time>
      </trkpt>
      <trkpt lat="46.32833" lon="13.53415">
        <ele>416.930981</ele>
        <time>2026-07-13T11:27:21.000Z</time>
      </trkpt>
      <trkpt lat="46.32801" lon="13.53392">
        <ele>418.012923</ele>
        <time>2026-07-13T11:27:27.000Z</time>
      </trkpt>
      <trkpt lat="46.32776" lon="13.53377">
        <ele>418.936424</ele>
        <time>2026-07-13T11:27:33.000Z</time>
      </trkpt>
      <trkpt lat="46.32757" lon="13.53368">
        <ele>419.587658</ele>
        <time>2026-07-13T11:27:38.000Z</time>
      </trkpt>
      <trkpt lat="46.3275" lon="13.53364">
        <ele>419.849675</ele>
        <time>2026-07-13T11:27:40.000Z</time>
      </trkpt>
      <trkpt lat="46.32733" lon="13.5335">
        <ele>420.515658</ele>
        <time>2026-07-13T11:27:45.000Z</time>
      </trkpt>
      <trkpt lat="46.32726" lon="13.53342">
        <ele>420.798728</ele>
        <time>2026-07-13T11:27:47.000Z</time>
      </trkpt>
      <trkpt lat="46.3272" lon="13.53334">
        <ele>421.087785</ele>
        <time>2026-07-13T11:27:49.000Z</time>
      </trkpt>
      <trkpt lat="46.32708" lon="13.53315">
        <ele>421.676172</ele>
        <time>2026-07-13T11:27:53.000Z</time>
      </trkpt>
      <trkpt lat="46.32696" lon="13.53296">
        <ele>422.269309</ele>
        <time>2026-07-13T11:27:57.000Z</time>
      </trkpt>
      <trkpt lat="46.32687" lon="13.5328">
        <ele>422.743223</ele>
        <time>2026-07-13T11:28:00.000Z</time>
      </trkpt>
      <trkpt lat="46.32683" lon="13.53268">
        <ele>422.866062</ele>
        <time>2026-07-13T11:28:02.000Z</time>
      </trkpt>
      <trkpt lat="46.32676" lon="13.53241">
        <ele>422.622625</ele>
        <time>2026-07-13T11:28:06.000Z</time>
      </trkpt>
      <trkpt lat="46.32667" lon="13.53203">
        <ele>422.282309</ele>
        <time>2026-07-13T11:28:11.000Z</time>
      </trkpt>
      <trkpt lat="46.32664" lon="13.53195">
        <ele>422.208947</ele>
        <time>2026-07-13T11:28:12.000Z</time>
      </trkpt>
      <trkpt lat="46.32661" lon="13.53186">
        <ele>422.129307</ele>
        <time>2026-07-13T11:28:13.000Z</time>
      </trkpt>
      <trkpt lat="46.32654" lon="13.53158">
        <ele>421.874992</ele>
        <time>2026-07-13T11:28:16.000Z</time>
      </trkpt>
      <trkpt lat="46.32651" lon="13.53148">
        <ele>421.782306</ele>
        <time>2026-07-13T11:28:17.000Z</time>
      </trkpt>
      <trkpt lat="46.32636" lon="13.53096">
        <ele>421.303647</ele>
        <time>2026-07-13T11:28:22.000Z</time>
      </trkpt>
      <trkpt lat="46.32619" lon="13.53037">
        <ele>420.768591</ele>
        <time>2026-07-13T11:28:27.000Z</time>
      </trkpt>
      <trkpt lat="46.32605" lon="13.52988">
        <ele>419.91385</ele>
        <time>2026-07-13T11:28:31.000Z</time>
      </trkpt>
      <trkpt lat="46.32602" lon="13.52976">
        <ele>419.694323</ele>
        <time>2026-07-13T11:28:32.000Z</time>
      </trkpt>
      <trkpt lat="46.32583" lon="13.529">
        <ele>418.31235</ele>
        <time>2026-07-13T11:28:38.000Z</time>
      </trkpt>
      <trkpt lat="46.32578" lon="13.52888">
        <ele>418.078839</ele>
        <time>2026-07-13T11:28:39.000Z</time>
      </trkpt>
      <trkpt lat="46.32568" lon="13.52865">
        <ele>417.602396</ele>
        <time>2026-07-13T11:28:41.000Z</time>
      </trkpt>
      <trkpt lat="46.32555" lon="13.52842">
        <ele>417.094618</ele>
        <time>2026-07-13T11:28:43.000Z</time>
      </trkpt>
      <trkpt lat="46.32527" lon="13.52801">
        <ele>415.827091</ele>
        <time>2026-07-13T11:28:47.000Z</time>
      </trkpt>
      <trkpt lat="46.32523" lon="13.5279">
        <ele>415.163601</ele>
        <time>2026-07-13T11:28:48.000Z</time>
      </trkpt>
      <trkpt lat="46.3252" lon="13.52778">
        <ele>414.503626</ele>
        <time>2026-07-13T11:28:49.000Z</time>
      </trkpt>
      <trkpt lat="46.32518" lon="13.52752">
        <ele>413.138703</ele>
        <time>2026-07-13T11:28:51.000Z</time>
      </trkpt>
      <trkpt lat="46.32527" lon="13.527">
        <ele>410.359627</ele>
        <time>2026-07-13T11:28:55.000Z</time>
      </trkpt>
      <trkpt lat="46.32535" lon="13.52661">
        <ele>408.256641</ele>
        <time>2026-07-13T11:28:58.000Z</time>
      </trkpt>
      <trkpt lat="46.3254" lon="13.52635">
        <ele>406.849499</ele>
        <time>2026-07-13T11:29:00.000Z</time>
      </trkpt>
      <trkpt lat="46.32545" lon="13.52609">
        <ele>405.444875</ele>
        <time>2026-07-13T11:29:02.000Z</time>
      </trkpt>
      <trkpt lat="46.32547" lon="13.52596">
        <ele>404.750952</ele>
        <time>2026-07-13T11:29:03.000Z</time>
      </trkpt>
      <trkpt lat="46.32553" lon="13.52513">
        <ele>400.341788</ele>
        <time>2026-07-13T11:29:09.000Z</time>
      </trkpt>
      <trkpt lat="46.32557" lon="13.52429">
        <ele>395.825749</ele>
        <time>2026-07-13T11:29:15.000Z</time>
      </trkpt>
      <trkpt lat="46.32558" lon="13.52401">
        <ele>394.321476</ele>
        <time>2026-07-13T11:29:17.000Z</time>
      </trkpt>
      <trkpt lat="46.32562" lon="13.52313">
        <ele>389.539362</ele>
        <time>2026-07-13T11:29:23.000Z</time>
      </trkpt>
      <trkpt lat="46.32563" lon="13.52284">
        <ele>388.166632</ele>
        <time>2026-07-13T11:29:25.000Z</time>
      </trkpt>
      <trkpt lat="46.32565" lon="13.52198">
        <ele>384.633407</ele>
        <time>2026-07-13T11:29:31.000Z</time>
      </trkpt>
      <trkpt lat="46.32564" lon="13.52185">
        <ele>384.065236</ele>
        <time>2026-07-13T11:29:32.000Z</time>
      </trkpt>
      <trkpt lat="46.32562" lon="13.52171">
        <ele>383.483244</ele>
        <time>2026-07-13T11:29:33.000Z</time>
      </trkpt>
      <trkpt lat="46.32559" lon="13.52158">
        <ele>382.908538</ele>
        <time>2026-07-13T11:29:34.000Z</time>
      </trkpt>
      <trkpt lat="46.32549" lon="13.52134">
        <ele>381.776655</ele>
        <time>2026-07-13T11:29:36.000Z</time>
      </trkpt>
      <trkpt lat="46.32534" lon="13.52115">
        <ele>380.577069</ele>
        <time>2026-07-13T11:29:38.000Z</time>
      </trkpt>
      <trkpt lat="46.32518" lon="13.52098">
        <ele>379.369114</ele>
        <time>2026-07-13T11:29:40.000Z</time>
      </trkpt>
      <trkpt lat="46.32478" lon="13.52052">
        <ele>377.006705</ele>
        <time>2026-07-13T11:29:45.000Z</time>
      </trkpt>
      <trkpt lat="46.32472" lon="13.52041">
        <ele>376.649156</ele>
        <time>2026-07-13T11:29:46.000Z</time>
      </trkpt>
      <trkpt lat="46.32441" lon="13.51983">
        <ele>374.858665</ele>
        <time>2026-07-13T11:29:51.000Z</time>
      </trkpt>
      <trkpt lat="46.32412" lon="13.51946">
        <ele>373.464319</ele>
        <time>2026-07-13T11:29:55.000Z</time>
      </trkpt>
      <trkpt lat="46.32365" lon="13.51901">
        <ele>371.514772</ele>
        <time>2026-07-13T11:30:01.000Z</time>
      </trkpt>
      <trkpt lat="46.32358" lon="13.51893">
        <ele>371.316442</ele>
        <time>2026-07-13T11:30:02.000Z</time>
      </trkpt>
      <trkpt lat="46.32341" lon="13.51863">
        <ele>370.737166</ele>
        <time>2026-07-13T11:30:05.000Z</time>
      </trkpt>
      <trkpt lat="46.32331" lon="13.51843">
        <ele>370.355642</ele>
        <time>2026-07-13T11:30:07.000Z</time>
      </trkpt>
      <trkpt lat="46.32326" lon="13.51832">
        <ele>370.173971</ele>
        <time>2026-07-13T11:30:08.000Z</time>
      </trkpt>
      <trkpt lat="46.32317" lon="13.518">
        <ele>369.643512</ele>
        <time>2026-07-13T11:30:11.000Z</time>
      </trkpt>
      <trkpt lat="46.32306" lon="13.5173">
        <ele>368.570653</ele>
        <time>2026-07-13T11:30:17.000Z</time>
      </trkpt>
      <trkpt lat="46.32308" lon="13.51694">
        <ele>368.022202</ele>
        <time>2026-07-13T11:30:20.000Z</time>
      </trkpt>
      <trkpt lat="46.32309" lon="13.51683">
        <ele>367.845187</ele>
        <time>2026-07-13T11:30:21.000Z</time>
      </trkpt>
      <trkpt lat="46.32321" lon="13.5164">
        <ele>366.819602</ele>
        <time>2026-07-13T11:30:25.000Z</time>
      </trkpt>
      <trkpt lat="46.32332" lon="13.51601">
        <ele>365.730863</ele>
        <time>2026-07-13T11:30:29.000Z</time>
      </trkpt>
      <trkpt lat="46.32341" lon="13.51571">
        <ele>364.927006</ele>
        <time>2026-07-13T11:30:32.000Z</time>
      </trkpt>
      <trkpt lat="46.32348" lon="13.5154">
        <ele>364.099045</ele>
        <time>2026-07-13T11:30:35.000Z</time>
      </trkpt>
      <trkpt lat="46.32351" lon="13.51519">
        <ele>363.552759</ele>
        <time>2026-07-13T11:30:37.000Z</time>
      </trkpt>
      <trkpt lat="46.32352" lon="13.51508">
        <ele>363.281404</ele>
        <time>2026-07-13T11:30:38.000Z</time>
      </trkpt>
      <trkpt lat="46.32351" lon="13.51486">
        <ele>362.717617</ele>
        <time>2026-07-13T11:30:40.000Z</time>
      </trkpt>
      <trkpt lat="46.32348" lon="13.51441">
        <ele>361.567655</ele>
        <time>2026-07-13T11:30:44.000Z</time>
      </trkpt>
      <trkpt lat="46.32345" lon="13.51396">
        <ele>360.955138</ele>
        <time>2026-07-13T11:30:48.000Z</time>
      </trkpt>
      <trkpt lat="46.32333" lon="13.51319">
        <ele>360.57181</ele>
        <time>2026-07-13T11:30:55.000Z</time>
      </trkpt>
      <trkpt lat="46.32317" lon="13.51235">
        <ele>360.154043</ele>
        <time>2026-07-13T11:31:03.000Z</time>
      </trkpt>
      <trkpt lat="46.32311" lon="13.51204">
        <ele>359.995976</ele>
        <time>2026-07-13T11:31:06.000Z</time>
      </trkpt>
      <trkpt lat="46.32295" lon="13.51124">
        <ele>359.606644</ele>
        <time>2026-07-13T11:31:14.000Z</time>
      </trkpt>
      <trkpt lat="46.32287" lon="13.51085">
        <ele>359.417368</ele>
        <time>2026-07-13T11:31:18.000Z</time>
      </trkpt>
      <trkpt lat="46.3228" lon="13.51046">
        <ele>359.232065</ele>
        <time>2026-07-13T11:31:22.000Z</time>
      </trkpt>
      <trkpt lat="46.32277" lon="13.51036">
        <ele>359.185333</ele>
        <time>2026-07-13T11:31:23.000Z</time>
      </trkpt>
      <trkpt lat="46.32256" lon="13.50969">
        <ele>358.848692</ele>
        <time>2026-07-13T11:31:30.000Z</time>
      </trkpt>
      <trkpt lat="46.32253" lon="13.50959">
        <ele>358.7999</ele>
        <time>2026-07-13T11:31:31.000Z</time>
      </trkpt>
      <trkpt lat="46.3223" lon="13.50891">
        <ele>357.762479</ele>
        <time>2026-07-13T11:31:38.000Z</time>
      </trkpt>
      <trkpt lat="46.32204" lon="13.50813">
        <ele>355.834145</ele>
        <time>2026-07-13T11:31:46.000Z</time>
      </trkpt>
      <trkpt lat="46.3219" lon="13.50773">
        <ele>354.85424</ele>
        <time>2026-07-13T11:31:50.000Z</time>
      </trkpt>
      <trkpt lat="46.32184" lon="13.50753">
        <ele>354.363017</ele>
        <time>2026-07-13T11:31:52.000Z</time>
      </trkpt>
      <trkpt lat="46.3217" lon="13.50713">
        <ele>353.368566</ele>
        <time>2026-07-13T11:31:56.000Z</time>
      </trkpt>
      <trkpt lat="46.32154" lon="13.50662">
        <ele>352.385921</ele>
        <time>2026-07-13T11:32:01.000Z</time>
      </trkpt>
      <trkpt lat="46.32151" lon="13.50652">
        <ele>352.227185</ele>
        <time>2026-07-13T11:32:02.000Z</time>
      </trkpt>
      <trkpt lat="46.32135" lon="13.50588">
        <ele>351.275907</ele>
        <time>2026-07-13T11:32:08.000Z</time>
      </trkpt>
      <trkpt lat="46.3213" lon="13.50518">
        <ele>350.312092</ele>
        <time>2026-07-13T11:32:14.000Z</time>
      </trkpt>
      <trkpt lat="46.32136" lon="13.50438">
        <ele>349.213598</ele>
        <time>2026-07-13T11:32:21.000Z</time>
      </trkpt>
      <trkpt lat="46.32138" lon="13.50355">
        <ele>349.33848</ele>
        <time>2026-07-13T11:32:29.000Z</time>
      </trkpt>
      <trkpt lat="46.32131" lon="13.50308">
        <ele>349.409518</ele>
        <time>2026-07-13T11:32:34.000Z</time>
      </trkpt>
      <trkpt lat="46.32116" lon="13.50257">
        <ele>349.493586</ele>
        <time>2026-07-13T11:32:40.000Z</time>
      </trkpt>
      <trkpt lat="46.3209" lon="13.50183">
        <ele>349.684947</ele>
        <time>2026-07-13T11:32:49.000Z</time>
      </trkpt>
      <trkpt lat="46.32084" lon="13.50167">
        <ele>349.820866</ele>
        <time>2026-07-13T11:32:51.000Z</time>
      </trkpt>
      <trkpt lat="46.32058" lon="13.50106">
        <ele>350.34941</ele>
        <time>2026-07-13T11:32:59.000Z</time>
      </trkpt>
      <trkpt lat="46.32055" lon="13.50098">
        <ele>350.416728</ele>
        <time>2026-07-13T11:33:00.000Z</time>
      </trkpt>
      <trkpt lat="46.32024" lon="13.50028">
        <ele>351.034218</ele>
        <time>2026-07-13T11:33:09.000Z</time>
      </trkpt>
      <trkpt lat="46.32018" lon="13.50012">
        <ele>351.1741</ele>
        <time>2026-07-13T11:33:11.000Z</time>
      </trkpt>
      <trkpt lat="46.31998" lon="13.49966">
        <ele>351.59859</ele>
        <time>2026-07-13T11:33:17.000Z</time>
      </trkpt>
      <trkpt lat="46.31974" lon="13.4992">
        <ele>352.360546</ele>
        <time>2026-07-13T11:33:24.000Z</time>
      </trkpt>
      <trkpt lat="46.31952" lon="13.499">
        <ele>352.83908</ele>
        <time>2026-07-13T11:33:29.000Z</time>
      </trkpt>
      <trkpt lat="46.31922" lon="13.49873">
        <ele>353.509988</ele>
        <time>2026-07-13T11:33:37.000Z</time>
      </trkpt>
      <trkpt lat="46.31889" lon="13.49846">
        <ele>354.224213</ele>
        <time>2026-07-13T11:33:46.000Z</time>
      </trkpt>
      <trkpt lat="46.31867" lon="13.49829">
        <ele>354.700502</ele>
        <time>2026-07-13T11:33:52.000Z</time>
      </trkpt>
      <trkpt lat="46.3186" lon="13.49822">
        <ele>354.856734</ele>
        <time>2026-07-13T11:33:54.000Z</time>
      </trkpt>
      <trkpt lat="46.31846" lon="13.4981">
        <ele>355.305057</ele>
        <time>2026-07-13T11:33:58.000Z</time>
      </trkpt>
      <trkpt lat="46.31834" lon="13.49802">
        <ele>355.699036</ele>
        <time>2026-07-13T11:34:01.000Z</time>
      </trkpt>
      <trkpt lat="46.31805" lon="13.49775">
        <ele>356.755198</ele>
        <time>2026-07-13T11:34:09.000Z</time>
      </trkpt>
      <trkpt lat="46.31801" lon="13.49771">
        <ele>356.890205</ele>
        <time>2026-07-13T11:34:10.000Z</time>
      </trkpt>
      <trkpt lat="46.31762" lon="13.49731">
        <ele>358.35093</ele>
        <time>2026-07-13T11:34:21.000Z</time>
      </trkpt>
      <trkpt lat="46.31758" lon="13.49727">
        <ele>358.483688</ele>
        <time>2026-07-13T11:34:22.000Z</time>
      </trkpt>
      <trkpt lat="46.3175" lon="13.49712">
        <ele>358.873334</ele>
        <time>2026-07-13T11:34:25.000Z</time>
      </trkpt>
      <trkpt lat="46.31749" lon="13.49707">
        <ele>358.994615</ele>
        <time>2026-07-13T11:34:26.000Z</time>
      </trkpt>
      <trkpt lat="46.31747" lon="13.49702">
        <ele>359.112561</ele>
        <time>2026-07-13T11:34:27.000Z</time>
      </trkpt>
      <trkpt lat="46.31746" lon="13.49691">
        <ele>359.348724</ele>
        <time>2026-07-13T11:34:29.000Z</time>
      </trkpt>
      <trkpt lat="46.31745" lon="13.4968">
        <ele>359.57694</ele>
        <time>2026-07-13T11:34:31.000Z</time>
      </trkpt>
      <trkpt lat="46.31753" lon="13.4965">
        <ele>360.243777</ele>
        <time>2026-07-13T11:34:37.000Z</time>
      </trkpt>
      <trkpt lat="46.31774" lon="13.49609">
        <ele>361.269634</ele>
        <time>2026-07-13T11:34:47.000Z</time>
      </trkpt>
      <trkpt lat="46.31787" lon="13.49585">
        <ele>361.862822</ele>
        <time>2026-07-13T11:34:53.000Z</time>
      </trkpt>
      <trkpt lat="46.31791" lon="13.49577">
        <ele>362.063449</ele>
        <time>2026-07-13T11:34:55.000Z</time>
      </trkpt>
      <trkpt lat="46.31813" lon="13.49539">
        <ele>363.04245</ele>
        <time>2026-07-13T11:35:04.000Z</time>
      </trkpt>
      <trkpt lat="46.31833" lon="13.49517">
        <ele>363.756579</ele>
        <time>2026-07-13T11:35:11.000Z</time>
      </trkpt>
      <trkpt lat="46.31849" lon="13.4949">
        <ele>364.476033</ele>
        <time>2026-07-13T11:35:18.000Z</time>
      </trkpt>
      <trkpt lat="46.31851" lon="13.4947">
        <ele>364.865388</ele>
        <time>2026-07-13T11:35:22.000Z</time>
      </trkpt>
      <trkpt lat="46.31848" lon="13.49454">
        <ele>365.191023</ele>
        <time>2026-07-13T11:35:27.000Z</time>
      </trkpt>
      <trkpt lat="46.31847" lon="13.49453">
        <ele>365.228507</ele>
        <time>2026-07-13T11:35:29.000Z</time>
      </trkpt>
      <trkpt lat="46.31834" lon="13.49435">
        <ele>365.644993</ele>
        <time>2026-07-13T11:36:14.000Z</time>
      </trkpt>
      <trkpt lat="46.31833" lon="13.49433">
        <ele>365.670303</ele>
        <time>2026-07-13T11:36:15.000Z</time>
      </trkpt>
      <trkpt lat="46.31825" lon="13.4942">
        <ele>365.861396</ele>
        <time>2026-07-13T11:36:22.000Z</time>
      </trkpt>
      <trkpt lat="46.31823" lon="13.49418">
        <ele>365.886269</ele>
        <time>2026-07-13T11:36:23.000Z</time>
      </trkpt>
      <trkpt lat="46.31822" lon="13.49417">
        <ele>365.904192</ele>
        <time>2026-07-13T11:36:24.000Z</time>
      </trkpt>
      <trkpt lat="46.31822" lon="13.49417">
        <ele>365.910381</ele>
        <time>2026-07-13T11:36:26.000Z</time>
      </trkpt>
      <trkpt lat="46.31818" lon="13.49411">
        <ele>366.005476</ele>
        <time>2026-07-13T11:36:44.000Z</time>
      </trkpt>
      <trkpt lat="46.31816" lon="13.49409">
        <ele>366.035173</ele>
        <time>2026-07-13T11:36:45.000Z</time>
      </trkpt>
      <trkpt lat="46.31808" lon="13.49395">
        <ele>366.221697</ele>
        <time>2026-07-13T11:36:52.000Z</time>
      </trkpt>
      <trkpt lat="46.31794" lon="13.49375">
        <ele>366.532175</ele>
        <time>2026-07-13T11:37:02.000Z</time>
      </trkpt>
      <trkpt lat="46.3178" lon="13.49356">
        <ele>366.824363</ele>
        <time>2026-07-13T11:37:11.000Z</time>
      </trkpt>
      <trkpt lat="46.31762" lon="13.49339">
        <ele>367.148632</ele>
        <time>2026-07-13T11:37:19.000Z</time>
      </trkpt>
      <trkpt lat="46.31742" lon="13.4934">
        <ele>367.444551</ele>
        <time>2026-07-13T11:37:24.000Z</time>
      </trkpt>
      <trkpt lat="46.31722" lon="13.49354">
        <ele>367.782836</ele>
        <time>2026-07-13T11:37:28.000Z</time>
      </trkpt>
      <trkpt lat="46.31686" lon="13.49371">
        <ele>368.225725</ele>
        <time>2026-07-13T11:37:34.000Z</time>
      </trkpt>
      <trkpt lat="46.31666" lon="13.49382">
        <ele>368.046757</ele>
        <time>2026-07-13T11:37:37.000Z</time>
      </trkpt>
      <trkpt lat="46.3164" lon="13.49388">
        <ele>367.831966</ele>
        <time>2026-07-13T11:37:41.000Z</time>
      </trkpt>
      <trkpt lat="46.31597" lon="13.49408">
        <ele>367.456565</ele>
        <time>2026-07-13T11:37:48.000Z</time>
      </trkpt>
      <trkpt lat="46.3159" lon="13.4941">
        <ele>367.399174</ele>
        <time>2026-07-13T11:37:49.000Z</time>
      </trkpt>
      <trkpt lat="46.3157" lon="13.49412">
        <ele>367.232264</ele>
        <time>2026-07-13T11:37:52.000Z</time>
      </trkpt>
      <trkpt lat="46.31565" lon="13.49414">
        <ele>367.189911</ele>
        <time>2026-07-13T11:37:53.000Z</time>
      </trkpt>
      <trkpt lat="46.31558" lon="13.49417">
        <ele>367.132159</ele>
        <time>2026-07-13T11:37:54.000Z</time>
      </trkpt>
      <trkpt lat="46.3155" lon="13.49426">
        <ele>367.048012</ele>
        <time>2026-07-13T11:37:56.000Z</time>
      </trkpt>
      <trkpt lat="46.31544" lon="13.49435">
        <ele>366.976787</ele>
        <time>2026-07-13T11:37:58.000Z</time>
      </trkpt>
      <trkpt lat="46.31537" lon="13.49439">
        <ele>366.908207</ele>
        <time>2026-07-13T11:38:00.000Z</time>
      </trkpt>
      <trkpt lat="46.31521" lon="13.49449">
        <ele>366.676731</ele>
        <time>2026-07-13T11:38:06.000Z</time>
      </trkpt>
      <trkpt lat="46.31519" lon="13.4945">
        <ele>366.597674</ele>
        <time>2026-07-13T11:38:09.000Z</time>
      </trkpt>
      <trkpt lat="46.31517" lon="13.49452">
        <ele>366.48143</ele>
        <time>2026-07-13T11:38:11.000Z</time>
      </trkpt>
      <trkpt lat="46.31516" lon="13.49452">
        <ele>366.445591</ele>
        <time>2026-07-13T11:38:12.000Z</time>
      </trkpt>
      <trkpt lat="46.31509" lon="13.49457">
        <ele>366.107091</ele>
        <time>2026-07-13T11:38:21.000Z</time>
      </trkpt>
      <trkpt lat="46.315" lon="13.49461">
        <ele>365.693011</ele>
        <time>2026-07-13T11:39:35.000Z</time>
      </trkpt>
      <trkpt lat="46.31495" lon="13.49465">
        <ele>365.437698</ele>
        <time>2026-07-13T11:39:37.000Z</time>
      </trkpt>
      <trkpt lat="46.31483" lon="13.49471">
        <ele>364.895977</ele>
        <time>2026-07-13T11:39:41.000Z</time>
      </trkpt>
      <trkpt lat="46.31482" lon="13.49474">
        <ele>364.791854</ele>
        <time>2026-07-13T11:39:43.000Z</time>
      </trkpt>
      <trkpt lat="46.31482" lon="13.49474">
        <ele>364.781876</ele>
        <time>2026-07-13T11:39:44.000Z</time>
      </trkpt>
      <trkpt lat="46.31482" lon="13.49474">
        <ele>364.781876</ele>
        <time>2026-07-13T11:39:45.000Z</time>
      </trkpt>
      <trkpt lat="46.31487" lon="13.4947">
        <ele>364.540768</ele>
        <time>2026-07-13T11:40:03.000Z</time>
      </trkpt>
      <trkpt lat="46.31488" lon="13.4947">
        <ele>364.482436</ele>
        <time>2026-07-13T11:40:04.000Z</time>
      </trkpt>
      <trkpt lat="46.3149" lon="13.49469">
        <ele>364.393696</ele>
        <time>2026-07-13T11:40:05.000Z</time>
      </trkpt>
      <trkpt lat="46.31503" lon="13.49461">
        <ele>363.789723</ele>
        <time>2026-07-13T11:40:12.000Z</time>
      </trkpt>
      <trkpt lat="46.31507" lon="13.49458">
        <ele>363.599082</ele>
        <time>2026-07-13T11:40:15.000Z</time>
      </trkpt>
      <trkpt lat="46.31517" lon="13.49453">
        <ele>363.136661</ele>
        <time>2026-07-13T11:40:23.000Z</time>
      </trkpt>
      <trkpt lat="46.3153" lon="13.49446">
        <ele>362.522957</ele>
        <time>2026-07-13T11:40:30.000Z</time>
      </trkpt>
      <trkpt lat="46.31538" lon="13.49442">
        <ele>362.153706</ele>
        <time>2026-07-13T11:40:34.000Z</time>
      </trkpt>
      <trkpt lat="46.31544" lon="13.4944">
        <ele>361.892108</ele>
        <time>2026-07-13T11:40:37.000Z</time>
      </trkpt>
      <trkpt lat="46.31555" lon="13.49431">
        <ele>361.349423</ele>
        <time>2026-07-13T11:40:42.000Z</time>
      </trkpt>
      <trkpt lat="46.31559" lon="13.49425">
        <ele>361.090441</ele>
        <time>2026-07-13T11:40:45.000Z</time>
      </trkpt>
      <trkpt lat="46.31562" lon="13.49419">
        <ele>360.887924</ele>
        <time>2026-07-13T11:40:47.000Z</time>
      </trkpt>
      <trkpt lat="46.31562" lon="13.49409">
        <ele>360.59136</ele>
        <time>2026-07-13T11:40:49.000Z</time>
      </trkpt>
      <trkpt lat="46.31557" lon="13.49399">
        <ele>360.226604</ele>
        <time>2026-07-13T11:40:51.000Z</time>
      </trkpt>
      <trkpt lat="46.31548" lon="13.49387">
        <ele>359.704465</ele>
        <time>2026-07-13T11:40:53.000Z</time>
      </trkpt>
      <trkpt lat="46.3154" lon="13.49373">
        <ele>359.170351</ele>
        <time>2026-07-13T11:40:55.000Z</time>
      </trkpt>
      <trkpt lat="46.31535" lon="13.49356">
        <ele>358.629377</ele>
        <time>2026-07-13T11:40:57.000Z</time>
      </trkpt>
      <trkpt lat="46.31534" lon="13.49337">
        <ele>358.073302</ele>
        <time>2026-07-13T11:40:59.000Z</time>
      </trkpt>
      <trkpt lat="46.31536" lon="13.49318">
        <ele>357.528731</ele>
        <time>2026-07-13T11:41:01.000Z</time>
      </trkpt>
      <trkpt lat="46.31548" lon="13.4925">
        <ele>355.515223</ele>
        <time>2026-07-13T11:41:07.000Z</time>
      </trkpt>
      <trkpt lat="46.31551" lon="13.49199">
        <ele>354.064514</ele>
        <time>2026-07-13T11:41:11.000Z</time>
      </trkpt>
      <trkpt lat="46.31545" lon="13.49121">
        <ele>351.798211</ele>
        <time>2026-07-13T11:41:17.000Z</time>
      </trkpt>
      <trkpt lat="46.31538" lon="13.49067">
        <ele>350.601971</ele>
        <time>2026-07-13T11:41:21.000Z</time>
      </trkpt>
      <trkpt lat="46.31534" lon="13.49027">
        <ele>349.770494</ele>
        <time>2026-07-13T11:41:24.000Z</time>
      </trkpt>
      <trkpt lat="46.31527" lon="13.48979">
        <ele>348.755298</ele>
        <time>2026-07-13T11:41:28.000Z</time>
      </trkpt>
      <trkpt lat="46.31522" lon="13.48953">
        <ele>348.200959</ele>
        <time>2026-07-13T11:41:30.000Z</time>
      </trkpt>
      <trkpt lat="46.31508" lon="13.4891">
        <ele>347.218074</ele>
        <time>2026-07-13T11:41:34.000Z</time>
      </trkpt>
      <trkpt lat="46.31479" lon="13.48859">
        <ele>346.077256</ele>
        <time>2026-07-13T11:41:40.000Z</time>
      </trkpt>
      <trkpt lat="46.31451" lon="13.48812">
        <ele>345.644668</ele>
        <time>2026-07-13T11:41:46.000Z</time>
      </trkpt>
      <trkpt lat="46.31447" lon="13.48805">
        <ele>345.578082</ele>
        <time>2026-07-13T11:41:47.000Z</time>
      </trkpt>
      <trkpt lat="46.31441" lon="13.48797">
        <ele>345.499374</ele>
        <time>2026-07-13T11:41:48.000Z</time>
      </trkpt>
      <trkpt lat="46.31429" lon="13.48776">
        <ele>345.301858</ele>
        <time>2026-07-13T11:41:51.000Z</time>
      </trkpt>
      <trkpt lat="46.31424" lon="13.48769">
        <ele>345.237484</ele>
        <time>2026-07-13T11:41:52.000Z</time>
      </trkpt>
      <trkpt lat="46.31401" lon="13.4873">
        <ele>344.879872</ele>
        <time>2026-07-13T11:41:58.000Z</time>
      </trkpt>
      <trkpt lat="46.31373" lon="13.48681">
        <ele>344.435871</ele>
        <time>2026-07-13T11:42:06.000Z</time>
      </trkpt>
      <trkpt lat="46.31352" lon="13.48649">
        <ele>344.544918</ele>
        <time>2026-07-13T11:42:12.000Z</time>
      </trkpt>
      <trkpt lat="46.31328" lon="13.48623">
        <ele>344.770917</ele>
        <time>2026-07-13T11:42:18.000Z</time>
      </trkpt>
      <trkpt lat="46.31304" lon="13.48592">
        <ele>345.015942</ele>
        <time>2026-07-13T11:42:24.000Z</time>
      </trkpt>
      <trkpt lat="46.313" lon="13.48586">
        <ele>345.056928</ele>
        <time>2026-07-13T11:42:25.000Z</time>
      </trkpt>
      <trkpt lat="46.31282" lon="13.48552">
        <ele>345.278855</ele>
        <time>2026-07-13T11:42:31.000Z</time>
      </trkpt>
      <trkpt lat="46.31278" lon="13.48541">
        <ele>345.344719</ele>
        <time>2026-07-13T11:42:33.000Z</time>
      </trkpt>
      <trkpt lat="46.31272" lon="13.48533">
        <ele>345.408845</ele>
        <time>2026-07-13T11:42:35.000Z</time>
      </trkpt>
      <trkpt lat="46.31269" lon="13.48527">
        <ele>345.441547</ele>
        <time>2026-07-13T11:42:36.000Z</time>
      </trkpt>
      <trkpt lat="46.31258" lon="13.48503">
        <ele>345.596026</ele>
        <time>2026-07-13T11:42:41.000Z</time>
      </trkpt>
      <trkpt lat="46.31255" lon="13.48498">
        <ele>345.628395</ele>
        <time>2026-07-13T11:42:42.000Z</time>
      </trkpt>
      <trkpt lat="46.3125" lon="13.48491">
        <ele>345.682148</ele>
        <time>2026-07-13T11:42:44.000Z</time>
      </trkpt>
      <trkpt lat="46.3124" lon="13.48476">
        <ele>346.022861</ele>
        <time>2026-07-13T11:42:47.000Z</time>
      </trkpt>
      <trkpt lat="46.31237" lon="13.4847">
        <ele>346.200016</ele>
        <time>2026-07-13T11:42:48.000Z</time>
      </trkpt>
      <trkpt lat="46.31231" lon="13.4846">
        <ele>346.510245</ele>
        <time>2026-07-13T11:42:50.000Z</time>
      </trkpt>
      <trkpt lat="46.31219" lon="13.48445">
        <ele>347.048364</ele>
        <time>2026-07-13T11:42:54.000Z</time>
      </trkpt>
      <trkpt lat="46.31215" lon="13.48438">
        <ele>347.292709</ele>
        <time>2026-07-13T11:42:56.000Z</time>
      </trkpt>
      <trkpt lat="46.31206" lon="13.48427">
        <ele>347.67406</ele>
        <time>2026-07-13T11:42:59.000Z</time>
      </trkpt>
      <trkpt lat="46.31181" lon="13.48392">
        <ele>348.891395</ele>
        <time>2026-07-13T11:43:08.000Z</time>
      </trkpt>
      <trkpt lat="46.31167" lon="13.48373">
        <ele>349.547001</ele>
        <time>2026-07-13T11:43:13.000Z</time>
      </trkpt>
      <trkpt lat="46.3115" lon="13.48346">
        <ele>350.419513</ele>
        <time>2026-07-13T11:43:20.000Z</time>
      </trkpt>
      <trkpt lat="46.31128" lon="13.48307">
        <ele>351.635712</ele>
        <time>2026-07-13T11:43:29.000Z</time>
      </trkpt>
      <trkpt lat="46.31105" lon="13.48271">
        <ele>352.431084</ele>
        <time>2026-07-13T11:43:38.000Z</time>
      </trkpt>
      <trkpt lat="46.31082" lon="13.48233">
        <ele>353.108972</ele>
        <time>2026-07-13T11:43:47.000Z</time>
      </trkpt>
      <trkpt lat="46.31058" lon="13.48189">
        <ele>353.867074</ele>
        <time>2026-07-13T11:43:57.000Z</time>
      </trkpt>
      <trkpt lat="46.31035" lon="13.48142">
        <ele>354.639724</ele>
        <time>2026-07-13T11:44:07.000Z</time>
      </trkpt>
      <trkpt lat="46.31025" lon="13.48117">
        <ele>355.035815</ele>
        <time>2026-07-13T11:44:12.000Z</time>
      </trkpt>
      <trkpt lat="46.31013" lon="13.48076">
        <ele>355.624496</ele>
        <time>2026-07-13T11:44:20.000Z</time>
      </trkpt>
      <trkpt lat="46.31005" lon="13.48043">
        <ele>356.097131</ele>
        <time>2026-07-13T11:44:27.000Z</time>
      </trkpt>
      <trkpt lat="46.31003" lon="13.48019">
        <ele>356.419524</ele>
        <time>2026-07-13T11:44:32.000Z</time>
      </trkpt>
      <trkpt lat="46.31002" lon="13.48001">
        <ele>356.664133</ele>
        <time>2026-07-13T11:44:36.000Z</time>
      </trkpt>
      <trkpt lat="46.30994" lon="13.47977">
        <ele>357.007256</ele>
        <time>2026-07-13T11:44:41.000Z</time>
      </trkpt>
      <trkpt lat="46.30989" lon="13.4797">
        <ele>357.134952</ele>
        <time>2026-07-13T11:44:43.000Z</time>
      </trkpt>
      <trkpt lat="46.30982" lon="13.47965">
        <ele>357.301058</ele>
        <time>2026-07-13T11:44:45.000Z</time>
      </trkpt>
      <trkpt lat="46.30951" lon="13.47958">
        <ele>357.89153</ele>
        <time>2026-07-13T11:44:53.000Z</time>
      </trkpt>
      <trkpt lat="46.30925" lon="13.47973">
        <ele>358.439239</ele>
        <time>2026-07-13T11:45:00.000Z</time>
      </trkpt>
      <trkpt lat="46.30888" lon="13.47993">
        <ele>358.726799</ele>
        <time>2026-07-13T11:45:09.000Z</time>
      </trkpt>
      <trkpt lat="46.30855" lon="13.48014">
        <ele>358.222101</ele>
        <time>2026-07-13T11:45:16.000Z</time>
      </trkpt>
      <trkpt lat="46.30826" lon="13.48036">
        <ele>357.762705</ele>
        <time>2026-07-13T11:45:22.000Z</time>
      </trkpt>
      <trkpt lat="46.3079" lon="13.4805">
        <ele>357.236975</ele>
        <time>2026-07-13T11:45:29.000Z</time>
      </trkpt>
      <trkpt lat="46.30748" lon="13.48063">
        <ele>356.635333</ele>
        <time>2026-07-13T11:45:37.000Z</time>
      </trkpt>
      <trkpt lat="46.30716" lon="13.48078">
        <ele>356.123476</ele>
        <time>2026-07-13T11:45:43.000Z</time>
      </trkpt>
      <trkpt lat="46.30673" lon="13.48101">
        <ele>355.358797</ele>
        <time>2026-07-13T11:45:51.000Z</time>
      </trkpt>
      <trkpt lat="46.30662" lon="13.48108">
        <ele>355.158854</ele>
        <time>2026-07-13T11:45:53.000Z</time>
      </trkpt>
      <trkpt lat="46.3064" lon="13.48119">
        <ele>354.762302</ele>
        <time>2026-07-13T11:45:57.000Z</time>
      </trkpt>
      <trkpt lat="46.30598" lon="13.48126">
        <ele>354.06711</ele>
        <time>2026-07-13T11:46:04.000Z</time>
      </trkpt>
      <trkpt lat="46.30562" lon="13.48116">
        <ele>353.456971</ele>
        <time>2026-07-13T11:46:11.000Z</time>
      </trkpt>
      <trkpt lat="46.30524" lon="13.4811">
        <ele>353.258173</ele>
        <time>2026-07-13T11:46:18.000Z</time>
      </trkpt>
      <trkpt lat="46.30513" lon="13.48113">
        <ele>353.212771</ele>
        <time>2026-07-13T11:46:20.000Z</time>
      </trkpt>
      <trkpt lat="46.305" lon="13.48118">
        <ele>353.155596</ele>
        <time>2026-07-13T11:46:23.000Z</time>
      </trkpt>
      <trkpt lat="46.30482" lon="13.48125">
        <ele>353.078611</ele>
        <time>2026-07-13T11:46:27.000Z</time>
      </trkpt>
      <trkpt lat="46.30465" lon="13.48131">
        <ele>353.001752</ele>
        <time>2026-07-13T11:46:31.000Z</time>
      </trkpt>
      <trkpt lat="46.30422" lon="13.48152">
        <ele>352.809472</ele>
        <time>2026-07-13T11:46:42.000Z</time>
      </trkpt>
      <trkpt lat="46.30396" lon="13.48178">
        <ele>352.674531</ele>
        <time>2026-07-13T11:46:50.000Z</time>
      </trkpt>
      <trkpt lat="46.3037" lon="13.48217">
        <ele>352.430322</ele>
        <time>2026-07-13T11:46:58.000Z</time>
      </trkpt>
      <trkpt lat="46.30334" lon="13.4827">
        <ele>352.074903</ele>
        <time>2026-07-13T11:47:08.000Z</time>
      </trkpt>
      <trkpt lat="46.30308" lon="13.48308">
        <ele>351.815912</ele>
        <time>2026-07-13T11:47:14.000Z</time>
      </trkpt>
      <trkpt lat="46.30265" lon="13.4836">
        <ele>351.426719</ele>
        <time>2026-07-13T11:47:22.000Z</time>
      </trkpt>
      <trkpt lat="46.30217" lon="13.48411">
        <ele>350.186775</ele>
        <time>2026-07-13T11:47:30.000Z</time>
      </trkpt>
      <trkpt lat="46.30197" lon="13.48422">
        <ele>349.720336</ele>
        <time>2026-07-13T11:47:33.000Z</time>
      </trkpt>
      <trkpt lat="46.30184" lon="13.48427">
        <ele>349.423993</ele>
        <time>2026-07-13T11:47:35.000Z</time>
      </trkpt>
      <trkpt lat="46.30146" lon="13.48442">
        <ele>348.544242</ele>
        <time>2026-07-13T11:47:42.000Z</time>
      </trkpt>
      <trkpt lat="46.30131" lon="13.48449">
        <ele>348.212035</ele>
        <time>2026-07-13T11:47:45.000Z</time>
      </trkpt>
      <trkpt lat="46.30108" lon="13.48459">
        <ele>347.67762</ele>
        <time>2026-07-13T11:47:50.000Z</time>
      </trkpt>
      <trkpt lat="46.30084" lon="13.4847">
        <ele>347.524459</ele>
        <time>2026-07-13T11:47:55.000Z</time>
      </trkpt>
      <trkpt lat="46.30061" lon="13.48483">
        <ele>347.671016</ele>
        <time>2026-07-13T11:48:00.000Z</time>
      </trkpt>
      <trkpt lat="46.30017" lon="13.48506">
        <ele>347.941798</ele>
        <time>2026-07-13T11:48:09.000Z</time>
      </trkpt>
      <trkpt lat="46.29962" lon="13.48534">
        <ele>348.28299</ele>
        <time>2026-07-13T11:48:21.000Z</time>
      </trkpt>
      <trkpt lat="46.29957" lon="13.48537">
        <ele>348.311372</ele>
        <time>2026-07-13T11:48:22.000Z</time>
      </trkpt>
      <trkpt lat="46.29924" lon="13.48563">
        <ele>348.376917</ele>
        <time>2026-07-13T11:48:30.000Z</time>
      </trkpt>
      <trkpt lat="46.29886" lon="13.48601">
        <ele>347.653982</ele>
        <time>2026-07-13T11:48:39.000Z</time>
      </trkpt>
      <trkpt lat="46.29853" lon="13.48643">
        <ele>346.97228</ele>
        <time>2026-07-13T11:48:47.000Z</time>
      </trkpt>
      <trkpt lat="46.29816" lon="13.48695">
        <ele>346.175113</ele>
        <time>2026-07-13T11:48:55.000Z</time>
      </trkpt>
      <trkpt lat="46.2978" lon="13.48755">
        <ele>345.182493</ele>
        <time>2026-07-13T11:49:04.000Z</time>
      </trkpt>
      <trkpt lat="46.29764" lon="13.48787">
        <ele>344.583896</ele>
        <time>2026-07-13T11:49:09.000Z</time>
      </trkpt>
      <trkpt lat="46.29755" lon="13.48806">
        <ele>344.238118</ele>
        <time>2026-07-13T11:49:12.000Z</time>
      </trkpt>
      <trkpt lat="46.29735" lon="13.48865">
        <ele>343.271558</ele>
        <time>2026-07-13T11:49:19.000Z</time>
      </trkpt>
      <trkpt lat="46.29721" lon="13.4893">
        <ele>342.249452</ele>
        <time>2026-07-13T11:49:26.000Z</time>
      </trkpt>
      <trkpt lat="46.29714" lon="13.49">
        <ele>342.434116</ele>
        <time>2026-07-13T11:49:34.000Z</time>
      </trkpt>
      <trkpt lat="46.29712" lon="13.49041">
        <ele>343.057851</ele>
        <time>2026-07-13T11:49:39.000Z</time>
      </trkpt>
      <trkpt lat="46.29708" lon="13.49074">
        <ele>343.54791</ele>
        <time>2026-07-13T11:49:43.000Z</time>
      </trkpt>
      <trkpt lat="46.29703" lon="13.49095">
        <ele>343.883325</ele>
        <time>2026-07-13T11:49:46.000Z</time>
      </trkpt>
      <trkpt lat="46.29698" lon="13.49105">
        <ele>344.071669</ele>
        <time>2026-07-13T11:49:48.000Z</time>
      </trkpt>
      <trkpt lat="46.29695" lon="13.4911">
        <ele>344.160793</ele>
        <time>2026-07-13T11:49:49.000Z</time>
      </trkpt>
      <trkpt lat="46.29684" lon="13.49126">
        <ele>344.507622</ele>
        <time>2026-07-13T11:49:53.000Z</time>
      </trkpt>
      <trkpt lat="46.29667" lon="13.49154">
        <ele>345.063648</ele>
        <time>2026-07-13T11:50:00.000Z</time>
      </trkpt>
      <trkpt lat="46.29653" lon="13.49169">
        <ele>345.445899</ele>
        <time>2026-07-13T11:50:05.000Z</time>
      </trkpt>
      <trkpt lat="46.29633" lon="13.49188">
        <ele>346.280653</ele>
        <time>2026-07-13T11:50:12.000Z</time>
      </trkpt>
      <trkpt lat="46.29615" lon="13.49206">
        <ele>347.407464</ele>
        <time>2026-07-13T11:50:19.000Z</time>
      </trkpt>
      <trkpt lat="46.29595" lon="13.49227">
        <ele>348.629763</ele>
        <time>2026-07-13T11:50:26.000Z</time>
      </trkpt>
      <trkpt lat="46.29584" lon="13.49239">
        <ele>349.344339</ele>
        <time>2026-07-13T11:50:30.000Z</time>
      </trkpt>
      <trkpt lat="46.2956" lon="13.49268">
        <ele>350.884308</ele>
        <time>2026-07-13T11:50:40.000Z</time>
      </trkpt>
      <trkpt lat="46.29545" lon="13.49289">
        <ele>351.953818</ele>
        <time>2026-07-13T11:50:47.000Z</time>
      </trkpt>
      <trkpt lat="46.29534" lon="13.49311">
        <ele>352.90455</ele>
        <time>2026-07-13T11:50:53.000Z</time>
      </trkpt>
      <trkpt lat="46.29523" lon="13.4934">
        <ele>354.045055</ele>
        <time>2026-07-13T11:51:00.000Z</time>
      </trkpt>
      <trkpt lat="46.29517" lon="13.49362">
        <ele>354.824895</ele>
        <time>2026-07-13T11:51:06.000Z</time>
      </trkpt>
      <trkpt lat="46.29508" lon="13.49383">
        <ele>355.312088</ele>
        <time>2026-07-13T11:51:12.000Z</time>
      </trkpt>
      <trkpt lat="46.29494" lon="13.49418">
        <ele>356.08667</ele>
        <time>2026-07-13T11:51:21.000Z</time>
      </trkpt>
      <trkpt lat="46.29493" lon="13.49421">
        <ele>356.166524</ele>
        <time>2026-07-13T11:51:22.000Z</time>
      </trkpt>
      <trkpt lat="46.29477" lon="13.49452">
        <ele>356.91719</ele>
        <time>2026-07-13T11:51:31.000Z</time>
      </trkpt>
      <trkpt lat="46.29458" lon="13.49479">
        <ele>357.648532</ele>
        <time>2026-07-13T11:51:40.000Z</time>
      </trkpt>
      <trkpt lat="46.29439" lon="13.49489">
        <ele>358.223227</ele>
        <time>2026-07-13T11:51:47.000Z</time>
      </trkpt>
      <trkpt lat="46.29413" lon="13.49488">
        <ele>358.950258</ele>
        <time>2026-07-13T11:51:56.000Z</time>
      </trkpt>
      <trkpt lat="46.29384" lon="13.49486">
        <ele>359.778432</ele>
        <time>2026-07-13T11:52:05.000Z</time>
      </trkpt>
      <trkpt lat="46.29354" lon="13.49495">
        <ele>360.186318</ele>
        <time>2026-07-13T11:52:13.000Z</time>
      </trkpt>
      <trkpt lat="46.29325" lon="13.49516">
        <ele>360.606255</ele>
        <time>2026-07-13T11:52:21.000Z</time>
      </trkpt>
      <trkpt lat="46.29319" lon="13.49523">
        <ele>360.705837</ele>
        <time>2026-07-13T11:52:23.000Z</time>
      </trkpt>
      <trkpt lat="46.29312" lon="13.49531">
        <ele>360.816789</ele>
        <time>2026-07-13T11:52:25.000Z</time>
      </trkpt>
      <trkpt lat="46.2929" lon="13.49566">
        <ele>361.248035</ele>
        <time>2026-07-13T11:52:33.000Z</time>
      </trkpt>
      <trkpt lat="46.29285" lon="13.49577">
        <ele>361.36191</ele>
        <time>2026-07-13T11:52:35.000Z</time>
      </trkpt>
      <trkpt lat="46.29278" lon="13.49597">
        <ele>361.564969</ele>
        <time>2026-07-13T11:52:39.000Z</time>
      </trkpt>
      <trkpt lat="46.29267" lon="13.4963">
        <ele>361.891048</ele>
        <time>2026-07-13T11:52:46.000Z</time>
      </trkpt>
      <trkpt lat="46.29259" lon="13.49652">
        <ele>362.111372</ele>
        <time>2026-07-13T11:52:52.000Z</time>
      </trkpt>
      <trkpt lat="46.29254" lon="13.49674">
        <ele>362.734061</ele>
        <time>2026-07-13T11:52:58.000Z</time>
      </trkpt>
      <trkpt lat="46.29249" lon="13.497">
        <ele>363.552025</ele>
        <time>2026-07-13T11:53:05.000Z</time>
      </trkpt>
      <trkpt lat="46.29247" lon="13.49735">
        <ele>364.583152</ele>
        <time>2026-07-13T11:53:14.000Z</time>
      </trkpt>
      <trkpt lat="46.29246" lon="13.49762">
        <ele>365.382984</ele>
        <time>2026-07-13T11:53:19.000Z</time>
      </trkpt>
      <trkpt lat="46.29241" lon="13.49799">
        <ele>366.496272</ele>
        <time>2026-07-13T11:53:26.000Z</time>
      </trkpt>
      <trkpt lat="46.29225" lon="13.49829">
        <ele>367.604192</ele>
        <time>2026-07-13T11:53:33.000Z</time>
      </trkpt>
      <trkpt lat="46.29207" lon="13.49852">
        <ele>368.646308</ele>
        <time>2026-07-13T11:53:40.000Z</time>
      </trkpt>
      <trkpt lat="46.29183" lon="13.49871">
        <ele>369.807927</ele>
        <time>2026-07-13T11:53:47.000Z</time>
      </trkpt>
      <trkpt lat="46.2917" lon="13.49882">
        <ele>369.850177</ele>
        <time>2026-07-13T11:53:51.000Z</time>
      </trkpt>
      <trkpt lat="46.29156" lon="13.49908">
        <ele>369.843139</ele>
        <time>2026-07-13T11:53:58.000Z</time>
      </trkpt>
      <trkpt lat="46.2914" lon="13.49932">
        <ele>369.836088</ele>
        <time>2026-07-13T11:54:04.000Z</time>
      </trkpt>
      <trkpt lat="46.29123" lon="13.49952">
        <ele>369.829455</ele>
        <time>2026-07-13T11:54:10.000Z</time>
      </trkpt>
      <trkpt lat="46.29112" lon="13.49969">
        <ele>369.82458</ele>
        <time>2026-07-13T11:54:14.000Z</time>
      </trkpt>
      <trkpt lat="46.29104" lon="13.4998">
        <ele>369.821115</ele>
        <time>2026-07-13T11:54:17.000Z</time>
      </trkpt>
      <trkpt lat="46.29085" lon="13.50006">
        <ele>369.813096</ele>
        <time>2026-07-13T11:54:24.000Z</time>
      </trkpt>
      <trkpt lat="46.29083" lon="13.50011">
        <ele>369.811948</ele>
        <time>2026-07-13T11:54:25.000Z</time>
      </trkpt>
      <trkpt lat="46.29064" lon="13.50038">
        <ele>369.803816</ele>
        <time>2026-07-13T11:54:32.000Z</time>
      </trkpt>
      <trkpt lat="46.29043" lon="13.50063">
        <ele>369.659129</ele>
        <time>2026-07-13T11:54:39.000Z</time>
      </trkpt>
      <trkpt lat="46.29034" lon="13.50075">
        <ele>369.525638</ele>
        <time>2026-07-13T11:54:42.000Z</time>
      </trkpt>
      <trkpt lat="46.29025" lon="13.50089">
        <ele>369.385558</ele>
        <time>2026-07-13T11:54:45.000Z</time>
      </trkpt>
      <trkpt lat="46.29019" lon="13.50098">
        <ele>369.293336</ele>
        <time>2026-07-13T11:54:47.000Z</time>
      </trkpt>
      <trkpt lat="46.29014" lon="13.50108">
        <ele>369.203073</ele>
        <time>2026-07-13T11:54:49.000Z</time>
      </trkpt>
      <trkpt lat="46.29005" lon="13.5012">
        <ele>369.072542</ele>
        <time>2026-07-13T11:54:52.000Z</time>
      </trkpt>
      <trkpt lat="46.28989" lon="13.50139">
        <ele>368.849577</ele>
        <time>2026-07-13T11:54:57.000Z</time>
      </trkpt>
      <trkpt lat="46.28981" lon="13.50151">
        <ele>368.720842</ele>
        <time>2026-07-13T11:55:00.000Z</time>
      </trkpt>
      <trkpt lat="46.28958" lon="13.50184">
        <ele>368.371032</ele>
        <time>2026-07-13T11:55:08.000Z</time>
      </trkpt>
      <trkpt lat="46.28942" lon="13.50205">
        <ele>368.138952</ele>
        <time>2026-07-13T11:55:14.000Z</time>
      </trkpt>
      <trkpt lat="46.28927" lon="13.50231">
        <ele>367.888751</ele>
        <time>2026-07-13T11:55:21.000Z</time>
      </trkpt>
      <trkpt lat="46.28916" lon="13.50249">
        <ele>368.518383</ele>
        <time>2026-07-13T11:55:27.000Z</time>
      </trkpt>
      <trkpt lat="46.28903" lon="13.50264">
        <ele>369.274738</ele>
        <time>2026-07-13T11:55:33.000Z</time>
      </trkpt>
      <trkpt lat="46.28894" lon="13.50279">
        <ele>369.945041</ele>
        <time>2026-07-13T11:55:38.000Z</time>
      </trkpt>
      <trkpt lat="46.28891" lon="13.50286">
        <ele>370.198722</ele>
        <time>2026-07-13T11:55:40.000Z</time>
      </trkpt>
      <trkpt lat="46.28888" lon="13.50293">
        <ele>370.443299</ele>
        <time>2026-07-13T11:55:42.000Z</time>
      </trkpt>
      <trkpt lat="46.2889" lon="13.50315">
        <ele>371.15573</ele>
        <time>2026-07-13T11:55:47.000Z</time>
      </trkpt>
      <trkpt lat="46.28895" lon="13.50337">
        <ele>371.932962</ele>
        <time>2026-07-13T11:55:52.000Z</time>
      </trkpt>
      <trkpt lat="46.289" lon="13.50369">
        <ele>372.967976</ele>
        <time>2026-07-13T11:55:59.000Z</time>
      </trkpt>
      <trkpt lat="46.28904" lon="13.50405">
        <ele>374.135061</ele>
        <time>2026-07-13T11:56:07.000Z</time>
      </trkpt>
      <trkpt lat="46.28904" lon="13.50436">
        <ele>375.12768</ele>
        <time>2026-07-13T11:56:14.000Z</time>
      </trkpt>
      <trkpt lat="46.28898" lon="13.50477">
        <ele>376.403372</ele>
        <time>2026-07-13T11:56:23.000Z</time>
      </trkpt>
      <trkpt lat="46.28886" lon="13.50517">
        <ele>377.364118</ele>
        <time>2026-07-13T11:56:32.000Z</time>
      </trkpt>
      <trkpt lat="46.28867" lon="13.50564">
        <ele>378.550542</ele>
        <time>2026-07-13T11:56:43.000Z</time>
      </trkpt>
      <trkpt lat="46.28852" lon="13.50606">
        <ele>379.615616</ele>
        <time>2026-07-13T11:56:52.000Z</time>
      </trkpt>
      <trkpt lat="46.28835" lon="13.50646">
        <ele>380.648142</ele>
        <time>2026-07-13T11:57:00.000Z</time>
      </trkpt>
      <trkpt lat="46.28824" lon="13.50672">
        <ele>381.312555</ele>
        <time>2026-07-13T11:57:05.000Z</time>
      </trkpt>
      <trkpt lat="46.28821" lon="13.50683">
        <ele>381.583319</ele>
        <time>2026-07-13T11:57:07.000Z</time>
      </trkpt>
      <trkpt lat="46.28819" lon="13.50689">
        <ele>381.722077</ele>
        <time>2026-07-13T11:57:08.000Z</time>
      </trkpt>
      <trkpt lat="46.28799" lon="13.50735">
        <ele>382.174776</ele>
        <time>2026-07-13T11:57:17.000Z</time>
      </trkpt>
      <trkpt lat="46.2878" lon="13.50776">
        <ele>382.413643</ele>
        <time>2026-07-13T11:57:25.000Z</time>
      </trkpt>
      <trkpt lat="46.28777" lon="13.50781">
        <ele>382.443748</ele>
        <time>2026-07-13T11:57:26.000Z</time>
      </trkpt>
      <trkpt lat="46.28755" lon="13.50823">
        <ele>382.690616</ele>
        <time>2026-07-13T11:57:34.000Z</time>
      </trkpt>
      <trkpt lat="46.28726" lon="13.5088">
        <ele>383.0288</ele>
        <time>2026-07-13T11:57:45.000Z</time>
      </trkpt>
      <trkpt lat="46.28694" lon="13.50943">
        <ele>383.286028</ele>
        <time>2026-07-13T11:57:57.000Z</time>
      </trkpt>
      <trkpt lat="46.28672" lon="13.50985">
        <ele>383.386773</ele>
        <time>2026-07-13T11:58:05.000Z</time>
      </trkpt>
      <trkpt lat="46.28668" lon="13.50997">
        <ele>383.412804</ele>
        <time>2026-07-13T11:58:07.000Z</time>
      </trkpt>
      <trkpt lat="46.28658" lon="13.5102">
        <ele>383.465089</ele>
        <time>2026-07-13T11:58:11.000Z</time>
      </trkpt>
      <trkpt lat="46.28629" lon="13.5109">
        <ele>383.621985</ele>
        <time>2026-07-13T11:58:22.000Z</time>
      </trkpt>
      <trkpt lat="46.28626" lon="13.51096">
        <ele>383.636065</ele>
        <time>2026-07-13T11:58:23.000Z</time>
      </trkpt>
      <trkpt lat="46.28602" lon="13.51148">
        <ele>383.621818</ele>
        <time>2026-07-13T11:58:31.000Z</time>
      </trkpt>
      <trkpt lat="46.28576" lon="13.51185">
        <ele>383.433426</ele>
        <time>2026-07-13T11:58:38.000Z</time>
      </trkpt>
      <trkpt lat="46.28545" lon="13.51215">
        <ele>383.243416</ele>
        <time>2026-07-13T11:58:45.000Z</time>
      </trkpt>
      <trkpt lat="46.28512" lon="13.51246">
        <ele>383.044214</ele>
        <time>2026-07-13T11:58:52.000Z</time>
      </trkpt>
      <trkpt lat="46.28482" lon="13.51285">
        <ele>382.835794</ele>
        <time>2026-07-13T11:58:59.000Z</time>
      </trkpt>
      <trkpt lat="46.28456" lon="13.51333">
        <ele>382.081403</ele>
        <time>2026-07-13T11:59:05.000Z</time>
      </trkpt>
      <trkpt lat="46.28428" lon="13.51404">
        <ele>380.848691</ele>
        <time>2026-07-13T11:59:12.000Z</time>
      </trkpt>
      <trkpt lat="46.28406" lon="13.51474">
        <ele>379.706002</ele>
        <time>2026-07-13T11:59:18.000Z</time>
      </trkpt>
      <trkpt lat="46.28388" lon="13.51555">
        <ele>378.773703</ele>
        <time>2026-07-13T11:59:25.000Z</time>
      </trkpt>
      <trkpt lat="46.28378" lon="13.51598">
        <ele>378.608362</ele>
        <time>2026-07-13T11:59:29.000Z</time>
      </trkpt>
      <trkpt lat="46.28362" lon="13.51665">
        <ele>378.349601</ele>
        <time>2026-07-13T11:59:36.000Z</time>
      </trkpt>
      <trkpt lat="46.28349" lon="13.51722">
        <ele>378.130925</ele>
        <time>2026-07-13T11:59:43.000Z</time>
      </trkpt>
      <trkpt lat="46.28337" lon="13.51773">
        <ele>377.957277</ele>
        <time>2026-07-13T11:59:50.000Z</time>
      </trkpt>
      <trkpt lat="46.28329" lon="13.51809">
        <ele>378.574892</ele>
        <time>2026-07-13T11:59:56.000Z</time>
      </trkpt>
      <trkpt lat="46.28323" lon="13.51837">
        <ele>379.056082</ele>
        <time>2026-07-13T12:00:01.000Z</time>
      </trkpt>
      <trkpt lat="46.2832" lon="13.51848">
        <ele>379.253947</ele>
        <time>2026-07-13T12:00:03.000Z</time>
      </trkpt>
      <trkpt lat="46.28306" lon="13.51905">
        <ele>380.246516</ele>
        <time>2026-07-13T12:00:13.000Z</time>
      </trkpt>
      <trkpt lat="46.28291" lon="13.51965">
        <ele>381.299182</ele>
        <time>2026-07-13T12:00:23.000Z</time>
      </trkpt>
      <trkpt lat="46.28278" lon="13.52016">
        <ele>382.197535</ele>
        <time>2026-07-13T12:00:31.000Z</time>
      </trkpt>
      <trkpt lat="46.28277" lon="13.52023">
        <ele>382.185561</ele>
        <time>2026-07-13T12:00:32.000Z</time>
      </trkpt>
      <trkpt lat="46.28276" lon="13.52058">
        <ele>381.932385</ele>
        <time>2026-07-13T12:00:37.000Z</time>
      </trkpt>
      <trkpt lat="46.28278" lon="13.5208">
        <ele>381.779819</ele>
        <time>2026-07-13T12:00:40.000Z</time>
      </trkpt>
      <trkpt lat="46.28285" lon="13.52137">
        <ele>381.361605</ele>
        <time>2026-07-13T12:00:48.000Z</time>
      </trkpt>
      <trkpt lat="46.28293" lon="13.52202">
        <ele>380.893334</ele>
        <time>2026-07-13T12:00:56.000Z</time>
      </trkpt>
      <trkpt lat="46.28303" lon="13.52255">
        <ele>380.493074</ele>
        <time>2026-07-13T12:01:03.000Z</time>
      </trkpt>
      <trkpt lat="46.28307" lon="13.52262">
        <ele>380.433574</ele>
        <time>2026-07-13T12:01:04.000Z</time>
      </trkpt>
      <trkpt lat="46.28326" lon="13.52289">
        <ele>381.073841</ele>
        <time>2026-07-13T12:01:09.000Z</time>
      </trkpt>
      <trkpt lat="46.2833" lon="13.52293">
        <ele>381.257824</ele>
        <time>2026-07-13T12:01:10.000Z</time>
      </trkpt>
      <trkpt lat="46.2834" lon="13.523">
        <ele>381.637063</ele>
        <time>2026-07-13T12:01:12.000Z</time>
      </trkpt>
      <trkpt lat="46.2835" lon="13.52304">
        <ele>382.005513</ele>
        <time>2026-07-13T12:01:14.000Z</time>
      </trkpt>
      <trkpt lat="46.2839" lon="13.5231">
        <ele>383.437809</ele>
        <time>2026-07-13T12:01:22.000Z</time>
      </trkpt>
      <trkpt lat="46.28421" lon="13.52304">
        <ele>384.581397</ele>
        <time>2026-07-13T12:01:29.000Z</time>
      </trkpt>
      <trkpt lat="46.28445" lon="13.52288">
        <ele>385.514923</ele>
        <time>2026-07-13T12:01:35.000Z</time>
      </trkpt>
      <trkpt lat="46.28472" lon="13.52263">
        <ele>386.675244</ele>
        <time>2026-07-13T12:01:43.000Z</time>
      </trkpt>
      <trkpt lat="46.28498" lon="13.52242">
        <ele>388.045351</ele>
        <time>2026-07-13T12:01:51.000Z</time>
      </trkpt>
      <trkpt lat="46.28517" lon="13.52236">
        <ele>389.00912</ele>
        <time>2026-07-13T12:01:57.000Z</time>
      </trkpt>
      <trkpt lat="46.28535" lon="13.52242">
        <ele>389.925489</ele>
        <time>2026-07-13T12:02:03.000Z</time>
      </trkpt>
      <trkpt lat="46.28559" lon="13.52257">
        <ele>391.183231</ele>
        <time>2026-07-13T12:02:11.000Z</time>
      </trkpt>
      <trkpt lat="46.28571" lon="13.5227">
        <ele>391.938234</ele>
        <time>2026-07-13T12:02:16.000Z</time>
      </trkpt>
      <trkpt lat="46.28586" lon="13.52289">
        <ele>392.889732</ele>
        <time>2026-07-13T12:02:22.000Z</time>
      </trkpt>
      <trkpt lat="46.28601" lon="13.52316">
        <ele>394.085124</ele>
        <time>2026-07-13T12:02:29.000Z</time>
      </trkpt>
      <trkpt lat="46.28614" lon="13.52338">
        <ele>395.072541</ele>
        <time>2026-07-13T12:02:35.000Z</time>
      </trkpt>
      <trkpt lat="46.28633" lon="13.52353">
        <ele>395.847642</ele>
        <time>2026-07-13T12:02:42.000Z</time>
      </trkpt>
      <trkpt lat="46.28654" lon="13.52366">
        <ele>396.379634</ele>
        <time>2026-07-13T12:02:49.000Z</time>
      </trkpt>
      <trkpt lat="46.28679" lon="13.52386">
        <ele>397.032657</ele>
        <time>2026-07-13T12:02:57.000Z</time>
      </trkpt>
      <trkpt lat="46.28689" lon="13.52406">
        <ele>397.428155</ele>
        <time>2026-07-13T12:03:02.000Z</time>
      </trkpt>
      <trkpt lat="46.28692" lon="13.52439">
        <ele>397.971236</ele>
        <time>2026-07-13T12:03:09.000Z</time>
      </trkpt>
      <trkpt lat="46.28691" lon="13.52484">
        <ele>398.70154</ele>
        <time>2026-07-13T12:03:18.000Z</time>
      </trkpt>
      <trkpt lat="46.2869" lon="13.52526">
        <ele>399.364795</ele>
        <time>2026-07-13T12:03:26.000Z</time>
      </trkpt>
      <trkpt lat="46.28688" lon="13.52555">
        <ele>399.902255</ele>
        <time>2026-07-13T12:03:32.000Z</time>
      </trkpt>
      <trkpt lat="46.28684" lon="13.52584">
        <ele>400.965788</ele>
        <time>2026-07-13T12:03:38.000Z</time>
      </trkpt>
      <trkpt lat="46.28673" lon="13.52616">
        <ele>402.258961</ele>
        <time>2026-07-13T12:03:45.000Z</time>
      </trkpt>
      <trkpt lat="46.28655" lon="13.5265">
        <ele>403.774021</ele>
        <time>2026-07-13T12:03:53.000Z</time>
      </trkpt>
      <trkpt lat="46.28648" lon="13.52677">
        <ele>404.809117</ele>
        <time>2026-07-13T12:03:58.000Z</time>
      </trkpt>
      <trkpt lat="46.28652" lon="13.52703">
        <ele>405.762451</ele>
        <time>2026-07-13T12:04:03.000Z</time>
      </trkpt>
      <trkpt lat="46.28657" lon="13.52727">
        <ele>406.669078</ele>
        <time>2026-07-13T12:04:08.000Z</time>
      </trkpt>
      <trkpt lat="46.2866" lon="13.52766">
        <ele>408.071647</ele>
        <time>2026-07-13T12:04:16.000Z</time>
      </trkpt>
      <trkpt lat="46.28655" lon="13.52795">
        <ele>409.126127</ele>
        <time>2026-07-13T12:04:22.000Z</time>
      </trkpt>
      <trkpt lat="46.28649" lon="13.52825">
        <ele>409.287238</ele>
        <time>2026-07-13T12:04:28.000Z</time>
      </trkpt>
      <trkpt lat="46.28643" lon="13.52864">
        <ele>409.493968</ele>
        <time>2026-07-13T12:04:35.000Z</time>
      </trkpt>
      <trkpt lat="46.28645" lon="13.52889">
        <ele>409.621911</ele>
        <time>2026-07-13T12:04:40.000Z</time>
      </trkpt>
      <trkpt lat="46.2865" lon="13.5291">
        <ele>409.734868</ele>
        <time>2026-07-13T12:04:44.000Z</time>
      </trkpt>
      <trkpt lat="46.28658" lon="13.52931">
        <ele>409.857296</ele>
        <time>2026-07-13T12:04:48.000Z</time>
      </trkpt>
      <trkpt lat="46.28664" lon="13.5296">
        <ele>410.013865</ele>
        <time>2026-07-13T12:04:53.000Z</time>
      </trkpt>
      <trkpt lat="46.28667" lon="13.5299">
        <ele>410.168129</ele>
        <time>2026-07-13T12:04:58.000Z</time>
      </trkpt>
      <trkpt lat="46.2867" lon="13.53001">
        <ele>410.230851</ele>
        <time>2026-07-13T12:05:00.000Z</time>
      </trkpt>
      <trkpt lat="46.28672" lon="13.53029">
        <ele>410.373054</ele>
        <time>2026-07-13T12:05:04.000Z</time>
      </trkpt>
      <trkpt lat="46.28671" lon="13.53037">
        <ele>410.41462</ele>
        <time>2026-07-13T12:05:05.000Z</time>
      </trkpt>
      <trkpt lat="46.28663" lon="13.5308">
        <ele>409.454525</ele>
        <time>2026-07-13T12:05:10.000Z</time>
      </trkpt>
      <trkpt lat="46.28655" lon="13.53122">
        <ele>408.245779</ele>
        <time>2026-07-13T12:05:14.000Z</time>
      </trkpt>
      <trkpt lat="46.28652" lon="13.53132">
        <ele>407.934153</ele>
        <time>2026-07-13T12:05:15.000Z</time>
      </trkpt>
      <trkpt lat="46.28649" lon="13.53143">
        <ele>407.613072</ele>
        <time>2026-07-13T12:05:16.000Z</time>
      </trkpt>
      <trkpt lat="46.2863" lon="13.53198">
        <ele>405.907256</ele>
        <time>2026-07-13T12:05:21.000Z</time>
      </trkpt>
      <trkpt lat="46.28625" lon="13.53208">
        <ele>405.571349</ele>
        <time>2026-07-13T12:05:22.000Z</time>
      </trkpt>
      <trkpt lat="46.28614" lon="13.53227">
        <ele>404.894386</ele>
        <time>2026-07-13T12:05:24.000Z</time>
      </trkpt>
      <trkpt lat="46.28606" lon="13.53234">
        <ele>404.536893</ele>
        <time>2026-07-13T12:05:25.000Z</time>
      </trkpt>
      <trkpt lat="46.28561" lon="13.53265">
        <ele>402.244607</ele>
        <time>2026-07-13T12:05:30.000Z</time>
      </trkpt>
      <trkpt lat="46.28553" lon="13.53273">
        <ele>401.670727</ele>
        <time>2026-07-13T12:05:31.000Z</time>
      </trkpt>
      <trkpt lat="46.28539" lon="13.53293">
        <ele>400.591963</ele>
        <time>2026-07-13T12:05:33.000Z</time>
      </trkpt>
      <trkpt lat="46.28531" lon="13.53307">
        <ele>399.872767</ele>
        <time>2026-07-13T12:05:34.000Z</time>
      </trkpt>
      <trkpt lat="46.2852" lon="13.53333">
        <ele>398.666463</ele>
        <time>2026-07-13T12:05:36.000Z</time>
      </trkpt>
      <trkpt lat="46.28496" lon="13.53389">
        <ele>396.134075</ele>
        <time>2026-07-13T12:05:40.000Z</time>
      </trkpt>
      <trkpt lat="46.28467" lon="13.53442">
        <ele>393.482522</ele>
        <time>2026-07-13T12:05:44.000Z</time>
      </trkpt>
      <trkpt lat="46.28459" lon="13.53454">
        <ele>392.741009</ele>
        <time>2026-07-13T12:05:45.000Z</time>
      </trkpt>
      <trkpt lat="46.28421" lon="13.53499">
        <ele>389.357846</ele>
        <time>2026-07-13T12:05:49.000Z</time>
      </trkpt>
      <trkpt lat="46.28407" lon="13.53524">
        <ele>387.833325</ele>
        <time>2026-07-13T12:05:51.000Z</time>
      </trkpt>
      <trkpt lat="46.28392" lon="13.53557">
        <ele>385.966878</ele>
        <time>2026-07-13T12:05:53.000Z</time>
      </trkpt>
      <trkpt lat="46.28367" lon="13.53638">
        <ele>381.73167</ele>
        <time>2026-07-13T12:05:58.000Z</time>
      </trkpt>
      <trkpt lat="46.28354" lon="13.53665">
        <ele>380.086779</ele>
        <time>2026-07-13T12:06:00.000Z</time>
      </trkpt>
      <trkpt lat="46.28346" lon="13.53677">
        <ele>379.159065</ele>
        <time>2026-07-13T12:06:01.000Z</time>
      </trkpt>
      <trkpt lat="46.28299" lon="13.53731">
        <ele>374.32659</ele>
        <time>2026-07-13T12:06:06.000Z</time>
      </trkpt>
      <trkpt lat="46.28246" lon="13.53779">
        <ele>369.263246</ele>
        <time>2026-07-13T12:06:11.000Z</time>
      </trkpt>
      <trkpt lat="46.28229" lon="13.53804">
        <ele>367.274316</ele>
        <time>2026-07-13T12:06:13.000Z</time>
      </trkpt>
      <trkpt lat="46.28215" lon="13.53834">
        <ele>365.237342</ele>
        <time>2026-07-13T12:06:15.000Z</time>
      </trkpt>
      <trkpt lat="46.28192" lon="13.539">
        <ele>361.000621</ele>
        <time>2026-07-13T12:06:19.000Z</time>
      </trkpt>
      <trkpt lat="46.28167" lon="13.53983">
        <ele>355.768235</ele>
        <time>2026-07-13T12:06:24.000Z</time>
      </trkpt>
      <trkpt lat="46.28156" lon="13.54016">
        <ele>353.634618</ele>
        <time>2026-07-13T12:06:26.000Z</time>
      </trkpt>
      <trkpt lat="46.28122" lon="13.54094">
        <ele>348.526691</ele>
        <time>2026-07-13T12:06:31.000Z</time>
      </trkpt>
      <trkpt lat="46.28101" lon="13.5416">
        <ele>344.627676</ele>
        <time>2026-07-13T12:06:35.000Z</time>
      </trkpt>
      <trkpt lat="46.2809" lon="13.5423">
        <ele>340.720842</ele>
        <time>2026-07-13T12:06:39.000Z</time>
      </trkpt>
      <trkpt lat="46.28085" lon="13.5432">
        <ele>336.476876</ele>
        <time>2026-07-13T12:06:44.000Z</time>
      </trkpt>
      <trkpt lat="46.28085" lon="13.54337">
        <ele>335.972587</ele>
        <time>2026-07-13T12:06:45.000Z</time>
      </trkpt>
      <trkpt lat="46.28088" lon="13.54416">
        <ele>333.610272</ele>
        <time>2026-07-13T12:06:50.000Z</time>
      </trkpt>
      <trkpt lat="46.28088" lon="13.5443">
        <ele>333.174288</ele>
        <time>2026-07-13T12:06:51.000Z</time>
      </trkpt>
      <trkpt lat="46.28091" lon="13.54511">
        <ele>330.767808</ele>
        <time>2026-07-13T12:06:57.000Z</time>
      </trkpt>
      <trkpt lat="46.28094" lon="13.54594">
        <ele>329.123913</ele>
        <time>2026-07-13T12:07:04.000Z</time>
      </trkpt>
      <trkpt lat="46.28095" lon="13.54638">
        <ele>328.764858</ele>
        <time>2026-07-13T12:07:08.000Z</time>
      </trkpt>
      <trkpt lat="46.28095" lon="13.54671">
        <ele>328.49842</ele>
        <time>2026-07-13T12:07:11.000Z</time>
      </trkpt>
      <trkpt lat="46.2809" lon="13.54733">
        <ele>327.988541</ele>
        <time>2026-07-13T12:07:17.000Z</time>
      </trkpt>
      <trkpt lat="46.28087" lon="13.54742">
        <ele>327.906296</ele>
        <time>2026-07-13T12:07:18.000Z</time>
      </trkpt>
      <trkpt lat="46.28073" lon="13.54779">
        <ele>327.567717</ele>
        <time>2026-07-13T12:07:22.000Z</time>
      </trkpt>
      <trkpt lat="46.28057" lon="13.54813">
        <ele>327.308852</ele>
        <time>2026-07-13T12:07:26.000Z</time>
      </trkpt>
      <trkpt lat="46.28038" lon="13.54858">
        <ele>327.258092</ele>
        <time>2026-07-13T12:07:31.000Z</time>
      </trkpt>
      <trkpt lat="46.28035" lon="13.54867">
        <ele>327.248194</ele>
        <time>2026-07-13T12:07:32.000Z</time>
      </trkpt>
      <trkpt lat="46.28032" lon="13.54887">
        <ele>327.227964</ele>
        <time>2026-07-13T12:07:34.000Z</time>
      </trkpt>
      <trkpt lat="46.28032" lon="13.54908">
        <ele>327.208018</ele>
        <time>2026-07-13T12:07:36.000Z</time>
      </trkpt>
      <trkpt lat="46.28035" lon="13.54928">
        <ele>327.188337</ele>
        <time>2026-07-13T12:07:38.000Z</time>
      </trkpt>
      <trkpt lat="46.2804" lon="13.54956">
        <ele>327.159991</ele>
        <time>2026-07-13T12:07:41.000Z</time>
      </trkpt>
      <trkpt lat="46.28049" lon="13.55005">
        <ele>327.109954</ele>
        <time>2026-07-13T12:07:47.000Z</time>
      </trkpt>
      <trkpt lat="46.28049" lon="13.55017">
        <ele>327.09832</ele>
        <time>2026-07-13T12:07:49.000Z</time>
      </trkpt>
      <trkpt lat="46.28048" lon="13.55024">
        <ele>327.09107</ele>
        <time>2026-07-13T12:07:51.000Z</time>
      </trkpt>
      <trkpt lat="46.28049" lon="13.55028">
        <ele>327.087672</ele>
        <time>2026-07-13T12:07:53.000Z</time>
      </trkpt>
      <trkpt lat="46.28049" lon="13.55028">
        <ele>327.086924</ele>
        <time>2026-07-13T12:07:54.000Z</time>
      </trkpt>
      <trkpt lat="46.2805" lon="13.55028">
        <ele>327.085592</ele>
        <time>2026-07-13T12:07:56.000Z</time>
      </trkpt>
      <trkpt lat="46.2805" lon="13.55033">
        <ele>327.080891</ele>
        <time>2026-07-13T12:07:58.000Z</time>
      </trkpt>
      <trkpt lat="46.28049" lon="13.55037">
        <ele>327.077043</ele>
        <time>2026-07-13T12:07:59.000Z</time>
      </trkpt>
      <trkpt lat="46.28047" lon="13.55045">
        <ele>327.068494</ele>
        <time>2026-07-13T12:08:01.000Z</time>
      </trkpt>
      <trkpt lat="46.2804" lon="13.55063">
        <ele>326.864539</ele>
        <time>2026-07-13T12:08:04.000Z</time>
      </trkpt>
      <trkpt lat="46.28031" lon="13.55084">
        <ele>326.592899</ele>
        <time>2026-07-13T12:08:07.000Z</time>
      </trkpt>
      <trkpt lat="46.28025" lon="13.55096">
        <ele>326.431748</ele>
        <time>2026-07-13T12:08:09.000Z</time>
      </trkpt>
      <trkpt lat="46.28011" lon="13.55146">
        <ele>325.823944</ele>
        <time>2026-07-13T12:08:15.000Z</time>
      </trkpt>
      <trkpt lat="46.28" lon="13.55199">
        <ele>325.21838</ele>
        <time>2026-07-13T12:08:21.000Z</time>
      </trkpt>
      <trkpt lat="46.27987" lon="13.55274">
        <ele>324.354646</ele>
        <time>2026-07-13T12:08:29.000Z</time>
      </trkpt>
      <trkpt lat="46.27978" lon="13.55311">
        <ele>323.978166</ele>
        <time>2026-07-13T12:08:33.000Z</time>
      </trkpt>
      <trkpt lat="46.27975" lon="13.55319">
        <ele>323.89609</ele>
        <time>2026-07-13T12:08:34.000Z</time>
      </trkpt>
      <trkpt lat="46.2795" lon="13.55363">
        <ele>323.398299</ele>
        <time>2026-07-13T12:08:40.000Z</time>
      </trkpt>
      <trkpt lat="46.27919" lon="13.5542">
        <ele>322.774026</ele>
        <time>2026-07-13T12:08:47.000Z</time>
      </trkpt>
      <trkpt lat="46.27915" lon="13.55428">
        <ele>322.689622</ele>
        <time>2026-07-13T12:08:48.000Z</time>
      </trkpt>
      <trkpt lat="46.27901" lon="13.5545">
        <ele>322.426173</ele>
        <time>2026-07-13T12:08:51.000Z</time>
      </trkpt>
      <trkpt lat="46.27892" lon="13.5546">
        <ele>322.281239</ele>
        <time>2026-07-13T12:08:53.000Z</time>
      </trkpt>
      <trkpt lat="46.2788" lon="13.55469">
        <ele>322.111668</ele>
        <time>2026-07-13T12:08:55.000Z</time>
      </trkpt>
      <trkpt lat="46.2786" lon="13.55478">
        <ele>322.068844</ele>
        <time>2026-07-13T12:08:58.000Z</time>
      </trkpt>
      <trkpt lat="46.27824" lon="13.555">
        <ele>323.371877</ele>
        <time>2026-07-13T12:09:04.000Z</time>
      </trkpt>
      <trkpt lat="46.27812" lon="13.55511">
        <ele>323.817352</ele>
        <time>2026-07-13T12:09:06.000Z</time>
      </trkpt>
      <trkpt lat="46.27805" lon="13.55522">
        <ele>324.162843</ele>
        <time>2026-07-13T12:09:08.000Z</time>
      </trkpt>
      <trkpt lat="46.27786" lon="13.5555">
        <ele>325.057039</ele>
        <time>2026-07-13T12:09:13.000Z</time>
      </trkpt>
      <trkpt lat="46.27784" lon="13.55555">
        <ele>325.189507</ele>
        <time>2026-07-13T12:09:14.000Z</time>
      </trkpt>
      <trkpt lat="46.2777" lon="13.55588">
        <ele>326.070792</ele>
        <time>2026-07-13T12:09:20.000Z</time>
      </trkpt>
      <trkpt lat="46.27763" lon="13.55605">
        <ele>326.511888</ele>
        <time>2026-07-13T12:09:23.000Z</time>
      </trkpt>
      <trkpt lat="46.27758" lon="13.5562">
        <ele>326.882523</ele>
        <time>2026-07-13T12:09:26.000Z</time>
      </trkpt>
      <trkpt lat="46.27748" lon="13.55644">
        <ele>327.534834</ele>
        <time>2026-07-13T12:09:31.000Z</time>
      </trkpt>
      <trkpt lat="46.27741" lon="13.55659">
        <ele>328.04097</ele>
        <time>2026-07-13T12:09:34.000Z</time>
      </trkpt>
      <trkpt lat="46.27725" lon="13.55691">
        <ele>329.853274</ele>
        <time>2026-07-13T12:09:41.000Z</time>
      </trkpt>
      <trkpt lat="46.27707" lon="13.55716">
        <ele>331.485894</ele>
        <time>2026-07-13T12:09:48.000Z</time>
      </trkpt>
      <trkpt lat="46.27693" lon="13.55739">
        <ele>332.893054</ele>
        <time>2026-07-13T12:09:55.000Z</time>
      </trkpt>
      <trkpt lat="46.27678" lon="13.55769">
        <ele>334.591922</ele>
        <time>2026-07-13T12:10:03.000Z</time>
      </trkpt>
      <trkpt lat="46.27666" lon="13.55793">
        <ele>335.924842</ele>
        <time>2026-07-13T12:10:09.000Z</time>
      </trkpt>
      <trkpt lat="46.27651" lon="13.55826">
        <ele>337.712353</ele>
        <time>2026-07-13T12:10:17.000Z</time>
      </trkpt>
      <trkpt lat="46.27645" lon="13.55855">
        <ele>339.101807</ele>
        <time>2026-07-13T12:10:23.000Z</time>
      </trkpt>
      <trkpt lat="46.2764" lon="13.55888">
        <ele>340.669343</ele>
        <time>2026-07-13T12:10:30.000Z</time>
      </trkpt>
      <trkpt lat="46.27638" lon="13.55912">
        <ele>341.825855</ele>
        <time>2026-07-13T12:10:35.000Z</time>
      </trkpt>
      <trkpt lat="46.27634" lon="13.55942">
        <ele>343.26477</ele>
        <time>2026-07-13T12:10:41.000Z</time>
      </trkpt>
      <trkpt lat="46.27632" lon="13.55969">
        <ele>344.555728</ele>
        <time>2026-07-13T12:10:47.000Z</time>
      </trkpt>
      <trkpt lat="46.27629" lon="13.55994">
        <ele>345.748949</ele>
        <time>2026-07-13T12:10:53.000Z</time>
      </trkpt>
      <trkpt lat="46.27626" lon="13.56022">
        <ele>347.087198</ele>
        <time>2026-07-13T12:10:59.000Z</time>
      </trkpt>
      <trkpt lat="46.27624" lon="13.5605">
        <ele>348.427882</ele>
        <time>2026-07-13T12:11:05.000Z</time>
      </trkpt>
      <trkpt lat="46.2762" lon="13.56074">
        <ele>349.640809</ele>
        <time>2026-07-13T12:11:10.000Z</time>
      </trkpt>
      <trkpt lat="46.27617" lon="13.56101">
        <ele>350.933432</ele>
        <time>2026-07-13T12:11:16.000Z</time>
      </trkpt>
      <trkpt lat="46.27611" lon="13.56132">
        <ele>351.976305</ele>
        <time>2026-07-13T12:11:22.000Z</time>
      </trkpt>
      <trkpt lat="46.27604" lon="13.56165">
        <ele>351.853006</ele>
        <time>2026-07-13T12:11:29.000Z</time>
      </trkpt>
      <trkpt lat="46.27594" lon="13.56211">
        <ele>351.674536</ele>
        <time>2026-07-13T12:11:38.000Z</time>
      </trkpt>
      <trkpt lat="46.27583" lon="13.56249">
        <ele>351.523524</ele>
        <time>2026-07-13T12:11:45.000Z</time>
      </trkpt>
      <trkpt lat="46.27576" lon="13.56298">
        <ele>351.344138</ele>
        <time>2026-07-13T12:11:53.000Z</time>
      </trkpt>
      <trkpt lat="46.27569" lon="13.56349">
        <ele>351.153424</ele>
        <time>2026-07-13T12:12:02.000Z</time>
      </trkpt>
      <trkpt lat="46.27564" lon="13.56402">
        <ele>352.109387</ele>
        <time>2026-07-13T12:12:11.000Z</time>
      </trkpt>
      <trkpt lat="46.27562" lon="13.56455">
        <ele>354.127595</ele>
        <time>2026-07-13T12:12:20.000Z</time>
      </trkpt>
      <trkpt lat="46.2756" lon="13.565">
        <ele>355.8294</ele>
        <time>2026-07-13T12:12:28.000Z</time>
      </trkpt>
      <trkpt lat="46.2756" lon="13.56525">
        <ele>356.771414</ele>
        <time>2026-07-13T12:12:33.000Z</time>
      </trkpt>
      <trkpt lat="46.27556" lon="13.56561">
        <ele>358.160952</ele>
        <time>2026-07-13T12:12:40.000Z</time>
      </trkpt>
      <trkpt lat="46.27544" lon="13.5661">
        <ele>360.089368</ele>
        <time>2026-07-13T12:12:49.000Z</time>
      </trkpt>
      <trkpt lat="46.27539" lon="13.56645">
        <ele>361.210675</ele>
        <time>2026-07-13T12:12:55.000Z</time>
      </trkpt>
      <trkpt lat="46.27531" lon="13.56701">
        <ele>362.53975</ele>
        <time>2026-07-13T12:13:05.000Z</time>
      </trkpt>
      <trkpt lat="46.27524" lon="13.56737">
        <ele>363.420366</ele>
        <time>2026-07-13T12:13:12.000Z</time>
      </trkpt>
      <trkpt lat="46.27517" lon="13.56764">
        <ele>364.068064</ele>
        <time>2026-07-13T12:13:17.000Z</time>
      </trkpt>
      <trkpt lat="46.27504" lon="13.56793">
        <ele>364.881775</ele>
        <time>2026-07-13T12:13:23.000Z</time>
      </trkpt>
      <trkpt lat="46.27477" lon="13.56832">
        <ele>366.161329</ele>
        <time>2026-07-13T12:13:32.000Z</time>
      </trkpt>
      <trkpt lat="46.2746" lon="13.56868">
        <ele>366.51368</ele>
        <time>2026-07-13T12:13:39.000Z</time>
      </trkpt>
      <trkpt lat="46.27447" lon="13.56897">
        <ele>365.428394</ele>
        <time>2026-07-13T12:13:46.000Z</time>
      </trkpt>
      <trkpt lat="46.27443" lon="13.56906">
        <ele>365.094018</ele>
        <time>2026-07-13T12:13:52.000Z</time>
      </trkpt>
      <trkpt lat="46.2744" lon="13.56912">
        <ele>364.865031</ele>
        <time>2026-07-13T12:14:49.000Z</time>
      </trkpt>
      <trkpt lat="46.27438" lon="13.56915">
        <ele>364.75958</ele>
        <time>2026-07-13T12:14:50.000Z</time>
      </trkpt>
      <trkpt lat="46.27436" lon="13.56921">
        <ele>364.545085</ele>
        <time>2026-07-13T12:14:52.000Z</time>
      </trkpt>
      <trkpt lat="46.27423" lon="13.56947">
        <ele>363.529076</ele>
        <time>2026-07-13T12:14:58.000Z</time>
      </trkpt>
      <trkpt lat="46.27413" lon="13.56968">
        <ele>362.728865</ele>
        <time>2026-07-13T12:15:03.000Z</time>
      </trkpt>
      <trkpt lat="46.27407" lon="13.56985">
        <ele>362.152931</ele>
        <time>2026-07-13T12:15:06.000Z</time>
      </trkpt>
      <trkpt lat="46.27394" lon="13.57025">
        <ele>360.759294</ele>
        <time>2026-07-13T12:15:13.000Z</time>
      </trkpt>
      <trkpt lat="46.27374" lon="13.57063">
        <ele>359.250896</ele>
        <time>2026-07-13T12:15:20.000Z</time>
      </trkpt>
      <trkpt lat="46.2737" lon="13.57068">
        <ele>359.034906</ele>
        <time>2026-07-13T12:15:21.000Z</time>
      </trkpt>
      <trkpt lat="46.27367" lon="13.57072">
        <ele>358.818275</ele>
        <time>2026-07-13T12:15:22.000Z</time>
      </trkpt>
      <trkpt lat="46.27358" lon="13.5708">
        <ele>358.559629</ele>
        <time>2026-07-13T12:15:24.000Z</time>
      </trkpt>
      <trkpt lat="46.27354" lon="13.57084">
        <ele>358.442471</ele>
        <time>2026-07-13T12:15:25.000Z</time>
      </trkpt>
      <trkpt lat="46.27349" lon="13.57087">
        <ele>358.326029</ele>
        <time>2026-07-13T12:15:26.000Z</time>
      </trkpt>
      <trkpt lat="46.27345" lon="13.57089">
        <ele>358.212987</ele>
        <time>2026-07-13T12:15:27.000Z</time>
      </trkpt>
      <trkpt lat="46.27335" lon="13.5709">
        <ele>357.976091</ele>
        <time>2026-07-13T12:15:29.000Z</time>
      </trkpt>
      <trkpt lat="46.27324" lon="13.57089">
        <ele>357.728131</ele>
        <time>2026-07-13T12:15:31.000Z</time>
      </trkpt>
      <trkpt lat="46.27308" lon="13.57085">
        <ele>357.352402</ele>
        <time>2026-07-13T12:15:34.000Z</time>
      </trkpt>
      <trkpt lat="46.27287" lon="13.57076">
        <ele>356.831932</ele>
        <time>2026-07-13T12:15:38.000Z</time>
      </trkpt>
      <trkpt lat="46.27265" lon="13.57066">
        <ele>356.293392</ele>
        <time>2026-07-13T12:15:42.000Z</time>
      </trkpt>
      <trkpt lat="46.27254" lon="13.57059">
        <ele>356.011221</ele>
        <time>2026-07-13T12:15:44.000Z</time>
      </trkpt>
      <trkpt lat="46.27206" lon="13.57035">
        <ele>354.839543</ele>
        <time>2026-07-13T12:15:52.000Z</time>
      </trkpt>
      <trkpt lat="46.27182" lon="13.57025">
        <ele>354.511129</ele>
        <time>2026-07-13T12:15:56.000Z</time>
      </trkpt>
      <trkpt lat="46.27168" lon="13.57025">
        <ele>354.462421</ele>
        <time>2026-07-13T12:15:58.000Z</time>
      </trkpt>
      <trkpt lat="46.27132" lon="13.57035">
        <ele>354.33372</ele>
        <time>2026-07-13T12:16:03.000Z</time>
      </trkpt>
      <trkpt lat="46.27076" lon="13.57056">
        <ele>354.132985</ele>
        <time>2026-07-13T12:16:11.000Z</time>
      </trkpt>
      <trkpt lat="46.2707" lon="13.57059">
        <ele>354.109557</ele>
        <time>2026-07-13T12:16:12.000Z</time>
      </trkpt>
      <trkpt lat="46.27015" lon="13.57075">
        <ele>353.823016</ele>
        <time>2026-07-13T12:16:20.000Z</time>
      </trkpt>
      <trkpt lat="46.26968" lon="13.57098">
        <ele>352.706591</ele>
        <time>2026-07-13T12:16:27.000Z</time>
      </trkpt>
      <trkpt lat="46.26932" lon="13.57114">
        <ele>351.88029</ele>
        <time>2026-07-13T12:16:32.000Z</time>
      </trkpt>
      <trkpt lat="46.26897" lon="13.57124">
        <ele>351.072411</ele>
        <time>2026-07-13T12:16:37.000Z</time>
      </trkpt>
      <trkpt lat="46.26883" lon="13.57133">
        <ele>350.72661</ele>
        <time>2026-07-13T12:16:39.000Z</time>
      </trkpt>
      <trkpt lat="46.26872" lon="13.57147">
        <ele>350.398913</ele>
        <time>2026-07-13T12:16:41.000Z</time>
      </trkpt>
      <trkpt lat="46.26863" lon="13.57164">
        <ele>350.060646</ele>
        <time>2026-07-13T12:16:43.000Z</time>
      </trkpt>
      <trkpt lat="46.26851" lon="13.57192">
        <ele>349.708964</ele>
        <time>2026-07-13T12:16:46.000Z</time>
      </trkpt>
      <trkpt lat="46.26842" lon="13.5721">
        <ele>349.524312</ele>
        <time>2026-07-13T12:16:48.000Z</time>
      </trkpt>
      <trkpt lat="46.2683" lon="13.57226">
        <ele>349.336078</ele>
        <time>2026-07-13T12:16:50.000Z</time>
      </trkpt>
      <trkpt lat="46.26825" lon="13.57232">
        <ele>349.263344</ele>
        <time>2026-07-13T12:16:51.000Z</time>
      </trkpt>
      <trkpt lat="46.26804" lon="13.5725">
        <ele>348.967861</ele>
        <time>2026-07-13T12:16:54.000Z</time>
      </trkpt>
      <trkpt lat="46.26747" lon="13.57285">
        <ele>348.240606</ele>
        <time>2026-07-13T12:17:02.000Z</time>
      </trkpt>
      <trkpt lat="46.26694" lon="13.57314">
        <ele>347.338609</ele>
        <time>2026-07-13T12:17:09.000Z</time>
      </trkpt>
      <trkpt lat="46.26686" lon="13.57319">
        <ele>347.132429</ele>
        <time>2026-07-13T12:17:10.000Z</time>
      </trkpt>
      <trkpt lat="46.26645" lon="13.57356">
        <ele>345.911859</ele>
        <time>2026-07-13T12:17:16.000Z</time>
      </trkpt>
      <trkpt lat="46.26603" lon="13.5741">
        <ele>344.491347</ele>
        <time>2026-07-13T12:17:23.000Z</time>
      </trkpt>
      <trkpt lat="46.26597" lon="13.57418">
        <ele>344.287981</ele>
        <time>2026-07-13T12:17:24.000Z</time>
      </trkpt>
      <trkpt lat="46.26555" lon="13.57478">
        <ele>342.790625</ele>
        <time>2026-07-13T12:17:31.000Z</time>
      </trkpt>
      <trkpt lat="46.26511" lon="13.57538">
        <ele>341.20927</ele>
        <time>2026-07-13T12:17:38.000Z</time>
      </trkpt>
      <trkpt lat="46.26491" lon="13.57562">
        <ele>340.537074</ele>
        <time>2026-07-13T12:17:41.000Z</time>
      </trkpt>
      <trkpt lat="46.26473" lon="13.57587">
        <ele>339.890965</ele>
        <time>2026-07-13T12:17:44.000Z</time>
      </trkpt>
      <trkpt lat="46.26445" lon="13.57633">
        <ele>338.78929</ele>
        <time>2026-07-13T12:17:49.000Z</time>
      </trkpt>
      <trkpt lat="46.26429" lon="13.57661">
        <ele>338.188889</ele>
        <time>2026-07-13T12:17:52.000Z</time>
      </trkpt>
      <trkpt lat="46.26416" lon="13.57678">
        <ele>337.803275</ele>
        <time>2026-07-13T12:17:54.000Z</time>
      </trkpt>
      <trkpt lat="46.26379" lon="13.57728">
        <ele>336.672344</ele>
        <time>2026-07-13T12:18:00.000Z</time>
      </trkpt>
      <trkpt lat="46.26362" lon="13.57756">
        <ele>336.102471</ele>
        <time>2026-07-13T12:18:03.000Z</time>
      </trkpt>
      <trkpt lat="46.26349" lon="13.57772">
        <ele>335.720152</ele>
        <time>2026-07-13T12:18:05.000Z</time>
      </trkpt>
      <trkpt lat="46.26303" lon="13.57829">
        <ele>334.32038</ele>
        <time>2026-07-13T12:18:12.000Z</time>
      </trkpt>
      <trkpt lat="46.26288" lon="13.57844">
        <ele>333.801934</ele>
        <time>2026-07-13T12:18:14.000Z</time>
      </trkpt>
      <trkpt lat="46.26273" lon="13.57856">
        <ele>333.267202</ele>
        <time>2026-07-13T12:18:16.000Z</time>
      </trkpt>
      <trkpt lat="46.26256" lon="13.57864">
        <ele>332.747115</ele>
        <time>2026-07-13T12:18:18.000Z</time>
      </trkpt>
      <trkpt lat="46.26237" lon="13.57864">
        <ele>332.202199</ele>
        <time>2026-07-13T12:18:20.000Z</time>
      </trkpt>
      <trkpt lat="46.26228" lon="13.57861">
        <ele>331.920878</ele>
        <time>2026-07-13T12:18:21.000Z</time>
      </trkpt>
      <trkpt lat="46.26219" lon="13.57857">
        <ele>331.633541</ele>
        <time>2026-07-13T12:18:22.000Z</time>
      </trkpt>
      <trkpt lat="46.26202" lon="13.57843">
        <ele>331.063437</ele>
        <time>2026-07-13T12:18:24.000Z</time>
      </trkpt>
      <trkpt lat="46.26188" lon="13.57823">
        <ele>330.482804</ele>
        <time>2026-07-13T12:18:26.000Z</time>
      </trkpt>
      <trkpt lat="46.26182" lon="13.57812">
        <ele>330.181832</ele>
        <time>2026-07-13T12:18:27.000Z</time>
      </trkpt>
      <trkpt lat="46.26168" lon="13.57788">
        <ele>329.548949</ele>
        <time>2026-07-13T12:18:29.000Z</time>
      </trkpt>
      <trkpt lat="46.26152" lon="13.57769">
        <ele>328.9103</ele>
        <time>2026-07-13T12:18:31.000Z</time>
      </trkpt>
      <trkpt lat="46.26143" lon="13.57762">
        <ele>328.581763</ele>
        <time>2026-07-13T12:18:32.000Z</time>
      </trkpt>
      <trkpt lat="46.26122" lon="13.57757">
        <ele>327.889225</ele>
        <time>2026-07-13T12:18:34.000Z</time>
      </trkpt>
      <trkpt lat="46.261" lon="13.57761">
        <ele>327.155256</ele>
        <time>2026-07-13T12:18:36.000Z</time>
      </trkpt>
      <trkpt lat="46.2609" lon="13.57767">
        <ele>326.803004</ele>
        <time>2026-07-13T12:18:37.000Z</time>
      </trkpt>
      <trkpt lat="46.26081" lon="13.57775">
        <ele>326.464187</ele>
        <time>2026-07-13T12:18:38.000Z</time>
      </trkpt>
      <trkpt lat="46.26054" lon="13.578">
        <ele>325.415015</ele>
        <time>2026-07-13T12:18:41.000Z</time>
      </trkpt>
      <trkpt lat="46.26036" lon="13.57815">
        <ele>324.725597</ele>
        <time>2026-07-13T12:18:43.000Z</time>
      </trkpt>
      <trkpt lat="46.26016" lon="13.57825">
        <ele>324.038633</ele>
        <time>2026-07-13T12:18:45.000Z</time>
      </trkpt>
      <trkpt lat="46.25965" lon="13.57836">
        <ele>322.28138</ele>
        <time>2026-07-13T12:18:50.000Z</time>
      </trkpt>
      <trkpt lat="46.25957" lon="13.5784">
        <ele>321.973515</ele>
        <time>2026-07-13T12:18:51.000Z</time>
      </trkpt>
      <trkpt lat="46.25947" lon="13.57847">
        <ele>321.600505</ele>
        <time>2026-07-13T12:18:52.000Z</time>
      </trkpt>
      <trkpt lat="46.25929" lon="13.57867">
        <ele>320.798956</ele>
        <time>2026-07-13T12:18:54.000Z</time>
      </trkpt>
      <trkpt lat="46.25906" lon="13.57918">
        <ele>319.305356</ele>
        <time>2026-07-13T12:18:58.000Z</time>
      </trkpt>
      <trkpt lat="46.25902" lon="13.57932">
        <ele>318.938505</ele>
        <time>2026-07-13T12:18:59.000Z</time>
      </trkpt>
      <trkpt lat="46.25896" lon="13.57961">
        <ele>318.202164</ele>
        <time>2026-07-13T12:19:01.000Z</time>
      </trkpt>
      <trkpt lat="46.25891" lon="13.58041">
        <ele>316.11888</ele>
        <time>2026-07-13T12:19:06.000Z</time>
      </trkpt>
      <trkpt lat="46.2588" lon="13.58126">
        <ele>313.606844</ele>
        <time>2026-07-13T12:19:12.000Z</time>
      </trkpt>
      <trkpt lat="46.25872" lon="13.58195">
        <ele>311.595578</ele>
        <time>2026-07-13T12:19:17.000Z</time>
      </trkpt>
      <trkpt lat="46.25869" lon="13.58264">
        <ele>309.578824</ele>
        <time>2026-07-13T12:19:22.000Z</time>
      </trkpt>
      <trkpt lat="46.25867" lon="13.58278">
        <ele>309.168393</ele>
        <time>2026-07-13T12:19:23.000Z</time>
      </trkpt>
      <trkpt lat="46.25862" lon="13.58305">
        <ele>308.415131</ele>
        <time>2026-07-13T12:19:25.000Z</time>
      </trkpt>
      <trkpt lat="46.25853" lon="13.58343">
        <ele>307.283413</ele>
        <time>2026-07-13T12:19:28.000Z</time>
      </trkpt>
      <trkpt lat="46.25849" lon="13.58354">
        <ele>306.933661</ele>
        <time>2026-07-13T12:19:29.000Z</time>
      </trkpt>
      <trkpt lat="46.25838" lon="13.58374">
        <ele>306.203083</ele>
        <time>2026-07-13T12:19:31.000Z</time>
      </trkpt>
      <trkpt lat="46.25823" lon="13.58387">
        <ele>305.497026</ele>
        <time>2026-07-13T12:19:33.000Z</time>
      </trkpt>
      <trkpt lat="46.25814" lon="13.5839">
        <ele>305.125149</ele>
        <time>2026-07-13T12:19:34.000Z</time>
      </trkpt>
      <trkpt lat="46.25805" lon="13.58391">
        <ele>304.755915</ele>
        <time>2026-07-13T12:19:35.000Z</time>
      </trkpt>
      <trkpt lat="46.25777" lon="13.5839">
        <ele>303.630488</ele>
        <time>2026-07-13T12:19:38.000Z</time>
      </trkpt>
      <trkpt lat="46.2574" lon="13.58392">
        <ele>302.163429</ele>
        <time>2026-07-13T12:19:42.000Z</time>
      </trkpt>
      <trkpt lat="46.25732" lon="13.58393">
        <ele>301.910185</ele>
        <time>2026-07-13T12:19:43.000Z</time>
      </trkpt>
      <trkpt lat="46.25723" lon="13.58392">
        <ele>301.671899</ele>
        <time>2026-07-13T12:19:44.000Z</time>
      </trkpt>
      <trkpt lat="46.25707" lon="13.58385">
        <ele>301.186225</ele>
        <time>2026-07-13T12:19:46.000Z</time>
      </trkpt>
      <trkpt lat="46.25693" lon="13.58373">
        <ele>300.725238</ele>
        <time>2026-07-13T12:19:48.000Z</time>
      </trkpt>
      <trkpt lat="46.25687" lon="13.58363">
        <ele>300.46015</ele>
        <time>2026-07-13T12:19:49.000Z</time>
      </trkpt>
      <trkpt lat="46.25682" lon="13.58352">
        <ele>300.194588</ele>
        <time>2026-07-13T12:19:50.000Z</time>
      </trkpt>
      <trkpt lat="46.25662" lon="13.58322">
        <ele>299.369669</ele>
        <time>2026-07-13T12:19:53.000Z</time>
      </trkpt>
      <trkpt lat="46.25641" lon="13.5829">
        <ele>298.499218</ele>
        <time>2026-07-13T12:19:56.000Z</time>
      </trkpt>
      <trkpt lat="46.25634" lon="13.5828">
        <ele>298.211362</ele>
        <time>2026-07-13T12:19:57.000Z</time>
      </trkpt>
      <trkpt lat="46.25626" lon="13.58271">
        <ele>297.921331</ele>
        <time>2026-07-13T12:19:58.000Z</time>
      </trkpt>
      <trkpt lat="46.25605" lon="13.58255">
        <ele>297.24939</ele>
        <time>2026-07-13T12:20:00.000Z</time>
      </trkpt>
      <trkpt lat="46.25593" lon="13.58253">
        <ele>296.975273</ele>
        <time>2026-07-13T12:20:01.000Z</time>
      </trkpt>
      <trkpt lat="46.25569" lon="13.58255">
        <ele>296.644614</ele>
        <time>2026-07-13T12:20:03.000Z</time>
      </trkpt>
      <trkpt lat="46.25527" lon="13.58272">
        <ele>296.012422</ele>
        <time>2026-07-13T12:20:07.000Z</time>
      </trkpt>
      <trkpt lat="46.25485" lon="13.58288">
        <ele>295.398016</ele>
        <time>2026-07-13T12:20:11.000Z</time>
      </trkpt>
      <trkpt lat="46.25431" lon="13.58312">
        <ele>294.593369</ele>
        <time>2026-07-13T12:20:16.000Z</time>
      </trkpt>
      <trkpt lat="46.25419" lon="13.58315">
        <ele>294.179842</ele>
        <time>2026-07-13T12:20:17.000Z</time>
      </trkpt>
      <trkpt lat="46.25398" lon="13.58317">
        <ele>292.84119</ele>
        <time>2026-07-13T12:20:19.000Z</time>
      </trkpt>
      <trkpt lat="46.25366" lon="13.58307">
        <ele>290.79894</ele>
        <time>2026-07-13T12:20:22.000Z</time>
      </trkpt>
      <trkpt lat="46.25355" lon="13.58304">
        <ele>290.082514</ele>
        <time>2026-07-13T12:20:23.000Z</time>
      </trkpt>
      <trkpt lat="46.25332" lon="13.58307">
        <ele>288.684113</ele>
        <time>2026-07-13T12:20:25.000Z</time>
      </trkpt>
      <trkpt lat="46.25322" lon="13.5831">
        <ele>288.01586</ele>
        <time>2026-07-13T12:20:26.000Z</time>
      </trkpt>
      <trkpt lat="46.253" lon="13.58318">
        <ele>286.605399</ele>
        <time>2026-07-13T12:20:28.000Z</time>
      </trkpt>
      <trkpt lat="46.25269" lon="13.58336">
        <ele>284.542196</ele>
        <time>2026-07-13T12:20:31.000Z</time>
      </trkpt>
      <trkpt lat="46.25241" lon="13.58359">
        <ele>282.298881</ele>
        <time>2026-07-13T12:20:34.000Z</time>
      </trkpt>
      <trkpt lat="46.2522" lon="13.58369">
        <ele>280.580233</ele>
        <time>2026-07-13T12:20:36.000Z</time>
      </trkpt>
      <trkpt lat="46.25198" lon="13.58377">
        <ele>278.800423</ele>
        <time>2026-07-13T12:20:38.000Z</time>
      </trkpt>
      <trkpt lat="46.25178" lon="13.5839">
        <ele>277.060373</ele>
        <time>2026-07-13T12:20:40.000Z</time>
      </trkpt>
      <trkpt lat="46.2514" lon="13.58419">
        <ele>273.650216</ele>
        <time>2026-07-13T12:20:44.000Z</time>
      </trkpt>
      <trkpt lat="46.25087" lon="13.5844">
        <ele>269.293086</ele>
        <time>2026-07-13T12:20:49.000Z</time>
      </trkpt>
      <trkpt lat="46.25077" lon="13.58446">
        <ele>268.682784</ele>
        <time>2026-07-13T12:20:50.000Z</time>
      </trkpt>
      <trkpt lat="46.25061" lon="13.58464">
        <ele>267.689249</ele>
        <time>2026-07-13T12:20:52.000Z</time>
      </trkpt>
      <trkpt lat="46.25034" lon="13.58508">
        <ele>265.705811</ele>
        <time>2026-07-13T12:20:56.000Z</time>
      </trkpt>
      <trkpt lat="46.25026" lon="13.58517">
        <ele>265.228236</ele>
        <time>2026-07-13T12:20:57.000Z</time>
      </trkpt>
      <trkpt lat="46.25018" lon="13.58524">
        <ele>264.761603</ele>
        <time>2026-07-13T12:20:58.000Z</time>
      </trkpt>
      <trkpt lat="46.25" lon="13.58534">
        <ele>263.813022</ele>
        <time>2026-07-13T12:21:00.000Z</time>
      </trkpt>
      <trkpt lat="46.24943" lon="13.58551">
        <ele>260.990034</ele>
        <time>2026-07-13T12:21:06.000Z</time>
      </trkpt>
      <trkpt lat="46.24915" lon="13.58557">
        <ele>259.917597</ele>
        <time>2026-07-13T12:21:09.000Z</time>
      </trkpt>
      <trkpt lat="46.24897" lon="13.58553">
        <ele>259.412362</ele>
        <time>2026-07-13T12:21:11.000Z</time>
      </trkpt>
      <trkpt lat="46.24853" lon="13.58536">
        <ele>258.165771</ele>
        <time>2026-07-13T12:21:16.000Z</time>
      </trkpt>
      <trkpt lat="46.24818" lon="13.58539">
        <ele>257.218742</ele>
        <time>2026-07-13T12:21:20.000Z</time>
      </trkpt>
      <trkpt lat="46.24784" lon="13.5855">
        <ele>256.271685</ele>
        <time>2026-07-13T12:21:24.000Z</time>
      </trkpt>
      <trkpt lat="46.24776" lon="13.5855">
        <ele>256.048662</ele>
        <time>2026-07-13T12:21:25.000Z</time>
      </trkpt>
      <trkpt lat="46.24767" lon="13.5855">
        <ele>255.825638</ele>
        <time>2026-07-13T12:21:26.000Z</time>
      </trkpt>
      <trkpt lat="46.24751" lon="13.58548">
        <ele>255.37962</ele>
        <time>2026-07-13T12:21:28.000Z</time>
      </trkpt>
      <trkpt lat="46.24743" lon="13.58547">
        <ele>255.140988</ele>
        <time>2026-07-13T12:21:29.000Z</time>
      </trkpt>
      <trkpt lat="46.24693" lon="13.5855">
        <ele>253.678937</ele>
        <time>2026-07-13T12:21:35.000Z</time>
      </trkpt>
      <trkpt lat="46.2467" lon="13.58547">
        <ele>252.977519</ele>
        <time>2026-07-13T12:21:38.000Z</time>
      </trkpt>
      <trkpt lat="46.24647" lon="13.5853">
        <ele>252.231526</ele>
        <time>2026-07-13T12:21:41.000Z</time>
      </trkpt>
      <trkpt lat="46.2464" lon="13.58523">
        <ele>251.986747</ele>
        <time>2026-07-13T12:21:42.000Z</time>
      </trkpt>
      <trkpt lat="46.24628" lon="13.58506">
        <ele>251.490563</ele>
        <time>2026-07-13T12:21:44.000Z</time>
      </trkpt>
      <trkpt lat="46.24624" lon="13.58496">
        <ele>251.244144</ele>
        <time>2026-07-13T12:21:45.000Z</time>
      </trkpt>
      <trkpt lat="46.24621" lon="13.58486">
        <ele>251.024411</ele>
        <time>2026-07-13T12:21:46.000Z</time>
      </trkpt>
      <trkpt lat="46.24611" lon="13.58449">
        <ele>250.221246</ele>
        <time>2026-07-13T12:21:49.000Z</time>
      </trkpt>
      <trkpt lat="46.24608" lon="13.58438">
        <ele>250.045996</ele>
        <time>2026-07-13T12:21:50.000Z</time>
      </trkpt>
      <trkpt lat="46.24602" lon="13.58419">
        <ele>249.872326</ele>
        <time>2026-07-13T12:21:52.000Z</time>
      </trkpt>
      <trkpt lat="46.24601" lon="13.58411">
        <ele>249.809778</ele>
        <time>2026-07-13T12:21:53.000Z</time>
      </trkpt>
      <trkpt lat="46.24602" lon="13.58405">
        <ele>249.754331</ele>
        <time>2026-07-13T12:21:54.000Z</time>
      </trkpt>
      <trkpt lat="46.24605" lon="13.5839">
        <ele>249.628279</ele>
        <time>2026-07-13T12:21:56.000Z</time>
      </trkpt>
      <trkpt lat="46.24605" lon="13.58384">
        <ele>249.571441</ele>
        <time>2026-07-13T12:21:57.000Z</time>
      </trkpt>
      <trkpt lat="46.24604" lon="13.58378">
        <ele>249.518933</ele>
        <time>2026-07-13T12:21:58.000Z</time>
      </trkpt>
      <trkpt lat="46.24599" lon="13.58366">
        <ele>249.403765</ele>
        <time>2026-07-13T12:22:01.000Z</time>
      </trkpt>
      <trkpt lat="46.24591" lon="13.58342">
        <ele>249.181914</ele>
        <time>2026-07-13T12:22:07.000Z</time>
      </trkpt>
      <trkpt lat="46.24586" lon="13.58336">
        <ele>249.108882</ele>
        <time>2026-07-13T12:22:09.000Z</time>
      </trkpt>
      <trkpt lat="46.24583" lon="13.58336">
        <ele>249.071216</ele>
        <time>2026-07-13T12:22:11.000Z</time>
      </trkpt>
      <trkpt lat="46.24588" lon="13.58336">
        <ele>249.013199</ele>
        <time>2026-07-13T12:22:23.000Z</time>
      </trkpt>
      <trkpt lat="46.24589" lon="13.58333">
        <ele>248.984633</ele>
        <time>2026-07-13T12:22:24.000Z</time>
      </trkpt>
      <trkpt lat="46.2459" lon="13.58324">
        <ele>248.909224</ele>
        <time>2026-07-13T12:22:27.000Z</time>
      </trkpt>
      <trkpt lat="46.24592" lon="13.58322">
        <ele>248.884417</ele>
        <time>2026-07-13T12:22:28.000Z</time>
      </trkpt>
      <trkpt lat="46.24592" lon="13.58321">
        <ele>248.87598</ele>
        <time>2026-07-13T12:22:31.000Z</time>
      </trkpt>
      <trkpt lat="46.24595" lon="13.58316">
        <ele>248.818866</ele>
        <time>2026-07-13T12:24:08.000Z</time>
      </trkpt>
      <trkpt lat="46.24603" lon="13.58302">
        <ele>248.671635</ele>
        <time>2026-07-13T12:24:13.000Z</time>
      </trkpt>
      <trkpt lat="46.24604" lon="13.58298">
        <ele>248.63548</ele>
        <time>2026-07-13T12:24:14.000Z</time>
      </trkpt>
      <trkpt lat="46.24608" lon="13.58282">
        <ele>248.491419</ele>
        <time>2026-07-13T12:24:18.000Z</time>
      </trkpt>
      <trkpt lat="46.2461" lon="13.5826">
        <ele>248.305288</ele>
        <time>2026-07-13T12:24:23.000Z</time>
      </trkpt>
      <trkpt lat="46.24613" lon="13.58253">
        <ele>248.233655</ele>
        <time>2026-07-13T12:24:25.000Z</time>
      </trkpt>
      <trkpt lat="46.24619" lon="13.58241">
        <ele>248.112735</ele>
        <time>2026-07-13T12:24:28.000Z</time>
      </trkpt>
      <trkpt lat="46.24624" lon="13.58226">
        <ele>247.97185</ele>
        <time>2026-07-13T12:24:31.000Z</time>
      </trkpt>
      <trkpt lat="46.24638" lon="13.58192">
        <ele>248.879961</ele>
        <time>2026-07-13T12:24:39.000Z</time>
      </trkpt>
      <trkpt lat="46.24645" lon="13.5817">
        <ele>249.601612</ele>
        <time>2026-07-13T12:24:44.000Z</time>
      </trkpt>
      <trkpt lat="46.24648" lon="13.58166">
        <ele>249.764415</ele>
        <time>2026-07-13T12:24:45.000Z</time>
      </trkpt>
      <trkpt lat="46.24654" lon="13.58156">
        <ele>250.147858</ele>
        <time>2026-07-13T12:24:47.000Z</time>
      </trkpt>
      <trkpt lat="46.24659" lon="13.58145">
        <ele>250.527044</ele>
        <time>2026-07-13T12:24:49.000Z</time>
      </trkpt>
      <trkpt lat="46.24673" lon="13.5811">
        <ele>251.698148</ele>
        <time>2026-07-13T12:24:56.000Z</time>
      </trkpt>
      <trkpt lat="46.24679" lon="13.58106">
        <ele>251.952864</ele>
        <time>2026-07-13T12:24:59.000Z</time>
      </trkpt>
      <trkpt lat="46.24679" lon="13.58106">
        <ele>251.971601</ele>
        <time>2026-07-13T12:25:00.000Z</time>
      </trkpt>
      <trkpt lat="46.24683" lon="13.58103">
        <ele>252.150871</ele>
        <time>2026-07-13T12:25:18.000Z</time>
      </trkpt>
      <trkpt lat="46.24684" lon="13.58101">
        <ele>252.242677</ele>
        <time>2026-07-13T12:25:19.000Z</time>
      </trkpt>
      <trkpt lat="46.24685" lon="13.58098">
        <ele>252.320236</ele>
        <time>2026-07-13T12:25:20.000Z</time>
      </trkpt>
      <trkpt lat="46.24684" lon="13.58096">
        <ele>252.396376</ele>
        <time>2026-07-13T12:25:21.000Z</time>
      </trkpt>
      <trkpt lat="46.24682" lon="13.58095">
        <ele>252.474139</ele>
        <time>2026-07-13T12:25:24.000Z</time>
      </trkpt>
      <trkpt lat="46.24684" lon="13.58093">
        <ele>252.560084</ele>
        <time>2026-07-13T12:26:37.000Z</time>
      </trkpt>
      <trkpt lat="46.24685" lon="13.58093">
        <ele>252.581073</ele>
        <time>2026-07-13T12:26:39.000Z</time>
      </trkpt>
      <trkpt lat="46.24685" lon="13.58093">
        <ele>252.597706</ele>
        <time>2026-07-13T12:26:40.000Z</time>
      </trkpt>
      <trkpt lat="46.24675" lon="13.58098">
        <ele>253.049485</ele>
        <time>2026-07-13T12:28:40.000Z</time>
      </trkpt>
      <trkpt lat="46.24656" lon="13.58102">
        <ele>253.833546</ele>
        <time>2026-07-13T12:29:38.000Z</time>
      </trkpt>
      <trkpt lat="46.2467" lon="13.58097">
        <ele>254.453384</ele>
        <time>2026-07-13T12:29:53.000Z</time>
      </trkpt>
      <trkpt lat="46.24668" lon="13.58097">
        <ele>254.553221</ele>
        <time>2026-07-13T12:29:54.000Z</time>
      </trkpt>
      <trkpt lat="46.24668" lon="13.58096">
        <ele>254.562798</ele>
        <time>2026-07-13T12:29:55.000Z</time>
      </trkpt>
      <trkpt lat="46.2465" lon="13.58097">
        <ele>255.29947</ele>
        <time>2026-07-13T12:35:38.000Z</time>
      </trkpt>
      <trkpt lat="46.24654" lon="13.58097">
        <ele>255.474713</ele>
        <time>2026-07-13T12:35:40.000Z</time>
      </trkpt>
      <trkpt lat="46.24656" lon="13.58097">
        <ele>255.55224</ele>
        <time>2026-07-13T12:35:41.000Z</time>
      </trkpt>
      <trkpt lat="46.24656" lon="13.58093">
        <ele>255.684613</ele>
        <time>2026-07-13T12:36:18.000Z</time>
      </trkpt>
      <trkpt lat="46.24658" lon="13.58092">
        <ele>255.784286</ele>
        <time>2026-07-13T12:36:20.000Z</time>
      </trkpt>
      <trkpt lat="46.24656" lon="13.58093">
        <ele>255.856003</ele>
        <time>2026-07-13T12:36:21.000Z</time>
      </trkpt>
      <trkpt lat="46.24654" lon="13.58093">
        <ele>255.946227</ele>
        <time>2026-07-13T12:36:22.000Z</time>
      </trkpt>
      <trkpt lat="46.24657" lon="13.58097">
        <ele>256.125256</ele>
        <time>2026-07-13T12:36:29.000Z</time>
      </trkpt>
      <trkpt lat="46.24659" lon="13.58092">
        <ele>256.308438</ele>
        <time>2026-07-13T12:36:31.000Z</time>
      </trkpt>
      <trkpt lat="46.24659" lon="13.58093">
        <ele>256.322086</ele>
        <time>2026-07-13T12:36:32.000Z</time>
      </trkpt>
      <trkpt lat="46.24658" lon="13.58095">
        <ele>256.420254</ele>
        <time>2026-07-13T12:36:44.000Z</time>
      </trkpt>
      <trkpt lat="46.24657" lon="13.58096">
        <ele>256.479761</ele>
        <time>2026-07-13T12:36:45.000Z</time>
      </trkpt>
      <trkpt lat="46.24658" lon="13.58097">
        <ele>256.511052</ele>
        <time>2026-07-13T12:36:46.000Z</time>
      </trkpt>
      <trkpt lat="46.24665" lon="13.58095">
        <ele>256.886814</ele>
        <time>2026-07-13T12:36:48.000Z</time>
      </trkpt>
      <trkpt lat="46.24667" lon="13.58093">
        <ele>256.995002</ele>
        <time>2026-07-13T12:36:49.000Z</time>
      </trkpt>
      <trkpt lat="46.24675" lon="13.5809">
        <ele>257.356273</ele>
        <time>2026-07-13T12:36:54.000Z</time>
      </trkpt>
      <trkpt lat="46.24677" lon="13.58085">
        <ele>257.567216</ele>
        <time>2026-07-13T12:39:34.000Z</time>
      </trkpt>
      <trkpt lat="46.24676" lon="13.58083">
        <ele>257.629821</ele>
        <time>2026-07-13T12:39:36.000Z</time>
      </trkpt>
      <trkpt lat="46.24678" lon="13.58081">
        <ele>257.749537</ele>
        <time>2026-07-13T12:39:38.000Z</time>
      </trkpt>
      <trkpt lat="46.2468" lon="13.58082">
        <ele>257.839582</ele>
        <time>2026-07-13T12:39:40.000Z</time>
      </trkpt>
      <trkpt lat="46.24683" lon="13.58081">
        <ele>257.982267</ele>
        <time>2026-07-13T12:39:47.000Z</time>
      </trkpt>
      <trkpt lat="46.24685" lon="13.58082">
        <ele>258.095114</ele>
        <time>2026-07-13T12:39:49.000Z</time>
      </trkpt>
      <trkpt lat="46.24686" lon="13.58082">
        <ele>258.11902</ele>
        <time>2026-07-13T12:39:50.000Z</time>
      </trkpt>
      <trkpt lat="46.24686" lon="13.58082">
        <ele>258.11902</ele>
        <time>2026-07-13T12:40:12.000Z</time>
      </trkpt>
      <trkpt lat="46.24686" lon="13.58082">
        <ele>258.130536</ele>
        <time>2026-07-13T12:40:13.000Z</time>
      </trkpt>
      <trkpt lat="46.24687" lon="13.58081">
        <ele>258.188851</ele>
        <time>2026-07-13T12:40:16.000Z</time>
      </trkpt>
      <trkpt lat="46.24686" lon="13.58081">
        <ele>258.222165</ele>
        <time>2026-07-13T12:40:18.000Z</time>
      </trkpt>
      <trkpt lat="46.24685" lon="13.58082">
        <ele>258.283448</ele>
        <time>2026-07-13T12:40:20.000Z</time>
      </trkpt>
      <trkpt lat="46.24678" lon="13.58095">
        <ele>258.817586</ele>
        <time>2026-07-13T12:40:31.000Z</time>
      </trkpt>
      <trkpt lat="46.24681" lon="13.58092">
        <ele>258.994727</ele>
        <time>2026-07-13T12:40:35.000Z</time>
      </trkpt>
      <trkpt lat="46.24681" lon="13.58093">
        <ele>259.033266</ele>
        <time>2026-07-13T12:40:37.000Z</time>
      </trkpt>
      <trkpt lat="46.2467" lon="13.58093">
        <ele>259.554244</ele>
        <time>2026-07-13T12:40:46.000Z</time>
      </trkpt>
      <trkpt lat="46.2467" lon="13.58093">
        <ele>259.554244</ele>
        <time>2026-07-13T12:40:51.000Z</time>
      </trkpt>
      <trkpt lat="46.24653" lon="13.58091">
        <ele>260.347125</ele>
        <time>2026-07-13T12:40:52.000Z</time>
      </trkpt>
      <trkpt lat="46.24653" lon="13.58092">
        <ele>260.366777</ele>
        <time>2026-07-13T12:40:53.000Z</time>
      </trkpt>
      <trkpt lat="46.2464" lon="13.58096">
        <ele>260.977656</ele>
        <time>2026-07-13T12:41:02.000Z</time>
      </trkpt>
      <trkpt lat="46.24637" lon="13.58096">
        <ele>261.115041</ele>
        <time>2026-07-13T12:41:03.000Z</time>
      </trkpt>
      <trkpt lat="46.24627" lon="13.58095">
        <ele>261.62308</ele>
        <time>2026-07-13T12:41:10.000Z</time>
      </trkpt>
      <trkpt lat="46.24632" lon="13.58089">
        <ele>261.951232</ele>
        <time>2026-07-13T12:41:15.000Z</time>
      </trkpt>
      <trkpt lat="46.24659" lon="13.58085">
        <ele>263.19864</ele>
        <time>2026-07-13T12:41:23.000Z</time>
      </trkpt>
      <trkpt lat="46.24662" lon="13.58085">
        <ele>263.348389</ele>
        <time>2026-07-13T12:41:24.000Z</time>
      </trkpt>
      <trkpt lat="46.2467" lon="13.58084">
        <ele>263.766448</ele>
        <time>2026-07-13T12:41:26.000Z</time>
      </trkpt>
      <trkpt lat="46.2467" lon="13.58085">
        <ele>263.823954</ele>
        <time>2026-07-13T12:41:27.000Z</time>
      </trkpt>
      <trkpt lat="46.24673" lon="13.58086">
        <ele>263.899257</ele>
        <time>2026-07-13T12:41:30.000Z</time>
      </trkpt>
      <trkpt lat="46.24668" lon="13.58088">
        <ele>263.787941</ele>
        <time>2026-07-13T12:41:32.000Z</time>
      </trkpt>
      <trkpt lat="46.24665" lon="13.5809">
        <ele>263.728185</ele>
        <time>2026-07-13T12:41:34.000Z</time>
      </trkpt>
      <trkpt lat="46.2466" lon="13.5809">
        <ele>263.624551</ele>
        <time>2026-07-13T12:41:35.000Z</time>
      </trkpt>
      <trkpt lat="46.24646" lon="13.58092">
        <ele>263.344704</ele>
        <time>2026-07-13T12:41:39.000Z</time>
      </trkpt>
      <trkpt lat="46.24647" lon="13.58091">
        <ele>263.316999</ele>
        <time>2026-07-13T12:41:47.000Z</time>
      </trkpt>
      <trkpt lat="46.24642" lon="13.58092">
        <ele>263.220975</ele>
        <time>2026-07-13T12:41:49.000Z</time>
      </trkpt>
      <trkpt lat="46.2463" lon="13.58093">
        <ele>262.958143</ele>
        <time>2026-07-13T12:41:53.000Z</time>
      </trkpt>
      <trkpt lat="46.24623" lon="13.58092">
        <ele>262.815666</ele>
        <time>2026-07-13T12:41:55.000Z</time>
      </trkpt>
      <trkpt lat="46.24621" lon="13.58091">
        <ele>262.783983</ele>
        <time>2026-07-13T12:41:57.000Z</time>
      </trkpt>
      <trkpt lat="46.24625" lon="13.5809">
        <ele>262.703273</ele>
        <time>2026-07-13T12:41:59.000Z</time>
      </trkpt>
      <trkpt lat="46.24626" lon="13.58092">
        <ele>262.665768</ele>
        <time>2026-07-13T12:42:00.000Z</time>
      </trkpt>
      <trkpt lat="46.24627" lon="13.58093">
        <ele>262.636164</ele>
        <time>2026-07-13T12:42:01.000Z</time>
      </trkpt>
      <trkpt lat="46.24628" lon="13.58094">
        <ele>262.619605</ele>
        <time>2026-07-13T12:42:02.000Z</time>
      </trkpt>
      <trkpt lat="46.24629" lon="13.58095">
        <ele>262.595705</ele>
        <time>2026-07-13T12:42:05.000Z</time>
      </trkpt>
      <trkpt lat="46.2463" lon="13.58095">
        <ele>262.570995</ele>
        <time>2026-07-13T12:42:06.000Z</time>
      </trkpt>
      <trkpt lat="46.2463" lon="13.58095">
        <ele>262.562335</ele>
        <time>2026-07-13T12:42:08.000Z</time>
      </trkpt>
      <trkpt lat="46.24632" lon="13.58095">
        <ele>262.521152</ele>
        <time>2026-07-13T12:42:10.000Z</time>
      </trkpt>
      <trkpt lat="46.24639" lon="13.58095">
        <ele>262.379056</ele>
        <time>2026-07-13T12:42:24.000Z</time>
      </trkpt>
      <trkpt lat="46.24641" lon="13.58095">
        <ele>262.345137</ele>
        <time>2026-07-13T12:42:25.000Z</time>
      </trkpt>
      <trkpt lat="46.24651" lon="13.58094">
        <ele>262.144139</ele>
        <time>2026-07-13T12:42:28.000Z</time>
      </trkpt>
      <trkpt lat="46.24653" lon="13.58095">
        <ele>262.092137</ele>
        <time>2026-07-13T12:42:29.000Z</time>
      </trkpt>
      <trkpt lat="46.24657" lon="13.58096">
        <ele>262.006352</ele>
        <time>2026-07-13T12:42:37.000Z</time>
      </trkpt>
      <trkpt lat="46.24656" lon="13.58097">
        <ele>261.966569</ele>
        <time>2026-07-13T12:42:40.000Z</time>
      </trkpt>
      <trkpt lat="46.24656" lon="13.58098">
        <ele>261.946833</ele>
        <time>2026-07-13T12:42:41.000Z</time>
      </trkpt>
      <trkpt lat="46.24658" lon="13.58097">
        <ele>261.904015</ele>
        <time>2026-07-13T12:42:44.000Z</time>
      </trkpt>
      <trkpt lat="46.24657" lon="13.58096">
        <ele>261.869232</ele>
        <time>2026-07-13T12:42:47.000Z</time>
      </trkpt>
      <trkpt lat="46.24656" lon="13.58096">
        <ele>261.842817</ele>
        <time>2026-07-13T12:42:48.000Z</time>
      </trkpt>
      <trkpt lat="46.24655" lon="13.58096">
        <ele>261.820104</ele>
        <time>2026-07-13T12:42:49.000Z</time>
      </trkpt>
      <trkpt lat="46.24668" lon="13.58092">
        <ele>261.536514</ele>
        <time>2026-07-13T12:43:34.000Z</time>
      </trkpt>
      <trkpt lat="46.24669" lon="13.58093">
        <ele>261.530267</ele>
        <time>2026-07-13T12:43:35.000Z</time>
      </trkpt>
      <trkpt lat="46.24668" lon="13.58092">
        <ele>261.525973</ele>
        <time>2026-07-13T12:43:36.000Z</time>
      </trkpt>
      <trkpt lat="46.24669" lon="13.58102">
        <ele>261.386332</ele>
        <time>2026-07-13T12:48:30.000Z</time>
      </trkpt>
      <trkpt lat="46.24666" lon="13.58104">
        <ele>261.312866</ele>
        <time>2026-07-13T12:48:32.000Z</time>
      </trkpt>
      <trkpt lat="46.24663" lon="13.5811">
        <ele>261.218222</ele>
        <time>2026-07-13T12:48:34.000Z</time>
      </trkpt>
      <trkpt lat="46.24661" lon="13.58116">
        <ele>261.124346</ele>
        <time>2026-07-13T12:48:36.000Z</time>
      </trkpt>
      <trkpt lat="46.24658" lon="13.58121">
        <ele>261.02595</ele>
        <time>2026-07-13T12:48:38.000Z</time>
      </trkpt>
      <trkpt lat="46.24656" lon="13.58128">
        <ele>260.918374</ele>
        <time>2026-07-13T12:48:40.000Z</time>
      </trkpt>
      <trkpt lat="46.2465" lon="13.58147">
        <ele>260.632722</ele>
        <time>2026-07-13T12:48:45.000Z</time>
      </trkpt>
      <trkpt lat="46.24647" lon="13.58155">
        <ele>260.496312</ele>
        <time>2026-07-13T12:48:47.000Z</time>
      </trkpt>
      <trkpt lat="46.24645" lon="13.58159">
        <ele>260.431515</ele>
        <time>2026-07-13T12:48:48.000Z</time>
      </trkpt>
      <trkpt lat="46.2464" lon="13.58172">
        <ele>260.007279</ele>
        <time>2026-07-13T12:48:52.000Z</time>
      </trkpt>
      <trkpt lat="46.24628" lon="13.5821">
        <ele>256.939824</ele>
        <time>2026-07-13T12:49:02.000Z</time>
      </trkpt>
      <trkpt lat="46.2462" lon="13.58234">
        <ele>255.006705</ele>
        <time>2026-07-13T12:49:08.000Z</time>
      </trkpt>
      <trkpt lat="46.24619" lon="13.58237">
        <ele>254.762253</ele>
        <time>2026-07-13T12:49:09.000Z</time>
      </trkpt>
      <trkpt lat="46.2461" lon="13.58261">
        <ele>252.765589</ele>
        <time>2026-07-13T12:49:15.000Z</time>
      </trkpt>
      <trkpt lat="46.24607" lon="13.58281">
        <ele>251.290509</ele>
        <time>2026-07-13T12:49:20.000Z</time>
      </trkpt>
      <trkpt lat="46.24596" lon="13.58318">
        <ele>248.404523</ele>
        <time>2026-07-13T12:49:28.000Z</time>
      </trkpt>
      <trkpt lat="46.24588" lon="13.58343">
        <ele>246.377096</ele>
        <time>2026-07-13T12:49:35.000Z</time>
      </trkpt>
      <trkpt lat="46.24586" lon="13.58351">
        <ele>245.780896</ele>
        <time>2026-07-13T12:49:40.000Z</time>
      </trkpt>
      <trkpt lat="46.24586" lon="13.58358">
        <ele>245.258901</ele>
        <time>2026-07-13T12:50:03.000Z</time>
      </trkpt>
      <trkpt lat="46.24586" lon="13.5838">
        <ele>243.685668</ele>
        <time>2026-07-13T12:50:07.000Z</time>
      </trkpt>
      <trkpt lat="46.24586" lon="13.58409">
        <ele>241.545288</ele>
        <time>2026-07-13T12:50:12.000Z</time>
      </trkpt>
      <trkpt lat="46.24586" lon="13.58423">
        <ele>240.912749</ele>
        <time>2026-07-13T12:50:14.000Z</time>
      </trkpt>
      <trkpt lat="46.24588" lon="13.58437">
        <ele>240.271436</ele>
        <time>2026-07-13T12:50:16.000Z</time>
      </trkpt>
      <trkpt lat="46.246" lon="13.58488">
        <ele>237.911235</ele>
        <time>2026-07-13T12:50:22.000Z</time>
      </trkpt>
      <trkpt lat="46.24601" lon="13.58496">
        <ele>237.569188</ele>
        <time>2026-07-13T12:50:23.000Z</time>
      </trkpt>
      <trkpt lat="46.24604" lon="13.5852">
        <ele>236.513882</ele>
        <time>2026-07-13T12:50:26.000Z</time>
      </trkpt>
      <trkpt lat="46.24605" lon="13.58526">
        <ele>236.212486</ele>
        <time>2026-07-13T12:50:27.000Z</time>
      </trkpt>
      <trkpt lat="46.24608" lon="13.58536">
        <ele>235.74459</ele>
        <time>2026-07-13T12:50:28.000Z</time>
      </trkpt>
      <trkpt lat="46.24615" lon="13.5855">
        <ele>234.994007</ele>
        <time>2026-07-13T12:50:30.000Z</time>
      </trkpt>
      <trkpt lat="46.24619" lon="13.58557">
        <ele>234.563634</ele>
        <time>2026-07-13T12:50:31.000Z</time>
      </trkpt>
      <trkpt lat="46.24632" lon="13.58568">
        <ele>233.650625</ele>
        <time>2026-07-13T12:50:33.000Z</time>
      </trkpt>
      <trkpt lat="46.24665" lon="13.58586">
        <ele>231.390112</ele>
        <time>2026-07-13T12:50:38.000Z</time>
      </trkpt>
      <trkpt lat="46.247" lon="13.58595">
        <ele>229.39808</ele>
        <time>2026-07-13T12:50:42.000Z</time>
      </trkpt>
      <trkpt lat="46.24709" lon="13.58598">
        <ele>228.942522</ele>
        <time>2026-07-13T12:50:43.000Z</time>
      </trkpt>
      <trkpt lat="46.24756" lon="13.5862">
        <ele>226.532397</ele>
        <time>2026-07-13T12:50:48.000Z</time>
      </trkpt>
      <trkpt lat="46.24774" lon="13.58621">
        <ele>225.662245</ele>
        <time>2026-07-13T12:50:50.000Z</time>
      </trkpt>
      <trkpt lat="46.24779" lon="13.58619">
        <ele>225.397717</ele>
        <time>2026-07-13T12:50:51.000Z</time>
      </trkpt>
      <trkpt lat="46.24795" lon="13.58615">
        <ele>224.606142</ele>
        <time>2026-07-13T12:50:54.000Z</time>
      </trkpt>
      <trkpt lat="46.248" lon="13.58614">
        <ele>224.370006</ele>
        <time>2026-07-13T12:50:57.000Z</time>
      </trkpt>
      <trkpt lat="46.248" lon="13.58614">
        <ele>224.370006</ele>
        <time>2026-07-13T12:50:58.000Z</time>
      </trkpt>
      <trkpt lat="46.24804" lon="13.58609">
        <ele>224.08072</ele>
        <time>2026-07-13T12:52:29.000Z</time>
      </trkpt>
      <trkpt lat="46.24807" lon="13.58607">
        <ele>223.946129</ele>
        <time>2026-07-13T12:52:30.000Z</time>
      </trkpt>
      <trkpt lat="46.24824" lon="13.586">
        <ele>223.068226</ele>
        <time>2026-07-13T12:52:35.000Z</time>
      </trkpt>
      <trkpt lat="46.24828" lon="13.586">
        <ele>222.892791</ele>
        <time>2026-07-13T12:52:36.000Z</time>
      </trkpt>
      <trkpt lat="46.24836" lon="13.58606">
        <ele>222.441687</ele>
        <time>2026-07-13T12:52:39.000Z</time>
      </trkpt>
      <trkpt lat="46.24837" lon="13.58615">
        <ele>222.132408</ele>
        <time>2026-07-13T12:52:42.000Z</time>
      </trkpt>
      <trkpt lat="46.24837" lon="13.58616">
        <ele>222.108391</ele>
        <time>2026-07-13T12:52:44.000Z</time>
      </trkpt>
      <trkpt lat="46.24834" lon="13.58624">
        <ele>221.821533</ele>
        <time>2026-07-13T12:54:27.000Z</time>
      </trkpt>
      <trkpt lat="46.24832" lon="13.58636">
        <ele>221.396644</ele>
        <time>2026-07-13T12:54:31.000Z</time>
      </trkpt>
      <trkpt lat="46.24829" lon="13.58637">
        <ele>221.237496</ele>
        <time>2026-07-13T12:54:32.000Z</time>
      </trkpt>
      <trkpt lat="46.24814" lon="13.58643">
        <ele>220.365538</ele>
        <time>2026-07-13T12:54:36.000Z</time>
      </trkpt>
      <trkpt lat="46.24806" lon="13.5865">
        <ele>219.832537</ele>
        <time>2026-07-13T12:54:38.000Z</time>
      </trkpt>
      <trkpt lat="46.24798" lon="13.58662">
        <ele>219.187974</ele>
        <time>2026-07-13T12:54:40.000Z</time>
      </trkpt>
      <trkpt lat="46.24789" lon="13.58674">
        <ele>218.5107</ele>
        <time>2026-07-13T12:54:42.000Z</time>
      </trkpt>
      <trkpt lat="46.24779" lon="13.58687">
        <ele>217.771826</ele>
        <time>2026-07-13T12:54:44.000Z</time>
      </trkpt>
      <trkpt lat="46.24774" lon="13.58692">
        <ele>217.394307</ele>
        <time>2026-07-13T12:54:45.000Z</time>
      </trkpt>
      <trkpt lat="46.24752" lon="13.58719">
        <ele>215.806278</ele>
        <time>2026-07-13T12:54:49.000Z</time>
      </trkpt>
      <trkpt lat="46.24746" lon="13.58725">
        <ele>215.39588</ele>
        <time>2026-07-13T12:54:50.000Z</time>
      </trkpt>
      <trkpt lat="46.24725" lon="13.58738">
        <ele>214.113792</ele>
        <time>2026-07-13T12:54:53.000Z</time>
      </trkpt>
      <trkpt lat="46.24711" lon="13.58743">
        <ele>213.33942</ele>
        <time>2026-07-13T12:54:55.000Z</time>
      </trkpt>
      <trkpt lat="46.24686" lon="13.58748">
        <ele>211.899323</ele>
        <time>2026-07-13T12:54:59.000Z</time>
      </trkpt>
      <trkpt lat="46.24676" lon="13.58755">
        <ele>211.297038</ele>
        <time>2026-07-13T12:55:01.000Z</time>
      </trkpt>
      <trkpt lat="46.24672" lon="13.5876">
        <ele>211.297425</ele>
        <time>2026-07-13T12:55:02.000Z</time>
      </trkpt>
      <trkpt lat="46.24663" lon="13.58773">
        <ele>211.298476</ele>
        <time>2026-07-13T12:55:05.000Z</time>
      </trkpt>
      <trkpt lat="46.24658" lon="13.58783">
        <ele>211.299143</ele>
        <time>2026-07-13T12:55:07.000Z</time>
      </trkpt>
      <trkpt lat="46.24646" lon="13.58803">
        <ele>211.300588</ele>
        <time>2026-07-13T12:55:11.000Z</time>
      </trkpt>
      <trkpt lat="46.24643" lon="13.58807">
        <ele>211.30092</ele>
        <time>2026-07-13T12:55:12.000Z</time>
      </trkpt>
      <trkpt lat="46.24637" lon="13.58816">
        <ele>211.301636</ele>
        <time>2026-07-13T12:55:14.000Z</time>
      </trkpt>
      <trkpt lat="46.24628" lon="13.58829">
        <ele>211.302629</ele>
        <time>2026-07-13T12:55:18.000Z</time>
      </trkpt>
      <trkpt lat="46.24623" lon="13.58837">
        <ele>211.303244</ele>
        <time>2026-07-13T12:55:23.000Z</time>
      </trkpt>
      <trkpt lat="46.24622" lon="13.58839">
        <ele>211.303385</ele>
        <time>2026-07-13T12:55:24.000Z</time>
      </trkpt>
      <trkpt lat="46.24608" lon="13.58858">
        <ele>211.304856</ele>
        <time>2026-07-13T12:55:32.000Z</time>
      </trkpt>
      <trkpt lat="46.24589" lon="13.58876">
        <ele>211.306732</ele>
        <time>2026-07-13T12:55:40.000Z</time>
      </trkpt>
      <trkpt lat="46.24566" lon="13.58895">
        <ele>211.308794</ele>
        <time>2026-07-13T12:55:48.000Z</time>
      </trkpt>
      <trkpt lat="46.24545" lon="13.58912">
        <ele>211.310743</ele>
        <time>2026-07-13T12:55:55.000Z</time>
      </trkpt>
      <trkpt lat="46.24518" lon="13.58939">
        <ele>210.890284</ele>
        <time>2026-07-13T12:56:03.000Z</time>
      </trkpt>
      <trkpt lat="46.24483" lon="13.58977">
        <ele>210.159125</ele>
        <time>2026-07-13T12:56:12.000Z</time>
      </trkpt>
      <trkpt lat="46.24451" lon="13.59023">
        <ele>209.404851</ele>
        <time>2026-07-13T12:56:20.000Z</time>
      </trkpt>
      <trkpt lat="46.24427" lon="13.59076">
        <ele>208.667503</ele>
        <time>2026-07-13T12:56:28.000Z</time>
      </trkpt>
      <trkpt lat="46.24409" lon="13.59114">
        <ele>208.077215</ele>
        <time>2026-07-13T12:56:34.000Z</time>
      </trkpt>
      <trkpt lat="46.24406" lon="13.5912">
        <ele>207.960476</ele>
        <time>2026-07-13T12:56:35.000Z</time>
      </trkpt>
      <trkpt lat="46.24382" lon="13.59161">
        <ele>207.119894</ele>
        <time>2026-07-13T12:56:42.000Z</time>
      </trkpt>
      <trkpt lat="46.24354" lon="13.59197">
        <ele>206.275072</ele>
        <time>2026-07-13T12:56:48.000Z</time>
      </trkpt>
      <trkpt lat="46.24335" lon="13.59221">
        <ele>205.706346</ele>
        <time>2026-07-13T12:56:52.000Z</time>
      </trkpt>
      <trkpt lat="46.24331" lon="13.59227">
        <ele>205.57052</ele>
        <time>2026-07-13T12:56:53.000Z</time>
      </trkpt>
      <trkpt lat="46.24324" lon="13.5924">
        <ele>205.329185</ele>
        <time>2026-07-13T12:56:55.000Z</time>
      </trkpt>
      <trkpt lat="46.24301" lon="13.59289">
        <ele>204.403026</ele>
        <time>2026-07-13T12:57:02.000Z</time>
      </trkpt>
      <trkpt lat="46.24277" lon="13.59336">
        <ele>203.840433</ele>
        <time>2026-07-13T12:57:09.000Z</time>
      </trkpt>
      <trkpt lat="46.24273" lon="13.59344">
        <ele>203.763103</ele>
        <time>2026-07-13T12:57:10.000Z</time>
      </trkpt>
      <trkpt lat="46.2425" lon="13.59384">
        <ele>203.33582</ele>
        <time>2026-07-13T12:57:15.000Z</time>
      </trkpt>
      <trkpt lat="46.24231" lon="13.59436">
        <ele>202.852407</ele>
        <time>2026-07-13T12:57:21.000Z</time>
      </trkpt>
      <trkpt lat="46.24208" lon="13.59513">
        <ele>202.165843</ele>
        <time>2026-07-13T12:57:30.000Z</time>
      </trkpt>
      <trkpt lat="46.24206" lon="13.59519">
        <ele>202.108332</ele>
        <time>2026-07-13T12:57:31.000Z</time>
      </trkpt>
      <trkpt lat="46.24187" lon="13.59576">
        <ele>202.611452</ele>
        <time>2026-07-13T12:57:38.000Z</time>
      </trkpt>
      <trkpt lat="46.24163" lon="13.59637">
        <ele>203.187733</ele>
        <time>2026-07-13T12:57:46.000Z</time>
      </trkpt>
      <trkpt lat="46.24142" lon="13.5969">
        <ele>203.681763</ele>
        <time>2026-07-13T12:57:54.000Z</time>
      </trkpt>
      <trkpt lat="46.24138" lon="13.59711">
        <ele>203.860963</ele>
        <time>2026-07-13T12:57:57.000Z</time>
      </trkpt>
      <trkpt lat="46.24136" lon="13.59731">
        <ele>204.022596</ele>
        <time>2026-07-13T12:58:00.000Z</time>
      </trkpt>
      <trkpt lat="46.24136" lon="13.5976">
        <ele>204.374734</ele>
        <time>2026-07-13T12:58:05.000Z</time>
      </trkpt>
      <trkpt lat="46.24136" lon="13.59796">
        <ele>205.449844</ele>
        <time>2026-07-13T12:58:12.000Z</time>
      </trkpt>
      <trkpt lat="46.24135" lon="13.59832">
        <ele>206.568375</ele>
        <time>2026-07-13T12:58:20.000Z</time>
      </trkpt>
      <trkpt lat="46.24134" lon="13.59836">
        <ele>206.675237</ele>
        <time>2026-07-13T12:58:21.000Z</time>
      </trkpt>
      <trkpt lat="46.24133" lon="13.59845">
        <ele>206.957361</ele>
        <time>2026-07-13T12:58:23.000Z</time>
      </trkpt>
      <trkpt lat="46.24131" lon="13.59873">
        <ele>207.83886</ele>
        <time>2026-07-13T12:58:29.000Z</time>
      </trkpt>
      <trkpt lat="46.24121" lon="13.59924">
        <ele>209.440342</ele>
        <time>2026-07-13T12:58:39.000Z</time>
      </trkpt>
      <trkpt lat="46.24118" lon="13.59951">
        <ele>210.276862</ele>
        <time>2026-07-13T12:58:44.000Z</time>
      </trkpt>
      <trkpt lat="46.24116" lon="13.59967">
        <ele>210.762257</ele>
        <time>2026-07-13T12:58:47.000Z</time>
      </trkpt>
      <trkpt lat="46.24113" lon="13.60014">
        <ele>212.149098</ele>
        <time>2026-07-13T12:58:56.000Z</time>
      </trkpt>
      <trkpt lat="46.24109" lon="13.60048">
        <ele>212.326158</ele>
        <time>2026-07-13T12:59:02.000Z</time>
      </trkpt>
      <trkpt lat="46.24092" lon="13.60083">
        <ele>212.544761</ele>
        <time>2026-07-13T12:59:10.000Z</time>
      </trkpt>
      <trkpt lat="46.24072" lon="13.60107">
        <ele>212.738291</ele>
        <time>2026-07-13T12:59:17.000Z</time>
      </trkpt>
      <trkpt lat="46.24055" lon="13.60136">
        <ele>212.93691</ele>
        <time>2026-07-13T12:59:24.000Z</time>
      </trkpt>
      <trkpt lat="46.24051" lon="13.60147">
        <ele>213.000501</ele>
        <time>2026-07-13T12:59:26.000Z</time>
      </trkpt>
      <trkpt lat="46.24046" lon="13.60169">
        <ele>213.119553</ele>
        <time>2026-07-13T12:59:29.000Z</time>
      </trkpt>
      <trkpt lat="46.24034" lon="13.60224">
        <ele>213.416857</ele>
        <time>2026-07-13T12:59:35.000Z</time>
      </trkpt>
      <trkpt lat="46.24031" lon="13.60233">
        <ele>213.470818</ele>
        <time>2026-07-13T12:59:36.000Z</time>
      </trkpt>
      <trkpt lat="46.24023" lon="13.60251">
        <ele>213.133732</ele>
        <time>2026-07-13T12:59:38.000Z</time>
      </trkpt>
      <trkpt lat="46.24019" lon="13.6026">
        <ele>212.948573</ele>
        <time>2026-07-13T12:59:39.000Z</time>
      </trkpt>
      <trkpt lat="46.2398" lon="13.60323">
        <ele>211.464727</ele>
        <time>2026-07-13T12:59:47.000Z</time>
      </trkpt>
      <trkpt lat="46.23976" lon="13.60331">
        <ele>211.277423</ele>
        <time>2026-07-13T12:59:48.000Z</time>
      </trkpt>
      <trkpt lat="46.23952" lon="13.60374">
        <ele>210.322721</ele>
        <time>2026-07-13T12:59:53.000Z</time>
      </trkpt>
      <trkpt lat="46.23933" lon="13.60402">
        <ele>209.620466</ele>
        <time>2026-07-13T12:59:57.000Z</time>
      </trkpt>
      <trkpt lat="46.23909" lon="13.6043">
        <ele>208.887233</ele>
        <time>2026-07-13T13:00:02.000Z</time>
      </trkpt>
      <trkpt lat="46.23897" lon="13.60447">
        <ele>208.784894</ele>
        <time>2026-07-13T13:00:05.000Z</time>
      </trkpt>
      <trkpt lat="46.23884" lon="13.60462">
        <ele>208.683284</ele>
        <time>2026-07-13T13:00:08.000Z</time>
      </trkpt>
      <trkpt lat="46.23853" lon="13.60501">
        <ele>208.427189</ele>
        <time>2026-07-13T13:00:16.000Z</time>
      </trkpt>
      <trkpt lat="46.2384" lon="13.60525">
        <ele>208.295359</ele>
        <time>2026-07-13T13:00:20.000Z</time>
      </trkpt>
      <trkpt lat="46.23833" lon="13.60539">
        <ele>208.22358</ele>
        <time>2026-07-13T13:00:22.000Z</time>
      </trkpt>
      <trkpt lat="46.23815" lon="13.60564">
        <ele>208.065446</ele>
        <time>2026-07-13T13:00:27.000Z</time>
      </trkpt>
      <trkpt lat="46.23811" lon="13.60567">
        <ele>208.040228</ele>
        <time>2026-07-13T13:00:28.000Z</time>
      </trkpt>
      <trkpt lat="46.23806" lon="13.60572">
        <ele>208.001269</ele>
        <time>2026-07-13T13:00:29.000Z</time>
      </trkpt>
      <trkpt lat="46.23788" lon="13.60585">
        <ele>207.876948</ele>
        <time>2026-07-13T13:00:33.000Z</time>
      </trkpt>
      <trkpt lat="46.2377" lon="13.60596">
        <ele>207.656234</ele>
        <time>2026-07-13T13:00:36.000Z</time>
      </trkpt>
      <trkpt lat="46.23759" lon="13.606">
        <ele>207.349713</ele>
        <time>2026-07-13T13:00:38.000Z</time>
      </trkpt>
      <trkpt lat="46.23738" lon="13.60598">
        <ele>206.798165</ele>
        <time>2026-07-13T13:00:41.000Z</time>
      </trkpt>
      <trkpt lat="46.23728" lon="13.60597">
        <ele>206.551226</ele>
        <time>2026-07-13T13:00:42.000Z</time>
      </trkpt>
      <trkpt lat="46.23711" lon="13.60603">
        <ele>206.097964</ele>
        <time>2026-07-13T13:00:44.000Z</time>
      </trkpt>
      <trkpt lat="46.23702" lon="13.60606">
        <ele>205.861124</ele>
        <time>2026-07-13T13:00:45.000Z</time>
      </trkpt>
      <trkpt lat="46.23675" lon="13.60609">
        <ele>205.148067</ele>
        <time>2026-07-13T13:00:48.000Z</time>
      </trkpt>
      <trkpt lat="46.2366" lon="13.60609">
        <ele>204.753567</ele>
        <time>2026-07-13T13:00:50.000Z</time>
      </trkpt>
      <trkpt lat="46.23645" lon="13.60604">
        <ele>204.347823</ele>
        <time>2026-07-13T13:00:52.000Z</time>
      </trkpt>
      <trkpt lat="46.2363" lon="13.60592">
        <ele>203.927725</ele>
        <time>2026-07-13T13:00:54.000Z</time>
      </trkpt>
      <trkpt lat="46.23613" lon="13.60573">
        <ele>203.358805</ele>
        <time>2026-07-13T13:00:57.000Z</time>
      </trkpt>
      <trkpt lat="46.23587" lon="13.60549">
        <ele>202.41647</ele>
        <time>2026-07-13T13:01:01.000Z</time>
      </trkpt>
      <trkpt lat="46.2358" lon="13.60544">
        <ele>202.180715</ele>
        <time>2026-07-13T13:01:02.000Z</time>
      </trkpt>
      <trkpt lat="46.23556" lon="13.60524">
        <ele>201.295923</ele>
        <time>2026-07-13T13:01:06.000Z</time>
      </trkpt>
      <trkpt lat="46.2355" lon="13.60522">
        <ele>201.089393</ele>
        <time>2026-07-13T13:01:07.000Z</time>
      </trkpt>
      <trkpt lat="46.23537" lon="13.60521">
        <ele>200.684919</ele>
        <time>2026-07-13T13:01:09.000Z</time>
      </trkpt>
      <trkpt lat="46.23518" lon="13.60522">
        <ele>200.079601</ele>
        <time>2026-07-13T13:01:12.000Z</time>
      </trkpt>
      <trkpt lat="46.23468" lon="13.60522">
        <ele>198.485019</ele>
        <time>2026-07-13T13:01:20.000Z</time>
      </trkpt>
      <trkpt lat="46.23436" lon="13.60523">
        <ele>197.440416</ele>
        <time>2026-07-13T13:01:25.000Z</time>
      </trkpt>
      <trkpt lat="46.23417" lon="13.6053">
        <ele>196.999306</ele>
        <time>2026-07-13T13:01:28.000Z</time>
      </trkpt>
      <trkpt lat="46.23411" lon="13.60534">
        <ele>196.859817</ele>
        <time>2026-07-13T13:01:29.000Z</time>
      </trkpt>
      <trkpt lat="46.23401" lon="13.60545">
        <ele>196.581205</ele>
        <time>2026-07-13T13:01:31.000Z</time>
      </trkpt>
      <trkpt lat="46.23396" lon="13.60553">
        <ele>196.407276</ele>
        <time>2026-07-13T13:01:32.000Z</time>
      </trkpt>
      <trkpt lat="46.23367" lon="13.60615">
        <ele>195.290574</ele>
        <time>2026-07-13T13:01:40.000Z</time>
      </trkpt>
      <trkpt lat="46.23344" lon="13.60661">
        <ele>194.441309</ele>
        <time>2026-07-13T13:01:46.000Z</time>
      </trkpt>
      <trkpt lat="46.23309" lon="13.6073">
        <ele>193.616578</ele>
        <time>2026-07-13T13:01:55.000Z</time>
      </trkpt>
      <trkpt lat="46.23301" lon="13.60745">
        <ele>193.763667</ele>
        <time>2026-07-13T13:01:57.000Z</time>
      </trkpt>
      <trkpt lat="46.23285" lon="13.60776">
        <ele>194.065564</ele>
        <time>2026-07-13T13:02:01.000Z</time>
      </trkpt>
      <trkpt lat="46.23272" lon="13.608">
        <ele>194.299108</ele>
        <time>2026-07-13T13:02:04.000Z</time>
      </trkpt>
      <trkpt lat="46.2326" lon="13.60825">
        <ele>194.536244</ele>
        <time>2026-07-13T13:02:07.000Z</time>
      </trkpt>
      <trkpt lat="46.23242" lon="13.60853">
        <ele>194.833321</ele>
        <time>2026-07-13T13:02:11.000Z</time>
      </trkpt>
      <trkpt lat="46.23214" lon="13.60881">
        <ele>195.217652</ele>
        <time>2026-07-13T13:02:16.000Z</time>
      </trkpt>
      <trkpt lat="46.23168" lon="13.60915">
        <ele>195.446948</ele>
        <time>2026-07-13T13:02:24.000Z</time>
      </trkpt>
      <trkpt lat="46.23127" lon="13.6095">
        <ele>195.389653</ele>
        <time>2026-07-13T13:02:32.000Z</time>
      </trkpt>
      <trkpt lat="46.2308" lon="13.60989">
        <ele>195.325752</ele>
        <time>2026-07-13T13:02:41.000Z</time>
      </trkpt>
      <trkpt lat="46.23061" lon="13.6101">
        <ele>195.297303</ele>
        <time>2026-07-13T13:02:45.000Z</time>
      </trkpt>
      <trkpt lat="46.2303" lon="13.61045">
        <ele>195.315018</ele>
        <time>2026-07-13T13:02:52.000Z</time>
      </trkpt>
      <trkpt lat="46.22986" lon="13.61091">
        <ele>195.51335</ele>
        <time>2026-07-13T13:03:02.000Z</time>
      </trkpt>
      <trkpt lat="46.22949" lon="13.61126">
        <ele>195.675119</ele>
        <time>2026-07-13T13:03:11.000Z</time>
      </trkpt>
      <trkpt lat="46.22925" lon="13.6115">
        <ele>195.77932</ele>
        <time>2026-07-13T13:03:17.000Z</time>
      </trkpt>
      <trkpt lat="46.22905" lon="13.61174">
        <ele>195.874858</ele>
        <time>2026-07-13T13:03:22.000Z</time>
      </trkpt>
      <trkpt lat="46.22892" lon="13.61187">
        <ele>195.943617</ele>
        <time>2026-07-13T13:03:25.000Z</time>
      </trkpt>
      <trkpt lat="46.22847" lon="13.61237">
        <ele>196.383224</ele>
        <time>2026-07-13T13:03:36.000Z</time>
      </trkpt>
      <trkpt lat="46.22839" lon="13.61245">
        <ele>196.46434</ele>
        <time>2026-07-13T13:03:38.000Z</time>
      </trkpt>
      <trkpt lat="46.22806" lon="13.6128">
        <ele>196.776227</ele>
        <time>2026-07-13T13:03:46.000Z</time>
      </trkpt>
      <trkpt lat="46.22767" lon="13.61318">
        <ele>197.140786</ele>
        <time>2026-07-13T13:03:55.000Z</time>
      </trkpt>
      <trkpt lat="46.22739" lon="13.6133">
        <ele>197.348691</ele>
        <time>2026-07-13T13:04:01.000Z</time>
      </trkpt>
      <trkpt lat="46.22723" lon="13.61331">
        <ele>197.415948</ele>
        <time>2026-07-13T13:04:04.000Z</time>
      </trkpt>
      <trkpt lat="46.22708" lon="13.6133">
        <ele>197.48595</ele>
        <time>2026-07-13T13:04:07.000Z</time>
      </trkpt>
      <trkpt lat="46.22664" lon="13.61323">
        <ele>197.679545</ele>
        <time>2026-07-13T13:04:15.000Z</time>
      </trkpt>
      <trkpt lat="46.2263" lon="13.61319">
        <ele>197.829131</ele>
        <time>2026-07-13T13:04:21.000Z</time>
      </trkpt>
      <trkpt lat="46.22625" lon="13.61318">
        <ele>197.853225</ele>
        <time>2026-07-13T13:04:22.000Z</time>
      </trkpt>
      <trkpt lat="46.2258" lon="13.61309">
        <ele>198.05286</ele>
        <time>2026-07-13T13:04:30.000Z</time>
      </trkpt>
      <trkpt lat="46.22557" lon="13.61306">
        <ele>197.916764</ele>
        <time>2026-07-13T13:04:34.000Z</time>
      </trkpt>
      <trkpt lat="46.22545" lon="13.61309">
        <ele>197.682947</ele>
        <time>2026-07-13T13:04:36.000Z</time>
      </trkpt>
      <trkpt lat="46.22534" lon="13.61316">
        <ele>197.440748</ele>
        <time>2026-07-13T13:04:38.000Z</time>
      </trkpt>
      <trkpt lat="46.22518" lon="13.6133">
        <ele>197.073437</ele>
        <time>2026-07-13T13:04:41.000Z</time>
      </trkpt>
      <trkpt lat="46.22481" lon="13.61355">
        <ele>196.279425</ele>
        <time>2026-07-13T13:04:48.000Z</time>
      </trkpt>
      <trkpt lat="46.22448" lon="13.61384">
        <ele>195.515594</ele>
        <time>2026-07-13T13:04:55.000Z</time>
      </trkpt>
      <trkpt lat="46.22433" lon="13.61396">
        <ele>195.180377</ele>
        <time>2026-07-13T13:04:58.000Z</time>
      </trkpt>
      <trkpt lat="46.22425" lon="13.61406">
        <ele>194.977061</ele>
        <time>2026-07-13T13:05:00.000Z</time>
      </trkpt>
      <trkpt lat="46.22395" lon="13.61431">
        <ele>195.069459</ele>
        <time>2026-07-13T13:05:07.000Z</time>
      </trkpt>
      <trkpt lat="46.22351" lon="13.61448">
        <ele>196.594927</ele>
        <time>2026-07-13T13:05:16.000Z</time>
      </trkpt>
      <trkpt lat="46.22336" lon="13.61452">
        <ele>197.083433</ele>
        <time>2026-07-13T13:05:19.000Z</time>
      </trkpt>
      <trkpt lat="46.22328" lon="13.61452">
        <ele>197.365896</ele>
        <time>2026-07-13T13:05:21.000Z</time>
      </trkpt>
      <trkpt lat="46.22309" lon="13.61455">
        <ele>198.002969</ele>
        <time>2026-07-13T13:05:26.000Z</time>
      </trkpt>
      <trkpt lat="46.22302" lon="13.61459">
        <ele>198.260122</ele>
        <time>2026-07-13T13:05:28.000Z</time>
      </trkpt>
      <trkpt lat="46.22294" lon="13.61465">
        <ele>198.542776</ele>
        <time>2026-07-13T13:05:30.000Z</time>
      </trkpt>
      <trkpt lat="46.22287" lon="13.61475">
        <ele>198.864282</ele>
        <time>2026-07-13T13:05:32.000Z</time>
      </trkpt>
      <trkpt lat="46.22284" lon="13.6148">
        <ele>199.010789</ele>
        <time>2026-07-13T13:05:33.000Z</time>
      </trkpt>
      <trkpt lat="46.22279" lon="13.61489">
        <ele>199.29912</ele>
        <time>2026-07-13T13:05:35.000Z</time>
      </trkpt>
      <trkpt lat="46.22273" lon="13.61507">
        <ele>199.746084</ele>
        <time>2026-07-13T13:05:38.000Z</time>
      </trkpt>
      <trkpt lat="46.22264" lon="13.6153">
        <ele>200.348733</ele>
        <time>2026-07-13T13:05:42.000Z</time>
      </trkpt>
      <trkpt lat="46.22257" lon="13.6154">
        <ele>200.577108</ele>
        <time>2026-07-13T13:05:44.000Z</time>
      </trkpt>
      <trkpt lat="46.22248" lon="13.61554">
        <ele>200.649006</ele>
        <time>2026-07-13T13:05:47.000Z</time>
      </trkpt>
      <trkpt lat="46.22236" lon="13.61575">
        <ele>200.748402</ele>
        <time>2026-07-13T13:05:51.000Z</time>
      </trkpt>
      <trkpt lat="46.22218" lon="13.61607">
        <ele>200.898156</ele>
        <time>2026-07-13T13:05:57.000Z</time>
      </trkpt>
      <trkpt lat="46.22197" lon="13.61634">
        <ele>201.042804</ele>
        <time>2026-07-13T13:06:03.000Z</time>
      </trkpt>
      <trkpt lat="46.22191" lon="13.61643">
        <ele>201.085682</ele>
        <time>2026-07-13T13:06:05.000Z</time>
      </trkpt>
      <trkpt lat="46.22171" lon="13.61674">
        <ele>201.240846</ele>
        <time>2026-07-13T13:06:11.000Z</time>
      </trkpt>
      <trkpt lat="46.22167" lon="13.61678">
        <ele>201.267079</ele>
        <time>2026-07-13T13:06:12.000Z</time>
      </trkpt>
      <trkpt lat="46.22143" lon="13.61691">
        <ele>201.399647</ele>
        <time>2026-07-13T13:06:17.000Z</time>
      </trkpt>
      <trkpt lat="46.22138" lon="13.61693">
        <ele>201.426656</ele>
        <time>2026-07-13T13:06:18.000Z</time>
      </trkpt>
      <trkpt lat="46.22121" lon="13.61694">
        <ele>201.454874</ele>
        <time>2026-07-13T13:06:21.000Z</time>
      </trkpt>
      <trkpt lat="46.22102" lon="13.61698">
        <ele>201.204521</ele>
        <time>2026-07-13T13:06:24.000Z</time>
      </trkpt>
      <trkpt lat="46.22089" lon="13.61703">
        <ele>201.027359</ele>
        <time>2026-07-13T13:06:26.000Z</time>
      </trkpt>
      <trkpt lat="46.22082" lon="13.61707">
        <ele>200.935456</ele>
        <time>2026-07-13T13:06:27.000Z</time>
      </trkpt>
      <trkpt lat="46.22075" lon="13.61709">
        <ele>200.843186</ele>
        <time>2026-07-13T13:06:28.000Z</time>
      </trkpt>
      <trkpt lat="46.22047" lon="13.61717">
        <ele>200.467016</ele>
        <time>2026-07-13T13:06:32.000Z</time>
      </trkpt>
      <trkpt lat="46.22026" lon="13.61725">
        <ele>200.184101</ele>
        <time>2026-07-13T13:06:35.000Z</time>
      </trkpt>
      <trkpt lat="46.22012" lon="13.61727">
        <ele>200.000639</ele>
        <time>2026-07-13T13:06:37.000Z</time>
      </trkpt>
      <trkpt lat="46.22005" lon="13.61727">
        <ele>199.909212</ele>
        <time>2026-07-13T13:06:38.000Z</time>
      </trkpt>
      <trkpt lat="46.21966" lon="13.61721">
        <ele>199.396215</ele>
        <time>2026-07-13T13:06:44.000Z</time>
      </trkpt>
      <trkpt lat="46.2196" lon="13.61721">
        <ele>199.313867</ele>
        <time>2026-07-13T13:06:45.000Z</time>
      </trkpt>
      <trkpt lat="46.21923" lon="13.61718">
        <ele>199.642766</ele>
        <time>2026-07-13T13:06:51.000Z</time>
      </trkpt>
      <trkpt lat="46.21911" lon="13.61717">
        <ele>199.885256</ele>
        <time>2026-07-13T13:06:53.000Z</time>
      </trkpt>
      <trkpt lat="46.21881" lon="13.61725">
        <ele>200.502063</ele>
        <time>2026-07-13T13:06:58.000Z</time>
      </trkpt>
      <trkpt lat="46.21852" lon="13.61747">
        <ele>201.155122</ele>
        <time>2026-07-13T13:07:04.000Z</time>
      </trkpt>
      <trkpt lat="46.21815" lon="13.61784">
        <ele>202.078823</ele>
        <time>2026-07-13T13:07:13.000Z</time>
      </trkpt>
      <trkpt lat="46.21784" lon="13.61813">
        <ele>202.789709</ele>
        <time>2026-07-13T13:07:20.000Z</time>
      </trkpt>
      <trkpt lat="46.21754" lon="13.61848">
        <ele>203.021175</ele>
        <time>2026-07-13T13:07:28.000Z</time>
      </trkpt>
      <trkpt lat="46.21728" lon="13.61883">
        <ele>203.225515</ele>
        <time>2026-07-13T13:07:35.000Z</time>
      </trkpt>
      <trkpt lat="46.21716" lon="13.61897">
        <ele>203.317335</ele>
        <time>2026-07-13T13:07:38.000Z</time>
      </trkpt>
      <trkpt lat="46.21696" lon="13.6192">
        <ele>203.468135</ele>
        <time>2026-07-13T13:07:44.000Z</time>
      </trkpt>
      <trkpt lat="46.21659" lon="13.61964">
        <ele>203.747276</ele>
        <time>2026-07-13T13:07:53.000Z</time>
      </trkpt>
      <trkpt lat="46.21625" lon="13.62013">
        <ele>203.838585</ele>
        <time>2026-07-13T13:08:02.000Z</time>
      </trkpt>
      <trkpt lat="46.21596" lon="13.62063">
        <ele>203.837635</ele>
        <time>2026-07-13T13:08:10.000Z</time>
      </trkpt>
      <trkpt lat="46.21567" lon="13.6211">
        <ele>203.836718</ele>
        <time>2026-07-13T13:08:18.000Z</time>
      </trkpt>
      <trkpt lat="46.21544" lon="13.62155">
        <ele>203.835908</ele>
        <time>2026-07-13T13:08:25.000Z</time>
      </trkpt>
      <trkpt lat="46.21538" lon="13.62168">
        <ele>203.835676</ele>
        <time>2026-07-13T13:08:27.000Z</time>
      </trkpt>
      <trkpt lat="46.21528" lon="13.62186">
        <ele>203.895888</ele>
        <time>2026-07-13T13:08:30.000Z</time>
      </trkpt>
      <trkpt lat="46.21525" lon="13.62193">
        <ele>203.94019</ele>
        <time>2026-07-13T13:08:31.000Z</time>
      </trkpt>
      <trkpt lat="46.21497" lon="13.62248">
        <ele>204.319298</ele>
        <time>2026-07-13T13:08:39.000Z</time>
      </trkpt>
      <trkpt lat="46.21476" lon="13.62288">
        <ele>204.604108</ele>
        <time>2026-07-13T13:08:45.000Z</time>
      </trkpt>
      <trkpt lat="46.21473" lon="13.62296">
        <ele>204.651328</ele>
        <time>2026-07-13T13:08:46.000Z</time>
      </trkpt>
      <trkpt lat="46.2147" lon="13.62303">
        <ele>204.697937</ele>
        <time>2026-07-13T13:08:47.000Z</time>
      </trkpt>
      <trkpt lat="46.21459" lon="13.62342">
        <ele>204.932796</ele>
        <time>2026-07-13T13:08:52.000Z</time>
      </trkpt>
      <trkpt lat="46.21432" lon="13.62416">
        <ele>205.113448</ele>
        <time>2026-07-13T13:09:02.000Z</time>
      </trkpt>
      <trkpt lat="46.21414" lon="13.62459">
        <ele>204.671293</ele>
        <time>2026-07-13T13:09:08.000Z</time>
      </trkpt>
      <trkpt lat="46.2139" lon="13.62507">
        <ele>204.152139</ele>
        <time>2026-07-13T13:09:15.000Z</time>
      </trkpt>
      <trkpt lat="46.21359" lon="13.62568">
        <ele>203.486963</ele>
        <time>2026-07-13T13:09:24.000Z</time>
      </trkpt>
      <trkpt lat="46.21336" lon="13.62608">
        <ele>203.024708</ele>
        <time>2026-07-13T13:09:30.000Z</time>
      </trkpt>
      <trkpt lat="46.21329" lon="13.6262">
        <ele>202.989042</ele>
        <time>2026-07-13T13:09:32.000Z</time>
      </trkpt>
      <trkpt lat="46.21323" lon="13.62632">
        <ele>202.974036</ele>
        <time>2026-07-13T13:09:34.000Z</time>
      </trkpt>
      <trkpt lat="46.2132" lon="13.62638">
        <ele>202.967078</ele>
        <time>2026-07-13T13:09:35.000Z</time>
      </trkpt>
      <trkpt lat="46.21315" lon="13.6265">
        <ele>202.95289</ele>
        <time>2026-07-13T13:09:37.000Z</time>
      </trkpt>
      <trkpt lat="46.2131" lon="13.62672">
        <ele>202.928587</ele>
        <time>2026-07-13T13:09:40.000Z</time>
      </trkpt>
      <trkpt lat="46.21291" lon="13.62738">
        <ele>202.855815</ele>
        <time>2026-07-13T13:09:48.000Z</time>
      </trkpt>
      <trkpt lat="46.21273" lon="13.62796">
        <ele>202.790835</ele>
        <time>2026-07-13T13:09:55.000Z</time>
      </trkpt>
      <trkpt lat="46.21264" lon="13.62836">
        <ele>202.74834</ele>
        <time>2026-07-13T13:10:00.000Z</time>
      </trkpt>
      <trkpt lat="46.21264" lon="13.62844">
        <ele>202.740702</ele>
        <time>2026-07-13T13:10:01.000Z</time>
      </trkpt>
      <trkpt lat="46.21265" lon="13.62851">
        <ele>202.856757</ele>
        <time>2026-07-13T13:10:02.000Z</time>
      </trkpt>
      <trkpt lat="46.21268" lon="13.6287">
        <ele>203.44044</ele>
        <time>2026-07-13T13:10:05.000Z</time>
      </trkpt>
      <trkpt lat="46.21272" lon="13.62883">
        <ele>203.887841</ele>
        <time>2026-07-13T13:10:07.000Z</time>
      </trkpt>
      <trkpt lat="46.21279" lon="13.62907">
        <ele>204.675088</ele>
        <time>2026-07-13T13:10:11.000Z</time>
      </trkpt>
      <trkpt lat="46.2129" lon="13.6295">
        <ele>206.059477</ele>
        <time>2026-07-13T13:10:18.000Z</time>
      </trkpt>
      <trkpt lat="46.21293" lon="13.62964">
        <ele>206.49642</ele>
        <time>2026-07-13T13:10:20.000Z</time>
      </trkpt>
      <trkpt lat="46.21298" lon="13.62985">
        <ele>207.173189</ele>
        <time>2026-07-13T13:10:23.000Z</time>
      </trkpt>
      <trkpt lat="46.21299" lon="13.62992">
        <ele>207.387036</ele>
        <time>2026-07-13T13:10:24.000Z</time>
      </trkpt>
      <trkpt lat="46.21303" lon="13.63029">
        <ele>208.50971</ele>
        <time>2026-07-13T13:10:29.000Z</time>
      </trkpt>
      <trkpt lat="46.21304" lon="13.63044">
        <ele>208.961059</ele>
        <time>2026-07-13T13:10:31.000Z</time>
      </trkpt>
      <trkpt lat="46.21307" lon="13.63112">
        <ele>210.498946</ele>
        <time>2026-07-13T13:10:40.000Z</time>
      </trkpt>
      <trkpt lat="46.21308" lon="13.63136">
        <ele>210.356171</ele>
        <time>2026-07-13T13:10:43.000Z</time>
      </trkpt>
      <trkpt lat="46.21309" lon="13.63168">
        <ele>210.160787</ele>
        <time>2026-07-13T13:10:47.000Z</time>
      </trkpt>
      <trkpt lat="46.21309" lon="13.63192">
        <ele>210.016982</ele>
        <time>2026-07-13T13:10:50.000Z</time>
      </trkpt>
      <trkpt lat="46.21308" lon="13.63217">
        <ele>209.872367</ele>
        <time>2026-07-13T13:10:53.000Z</time>
      </trkpt>
      <trkpt lat="46.21311" lon="13.6325">
        <ele>209.672109</ele>
        <time>2026-07-13T13:10:57.000Z</time>
      </trkpt>
      <trkpt lat="46.21316" lon="13.63265">
        <ele>209.568715</ele>
        <time>2026-07-13T13:10:59.000Z</time>
      </trkpt>
      <trkpt lat="46.21323" lon="13.63279">
        <ele>209.468633</ele>
        <time>2026-07-13T13:11:01.000Z</time>
      </trkpt>
      <trkpt lat="46.21335" lon="13.63296">
        <ele>209.319365</ele>
        <time>2026-07-13T13:11:04.000Z</time>
      </trkpt>
      <trkpt lat="46.21348" lon="13.63312">
        <ele>209.17095</ele>
        <time>2026-07-13T13:11:07.000Z</time>
      </trkpt>
      <trkpt lat="46.21352" lon="13.63318">
        <ele>209.119606</ele>
        <time>2026-07-13T13:11:08.000Z</time>
      </trkpt>
      <trkpt lat="46.21359" lon="13.63333">
        <ele>209.056801</ele>
        <time>2026-07-13T13:11:10.000Z</time>
      </trkpt>
      <trkpt lat="46.21361" lon="13.6335">
        <ele>209.242107</ele>
        <time>2026-07-13T13:11:12.000Z</time>
      </trkpt>
      <trkpt lat="46.2136" lon="13.63359">
        <ele>209.331068</ele>
        <time>2026-07-13T13:11:13.000Z</time>
      </trkpt>
      <trkpt lat="46.21356" lon="13.63365">
        <ele>209.415769</ele>
        <time>2026-07-13T13:11:14.000Z</time>
      </trkpt>
      <trkpt lat="46.21348" lon="13.63375">
        <ele>209.582104</ele>
        <time>2026-07-13T13:11:16.000Z</time>
      </trkpt>
      <trkpt lat="46.2134" lon="13.63386">
        <ele>209.74578</ele>
        <time>2026-07-13T13:11:18.000Z</time>
      </trkpt>
      <trkpt lat="46.21334" lon="13.63399">
        <ele>209.906569</ele>
        <time>2026-07-13T13:11:20.000Z</time>
      </trkpt>
      <trkpt lat="46.21331" lon="13.63414">
        <ele>210.06969</ele>
        <time>2026-07-13T13:11:22.000Z</time>
      </trkpt>
      <trkpt lat="46.2133" lon="13.63429">
        <ele>210.22402</ele>
        <time>2026-07-13T13:11:24.000Z</time>
      </trkpt>
      <trkpt lat="46.21339" lon="13.63473">
        <ele>210.694876</ele>
        <time>2026-07-13T13:11:30.000Z</time>
      </trkpt>
      <trkpt lat="46.21346" lon="13.63499">
        <ele>210.982432</ele>
        <time>2026-07-13T13:11:34.000Z</time>
      </trkpt>
      <trkpt lat="46.21355" lon="13.63529">
        <ele>211.325257</ele>
        <time>2026-07-13T13:11:39.000Z</time>
      </trkpt>
      <trkpt lat="46.21362" lon="13.63572">
        <ele>211.599398</ele>
        <time>2026-07-13T13:11:45.000Z</time>
      </trkpt>
      <trkpt lat="46.21363" lon="13.63581">
        <ele>211.426331</ele>
        <time>2026-07-13T13:11:46.000Z</time>
      </trkpt>
      <trkpt lat="46.21364" lon="13.63598">
        <ele>211.079998</ele>
        <time>2026-07-13T13:11:48.000Z</time>
      </trkpt>
      <trkpt lat="46.2136" lon="13.63626">
        <ele>210.539503</ele>
        <time>2026-07-13T13:11:51.000Z</time>
      </trkpt>
      <trkpt lat="46.2136" lon="13.63645">
        <ele>210.162702</ele>
        <time>2026-07-13T13:11:53.000Z</time>
      </trkpt>
      <trkpt lat="46.21363" lon="13.63665">
        <ele>209.76386</ele>
        <time>2026-07-13T13:11:55.000Z</time>
      </trkpt>
      <trkpt lat="46.21367" lon="13.6369">
        <ele>209.255181</ele>
        <time>2026-07-13T13:11:58.000Z</time>
      </trkpt>
      <trkpt lat="46.21371" lon="13.63704">
        <ele>208.955799</ele>
        <time>2026-07-13T13:12:00.000Z</time>
      </trkpt>
      <trkpt lat="46.21375" lon="13.63726">
        <ele>208.514034</ele>
        <time>2026-07-13T13:12:03.000Z</time>
      </trkpt>
      <trkpt lat="46.2137" lon="13.63754">
        <ele>207.947347</ele>
        <time>2026-07-13T13:12:07.000Z</time>
      </trkpt>
      <trkpt lat="46.21368" lon="13.63775">
        <ele>207.535979</ele>
        <time>2026-07-13T13:12:10.000Z</time>
      </trkpt>
      <trkpt lat="46.2137" lon="13.63789">
        <ele>207.245499</ele>
        <time>2026-07-13T13:12:12.000Z</time>
      </trkpt>
      <trkpt lat="46.21373" lon="13.63814">
        <ele>206.743791</ele>
        <time>2026-07-13T13:12:15.000Z</time>
      </trkpt>
      <trkpt lat="46.21375" lon="13.63823">
        <ele>206.610936</ele>
        <time>2026-07-13T13:12:16.000Z</time>
      </trkpt>
      <trkpt lat="46.21374" lon="13.63833">
        <ele>206.588164</ele>
        <time>2026-07-13T13:12:17.000Z</time>
      </trkpt>
      <trkpt lat="46.21373" lon="13.63861">
        <ele>206.517191</ele>
        <time>2026-07-13T13:12:20.000Z</time>
      </trkpt>
      <trkpt lat="46.2137" lon="13.63922">
        <ele>206.364927</ele>
        <time>2026-07-13T13:12:26.000Z</time>
      </trkpt>
      <trkpt lat="46.21368" lon="13.6393">
        <ele>206.343921</ele>
        <time>2026-07-13T13:12:27.000Z</time>
      </trkpt>
      <trkpt lat="46.21365" lon="13.63945">
        <ele>206.305125</ele>
        <time>2026-07-13T13:12:29.000Z</time>
      </trkpt>
      <trkpt lat="46.21362" lon="13.63957">
        <ele>206.272336</ele>
        <time>2026-07-13T13:12:31.000Z</time>
      </trkpt>
      <trkpt lat="46.2136" lon="13.63963">
        <ele>206.258032</ele>
        <time>2026-07-13T13:12:32.000Z</time>
      </trkpt>
      <trkpt lat="46.21357" lon="13.63972">
        <ele>206.231432</ele>
        <time>2026-07-13T13:12:34.000Z</time>
      </trkpt>
      <trkpt lat="46.21344" lon="13.64014">
        <ele>206.117436</ele>
        <time>2026-07-13T13:12:41.000Z</time>
      </trkpt>
      <trkpt lat="46.21339" lon="13.64029">
        <ele>206.07625</ele>
        <time>2026-07-13T13:12:43.000Z</time>
      </trkpt>
      <trkpt lat="46.21331" lon="13.64054">
        <ele>206.007353</ele>
        <time>2026-07-13T13:12:46.000Z</time>
      </trkpt>
      <trkpt lat="46.21313" lon="13.64107">
        <ele>205.675736</ele>
        <time>2026-07-13T13:12:52.000Z</time>
      </trkpt>
      <trkpt lat="46.21288" lon="13.64156">
        <ele>205.273633</ele>
        <time>2026-07-13T13:12:58.000Z</time>
      </trkpt>
      <trkpt lat="46.21279" lon="13.6419">
        <ele>205.032614</ele>
        <time>2026-07-13T13:13:02.000Z</time>
      </trkpt>
      <trkpt lat="46.21272" lon="13.6423">
        <ele>204.755994</ele>
        <time>2026-07-13T13:13:07.000Z</time>
      </trkpt>
      <trkpt lat="46.21262" lon="13.64313">
        <ele>204.21354</ele>
        <time>2026-07-13T13:13:16.000Z</time>
      </trkpt>
      <trkpt lat="46.21255" lon="13.64365">
        <ele>203.943617</ele>
        <time>2026-07-13T13:13:22.000Z</time>
      </trkpt>
      <trkpt lat="46.21242" lon="13.64419">
        <ele>203.654626</ele>
        <time>2026-07-13T13:13:29.000Z</time>
      </trkpt>
      <trkpt lat="46.21241" lon="13.64422">
        <ele>203.637124</ele>
        <time>2026-07-13T13:13:30.000Z</time>
      </trkpt>
      <trkpt lat="46.21241" lon="13.64424">
        <ele>203.624415</ele>
        <time>2026-07-13T13:13:33.000Z</time>
      </trkpt>
      <trkpt lat="46.21244" lon="13.64426">
        <ele>203.606482</ele>
        <time>2026-07-13T13:13:37.000Z</time>
      </trkpt>
      <trkpt lat="46.21247" lon="13.6442">
        <ele>203.567126</ele>
        <time>2026-07-13T13:13:40.000Z</time>
      </trkpt>
      <trkpt lat="46.21247" lon="13.64419">
        <ele>203.563283</ele>
        <time>2026-07-13T13:13:41.000Z</time>
      </trkpt>
      <trkpt lat="46.21247" lon="13.64416">
        <ele>203.548774</ele>
        <time>2026-07-13T13:17:38.000Z</time>
      </trkpt>
      <trkpt lat="46.21247" lon="13.64417">
        <ele>203.544648</ele>
        <time>2026-07-13T13:17:39.000Z</time>
      </trkpt>
      <trkpt lat="46.21243" lon="13.64421">
        <ele>203.512542</ele>
        <time>2026-07-13T13:17:52.000Z</time>
      </trkpt>
      <trkpt lat="46.21243" lon="13.64424">
        <ele>203.496155</ele>
        <time>2026-07-13T13:17:53.000Z</time>
      </trkpt>
      <trkpt lat="46.21243" lon="13.64427">
        <ele>203.47715</ele>
        <time>2026-07-13T13:17:54.000Z</time>
      </trkpt>
      <trkpt lat="46.21238" lon="13.64446">
        <ele>203.379787</ele>
        <time>2026-07-13T13:17:58.000Z</time>
      </trkpt>
      <trkpt lat="46.21237" lon="13.64452">
        <ele>203.345151</ele>
        <time>2026-07-13T13:17:59.000Z</time>
      </trkpt>
      <trkpt lat="46.21237" lon="13.64465">
        <ele>203.278655</ele>
        <time>2026-07-13T13:18:01.000Z</time>
      </trkpt>
      <trkpt lat="46.21237" lon="13.64472">
        <ele>203.245635</ele>
        <time>2026-07-13T13:18:02.000Z</time>
      </trkpt>
      <trkpt lat="46.21239" lon="13.64498">
        <ele>203.112373</ele>
        <time>2026-07-13T13:18:06.000Z</time>
      </trkpt>
      <trkpt lat="46.2124" lon="13.64518">
        <ele>203.010155</ele>
        <time>2026-07-13T13:18:09.000Z</time>
      </trkpt>
      <trkpt lat="46.21241" lon="13.64531">
        <ele>202.945181</ele>
        <time>2026-07-13T13:18:11.000Z</time>
      </trkpt>
      <trkpt lat="46.21235" lon="13.64557">
        <ele>202.715684</ele>
        <time>2026-07-13T13:18:15.000Z</time>
      </trkpt>
      <trkpt lat="46.21231" lon="13.64589">
        <ele>202.417565</ele>
        <time>2026-07-13T13:18:20.000Z</time>
      </trkpt>
      <trkpt lat="46.2123" lon="13.64601">
        <ele>202.307351</ele>
        <time>2026-07-13T13:18:22.000Z</time>
      </trkpt>
      <trkpt lat="46.21228" lon="13.64613">
        <ele>202.196963</ele>
        <time>2026-07-13T13:18:24.000Z</time>
      </trkpt>
      <trkpt lat="46.21225" lon="13.64629">
        <ele>202.050992</ele>
        <time>2026-07-13T13:18:27.000Z</time>
      </trkpt>
      <trkpt lat="46.21221" lon="13.64654">
        <ele>201.820458</ele>
        <time>2026-07-13T13:18:32.000Z</time>
      </trkpt>
      <trkpt lat="46.21215" lon="13.64674">
        <ele>201.622829</ele>
        <time>2026-07-13T13:18:36.000Z</time>
      </trkpt>
      <trkpt lat="46.21208" lon="13.64694">
        <ele>201.427685</ele>
        <time>2026-07-13T13:18:39.000Z</time>
      </trkpt>
      <trkpt lat="46.21205" lon="13.64708">
        <ele>201.288014</ele>
        <time>2026-07-13T13:18:41.000Z</time>
      </trkpt>
      <trkpt lat="46.21199" lon="13.64731">
        <ele>201.071088</ele>
        <time>2026-07-13T13:18:44.000Z</time>
      </trkpt>
      <trkpt lat="46.21198" lon="13.64739">
        <ele>200.995218</ele>
        <time>2026-07-13T13:18:45.000Z</time>
      </trkpt>
      <trkpt lat="46.21193" lon="13.64764">
        <ele>200.766987</ele>
        <time>2026-07-13T13:18:48.000Z</time>
      </trkpt>
      <trkpt lat="46.21187" lon="13.64779">
        <ele>200.603823</ele>
        <time>2026-07-13T13:18:50.000Z</time>
      </trkpt>
      <trkpt lat="46.21185" lon="13.64788">
        <ele>200.882249</ele>
        <time>2026-07-13T13:18:51.000Z</time>
      </trkpt>
      <trkpt lat="46.21184" lon="13.64796">
        <ele>201.183988</ele>
        <time>2026-07-13T13:18:52.000Z</time>
      </trkpt>
      <trkpt lat="46.2118" lon="13.64819">
        <ele>202.071928</ele>
        <time>2026-07-13T13:18:55.000Z</time>
      </trkpt>
      <trkpt lat="46.21178" lon="13.64826">
        <ele>202.359354</ele>
        <time>2026-07-13T13:18:56.000Z</time>
      </trkpt>
      <trkpt lat="46.21168" lon="13.64865">
        <ele>203.900455</ele>
        <time>2026-07-13T13:19:01.000Z</time>
      </trkpt>
      <trkpt lat="46.21166" lon="13.64887">
        <ele>204.725781</ele>
        <time>2026-07-13T13:19:04.000Z</time>
      </trkpt>
      <trkpt lat="46.2117" lon="13.64923">
        <ele>206.07322</ele>
        <time>2026-07-13T13:19:09.000Z</time>
      </trkpt>
      <trkpt lat="46.21177" lon="13.64954">
        <ele>207.263116</ele>
        <time>2026-07-13T13:19:14.000Z</time>
      </trkpt>
      <trkpt lat="46.21178" lon="13.6496">
        <ele>207.495688</ele>
        <time>2026-07-13T13:19:15.000Z</time>
      </trkpt>
      <trkpt lat="46.2118" lon="13.64966">
        <ele>207.717874</ele>
        <time>2026-07-13T13:19:16.000Z</time>
      </trkpt>
      <trkpt lat="46.21186" lon="13.64993">
        <ele>208.781004</ele>
        <time>2026-07-13T13:19:21.000Z</time>
      </trkpt>
      <trkpt lat="46.21195" lon="13.65055">
        <ele>210.407312</ele>
        <time>2026-07-13T13:19:32.000Z</time>
      </trkpt>
      <trkpt lat="46.21202" lon="13.65096">
        <ele>210.741937</ele>
        <time>2026-07-13T13:19:39.000Z</time>
      </trkpt>
      <trkpt lat="46.21204" lon="13.65107">
        <ele>210.833995</ele>
        <time>2026-07-13T13:19:41.000Z</time>
      </trkpt>
      <trkpt lat="46.21209" lon="13.65166">
        <ele>211.300521</ele>
        <time>2026-07-13T13:19:50.000Z</time>
      </trkpt>
      <trkpt lat="46.21212" lon="13.65222">
        <ele>211.742713</ele>
        <time>2026-07-13T13:19:58.000Z</time>
      </trkpt>
      <trkpt lat="46.21217" lon="13.65268">
        <ele>212.110725</ele>
        <time>2026-07-13T13:20:05.000Z</time>
      </trkpt>
      <trkpt lat="46.21222" lon="13.65324">
        <ele>211.793183</ele>
        <time>2026-07-13T13:20:13.000Z</time>
      </trkpt>
      <trkpt lat="46.21223" lon="13.65382">
        <ele>211.046574</ele>
        <time>2026-07-13T13:20:21.000Z</time>
      </trkpt>
      <trkpt lat="46.21224" lon="13.65431">
        <ele>210.414836</ele>
        <time>2026-07-13T13:20:27.000Z</time>
      </trkpt>
      <trkpt lat="46.21235" lon="13.65463">
        <ele>209.946204</ele>
        <time>2026-07-13T13:20:30.000Z</time>
      </trkpt>
      <trkpt lat="46.21247" lon="13.6552">
        <ele>209.177051</ele>
        <time>2026-07-13T13:20:34.000Z</time>
      </trkpt>
      <trkpt lat="46.21258" lon="13.65575">
        <ele>208.212627</ele>
        <time>2026-07-13T13:20:38.000Z</time>
      </trkpt>
      <trkpt lat="46.2127" lon="13.65592">
        <ele>207.738073</ele>
        <time>2026-07-13T13:20:40.000Z</time>
      </trkpt>
      <trkpt lat="46.21277" lon="13.65598">
        <ele>207.498452</ele>
        <time>2026-07-13T13:20:41.000Z</time>
      </trkpt>
      <trkpt lat="46.21291" lon="13.65606">
        <ele>207.080597</ele>
        <time>2026-07-13T13:20:43.000Z</time>
      </trkpt>
      <trkpt lat="46.21296" lon="13.65612">
        <ele>206.909121</ele>
        <time>2026-07-13T13:20:44.000Z</time>
      </trkpt>
      <trkpt lat="46.21298" lon="13.65619">
        <ele>206.758406</ele>
        <time>2026-07-13T13:20:45.000Z</time>
      </trkpt>
      <trkpt lat="46.21299" lon="13.65627">
        <ele>206.609201</ele>
        <time>2026-07-13T13:20:46.000Z</time>
      </trkpt>
      <trkpt lat="46.21298" lon="13.65634">
        <ele>206.460891</ele>
        <time>2026-07-13T13:20:47.000Z</time>
      </trkpt>
      <trkpt lat="46.21293" lon="13.65649">
        <ele>206.14784</ele>
        <time>2026-07-13T13:20:49.000Z</time>
      </trkpt>
      <trkpt lat="46.21286" lon="13.65658">
        <ele>205.878186</ele>
        <time>2026-07-13T13:20:51.000Z</time>
      </trkpt>
      <trkpt lat="46.21281" lon="13.6566">
        <ele>205.734525</ele>
        <time>2026-07-13T13:20:52.000Z</time>
      </trkpt>
      <trkpt lat="46.21275" lon="13.6566">
        <ele>205.586747</ele>
        <time>2026-07-13T13:20:53.000Z</time>
      </trkpt>
      <trkpt lat="46.21266" lon="13.6566">
        <ele>205.32456</ele>
        <time>2026-07-13T13:20:55.000Z</time>
      </trkpt>
      <trkpt lat="46.2125" lon="13.65662">
        <ele>204.874034</ele>
        <time>2026-07-13T13:21:00.000Z</time>
      </trkpt>
      <trkpt lat="46.21237" lon="13.65663">
        <ele>204.523807</ele>
        <time>2026-07-13T13:21:03.000Z</time>
      </trkpt>
      <trkpt lat="46.21229" lon="13.65668">
        <ele>204.281254</ele>
        <time>2026-07-13T13:21:05.000Z</time>
      </trkpt>
      <trkpt lat="46.21207" lon="13.65692">
        <ele>204.400025</ele>
        <time>2026-07-13T13:21:12.000Z</time>
      </trkpt>
      <trkpt lat="46.21189" lon="13.6572">
        <ele>205.37203</ele>
        <time>2026-07-13T13:21:19.000Z</time>
      </trkpt>
      <trkpt lat="46.21182" lon="13.65742">
        <ele>205.994649</ele>
        <time>2026-07-13T13:21:23.000Z</time>
      </trkpt>
      <trkpt lat="46.21179" lon="13.65754">
        <ele>206.29525</ele>
        <time>2026-07-13T13:21:25.000Z</time>
      </trkpt>
      <trkpt lat="46.21173" lon="13.65778">
        <ele>206.943468</ele>
        <time>2026-07-13T13:21:29.000Z</time>
      </trkpt>
      <trkpt lat="46.21163" lon="13.65816">
        <ele>207.963937</ele>
        <time>2026-07-13T13:21:35.000Z</time>
      </trkpt>
      <trkpt lat="46.21151" lon="13.65855">
        <ele>209.042489</ele>
        <time>2026-07-13T13:21:42.000Z</time>
      </trkpt>
      <trkpt lat="46.21149" lon="13.65861">
        <ele>209.201719</ele>
        <time>2026-07-13T13:21:43.000Z</time>
      </trkpt>
      <trkpt lat="46.21147" lon="13.65865">
        <ele>209.323615</ele>
        <time>2026-07-13T13:21:44.000Z</time>
      </trkpt>
      <trkpt lat="46.21133" lon="13.65881">
        <ele>209.972403</ele>
        <time>2026-07-13T13:21:48.000Z</time>
      </trkpt>
      <trkpt lat="46.21123" lon="13.65894">
        <ele>210.423465</ele>
        <time>2026-07-13T13:21:51.000Z</time>
      </trkpt>
      <trkpt lat="46.21115" lon="13.65908">
        <ele>210.330072</ele>
        <time>2026-07-13T13:21:54.000Z</time>
      </trkpt>
      <trkpt lat="46.2111" lon="13.65919">
        <ele>210.262619</ele>
        <time>2026-07-13T13:21:56.000Z</time>
      </trkpt>
      <trkpt lat="46.21106" lon="13.65932">
        <ele>210.191471</ele>
        <time>2026-07-13T13:21:58.000Z</time>
      </trkpt>
      <trkpt lat="46.21101" lon="13.65956">
        <ele>210.069725</ele>
        <time>2026-07-13T13:22:01.000Z</time>
      </trkpt>
      <trkpt lat="46.2109" lon="13.66027">
        <ele>209.707875</ele>
        <time>2026-07-13T13:22:09.000Z</time>
      </trkpt>
      <trkpt lat="46.21085" lon="13.66077">
        <ele>209.458422</ele>
        <time>2026-07-13T13:22:14.000Z</time>
      </trkpt>
      <trkpt lat="46.21084" lon="13.66087">
        <ele>209.406665</ele>
        <time>2026-07-13T13:22:15.000Z</time>
      </trkpt>
      <trkpt lat="46.21084" lon="13.66166">
        <ele>208.660197</ele>
        <time>2026-07-13T13:22:22.000Z</time>
      </trkpt>
      <trkpt lat="46.21091" lon="13.66221">
        <ele>207.603328</ele>
        <time>2026-07-13T13:22:27.000Z</time>
      </trkpt>
      <trkpt lat="46.21107" lon="13.66299">
        <ele>206.056092</ele>
        <time>2026-07-13T13:22:34.000Z</time>
      </trkpt>
      <trkpt lat="46.2111" lon="13.6631">
        <ele>205.827565</ele>
        <time>2026-07-13T13:22:35.000Z</time>
      </trkpt>
      <trkpt lat="46.21117" lon="13.66371">
        <ele>204.643944</ele>
        <time>2026-07-13T13:22:40.000Z</time>
      </trkpt>
      <trkpt lat="46.21119" lon="13.66392">
        <ele>204.246318</ele>
        <time>2026-07-13T13:22:42.000Z</time>
      </trkpt>
      <trkpt lat="46.21123" lon="13.66481">
        <ele>202.172419</ele>
        <time>2026-07-13T13:22:49.000Z</time>
      </trkpt>
      <trkpt lat="46.21123" lon="13.66548">
        <ele>200.613592</ele>
        <time>2026-07-13T13:22:54.000Z</time>
      </trkpt>
      <trkpt lat="46.21123" lon="13.66575">
        <ele>199.981995</ele>
        <time>2026-07-13T13:22:56.000Z</time>
      </trkpt>
      <trkpt lat="46.21121" lon="13.66654">
        <ele>198.156296</ele>
        <time>2026-07-13T13:23:02.000Z</time>
      </trkpt>
      <trkpt lat="46.2112" lon="13.66665">
        <ele>197.860368</ele>
        <time>2026-07-13T13:23:03.000Z</time>
      </trkpt>
      <trkpt lat="46.21107" lon="13.66719">
        <ele>196.401597</ele>
        <time>2026-07-13T13:23:08.000Z</time>
      </trkpt>
      <trkpt lat="46.21076" lon="13.66798">
        <ele>194.105343</ele>
        <time>2026-07-13T13:23:14.000Z</time>
      </trkpt>
      <trkpt lat="46.21047" lon="13.66868">
        <ele>192.006615</ele>
        <time>2026-07-13T13:23:21.000Z</time>
      </trkpt>
      <trkpt lat="46.21037" lon="13.66892">
        <ele>191.307361</ele>
        <time>2026-07-13T13:23:23.000Z</time>
      </trkpt>
      <trkpt lat="46.21009" lon="13.66962">
        <ele>189.408889</ele>
        <time>2026-07-13T13:23:29.000Z</time>
      </trkpt>
      <trkpt lat="46.21005" lon="13.66972">
        <ele>189.124001</ele>
        <time>2026-07-13T13:23:30.000Z</time>
      </trkpt>
      <trkpt lat="46.20985" lon="13.67021">
        <ele>187.780984</ele>
        <time>2026-07-13T13:23:35.000Z</time>
      </trkpt>
      <trkpt lat="46.20982" lon="13.67033">
        <ele>187.484627</ele>
        <time>2026-07-13T13:23:36.000Z</time>
      </trkpt>
      <trkpt lat="46.20983" lon="13.6704">
        <ele>187.296913</ele>
        <time>2026-07-13T13:23:37.000Z</time>
      </trkpt>
      <trkpt lat="46.20987" lon="13.67062">
        <ele>186.768535</ele>
        <time>2026-07-13T13:23:39.000Z</time>
      </trkpt>
      <trkpt lat="46.21004" lon="13.67103">
        <ele>185.633972</ele>
        <time>2026-07-13T13:23:44.000Z</time>
      </trkpt>
      <trkpt lat="46.21011" lon="13.67126">
        <ele>185.015321</ele>
        <time>2026-07-13T13:23:47.000Z</time>
      </trkpt>
      <trkpt lat="46.21012" lon="13.67134">
        <ele>184.798299</ele>
        <time>2026-07-13T13:23:48.000Z</time>
      </trkpt>
      <trkpt lat="46.21015" lon="13.67174">
        <ele>183.737572</ele>
        <time>2026-07-13T13:23:53.000Z</time>
      </trkpt>
      <trkpt lat="46.21015" lon="13.67183">
        <ele>183.495087</ele>
        <time>2026-07-13T13:23:54.000Z</time>
      </trkpt>
      <trkpt lat="46.21011" lon="13.67213">
        <ele>182.706722</ele>
        <time>2026-07-13T13:23:58.000Z</time>
      </trkpt>
      <trkpt lat="46.21001" lon="13.67245">
        <ele>181.794054</ele>
        <time>2026-07-13T13:24:02.000Z</time>
      </trkpt>
      <trkpt lat="46.20997" lon="13.67262">
        <ele>181.317173</ele>
        <time>2026-07-13T13:24:04.000Z</time>
      </trkpt>
      <trkpt lat="46.20996" lon="13.67271">
        <ele>181.080051</ele>
        <time>2026-07-13T13:24:05.000Z</time>
      </trkpt>
      <trkpt lat="46.20994" lon="13.6729">
        <ele>180.585936</ele>
        <time>2026-07-13T13:24:07.000Z</time>
      </trkpt>
      <trkpt lat="46.20992" lon="13.673">
        <ele>180.326728</ele>
        <time>2026-07-13T13:24:08.000Z</time>
      </trkpt>
      <trkpt lat="46.20987" lon="13.67324">
        <ele>179.672106</ele>
        <time>2026-07-13T13:24:11.000Z</time>
      </trkpt>
      <trkpt lat="46.20984" lon="13.67338">
        <ele>179.272695</ele>
        <time>2026-07-13T13:24:13.000Z</time>
      </trkpt>
      <trkpt lat="46.20981" lon="13.67353">
        <ele>178.879844</ele>
        <time>2026-07-13T13:24:15.000Z</time>
      </trkpt>
      <trkpt lat="46.20979" lon="13.67368">
        <ele>178.51543</ele>
        <time>2026-07-13T13:24:17.000Z</time>
      </trkpt>
      <trkpt lat="46.20978" lon="13.67385">
        <ele>178.232319</ele>
        <time>2026-07-13T13:24:19.000Z</time>
      </trkpt>
      <trkpt lat="46.20977" lon="13.67391">
        <ele>178.129532</ele>
        <time>2026-07-13T13:24:20.000Z</time>
      </trkpt>
      <trkpt lat="46.20969" lon="13.67413">
        <ele>177.731211</ele>
        <time>2026-07-13T13:24:23.000Z</time>
      </trkpt>
      <trkpt lat="46.20945" lon="13.67465">
        <ele>176.717094</ele>
        <time>2026-07-13T13:24:30.000Z</time>
      </trkpt>
      <trkpt lat="46.20938" lon="13.67483">
        <ele>176.385772</ele>
        <time>2026-07-13T13:24:32.000Z</time>
      </trkpt>
      <trkpt lat="46.2093" lon="13.67509">
        <ele>175.920573</ele>
        <time>2026-07-13T13:24:35.000Z</time>
      </trkpt>
      <trkpt lat="46.20917" lon="13.67555">
        <ele>175.101781</ele>
        <time>2026-07-13T13:24:40.000Z</time>
      </trkpt>
      <trkpt lat="46.20911" lon="13.67579">
        <ele>174.695425</ele>
        <time>2026-07-13T13:24:43.000Z</time>
      </trkpt>
      <trkpt lat="46.20911" lon="13.67588">
        <ele>174.556792</ele>
        <time>2026-07-13T13:24:44.000Z</time>
      </trkpt>
      <trkpt lat="46.20908" lon="13.67612">
        <ele>174.676899</ele>
        <time>2026-07-13T13:24:48.000Z</time>
      </trkpt>
      <trkpt lat="46.20908" lon="13.67619">
        <ele>174.887745</ele>
        <time>2026-07-13T13:24:49.000Z</time>
      </trkpt>
      <trkpt lat="46.20907" lon="13.67637">
        <ele>175.388906</ele>
        <time>2026-07-13T13:24:52.000Z</time>
      </trkpt>
      <trkpt lat="46.20906" lon="13.67647">
        <ele>175.672037</ele>
        <time>2026-07-13T13:24:54.000Z</time>
      </trkpt>
      <trkpt lat="46.20898" lon="13.67685">
        <ele>176.814214</ele>
        <time>2026-07-13T13:25:01.000Z</time>
      </trkpt>
      <trkpt lat="46.20891" lon="13.6771">
        <ele>177.558603</ele>
        <time>2026-07-13T13:25:06.000Z</time>
      </trkpt>
      <trkpt lat="46.20889" lon="13.6772">
        <ele>177.872974</ele>
        <time>2026-07-13T13:25:08.000Z</time>
      </trkpt>
      <trkpt lat="46.20885" lon="13.67729">
        <ele>178.1741</ele>
        <time>2026-07-13T13:25:10.000Z</time>
      </trkpt>
      <trkpt lat="46.20879" lon="13.67745">
        <ele>178.668918</ele>
        <time>2026-07-13T13:25:13.000Z</time>
      </trkpt>
      <trkpt lat="46.20876" lon="13.67752">
        <ele>178.908889</ele>
        <time>2026-07-13T13:25:15.000Z</time>
      </trkpt>
      <trkpt lat="46.20869" lon="13.67766">
        <ele>179.401376</ele>
        <time>2026-07-13T13:25:19.000Z</time>
      </trkpt>
      <trkpt lat="46.20865" lon="13.67772">
        <ele>179.637878</ele>
        <time>2026-07-13T13:25:21.000Z</time>
      </trkpt>
      <trkpt lat="46.20852" lon="13.67794">
        <ele>180.431671</ele>
        <time>2026-07-13T13:25:28.000Z</time>
      </trkpt>
      <trkpt lat="46.2085" lon="13.67797">
        <ele>180.549555</ele>
        <time>2026-07-13T13:25:29.000Z</time>
      </trkpt>
      <trkpt lat="46.2083" lon="13.67832">
        <ele>181.893664</ele>
        <time>2026-07-13T13:25:40.000Z</time>
      </trkpt>
      <trkpt lat="46.20815" lon="13.67862">
        <ele>183.395718</ele>
        <time>2026-07-13T13:25:49.000Z</time>
      </trkpt>
      <trkpt lat="46.20807" lon="13.67885">
        <ele>184.429237</ele>
        <time>2026-07-13T13:25:56.000Z</time>
      </trkpt>
      <trkpt lat="46.20798" lon="13.67908">
        <ele>185.466314</ele>
        <time>2026-07-13T13:26:03.000Z</time>
      </trkpt>
      <trkpt lat="46.20787" lon="13.67933">
        <ele>186.632434</ele>
        <time>2026-07-13T13:26:11.000Z</time>
      </trkpt>
      <trkpt lat="46.20773" lon="13.6796">
        <ele>187.986879</ele>
        <time>2026-07-13T13:26:20.000Z</time>
      </trkpt>
      <trkpt lat="46.20764" lon="13.67985">
        <ele>189.115008</ele>
        <time>2026-07-13T13:26:28.000Z</time>
      </trkpt>
      <trkpt lat="46.20759" lon="13.68018">
        <ele>190.439206</ele>
        <time>2026-07-13T13:26:37.000Z</time>
      </trkpt>
      <trkpt lat="46.20757" lon="13.68049">
        <ele>191.672557</ele>
        <time>2026-07-13T13:26:45.000Z</time>
      </trkpt>
      <trkpt lat="46.20751" lon="13.68077">
        <ele>192.053018</ele>
        <time>2026-07-13T13:26:53.000Z</time>
      </trkpt>
      <trkpt lat="46.20745" lon="13.68108">
        <ele>192.072433</ele>
        <time>2026-07-13T13:26:59.000Z</time>
      </trkpt>
      <trkpt lat="46.20736" lon="13.6815">
        <ele>192.098728</ele>
        <time>2026-07-13T13:27:04.000Z</time>
      </trkpt>
      <trkpt lat="46.20729" lon="13.68202">
        <ele>192.130652</ele>
        <time>2026-07-13T13:27:10.000Z</time>
      </trkpt>
      <trkpt lat="46.20721" lon="13.68234">
        <ele>192.150909</ele>
        <time>2026-07-13T13:27:15.000Z</time>
      </trkpt>
      <trkpt lat="46.20712" lon="13.68259">
        <ele>192.167626</ele>
        <time>2026-07-13T13:27:20.000Z</time>
      </trkpt>
      <trkpt lat="46.2071" lon="13.68266">
        <ele>192.172431</ele>
        <time>2026-07-13T13:27:21.000Z</time>
      </trkpt>
      <trkpt lat="46.20705" lon="13.68278">
        <ele>192.180395</ele>
        <time>2026-07-13T13:27:23.000Z</time>
      </trkpt>
      <trkpt lat="46.20697" lon="13.6829">
        <ele>192.190878</ele>
        <time>2026-07-13T13:27:25.000Z</time>
      </trkpt>
      <trkpt lat="46.2067" lon="13.68331">
        <ele>191.806101</ele>
        <time>2026-07-13T13:27:32.000Z</time>
      </trkpt>
      <trkpt lat="46.20666" lon="13.68337">
        <ele>191.732943</ele>
        <time>2026-07-13T13:27:33.000Z</time>
      </trkpt>
      <trkpt lat="46.20635" lon="13.68378">
        <ele>191.213405</ele>
        <time>2026-07-13T13:27:40.000Z</time>
      </trkpt>
      <trkpt lat="46.20631" lon="13.68382">
        <ele>191.148943</ele>
        <time>2026-07-13T13:27:41.000Z</time>
      </trkpt>
      <trkpt lat="46.20615" lon="13.68395">
        <ele>190.920772</ele>
        <time>2026-07-13T13:27:45.000Z</time>
      </trkpt>
      <trkpt lat="46.206" lon="13.68408">
        <ele>190.712168</ele>
        <time>2026-07-13T13:27:49.000Z</time>
      </trkpt>
      <trkpt lat="46.20593" lon="13.68416">
        <ele>190.595635</ele>
        <time>2026-07-13T13:27:51.000Z</time>
      </trkpt>
      <trkpt lat="46.20588" lon="13.6842">
        <ele>190.531385</ele>
        <time>2026-07-13T13:27:52.000Z</time>
      </trkpt>
      <trkpt lat="46.20557" lon="13.68441">
        <ele>190.111123</ele>
        <time>2026-07-13T13:27:57.000Z</time>
      </trkpt>
      <trkpt lat="46.2051" lon="13.68477">
        <ele>187.440474</ele>
        <time>2026-07-13T13:28:03.000Z</time>
      </trkpt>
      <trkpt lat="46.20494" lon="13.68495">
        <ele>186.239969</ele>
        <time>2026-07-13T13:28:05.000Z</time>
      </trkpt>
      <trkpt lat="46.2046" lon="13.68533">
        <ele>183.706721</ele>
        <time>2026-07-13T13:28:09.000Z</time>
      </trkpt>
      <trkpt lat="46.20414" lon="13.68597">
        <ele>179.951576</ele>
        <time>2026-07-13T13:28:15.000Z</time>
      </trkpt>
      <trkpt lat="46.20369" lon="13.68661">
        <ele>177.713643</ele>
        <time>2026-07-13T13:28:21.000Z</time>
      </trkpt>
      <trkpt lat="46.20363" lon="13.68671">
        <ele>177.43881</ele>
        <time>2026-07-13T13:28:22.000Z</time>
      </trkpt>
      <trkpt lat="46.20348" lon="13.68705">
        <ele>176.569595</ele>
        <time>2026-07-13T13:28:26.000Z</time>
      </trkpt>
      <trkpt lat="46.20339" lon="13.68725">
        <ele>176.062438</ele>
        <time>2026-07-13T13:28:29.000Z</time>
      </trkpt>
      <trkpt lat="46.20332" lon="13.68736">
        <ele>175.741627</ele>
        <time>2026-07-13T13:28:31.000Z</time>
      </trkpt>
      <trkpt lat="46.20299" lon="13.68786">
        <ele>174.260724</ele>
        <time>2026-07-13T13:28:40.000Z</time>
      </trkpt>
      <trkpt lat="46.20284" lon="13.68809">
        <ele>173.990589</ele>
        <time>2026-07-13T13:28:45.000Z</time>
      </trkpt>
      <trkpt lat="46.2027" lon="13.6883">
        <ele>174.447585</ele>
        <time>2026-07-13T13:28:50.000Z</time>
      </trkpt>
      <trkpt lat="46.20268" lon="13.68835">
        <ele>174.537903</ele>
        <time>2026-07-13T13:28:51.000Z</time>
      </trkpt>
      <trkpt lat="46.20254" lon="13.68874">
        <ele>175.237533</ele>
        <time>2026-07-13T13:28:58.000Z</time>
      </trkpt>
      <trkpt lat="46.20242" lon="13.68913">
        <ele>175.915447</ele>
        <time>2026-07-13T13:29:04.000Z</time>
      </trkpt>
      <trkpt lat="46.20225" lon="13.68948">
        <ele>176.609222</ele>
        <time>2026-07-13T13:29:10.000Z</time>
      </trkpt>
      <trkpt lat="46.2021" lon="13.68993">
        <ele>177.391711</ele>
        <time>2026-07-13T13:29:17.000Z</time>
      </trkpt>
      <trkpt lat="46.20201" lon="13.69038">
        <ele>178.359265</ele>
        <time>2026-07-13T13:29:24.000Z</time>
      </trkpt>
      <trkpt lat="46.20198" lon="13.69051">
        <ele>178.820559</ele>
        <time>2026-07-13T13:29:26.000Z</time>
      </trkpt>
      <trkpt lat="46.20196" lon="13.69057">
        <ele>179.039965</ele>
        <time>2026-07-13T13:29:27.000Z</time>
      </trkpt>
      <trkpt lat="46.20191" lon="13.6908">
        <ele>179.883061</ele>
        <time>2026-07-13T13:29:31.000Z</time>
      </trkpt>
      <trkpt lat="46.20186" lon="13.69098">
        <ele>180.544389</ele>
        <time>2026-07-13T13:29:34.000Z</time>
      </trkpt>
      <trkpt lat="46.20174" lon="13.69136">
        <ele>181.995858</ele>
        <time>2026-07-13T13:29:41.000Z</time>
      </trkpt>
      <trkpt lat="46.20171" lon="13.69154">
        <ele>182.609415</ele>
        <time>2026-07-13T13:29:44.000Z</time>
      </trkpt>
      <trkpt lat="46.20169" lon="13.69165">
        <ele>183.008315</ele>
        <time>2026-07-13T13:29:46.000Z</time>
      </trkpt>
      <trkpt lat="46.20169" lon="13.69176">
        <ele>183.376269</ele>
        <time>2026-07-13T13:29:48.000Z</time>
      </trkpt>
      <trkpt lat="46.20169" lon="13.6921">
        <ele>184.541697</ele>
        <time>2026-07-13T13:29:55.000Z</time>
      </trkpt>
      <trkpt lat="46.20166" lon="13.69247">
        <ele>185.820703</ele>
        <time>2026-07-13T13:30:03.000Z</time>
      </trkpt>
      <trkpt lat="46.2016" lon="13.69293">
        <ele>187.474404</ele>
        <time>2026-07-13T13:30:13.000Z</time>
      </trkpt>
      <trkpt lat="46.20156" lon="13.69332">
        <ele>188.956028</ele>
        <time>2026-07-13T13:30:22.000Z</time>
      </trkpt>
      <trkpt lat="46.20153" lon="13.69365">
        <ele>190.204816</ele>
        <time>2026-07-13T13:30:30.000Z</time>
      </trkpt>
      <trkpt lat="46.20149" lon="13.69403">
        <ele>191.63105</ele>
        <time>2026-07-13T13:30:39.000Z</time>
      </trkpt>
      <trkpt lat="46.20148" lon="13.69442">
        <ele>193.053407</ele>
        <time>2026-07-13T13:30:49.000Z</time>
      </trkpt>
      <trkpt lat="46.20151" lon="13.69469">
        <ele>194.091775</ele>
        <time>2026-07-13T13:30:57.000Z</time>
      </trkpt>
      <trkpt lat="46.20154" lon="13.69502">
        <ele>195.312615</ele>
        <time>2026-07-13T13:31:07.000Z</time>
      </trkpt>
      <trkpt lat="46.20157" lon="13.69528">
        <ele>196.319728</ele>
        <time>2026-07-13T13:31:15.000Z</time>
      </trkpt>
      <trkpt lat="46.20152" lon="13.6956">
        <ele>196.76029</ele>
        <time>2026-07-13T13:31:24.000Z</time>
      </trkpt>
      <trkpt lat="46.20146" lon="13.69589">
        <ele>196.99901</ele>
        <time>2026-07-13T13:31:29.000Z</time>
      </trkpt>
      <trkpt lat="46.20136" lon="13.69627">
        <ele>197.320407</ele>
        <time>2026-07-13T13:31:35.000Z</time>
      </trkpt>
      <trkpt lat="46.20128" lon="13.69675">
        <ele>197.713715</ele>
        <time>2026-07-13T13:31:42.000Z</time>
      </trkpt>
      <trkpt lat="46.20127" lon="13.69681">
        <ele>197.762111</ele>
        <time>2026-07-13T13:31:43.000Z</time>
      </trkpt>
      <trkpt lat="46.20123" lon="13.69716">
        <ele>198.045745</ele>
        <time>2026-07-13T13:31:49.000Z</time>
      </trkpt>
      <trkpt lat="46.20123" lon="13.69721">
        <ele>198.087121</ele>
        <time>2026-07-13T13:31:50.000Z</time>
      </trkpt>
      <trkpt lat="46.20124" lon="13.6975">
        <ele>198.315628</ele>
        <time>2026-07-13T13:31:56.000Z</time>
      </trkpt>
      <trkpt lat="46.20123" lon="13.69779">
        <ele>198.544043</ele>
        <time>2026-07-13T13:32:02.000Z</time>
      </trkpt>
      <trkpt lat="46.20125" lon="13.69789">
        <ele>198.625476</ele>
        <time>2026-07-13T13:32:04.000Z</time>
      </trkpt>
      <trkpt lat="46.20125" lon="13.69821">
        <ele>198.806351</ele>
        <time>2026-07-13T13:32:10.000Z</time>
      </trkpt>
      <trkpt lat="46.20117" lon="13.69856">
        <ele>199.013914</ele>
        <time>2026-07-13T13:32:17.000Z</time>
      </trkpt>
      <trkpt lat="46.20113" lon="13.69887">
        <ele>199.195832</ele>
        <time>2026-07-13T13:32:23.000Z</time>
      </trkpt>
      <trkpt lat="46.20116" lon="13.6992">
        <ele>199.385825</ele>
        <time>2026-07-13T13:32:29.000Z</time>
      </trkpt>
      <trkpt lat="46.20116" lon="13.69942">
        <ele>199.510051</ele>
        <time>2026-07-13T13:32:33.000Z</time>
      </trkpt>
      <trkpt lat="46.20114" lon="13.69979">
        <ele>199.720365</ele>
        <time>2026-07-13T13:32:38.000Z</time>
      </trkpt>
      <trkpt lat="46.20111" lon="13.69987">
        <ele>199.767909</ele>
        <time>2026-07-13T13:32:39.000Z</time>
      </trkpt>
      <trkpt lat="46.20108" lon="13.69993">
        <ele>199.814049</ele>
        <time>2026-07-13T13:32:40.000Z</time>
      </trkpt>
      <trkpt lat="46.201" lon="13.70003">
        <ele>199.894986</ele>
        <time>2026-07-13T13:32:42.000Z</time>
      </trkpt>
      <trkpt lat="46.20094" lon="13.70009">
        <ele>199.955726</ele>
        <time>2026-07-13T13:32:43.000Z</time>
      </trkpt>
      <trkpt lat="46.20074" lon="13.70025">
        <ele>200.072948</ele>
        <time>2026-07-13T13:32:47.000Z</time>
      </trkpt>
      <trkpt lat="46.20061" lon="13.70035">
        <ele>200.035949</ele>
        <time>2026-07-13T13:32:50.000Z</time>
      </trkpt>
      <trkpt lat="46.20049" lon="13.70045">
        <ele>200.002699</ele>
        <time>2026-07-13T13:32:53.000Z</time>
      </trkpt>
      <trkpt lat="46.20038" lon="13.70053">
        <ele>199.973396</ele>
        <time>2026-07-13T13:32:56.000Z</time>
      </trkpt>
      <trkpt lat="46.20027" lon="13.70065">
        <ele>199.94122</ele>
        <time>2026-07-13T13:32:59.000Z</time>
      </trkpt>
      <trkpt lat="46.2002" lon="13.70073">
        <ele>199.919537</ele>
        <time>2026-07-13T13:33:01.000Z</time>
      </trkpt>
      <trkpt lat="46.20014" lon="13.70081">
        <ele>199.899361</ele>
        <time>2026-07-13T13:33:03.000Z</time>
      </trkpt>
      <trkpt lat="46.20006" lon="13.7009">
        <ele>199.875517</ele>
        <time>2026-07-13T13:33:05.000Z</time>
      </trkpt>
      <trkpt lat="46.19997" lon="13.70104">
        <ele>199.843682</ele>
        <time>2026-07-13T13:33:08.000Z</time>
      </trkpt>
      <trkpt lat="46.19988" lon="13.70115">
        <ele>199.815313</ele>
        <time>2026-07-13T13:33:11.000Z</time>
      </trkpt>
      <trkpt lat="46.19975" lon="13.7014">
        <ele>199.76336</ele>
        <time>2026-07-13T13:33:17.000Z</time>
      </trkpt>
      <trkpt lat="46.19964" lon="13.70167">
        <ele>199.711168</ele>
        <time>2026-07-13T13:33:22.000Z</time>
      </trkpt>
      <trkpt lat="46.19963" lon="13.7018">
        <ele>199.690362</ele>
        <time>2026-07-13T13:33:24.000Z</time>
      </trkpt>
      <trkpt lat="46.19961" lon="13.70208">
        <ele>199.742604</ele>
        <time>2026-07-13T13:33:28.000Z</time>
      </trkpt>
      <trkpt lat="46.19963" lon="13.70226">
        <ele>199.936453</ele>
        <time>2026-07-13T13:33:31.000Z</time>
      </trkpt>
      <trkpt lat="46.1996" lon="13.70266">
        <ele>200.356953</ele>
        <time>2026-07-13T13:33:37.000Z</time>
      </trkpt>
      <trkpt lat="46.19959" lon="13.70273">
        <ele>200.441598</ele>
        <time>2026-07-13T13:33:38.000Z</time>
      </trkpt>
      <trkpt lat="46.19955" lon="13.70285">
        <ele>200.575797</ele>
        <time>2026-07-13T13:33:40.000Z</time>
      </trkpt>
      <trkpt lat="46.19952" lon="13.70295">
        <ele>200.690568</ele>
        <time>2026-07-13T13:33:42.000Z</time>
      </trkpt>
      <trkpt lat="46.19948" lon="13.70306">
        <ele>200.824738</ele>
        <time>2026-07-13T13:33:44.000Z</time>
      </trkpt>
      <trkpt lat="46.19943" lon="13.70321">
        <ele>201.000695</ele>
        <time>2026-07-13T13:33:47.000Z</time>
      </trkpt>
      <trkpt lat="46.19934" lon="13.70347">
        <ele>201.30566</ele>
        <time>2026-07-13T13:33:53.000Z</time>
      </trkpt>
      <trkpt lat="46.19933" lon="13.70352">
        <ele>201.359198</ele>
        <time>2026-07-13T13:33:54.000Z</time>
      </trkpt>
      <trkpt lat="46.19921" lon="13.70389">
        <ele>201.78495</ele>
        <time>2026-07-13T13:34:01.000Z</time>
      </trkpt>
      <trkpt lat="46.19916" lon="13.70403">
        <ele>201.956892</ele>
        <time>2026-07-13T13:34:04.000Z</time>
      </trkpt>
      <trkpt lat="46.19907" lon="13.70429">
        <ele>202.25394</ele>
        <time>2026-07-13T13:34:09.000Z</time>
      </trkpt>
      <trkpt lat="46.19893" lon="13.70474">
        <ele>203.566572</ele>
        <time>2026-07-13T13:34:18.000Z</time>
      </trkpt>
      <trkpt lat="46.19872" lon="13.70512">
        <ele>205.152992</ele>
        <time>2026-07-13T13:34:27.000Z</time>
      </trkpt>
      <trkpt lat="46.19856" lon="13.70535">
        <ele>206.207821</ele>
        <time>2026-07-13T13:34:34.000Z</time>
      </trkpt>
      <trkpt lat="46.19844" lon="13.70557">
        <ele>207.0889</ele>
        <time>2026-07-13T13:34:40.000Z</time>
      </trkpt>
      <trkpt lat="46.19835" lon="13.70587">
        <ele>208.165144</ele>
        <time>2026-07-13T13:34:47.000Z</time>
      </trkpt>
      <trkpt lat="46.1982" lon="13.7062">
        <ele>209.435097</ele>
        <time>2026-07-13T13:34:56.000Z</time>
      </trkpt>
      <trkpt lat="46.19799" lon="13.70641">
        <ele>210.611487</ele>
        <time>2026-07-13T13:35:04.000Z</time>
      </trkpt>
      <trkpt lat="46.1978" lon="13.70658">
        <ele>211.277685</ele>
        <time>2026-07-13T13:35:11.000Z</time>
      </trkpt>
      <trkpt lat="46.19754" lon="13.70672">
        <ele>212.065503</ele>
        <time>2026-07-13T13:35:19.000Z</time>
      </trkpt>
      <trkpt lat="46.19719" lon="13.70694">
        <ele>213.109962</ele>
        <time>2026-07-13T13:35:27.000Z</time>
      </trkpt>
      <trkpt lat="46.19715" lon="13.70699">
        <ele>213.250353</ele>
        <time>2026-07-13T13:35:28.000Z</time>
      </trkpt>
      <trkpt lat="46.19704" lon="13.70712">
        <ele>213.652676</ele>
        <time>2026-07-13T13:35:31.000Z</time>
      </trkpt>
      <trkpt lat="46.19699" lon="13.7072">
        <ele>213.869238</ele>
        <time>2026-07-13T13:35:33.000Z</time>
      </trkpt>
      <trkpt lat="46.19681" lon="13.70753">
        <ele>214.657721</ele>
        <time>2026-07-13T13:35:40.000Z</time>
      </trkpt>
      <trkpt lat="46.19666" lon="13.70796">
        <ele>215.586679</ele>
        <time>2026-07-13T13:35:49.000Z</time>
      </trkpt>
      <trkpt lat="46.19648" lon="13.70843">
        <ele>216.143402</ele>
        <time>2026-07-13T13:35:59.000Z</time>
      </trkpt>
      <trkpt lat="46.19633" lon="13.7088">
        <ele>216.527694</ele>
        <time>2026-07-13T13:36:06.000Z</time>
      </trkpt>
      <trkpt lat="46.19616" lon="13.7094">
        <ele>217.100871</ele>
        <time>2026-07-13T13:36:16.000Z</time>
      </trkpt>
      <trkpt lat="46.19602" lon="13.70982">
        <ele>217.519731</ele>
        <time>2026-07-13T13:36:24.000Z</time>
      </trkpt>
      <trkpt lat="46.19598" lon="13.70996">
        <ele>217.658297</ele>
        <time>2026-07-13T13:36:27.000Z</time>
      </trkpt>
      <trkpt lat="46.19592" lon="13.71016">
        <ele>217.85198</ele>
        <time>2026-07-13T13:36:31.000Z</time>
      </trkpt>
      <trkpt lat="46.19581" lon="13.7105">
        <ele>217.780517</ele>
        <time>2026-07-13T13:36:37.000Z</time>
      </trkpt>
      <trkpt lat="46.19575" lon="13.71062">
        <ele>217.493613</ele>
        <time>2026-07-13T13:36:39.000Z</time>
      </trkpt>
      <trkpt lat="46.19571" lon="13.71067">
        <ele>217.352606</ele>
        <time>2026-07-13T13:36:40.000Z</time>
      </trkpt>
      <trkpt lat="46.19545" lon="13.71096">
        <ele>216.432248</ele>
        <time>2026-07-13T13:36:44.000Z</time>
      </trkpt>
      <trkpt lat="46.19539" lon="13.71101">
        <ele>216.236223</ele>
        <time>2026-07-13T13:36:45.000Z</time>
      </trkpt>
      <trkpt lat="46.19519" lon="13.71122">
        <ele>215.555118</ele>
        <time>2026-07-13T13:36:48.000Z</time>
      </trkpt>
      <trkpt lat="46.19509" lon="13.71139">
        <ele>215.127071</ele>
        <time>2026-07-13T13:36:50.000Z</time>
      </trkpt>
      <trkpt lat="46.19498" lon="13.71178">
        <ele>214.306967</ele>
        <time>2026-07-13T13:36:54.000Z</time>
      </trkpt>
      <trkpt lat="46.19487" lon="13.7123">
        <ele>213.271964</ele>
        <time>2026-07-13T13:36:59.000Z</time>
      </trkpt>
      <trkpt lat="46.19485" lon="13.7124">
        <ele>213.069948</ele>
        <time>2026-07-13T13:37:00.000Z</time>
      </trkpt>
      <trkpt lat="46.19477" lon="13.71284">
        <ele>211.776973</ele>
        <time>2026-07-13T13:37:04.000Z</time>
      </trkpt>
      <trkpt lat="46.19469" lon="13.71313">
        <ele>210.890051</ele>
        <time>2026-07-13T13:37:07.000Z</time>
      </trkpt>
      <trkpt lat="46.19465" lon="13.71338">
        <ele>210.149764</ele>
        <time>2026-07-13T13:37:09.000Z</time>
      </trkpt>
      <trkpt lat="46.19456" lon="13.71389">
        <ele>208.666181</ele>
        <time>2026-07-13T13:37:14.000Z</time>
      </trkpt>
      <trkpt lat="46.19438" lon="13.71439">
        <ele>207.048422</ele>
        <time>2026-07-13T13:37:19.000Z</time>
      </trkpt>
      <trkpt lat="46.19433" lon="13.71453">
        <ele>206.615632</ele>
        <time>2026-07-13T13:37:20.000Z</time>
      </trkpt>
      <trkpt lat="46.19411" lon="13.71507">
        <ele>205.485759</ele>
        <time>2026-07-13T13:37:25.000Z</time>
      </trkpt>
      <trkpt lat="46.19406" lon="13.71516">
        <ele>205.418067</ele>
        <time>2026-07-13T13:37:26.000Z</time>
      </trkpt>
      <trkpt lat="46.19382" lon="13.71551">
        <ele>205.151137</ele>
        <time>2026-07-13T13:37:30.000Z</time>
      </trkpt>
      <trkpt lat="46.19371" lon="13.7157">
        <ele>205.018779</ele>
        <time>2026-07-13T13:37:32.000Z</time>
      </trkpt>
      <trkpt lat="46.19343" lon="13.71637">
        <ele>204.590142</ele>
        <time>2026-07-13T13:37:39.000Z</time>
      </trkpt>
      <trkpt lat="46.19331" lon="13.71673">
        <ele>204.371379</ele>
        <time>2026-07-13T13:37:44.000Z</time>
      </trkpt>
      <trkpt lat="46.19325" lon="13.71709">
        <ele>204.20875</ele>
        <time>2026-07-13T13:37:49.000Z</time>
      </trkpt>
      <trkpt lat="46.19323" lon="13.71731">
        <ele>204.166199</ele>
        <time>2026-07-13T13:37:52.000Z</time>
      </trkpt>
      <trkpt lat="46.19318" lon="13.71756">
        <ele>204.115604</ele>
        <time>2026-07-13T13:37:56.000Z</time>
      </trkpt>
      <trkpt lat="46.19315" lon="13.71768">
        <ele>204.091318</ele>
        <time>2026-07-13T13:37:58.000Z</time>
      </trkpt>
      <trkpt lat="46.19312" lon="13.7178">
        <ele>204.065577</ele>
        <time>2026-07-13T13:38:00.000Z</time>
      </trkpt>
      <trkpt lat="46.1931" lon="13.71786">
        <ele>204.053233</ele>
        <time>2026-07-13T13:38:01.000Z</time>
      </trkpt>
      <trkpt lat="46.19302" lon="13.71813">
        <ele>203.996939</ele>
        <time>2026-07-13T13:38:06.000Z</time>
      </trkpt>
      <trkpt lat="46.19288" lon="13.71852">
        <ele>203.911055</ele>
        <time>2026-07-13T13:38:13.000Z</time>
      </trkpt>
      <trkpt lat="46.19281" lon="13.7187">
        <ele>203.87263</ele>
        <time>2026-07-13T13:38:16.000Z</time>
      </trkpt>
      <trkpt lat="46.19279" lon="13.71875">
        <ele>203.86093</ele>
        <time>2026-07-13T13:38:17.000Z</time>
      </trkpt>
      <trkpt lat="46.19273" lon="13.7189">
        <ele>203.827803</ele>
        <time>2026-07-13T13:38:20.000Z</time>
      </trkpt>
      <trkpt lat="46.19256" lon="13.71924">
        <ele>203.746111</ele>
        <time>2026-07-13T13:38:27.000Z</time>
      </trkpt>
      <trkpt lat="46.19252" lon="13.71929">
        <ele>203.731478</ele>
        <time>2026-07-13T13:38:28.000Z</time>
      </trkpt>
      <trkpt lat="46.19241" lon="13.71933">
        <ele>203.577201</ele>
        <time>2026-07-13T13:38:30.000Z</time>
      </trkpt>
      <trkpt lat="46.19228" lon="13.71931">
        <ele>203.378734</ele>
        <time>2026-07-13T13:38:32.000Z</time>
      </trkpt>
      <trkpt lat="46.19222" lon="13.71928">
        <ele>203.270365</ele>
        <time>2026-07-13T13:38:33.000Z</time>
      </trkpt>
      <trkpt lat="46.19176" lon="13.71899">
        <ele>202.483334</ele>
        <time>2026-07-13T13:38:40.000Z</time>
      </trkpt>
      <trkpt lat="46.19139" lon="13.71872">
        <ele>201.831131</ele>
        <time>2026-07-13T13:38:46.000Z</time>
      </trkpt>
      <trkpt lat="46.19133" lon="13.71869">
        <ele>201.732278</ele>
        <time>2026-07-13T13:38:47.000Z</time>
      </trkpt>
      <trkpt lat="46.19122" lon="13.71866">
        <ele>201.548799</ele>
        <time>2026-07-13T13:38:49.000Z</time>
      </trkpt>
      <trkpt lat="46.19117" lon="13.71866">
        <ele>201.465132</ele>
        <time>2026-07-13T13:38:50.000Z</time>
      </trkpt>
      <trkpt lat="46.19112" lon="13.71868">
        <ele>201.38496</ele>
        <time>2026-07-13T13:38:51.000Z</time>
      </trkpt>
      <trkpt lat="46.19107" lon="13.71869">
        <ele>201.30746</ele>
        <time>2026-07-13T13:38:52.000Z</time>
      </trkpt>
      <trkpt lat="46.19098" lon="13.71875">
        <ele>201.160536</ele>
        <time>2026-07-13T13:38:54.000Z</time>
      </trkpt>
      <trkpt lat="46.19091" lon="13.7188">
        <ele>201.027312</ele>
        <time>2026-07-13T13:38:56.000Z</time>
      </trkpt>
      <trkpt lat="46.19069" lon="13.71898">
        <ele>201.236891</ele>
        <time>2026-07-13T13:39:03.000Z</time>
      </trkpt>
      <trkpt lat="46.19045" lon="13.71919">
        <ele>201.860159</ele>
        <time>2026-07-13T13:39:12.000Z</time>
      </trkpt>
      <trkpt lat="46.19026" lon="13.71934">
        <ele>202.337938</ele>
        <time>2026-07-13T13:39:18.000Z</time>
      </trkpt>
      <trkpt lat="46.19011" lon="13.7195">
        <ele>202.76201</ele>
        <time>2026-07-13T13:39:23.000Z</time>
      </trkpt>
      <trkpt lat="46.18999" lon="13.7197">
        <ele>203.150138</ele>
        <time>2026-07-13T13:39:28.000Z</time>
      </trkpt>
      <trkpt lat="46.18984" lon="13.71994">
        <ele>203.657256</ele>
        <time>2026-07-13T13:39:35.000Z</time>
      </trkpt>
      <trkpt lat="46.18974" lon="13.72011">
        <ele>204.001869</ele>
        <time>2026-07-13T13:39:40.000Z</time>
      </trkpt>
      <trkpt lat="46.18958" lon="13.72037">
        <ele>204.526108</ele>
        <time>2026-07-13T13:39:47.000Z</time>
      </trkpt>
      <trkpt lat="46.18944" lon="13.72067">
        <ele>204.967859</ele>
        <time>2026-07-13T13:39:54.000Z</time>
      </trkpt>
      <trkpt lat="46.18931" lon="13.72094">
        <ele>205.226125</ele>
        <time>2026-07-13T13:40:00.000Z</time>
      </trkpt>
      <trkpt lat="46.18915" lon="13.72124">
        <ele>205.513017</ele>
        <time>2026-07-13T13:40:07.000Z</time>
      </trkpt>
      <trkpt lat="46.18896" lon="13.72145">
        <ele>205.780201</ele>
        <time>2026-07-13T13:40:14.000Z</time>
      </trkpt>
      <trkpt lat="46.18877" lon="13.72167">
        <ele>206.056288</ele>
        <time>2026-07-13T13:40:21.000Z</time>
      </trkpt>
      <trkpt lat="46.18855" lon="13.72187">
        <ele>206.343847</ele>
        <time>2026-07-13T13:40:28.000Z</time>
      </trkpt>
      <trkpt lat="46.18839" lon="13.72213">
        <ele>206.604865</ele>
        <time>2026-07-13T13:40:34.000Z</time>
      </trkpt>
      <trkpt lat="46.18823" lon="13.72236">
        <ele>206.859976</ele>
        <time>2026-07-13T13:40:40.000Z</time>
      </trkpt>
      <trkpt lat="46.18805" lon="13.7226">
        <ele>207.480945</ele>
        <time>2026-07-13T13:40:47.000Z</time>
      </trkpt>
      <trkpt lat="46.1879" lon="13.7229">
        <ele>208.138816</ele>
        <time>2026-07-13T13:40:54.000Z</time>
      </trkpt>
      <trkpt lat="46.1877" lon="13.72309">
        <ele>208.749522</ele>
        <time>2026-07-13T13:41:00.000Z</time>
      </trkpt>
      <trkpt lat="46.18748" lon="13.72319">
        <ele>209.329346</ele>
        <time>2026-07-13T13:41:06.000Z</time>
      </trkpt>
      <trkpt lat="46.18725" lon="13.72321">
        <ele>209.90805</ele>
        <time>2026-07-13T13:41:12.000Z</time>
      </trkpt>
      <trkpt lat="46.18704" lon="13.72325">
        <ele>210.458194</ele>
        <time>2026-07-13T13:41:18.000Z</time>
      </trkpt>
      <trkpt lat="46.18681" lon="13.72354">
        <ele>211.227865</ele>
        <time>2026-07-13T13:41:26.000Z</time>
      </trkpt>
      <trkpt lat="46.18662" lon="13.72373">
        <ele>211.482584</ele>
        <time>2026-07-13T13:41:32.000Z</time>
      </trkpt>
      <trkpt lat="46.18646" lon="13.72401">
        <ele>211.587997</ele>
        <time>2026-07-13T13:41:39.000Z</time>
      </trkpt>
      <trkpt lat="46.18639" lon="13.72424">
        <ele>211.660439</ele>
        <time>2026-07-13T13:41:44.000Z</time>
      </trkpt>
      <trkpt lat="46.18642" lon="13.72443">
        <ele>211.717284</ele>
        <time>2026-07-13T13:41:49.000Z</time>
      </trkpt>
      <trkpt lat="46.18651" lon="13.72465">
        <ele>211.792183</ele>
        <time>2026-07-13T13:41:55.000Z</time>
      </trkpt>
      <trkpt lat="46.18654" lon="13.72468">
        <ele>211.80603</ele>
        <time>2026-07-13T13:41:59.000Z</time>
      </trkpt>
      <trkpt lat="46.18652" lon="13.72476">
        <ele>211.83011</ele>
        <time>2026-07-13T13:43:14.000Z</time>
      </trkpt>
      <trkpt lat="46.1865" lon="13.7248">
        <ele>211.845184</ele>
        <time>2026-07-13T13:43:15.000Z</time>
      </trkpt>
      <trkpt lat="46.18648" lon="13.72486">
        <ele>211.86237</ele>
        <time>2026-07-13T13:43:16.000Z</time>
      </trkpt>
      <trkpt lat="46.1865" lon="13.72515">
        <ele>211.948367</ele>
        <time>2026-07-13T13:43:20.000Z</time>
      </trkpt>
      <trkpt lat="46.18652" lon="13.72541">
        <ele>212.023086</ele>
        <time>2026-07-13T13:43:23.000Z</time>
      </trkpt>
      <trkpt lat="46.18652" lon="13.72568">
        <ele>212.104269</ele>
        <time>2026-07-13T13:43:26.000Z</time>
      </trkpt>
      <trkpt lat="46.1865" lon="13.72629">
        <ele>211.56125</ele>
        <time>2026-07-13T13:43:32.000Z</time>
      </trkpt>
      <trkpt lat="46.18649" lon="13.72674">
        <ele>210.809796</ele>
        <time>2026-07-13T13:43:36.000Z</time>
      </trkpt>
      <trkpt lat="46.18646" lon="13.72697">
        <ele>210.421212</ele>
        <time>2026-07-13T13:43:38.000Z</time>
      </trkpt>
      <trkpt lat="46.18633" lon="13.72764">
        <ele>209.254974</ele>
        <time>2026-07-13T13:43:44.000Z</time>
      </trkpt>
      <trkpt lat="46.18635" lon="13.72821">
        <ele>208.304279</ele>
        <time>2026-07-13T13:43:49.000Z</time>
      </trkpt>
      <trkpt lat="46.18639" lon="13.72882">
        <ele>207.113199</ele>
        <time>2026-07-13T13:43:55.000Z</time>
      </trkpt>
      <trkpt lat="46.18638" lon="13.72891">
        <ele>206.914745</ele>
        <time>2026-07-13T13:43:56.000Z</time>
      </trkpt>
      <trkpt lat="46.18635" lon="13.72908">
        <ele>206.52629</ele>
        <time>2026-07-13T13:43:58.000Z</time>
      </trkpt>
      <trkpt lat="46.18633" lon="13.72916">
        <ele>206.335748</ele>
        <time>2026-07-13T13:43:59.000Z</time>
      </trkpt>
      <trkpt lat="46.18623" lon="13.72947">
        <ele>205.591408</ele>
        <time>2026-07-13T13:44:03.000Z</time>
      </trkpt>
      <trkpt lat="46.18615" lon="13.72961">
        <ele>205.212985</ele>
        <time>2026-07-13T13:44:05.000Z</time>
      </trkpt>
      <trkpt lat="46.18595" lon="13.72993">
        <ele>204.278424</ele>
        <time>2026-07-13T13:44:10.000Z</time>
      </trkpt>
      <trkpt lat="46.18586" lon="13.73004">
        <ele>203.891541</ele>
        <time>2026-07-13T13:44:12.000Z</time>
      </trkpt>
      <trkpt lat="46.18546" lon="13.73051">
        <ele>202.282276</ele>
        <time>2026-07-13T13:44:20.000Z</time>
      </trkpt>
      <trkpt lat="46.18501" lon="13.73094">
        <ele>202.071831</ele>
        <time>2026-07-13T13:44:29.000Z</time>
      </trkpt>
      <trkpt lat="46.18474" lon="13.73123">
        <ele>202.004152</ele>
        <time>2026-07-13T13:44:36.000Z</time>
      </trkpt>
      <trkpt lat="46.18453" lon="13.73144">
        <ele>201.952733</ele>
        <time>2026-07-13T13:44:42.000Z</time>
      </trkpt>
      <trkpt lat="46.1845" lon="13.73148">
        <ele>201.943847</ele>
        <time>2026-07-13T13:44:43.000Z</time>
      </trkpt>
      <trkpt lat="46.18441" lon="13.73159">
        <ele>201.920418</ele>
        <time>2026-07-13T13:44:46.000Z</time>
      </trkpt>
      <trkpt lat="46.18421" lon="13.73173">
        <ele>201.87593</ele>
        <time>2026-07-13T13:44:51.000Z</time>
      </trkpt>
      <trkpt lat="46.18412" lon="13.73185">
        <ele>201.850477</ele>
        <time>2026-07-13T13:44:54.000Z</time>
      </trkpt>
      <trkpt lat="46.18401" lon="13.732">
        <ele>201.819528</ele>
        <time>2026-07-13T13:44:58.000Z</time>
      </trkpt>
      <trkpt lat="46.18398" lon="13.73204">
        <ele>201.811624</ele>
        <time>2026-07-13T13:44:59.000Z</time>
      </trkpt>
      <trkpt lat="46.18394" lon="13.73219">
        <ele>202.036853</ele>
        <time>2026-07-13T13:45:02.000Z</time>
      </trkpt>
      <trkpt lat="46.18391" lon="13.73232">
        <ele>202.231937</ele>
        <time>2026-07-13T13:45:06.000Z</time>
      </trkpt>
      <trkpt lat="46.1839" lon="13.73234">
        <ele>202.274497</ele>
        <time>2026-07-13T13:45:10.000Z</time>
      </trkpt>
      <trkpt lat="46.18393" lon="13.73239">
        <ele>202.365585</ele>
        <time>2026-07-13T13:45:23.000Z</time>
      </trkpt>
      <trkpt lat="46.18395" lon="13.73237">
        <ele>202.429309</ele>
        <time>2026-07-13T13:45:26.000Z</time>
      </trkpt>
      <trkpt lat="46.18419" lon="13.7328">
        <ele>203.245824</ele>
        <time>2026-07-13T13:47:10.000Z</time>
      </trkpt>
      <trkpt lat="46.1842" lon="13.73281">
        <ele>203.25354</ele>
        <time>2026-07-13T13:47:11.000Z</time>
      </trkpt>
      <trkpt lat="46.18415" lon="13.73278">
        <ele>203.35212</ele>
        <time>2026-07-13T13:47:25.000Z</time>
      </trkpt>
      <trkpt lat="46.18415" lon="13.73279">
        <ele>203.358346</ele>
        <time>2026-07-13T13:47:26.000Z</time>
      </trkpt>
      <trkpt lat="46.18413" lon="13.73271">
        <ele>203.478541</ele>
        <time>2026-07-13T14:18:21.000Z</time>
      </trkpt>
      <trkpt lat="46.1841" lon="13.7327">
        <ele>203.536725</ele>
        <time>2026-07-13T14:18:22.000Z</time>
      </trkpt>
      <trkpt lat="46.18407" lon="13.73268">
        <ele>203.606341</ele>
        <time>2026-07-13T14:18:23.000Z</time>
      </trkpt>
      <trkpt lat="46.18394" lon="13.73269">
        <ele>203.890093</ele>
        <time>2026-07-13T14:18:28.000Z</time>
      </trkpt>
      <trkpt lat="46.18374" lon="13.73271">
        <ele>204.313609</ele>
        <time>2026-07-13T14:18:33.000Z</time>
      </trkpt>
      <trkpt lat="46.18364" lon="13.73274">
        <ele>204.516578</ele>
        <time>2026-07-13T14:18:35.000Z</time>
      </trkpt>
      <trkpt lat="46.18346" lon="13.73281">
        <ele>204.914784</ele>
        <time>2026-07-13T14:18:39.000Z</time>
      </trkpt>
      <trkpt lat="46.18342" lon="13.73283">
        <ele>205.012448</ele>
        <time>2026-07-13T14:18:40.000Z</time>
      </trkpt>
      <trkpt lat="46.18331" lon="13.73286">
        <ele>205.248912</ele>
        <time>2026-07-13T14:18:43.000Z</time>
      </trkpt>
      <trkpt lat="46.18311" lon="13.7329">
        <ele>205.529319</ele>
        <time>2026-07-13T14:18:49.000Z</time>
      </trkpt>
      <trkpt lat="46.18285" lon="13.73295">
        <ele>204.64235</ele>
        <time>2026-07-13T14:18:55.000Z</time>
      </trkpt>
      <trkpt lat="46.18271" lon="13.73298">
        <ele>204.158704</ele>
        <time>2026-07-13T14:18:58.000Z</time>
      </trkpt>
      <trkpt lat="46.18257" lon="13.73302">
        <ele>203.680807</ele>
        <time>2026-07-13T14:19:01.000Z</time>
      </trkpt>
      <trkpt lat="46.18253" lon="13.73303">
        <ele>203.551892</ele>
        <time>2026-07-13T14:19:02.000Z</time>
      </trkpt>
      <trkpt lat="46.18243" lon="13.73308">
        <ele>203.195766</ele>
        <time>2026-07-13T14:19:05.000Z</time>
      </trkpt>
      <trkpt lat="46.18239" lon="13.73314">
        <ele>202.998882</ele>
        <time>2026-07-13T14:19:09.000Z</time>
      </trkpt>
      <trkpt lat="46.18238" lon="13.73314">
        <ele>202.988521</ele>
        <time>2026-07-13T14:19:10.000Z</time>
      </trkpt>
      <trkpt lat="46.18235" lon="13.73323">
        <ele>202.762063</ele>
        <time>2026-07-13T14:20:01.000Z</time>
      </trkpt>
      <trkpt lat="46.18234" lon="13.73325">
        <ele>202.689726</ele>
        <time>2026-07-13T14:20:02.000Z</time>
      </trkpt>
      <trkpt lat="46.18227" lon="13.73333">
        <ele>202.389023</ele>
        <time>2026-07-13T14:20:05.000Z</time>
      </trkpt>
      <trkpt lat="46.18225" lon="13.73335">
        <ele>202.295644</ele>
        <time>2026-07-13T14:20:06.000Z</time>
      </trkpt>
      <trkpt lat="46.18209" lon="13.73345">
        <ele>201.71204</ele>
        <time>2026-07-13T14:20:10.000Z</time>
      </trkpt>
      <trkpt lat="46.18187" lon="13.73369">
        <ele>200.775739</ele>
        <time>2026-07-13T14:20:15.000Z</time>
      </trkpt>
      <trkpt lat="46.18181" lon="13.73374">
        <ele>200.566796</ele>
        <time>2026-07-13T14:20:16.000Z</time>
      </trkpt>
      <trkpt lat="46.18162" lon="13.73395">
        <ele>199.744209</ele>
        <time>2026-07-13T14:20:20.000Z</time>
      </trkpt>
      <trkpt lat="46.18144" lon="13.73414">
        <ele>198.84577</ele>
        <time>2026-07-13T14:20:24.000Z</time>
      </trkpt>
      <trkpt lat="46.18139" lon="13.73419">
        <ele>198.577285</ele>
        <time>2026-07-13T14:20:25.000Z</time>
      </trkpt>
      <trkpt lat="46.18129" lon="13.73428">
        <ele>198.06656</ele>
        <time>2026-07-13T14:20:27.000Z</time>
      </trkpt>
      <trkpt lat="46.18124" lon="13.73431">
        <ele>197.844459</ele>
        <time>2026-07-13T14:20:28.000Z</time>
      </trkpt>
      <trkpt lat="46.18105" lon="13.7344">
        <ele>196.96453</ele>
        <time>2026-07-13T14:20:32.000Z</time>
      </trkpt>
      <trkpt lat="46.18083" lon="13.73437">
        <ele>196.023866</ele>
        <time>2026-07-13T14:20:36.000Z</time>
      </trkpt>
      <trkpt lat="46.18078" lon="13.73438">
        <ele>195.794604</ele>
        <time>2026-07-13T14:20:37.000Z</time>
      </trkpt>
      <trkpt lat="46.18058" lon="13.73446">
        <ele>194.888071</ele>
        <time>2026-07-13T14:20:41.000Z</time>
      </trkpt>
      <trkpt lat="46.18045" lon="13.73457">
        <ele>194.245581</ele>
        <time>2026-07-13T14:20:44.000Z</time>
      </trkpt>
      <trkpt lat="46.18042" lon="13.7346">
        <ele>194.08303</ele>
        <time>2026-07-13T14:20:45.000Z</time>
      </trkpt>
      <trkpt lat="46.18033" lon="13.7346">
        <ele>193.698163</ele>
        <time>2026-07-13T14:20:47.000Z</time>
      </trkpt>
      <trkpt lat="46.18025" lon="13.73457">
        <ele>193.326042</ele>
        <time>2026-07-13T14:20:49.000Z</time>
      </trkpt>
      <trkpt lat="46.18018" lon="13.73464">
        <ele>192.973047</ele>
        <time>2026-07-13T14:20:51.000Z</time>
      </trkpt>
      <trkpt lat="46.18015" lon="13.73469">
        <ele>192.785456</ele>
        <time>2026-07-13T14:20:52.000Z</time>
      </trkpt>
      <trkpt lat="46.18012" lon="13.73481">
        <ele>192.386141</ele>
        <time>2026-07-13T14:20:54.000Z</time>
      </trkpt>
      <trkpt lat="46.1801" lon="13.73487">
        <ele>192.181262</ele>
        <time>2026-07-13T14:20:55.000Z</time>
      </trkpt>
      <trkpt lat="46.18007" lon="13.73493">
        <ele>191.966595</ele>
        <time>2026-07-13T14:20:56.000Z</time>
      </trkpt>
      <trkpt lat="46.17994" lon="13.73507">
        <ele>191.545584</ele>
        <time>2026-07-13T14:20:59.000Z</time>
      </trkpt>
      <trkpt lat="46.17989" lon="13.73511">
        <ele>191.428794</ele>
        <time>2026-07-13T14:21:00.000Z</time>
      </trkpt>
      <trkpt lat="46.17971" lon="13.7353">
        <ele>190.979781</ele>
        <time>2026-07-13T14:21:04.000Z</time>
      </trkpt>
      <trkpt lat="46.17966" lon="13.73535">
        <ele>190.868732</ele>
        <time>2026-07-13T14:21:05.000Z</time>
      </trkpt>
      <trkpt lat="46.17943" lon="13.73558">
        <ele>190.299695</ele>
        <time>2026-07-13T14:21:10.000Z</time>
      </trkpt>
      <trkpt lat="46.17933" lon="13.73563">
        <ele>190.090255</ele>
        <time>2026-07-13T14:21:12.000Z</time>
      </trkpt>
      <trkpt lat="46.17928" lon="13.73565">
        <ele>189.984523</ele>
        <time>2026-07-13T14:21:13.000Z</time>
      </trkpt>
      <trkpt lat="46.17923" lon="13.73566">
        <ele>189.87669</ele>
        <time>2026-07-13T14:21:14.000Z</time>
      </trkpt>
      <trkpt lat="46.17906" lon="13.73569">
        <ele>189.54011</ele>
        <time>2026-07-13T14:21:17.000Z</time>
      </trkpt>
      <trkpt lat="46.179" lon="13.73569">
        <ele>189.42129</ele>
        <time>2026-07-13T14:21:18.000Z</time>
      </trkpt>
      <trkpt lat="46.17872" lon="13.73575">
        <ele>188.846182</ele>
        <time>2026-07-13T14:21:23.000Z</time>
      </trkpt>
      <trkpt lat="46.17867" lon="13.73579">
        <ele>188.733667</ele>
        <time>2026-07-13T14:21:24.000Z</time>
      </trkpt>
      <trkpt lat="46.17857" lon="13.73588">
        <ele>188.490164</ele>
        <time>2026-07-13T14:21:26.000Z</time>
      </trkpt>
      <trkpt lat="46.17838" lon="13.73611">
        <ele>187.931499</ele>
        <time>2026-07-13T14:21:30.000Z</time>
      </trkpt>
      <trkpt lat="46.17833" lon="13.73616">
        <ele>187.760047</ele>
        <time>2026-07-13T14:21:31.000Z</time>
      </trkpt>
      <trkpt lat="46.17817" lon="13.73632">
        <ele>187.237978</ele>
        <time>2026-07-13T14:21:34.000Z</time>
      </trkpt>
      <trkpt lat="46.17801" lon="13.73644">
        <ele>186.729489</ele>
        <time>2026-07-13T14:21:37.000Z</time>
      </trkpt>
      <trkpt lat="46.17789" lon="13.73649">
        <ele>186.400218</ele>
        <time>2026-07-13T14:21:39.000Z</time>
      </trkpt>
      <trkpt lat="46.1776" lon="13.73658">
        <ele>185.584932</ele>
        <time>2026-07-13T14:21:44.000Z</time>
      </trkpt>
      <trkpt lat="46.17755" lon="13.73659">
        <ele>185.442348</ele>
        <time>2026-07-13T14:21:45.000Z</time>
      </trkpt>
      <trkpt lat="46.17747" lon="13.73665">
        <ele>185.198701</ele>
        <time>2026-07-13T14:21:47.000Z</time>
      </trkpt>
      <trkpt lat="46.17742" lon="13.73671">
        <ele>185.01729</ele>
        <time>2026-07-13T14:21:50.000Z</time>
      </trkpt>
      <trkpt lat="46.17742" lon="13.73671">
        <ele>185.009223</ele>
        <time>2026-07-13T14:21:51.000Z</time>
      </trkpt>
      <trkpt lat="46.17742" lon="13.73671">
        <ele>185.003425</ele>
        <time>2026-07-13T14:21:52.000Z</time>
      </trkpt>
      <trkpt lat="46.17737" lon="13.73673">
        <ele>184.86537</ele>
        <time>2026-07-13T14:21:57.000Z</time>
      </trkpt>
      <trkpt lat="46.17734" lon="13.73675">
        <ele>184.782877</ele>
        <time>2026-07-13T14:21:58.000Z</time>
      </trkpt>
      <trkpt lat="46.17713" lon="13.73691">
        <ele>184.12041</ele>
        <time>2026-07-13T14:22:04.000Z</time>
      </trkpt>
      <trkpt lat="46.17684" lon="13.73717">
        <ele>183.176122</ele>
        <time>2026-07-13T14:22:10.000Z</time>
      </trkpt>
      <trkpt lat="46.17651" lon="13.73737">
        <ele>181.732725</ele>
        <time>2026-07-13T14:22:15.000Z</time>
      </trkpt>
      <trkpt lat="46.17643" lon="13.7374">
        <ele>181.402727</ele>
        <time>2026-07-13T14:22:16.000Z</time>
      </trkpt>
      <trkpt lat="46.17626" lon="13.73741">
        <ele>180.725517</ele>
        <time>2026-07-13T14:22:18.000Z</time>
      </trkpt>
      <trkpt lat="46.17619" lon="13.73739">
        <ele>180.402255</ele>
        <time>2026-07-13T14:22:19.000Z</time>
      </trkpt>
      <trkpt lat="46.17611" lon="13.73735">
        <ele>180.075763</ele>
        <time>2026-07-13T14:22:20.000Z</time>
      </trkpt>
      <trkpt lat="46.17597" lon="13.73729">
        <ele>179.491884</ele>
        <time>2026-07-13T14:22:22.000Z</time>
      </trkpt>
      <trkpt lat="46.17587" lon="13.73739">
        <ele>179.003442</ele>
        <time>2026-07-13T14:22:24.000Z</time>
      </trkpt>
      <trkpt lat="46.1757" lon="13.73765">
        <ele>178.024767</ele>
        <time>2026-07-13T14:22:28.000Z</time>
      </trkpt>
      <trkpt lat="46.17563" lon="13.73782">
        <ele>177.468812</ele>
        <time>2026-07-13T14:22:30.000Z</time>
      </trkpt>
      <trkpt lat="46.17547" lon="13.73821">
        <ele>176.191184</ele>
        <time>2026-07-13T14:22:34.000Z</time>
      </trkpt>
      <trkpt lat="46.17537" lon="13.73838">
        <ele>175.487575</ele>
        <time>2026-07-13T14:22:36.000Z</time>
      </trkpt>
      <trkpt lat="46.1753" lon="13.73843">
        <ele>175.137868</ele>
        <time>2026-07-13T14:22:37.000Z</time>
      </trkpt>
      <trkpt lat="46.17524" lon="13.73847">
        <ele>174.799916</ele>
        <time>2026-07-13T14:22:38.000Z</time>
      </trkpt>
      <trkpt lat="46.17511" lon="13.73855">
        <ele>174.131065</ele>
        <time>2026-07-13T14:22:40.000Z</time>
      </trkpt>
      <trkpt lat="46.17505" lon="13.73861">
        <ele>173.805484</ele>
        <time>2026-07-13T14:22:41.000Z</time>
      </trkpt>
      <trkpt lat="46.17502" lon="13.73868">
        <ele>173.50379</ele>
        <time>2026-07-13T14:22:42.000Z</time>
      </trkpt>
      <trkpt lat="46.17497" lon="13.73884">
        <ele>172.920509</ele>
        <time>2026-07-13T14:22:44.000Z</time>
      </trkpt>
      <trkpt lat="46.17489" lon="13.73897">
        <ele>172.367274</ele>
        <time>2026-07-13T14:22:46.000Z</time>
      </trkpt>
      <trkpt lat="46.17481" lon="13.7391">
        <ele>171.796248</ele>
        <time>2026-07-13T14:22:48.000Z</time>
      </trkpt>
      <trkpt lat="46.17473" lon="13.73924">
        <ele>171.183434</ele>
        <time>2026-07-13T14:22:50.000Z</time>
      </trkpt>
      <trkpt lat="46.17468" lon="13.73942">
        <ele>170.563002</ele>
        <time>2026-07-13T14:22:52.000Z</time>
      </trkpt>
      <trkpt lat="46.17465" lon="13.73951">
        <ele>170.218682</ele>
        <time>2026-07-13T14:22:53.000Z</time>
      </trkpt>
      <trkpt lat="46.17457" lon="13.73971">
        <ele>169.469883</ele>
        <time>2026-07-13T14:22:55.000Z</time>
      </trkpt>
      <trkpt lat="46.17448" lon="13.73991">
        <ele>168.664993</ele>
        <time>2026-07-13T14:22:57.000Z</time>
      </trkpt>
      <trkpt lat="46.17443" lon="13.74011">
        <ele>167.958032</ele>
        <time>2026-07-13T14:22:59.000Z</time>
      </trkpt>
      <trkpt lat="46.17441" lon="13.74024">
        <ele>167.53368</ele>
        <time>2026-07-13T14:23:01.000Z</time>
      </trkpt>
      <trkpt lat="46.17442" lon="13.74027">
        <ele>167.409515</ele>
        <time>2026-07-13T14:23:02.000Z</time>
      </trkpt>
      <trkpt lat="46.17444" lon="13.74031">
        <ele>167.397069</ele>
        <time>2026-07-13T14:23:03.000Z</time>
      </trkpt>
      <trkpt lat="46.17448" lon="13.74033">
        <ele>167.377431</ele>
        <time>2026-07-13T14:23:05.000Z</time>
      </trkpt>
      <trkpt lat="46.1746" lon="13.74031">
        <ele>167.322845</ele>
        <time>2026-07-13T14:23:09.000Z</time>
      </trkpt>
      <trkpt lat="46.1747" lon="13.74035">
        <ele>167.27679</ele>
        <time>2026-07-13T14:23:13.000Z</time>
      </trkpt>
      <trkpt lat="46.17478" lon="13.74042">
        <ele>167.23582</ele>
        <time>2026-07-13T14:23:18.000Z</time>
      </trkpt>
      <trkpt lat="46.17478" lon="13.74042">
        <ele>167.234035</ele>
        <time>2026-07-13T14:23:19.000Z</time>
      </trkpt>
      <trkpt lat="46.17483" lon="13.74046">
        <ele>167.210247</ele>
        <time>2026-07-13T14:23:49.000Z</time>
      </trkpt>
      <trkpt lat="46.17485" lon="13.74048">
        <ele>167.197122</ele>
        <time>2026-07-13T14:23:50.000Z</time>
      </trkpt>
      <trkpt lat="46.17496" lon="13.74059">
        <ele>167.139341</ele>
        <time>2026-07-13T14:23:55.000Z</time>
      </trkpt>
      <trkpt lat="46.17502" lon="13.74065">
        <ele>167.108855</ele>
        <time>2026-07-13T14:23:57.000Z</time>
      </trkpt>
      <trkpt lat="46.17504" lon="13.74073">
        <ele>167.083462</ele>
        <time>2026-07-13T14:23:59.000Z</time>
      </trkpt>
      <trkpt lat="46.17499" lon="13.74084">
        <ele>167.04158</ele>
        <time>2026-07-13T14:24:03.000Z</time>
      </trkpt>
      <trkpt lat="46.17494" lon="13.7409">
        <ele>167.013927</ele>
        <time>2026-07-13T14:24:06.000Z</time>
      </trkpt>
      <trkpt lat="46.1749" lon="13.74097">
        <ele>166.984448</ele>
        <time>2026-07-13T14:24:09.000Z</time>
      </trkpt>
      <trkpt lat="46.17489" lon="13.74104">
        <ele>166.963786</ele>
        <time>2026-07-13T14:24:11.000Z</time>
      </trkpt>
      <trkpt lat="46.17489" lon="13.74107">
        <ele>166.954239</ele>
        <time>2026-07-13T14:24:12.000Z</time>
      </trkpt>
      <trkpt lat="46.1749" lon="13.74113">
        <ele>166.933981</ele>
        <time>2026-07-13T14:24:14.000Z</time>
      </trkpt>
      <trkpt lat="46.17494" lon="13.74125">
        <ele>166.894857</ele>
        <time>2026-07-13T14:24:18.000Z</time>
      </trkpt>
      <trkpt lat="46.17495" lon="13.74128">
        <ele>166.88482</ele>
        <time>2026-07-13T14:24:19.000Z</time>
      </trkpt>
      <trkpt lat="46.17495" lon="13.74131">
        <ele>166.875435</ele>
        <time>2026-07-13T14:24:20.000Z</time>
      </trkpt>
      <trkpt lat="46.17494" lon="13.74134">
        <ele>166.867076</ele>
        <time>2026-07-13T14:24:21.000Z</time>
      </trkpt>
      <trkpt lat="46.17493" lon="13.74137">
        <ele>166.858276</ele>
        <time>2026-07-13T14:24:22.000Z</time>
      </trkpt>
      <trkpt lat="46.1749" lon="13.7414">
        <ele>166.84001</ele>
        <time>2026-07-13T14:24:24.000Z</time>
      </trkpt>
      <trkpt lat="46.17486" lon="13.74144">
        <ele>166.818909</ele>
        <time>2026-07-13T14:24:26.000Z</time>
      </trkpt>
      <trkpt lat="46.17481" lon="13.74148">
        <ele>166.793619</ele>
        <time>2026-07-13T14:24:28.000Z</time>
      </trkpt>
      <trkpt lat="46.17469" lon="13.74157">
        <ele>166.735709</ele>
        <time>2026-07-13T14:24:32.000Z</time>
      </trkpt>
      <trkpt lat="46.17451" lon="13.74168">
        <ele>166.650776</ele>
        <time>2026-07-13T14:24:37.000Z</time>
      </trkpt>
      <trkpt lat="46.17441" lon="13.74177">
        <ele>166.571481</ele>
        <time>2026-07-13T14:24:40.000Z</time>
      </trkpt>
      <trkpt lat="46.17415" lon="13.74207">
        <ele>166.273826</ele>
        <time>2026-07-13T14:24:48.000Z</time>
      </trkpt>
      <trkpt lat="46.17396" lon="13.74224">
        <ele>166.06259</ele>
        <time>2026-07-13T14:24:53.000Z</time>
      </trkpt>
      <trkpt lat="46.17391" lon="13.74228">
        <ele>166.018032</ele>
        <time>2026-07-13T14:24:54.000Z</time>
      </trkpt>
      <trkpt lat="46.17384" lon="13.74237">
        <ele>165.933494</ele>
        <time>2026-07-13T14:24:56.000Z</time>
      </trkpt>
      <trkpt lat="46.1738" lon="13.7424">
        <ele>165.89053</ele>
        <time>2026-07-13T14:24:57.000Z</time>
      </trkpt>
      <trkpt lat="46.17372" lon="13.74249">
        <ele>165.797949</ele>
        <time>2026-07-13T14:24:59.000Z</time>
      </trkpt>
      <trkpt lat="46.17367" lon="13.74252">
        <ele>165.752615</ele>
        <time>2026-07-13T14:25:00.000Z</time>
      </trkpt>
      <trkpt lat="46.17363" lon="13.74256">
        <ele>165.704927</ele>
        <time>2026-07-13T14:25:01.000Z</time>
      </trkpt>
      <trkpt lat="46.17358" lon="13.74259">
        <ele>165.662103</ele>
        <time>2026-07-13T14:25:02.000Z</time>
      </trkpt>
      <trkpt lat="46.17353" lon="13.74259">
        <ele>165.616801</ele>
        <time>2026-07-13T14:25:03.000Z</time>
      </trkpt>
      <trkpt lat="46.17344" lon="13.74254">
        <ele>165.529907</ele>
        <time>2026-07-13T14:25:05.000Z</time>
      </trkpt>
      <trkpt lat="46.17334" lon="13.74245">
        <ele>165.421319</ele>
        <time>2026-07-13T14:25:07.000Z</time>
      </trkpt>
      <trkpt lat="46.17325" lon="13.74229">
        <ele>165.290307</ele>
        <time>2026-07-13T14:25:10.000Z</time>
      </trkpt>
      <trkpt lat="46.17324" lon="13.74222">
        <ele>165.245814</ele>
        <time>2026-07-13T14:25:11.000Z</time>
      </trkpt>
      <trkpt lat="46.17323" lon="13.74213">
        <ele>165.19187</ele>
        <time>2026-07-13T14:25:12.000Z</time>
      </trkpt>
      <trkpt lat="46.17325" lon="13.74205">
        <ele>165.134823</ele>
        <time>2026-07-13T14:25:13.000Z</time>
      </trkpt>
      <trkpt lat="46.17326" lon="13.74198">
        <ele>165.093633</ele>
        <time>2026-07-13T14:25:14.000Z</time>
      </trkpt>
      <trkpt lat="46.17328" lon="13.74192">
        <ele>165.051539</ele>
        <time>2026-07-13T14:25:15.000Z</time>
      </trkpt>
      <trkpt lat="46.17326" lon="13.74182">
        <ele>164.988578</ele>
        <time>2026-07-13T14:25:17.000Z</time>
      </trkpt>
      <trkpt lat="46.17319" lon="13.74191">
        <ele>164.90234</ele>
        <time>2026-07-13T14:25:20.000Z</time>
      </trkpt>
      <trkpt lat="46.17309" lon="13.7423">
        <ele>164.625194</ele>
        <time>2026-07-13T14:25:27.000Z</time>
      </trkpt>
      <trkpt lat="46.17304" lon="13.74246">
        <ele>164.507779</ele>
        <time>2026-07-13T14:25:30.000Z</time>
      </trkpt>
      <trkpt lat="46.17296" lon="13.74265">
        <ele>164.359583</ele>
        <time>2026-07-13T14:25:34.000Z</time>
      </trkpt>
      <trkpt lat="46.17288" lon="13.74278">
        <ele>164.241163</ele>
        <time>2026-07-13T14:25:37.000Z</time>
      </trkpt>
      <trkpt lat="46.1728" lon="13.74291">
        <ele>164.125143</ele>
        <time>2026-07-13T14:25:40.000Z</time>
      </trkpt>
      <trkpt lat="46.17273" lon="13.74304">
        <ele>164.016271</ele>
        <time>2026-07-13T14:25:43.000Z</time>
      </trkpt>
      <trkpt lat="46.17265" lon="13.74321">
        <ele>163.881233</ele>
        <time>2026-07-13T14:25:47.000Z</time>
      </trkpt>
      <trkpt lat="46.17253" lon="13.74343">
        <ele>163.694998</ele>
        <time>2026-07-13T14:25:54.000Z</time>
      </trkpt>
      <trkpt lat="46.17246" lon="13.74355">
        <ele>163.594129</ele>
        <time>2026-07-13T14:25:58.000Z</time>
      </trkpt>
      <trkpt lat="46.17243" lon="13.7436">
        <ele>163.545426</ele>
        <time>2026-07-13T14:26:00.000Z</time>
      </trkpt>
      <trkpt lat="46.17232" lon="13.74375">
        <ele>163.403591</ele>
        <time>2026-07-13T14:26:06.000Z</time>
      </trkpt>
      <trkpt lat="46.17214" lon="13.74396">
        <ele>163.363892</ele>
        <time>2026-07-13T14:26:15.000Z</time>
      </trkpt>
      <trkpt lat="46.17202" lon="13.74406">
        <ele>163.52612</ele>
        <time>2026-07-13T14:26:20.000Z</time>
      </trkpt>
      <trkpt lat="46.17194" lon="13.74413">
        <ele>163.626002</ele>
        <time>2026-07-13T14:26:23.000Z</time>
      </trkpt>
      <trkpt lat="46.1718" lon="13.74433">
        <ele>163.839181</ele>
        <time>2026-07-13T14:26:29.000Z</time>
      </trkpt>
      <trkpt lat="46.17177" lon="13.74436">
        <ele>163.884165</ele>
        <time>2026-07-13T14:26:30.000Z</time>
      </trkpt>
      <trkpt lat="46.17174" lon="13.74439">
        <ele>163.929149</ele>
        <time>2026-07-13T14:26:31.000Z</time>
      </trkpt>
      <trkpt lat="46.17164" lon="13.74449">
        <ele>164.058726</ele>
        <time>2026-07-13T14:26:34.000Z</time>
      </trkpt>
      <trkpt lat="46.17158" lon="13.74455">
        <ele>164.144331</ele>
        <time>2026-07-13T14:26:36.000Z</time>
      </trkpt>
      <trkpt lat="46.17151" lon="13.74461">
        <ele>164.234271</ele>
        <time>2026-07-13T14:26:38.000Z</time>
      </trkpt>
      <trkpt lat="46.17122" lon="13.74484">
        <ele>164.597314</ele>
        <time>2026-07-13T14:26:45.000Z</time>
      </trkpt>
      <trkpt lat="46.17108" lon="13.745">
        <ele>164.796155</ele>
        <time>2026-07-13T14:26:49.000Z</time>
      </trkpt>
      <trkpt lat="46.17105" lon="13.74503">
        <ele>164.840948</ele>
        <time>2026-07-13T14:26:50.000Z</time>
      </trkpt>
      <trkpt lat="46.171" lon="13.74511">
        <ele>164.919558</ele>
        <time>2026-07-13T14:26:52.000Z</time>
      </trkpt>
      <trkpt lat="46.17085" lon="13.74523">
        <ele>165.109429</ele>
        <time>2026-07-13T14:26:57.000Z</time>
      </trkpt>
      <trkpt lat="46.17067" lon="13.74554">
        <ele>165.175568</ele>
        <time>2026-07-13T14:27:04.000Z</time>
      </trkpt>
      <trkpt lat="46.17061" lon="13.74573">
        <ele>165.090177</ele>
        <time>2026-07-13T14:27:07.000Z</time>
      </trkpt>
      <trkpt lat="46.17056" lon="13.74594">
        <ele>164.994053</ele>
        <time>2026-07-13T14:27:10.000Z</time>
      </trkpt>
      <trkpt lat="46.1705" lon="13.74626">
        <ele>164.85739</ele>
        <time>2026-07-13T14:27:14.000Z</time>
      </trkpt>
      <trkpt lat="46.17046" lon="13.74648">
        <ele>164.762091</ele>
        <time>2026-07-13T14:27:17.000Z</time>
      </trkpt>
      <trkpt lat="46.17034" lon="13.74708">
        <ele>164.497585</ele>
        <time>2026-07-13T14:27:26.000Z</time>
      </trkpt>
      <trkpt lat="46.1703" lon="13.74735">
        <ele>164.380732</ele>
        <time>2026-07-13T14:27:30.000Z</time>
      </trkpt>
      <trkpt lat="46.17028" lon="13.74754">
        <ele>164.300047</ele>
        <time>2026-07-13T14:27:33.000Z</time>
      </trkpt>
      <trkpt lat="46.17027" lon="13.74761">
        <ele>164.272619</ele>
        <time>2026-07-13T14:27:34.000Z</time>
      </trkpt>
      <trkpt lat="46.17027" lon="13.74787">
        <ele>164.100709</ele>
        <time>2026-07-13T14:27:38.000Z</time>
      </trkpt>
      <trkpt lat="46.17026" lon="13.74801">
        <ele>163.725406</ele>
        <time>2026-07-13T14:27:40.000Z</time>
      </trkpt>
      <trkpt lat="46.17024" lon="13.74807">
        <ele>163.552296</ele>
        <time>2026-07-13T14:27:41.000Z</time>
      </trkpt>
      <trkpt lat="46.17023" lon="13.74813">
        <ele>163.382942</ele>
        <time>2026-07-13T14:27:42.000Z</time>
      </trkpt>
      <trkpt lat="46.17018" lon="13.74838">
        <ele>162.648953</ele>
        <time>2026-07-13T14:27:46.000Z</time>
      </trkpt>
      <trkpt lat="46.17015" lon="13.74877">
        <ele>161.593134</ele>
        <time>2026-07-13T14:27:53.000Z</time>
      </trkpt>
      <trkpt lat="46.17016" lon="13.74894">
        <ele>161.105741</ele>
        <time>2026-07-13T14:27:56.000Z</time>
      </trkpt>
      <trkpt lat="46.17017" lon="13.74919">
        <ele>160.426908</ele>
        <time>2026-07-13T14:28:00.000Z</time>
      </trkpt>
      <trkpt lat="46.1702" lon="13.74944">
        <ele>159.709916</ele>
        <time>2026-07-13T14:28:04.000Z</time>
      </trkpt>
      <trkpt lat="46.17022" lon="13.74964">
        <ele>159.17529</ele>
        <time>2026-07-13T14:28:07.000Z</time>
      </trkpt>
      <trkpt lat="46.17023" lon="13.7497">
        <ele>158.991438</ele>
        <time>2026-07-13T14:28:08.000Z</time>
      </trkpt>
      <trkpt lat="46.17033" lon="13.75021">
        <ele>157.534563</ele>
        <time>2026-07-13T14:28:16.000Z</time>
      </trkpt>
      <trkpt lat="46.17044" lon="13.75079">
        <ele>156.595454</ele>
        <time>2026-07-13T14:28:25.000Z</time>
      </trkpt>
      <trkpt lat="46.17055" lon="13.75125">
        <ele>156.104324</ele>
        <time>2026-07-13T14:28:33.000Z</time>
      </trkpt>
      <trkpt lat="46.17061" lon="13.7516">
        <ele>155.735223</ele>
        <time>2026-07-13T14:28:40.000Z</time>
      </trkpt>
      <trkpt lat="46.17063" lon="13.75199">
        <ele>155.337564</ele>
        <time>2026-07-13T14:28:47.000Z</time>
      </trkpt>
      <trkpt lat="46.17061" lon="13.75231">
        <ele>155.014233</ele>
        <time>2026-07-13T14:28:53.000Z</time>
      </trkpt>
      <trkpt lat="46.1706" lon="13.75236">
        <ele>154.962802</ele>
        <time>2026-07-13T14:28:54.000Z</time>
      </trkpt>
      <trkpt lat="46.17052" lon="13.75271">
        <ele>154.585175</ele>
        <time>2026-07-13T14:29:01.000Z</time>
      </trkpt>
      <trkpt lat="46.17036" lon="13.75309">
        <ele>155.129809</ele>
        <time>2026-07-13T14:29:10.000Z</time>
      </trkpt>
      <trkpt lat="46.17012" lon="13.75342">
        <ele>156.622704</ele>
        <time>2026-07-13T14:29:20.000Z</time>
      </trkpt>
      <trkpt lat="46.16995" lon="13.75361">
        <ele>157.6339</ele>
        <time>2026-07-13T14:29:27.000Z</time>
      </trkpt>
      <trkpt lat="46.16975" lon="13.75388">
        <ele>158.874401</ele>
        <time>2026-07-13T14:29:36.000Z</time>
      </trkpt>
      <trkpt lat="46.16961" lon="13.75406">
        <ele>159.708539</ele>
        <time>2026-07-13T14:29:43.000Z</time>
      </trkpt>
      <trkpt lat="46.16939" lon="13.75428">
        <ele>160.940903</ele>
        <time>2026-07-13T14:29:53.000Z</time>
      </trkpt>
      <trkpt lat="46.1692" lon="13.75445">
        <ele>161.938587</ele>
        <time>2026-07-13T14:30:01.000Z</time>
      </trkpt>
      <trkpt lat="46.16899" lon="13.75454">
        <ele>162.557798</ele>
        <time>2026-07-13T14:30:08.000Z</time>
      </trkpt>
      <trkpt lat="46.16896" lon="13.75454">
        <ele>162.567414</ele>
        <time>2026-07-13T14:30:09.000Z</time>
      </trkpt>
      <trkpt lat="46.16869" lon="13.75458">
        <ele>162.647423</ele>
        <time>2026-07-13T14:30:16.000Z</time>
      </trkpt>
      <trkpt lat="46.16842" lon="13.75463">
        <ele>162.728577</ele>
        <time>2026-07-13T14:30:22.000Z</time>
      </trkpt>
      <trkpt lat="46.16838" lon="13.75463">
        <ele>162.742128</ele>
        <time>2026-07-13T14:30:23.000Z</time>
      </trkpt>
      <trkpt lat="46.16833" lon="13.75464">
        <ele>162.75538</ele>
        <time>2026-07-13T14:30:24.000Z</time>
      </trkpt>
      <trkpt lat="46.16825" lon="13.75464">
        <ele>162.780269</ele>
        <time>2026-07-13T14:30:27.000Z</time>
      </trkpt>
      <trkpt lat="46.16825" lon="13.75464">
        <ele>162.782068</ele>
        <time>2026-07-13T14:30:29.000Z</time>
      </trkpt>
      <trkpt lat="46.16818" lon="13.75466">
        <ele>162.80162</ele>
        <time>2026-07-13T14:30:55.000Z</time>
      </trkpt>
      <trkpt lat="46.16808" lon="13.75468">
        <ele>162.831202</ele>
        <time>2026-07-13T14:30:58.000Z</time>
      </trkpt>
      <trkpt lat="46.16804" lon="13.75469">
        <ele>162.84388</ele>
        <time>2026-07-13T14:30:59.000Z</time>
      </trkpt>
      <trkpt lat="46.16787" lon="13.75472">
        <ele>162.896856</ele>
        <time>2026-07-13T14:31:03.000Z</time>
      </trkpt>
      <trkpt lat="46.16778" lon="13.75474">
        <ele>162.923536</ele>
        <time>2026-07-13T14:31:05.000Z</time>
      </trkpt>
      <trkpt lat="46.1676" lon="13.75477">
        <ele>162.977298</ele>
        <time>2026-07-13T14:31:09.000Z</time>
      </trkpt>
      <trkpt lat="46.16751" lon="13.75479">
        <ele>163.003651</ele>
        <time>2026-07-13T14:31:11.000Z</time>
      </trkpt>
      <trkpt lat="46.16747" lon="13.7548">
        <ele>163.017668</ele>
        <time>2026-07-13T14:31:12.000Z</time>
      </trkpt>
      <trkpt lat="46.16711" lon="13.75487">
        <ele>162.995143</ele>
        <time>2026-07-13T14:31:20.000Z</time>
      </trkpt>
      <trkpt lat="46.16701" lon="13.75487">
        <ele>162.955953</ele>
        <time>2026-07-13T14:31:22.000Z</time>
      </trkpt>
      <trkpt lat="46.16663" lon="13.75479">
        <ele>162.799719</ele>
        <time>2026-07-13T14:31:30.000Z</time>
      </trkpt>
      <trkpt lat="46.16654" lon="13.75476">
        <ele>162.763694</ele>
        <time>2026-07-13T14:31:32.000Z</time>
      </trkpt>
      <trkpt lat="46.16636" lon="13.75464">
        <ele>162.682464</ele>
        <time>2026-07-13T14:31:36.000Z</time>
      </trkpt>
      <trkpt lat="46.16632" lon="13.75461">
        <ele>162.663421</ele>
        <time>2026-07-13T14:31:37.000Z</time>
      </trkpt>
      <trkpt lat="46.16617" lon="13.75443">
        <ele>162.587377</ele>
        <time>2026-07-13T14:31:41.000Z</time>
      </trkpt>
      <trkpt lat="46.16589" lon="13.7541">
        <ele>162.440592</ele>
        <time>2026-07-13T14:31:50.000Z</time>
      </trkpt>
      <trkpt lat="46.1657" lon="13.75385">
        <ele>162.32776</ele>
        <time>2026-07-13T14:31:56.000Z</time>
      </trkpt>
      <trkpt lat="46.16554" lon="13.75367">
        <ele>162.146022</ele>
        <time>2026-07-13T14:32:00.000Z</time>
      </trkpt>
      <trkpt lat="46.16531" lon="13.75347">
        <ele>161.902639</ele>
        <time>2026-07-13T14:32:05.000Z</time>
      </trkpt>
      <trkpt lat="46.16525" lon="13.75343">
        <ele>161.846481</ele>
        <time>2026-07-13T14:32:06.000Z</time>
      </trkpt>
      <trkpt lat="46.16487" lon="13.75318">
        <ele>161.467135</ele>
        <time>2026-07-13T14:32:13.000Z</time>
      </trkpt>
      <trkpt lat="46.16464" lon="13.75308">
        <ele>161.249233</ele>
        <time>2026-07-13T14:32:17.000Z</time>
      </trkpt>
      <trkpt lat="46.16453" lon="13.75306">
        <ele>161.15191</ele>
        <time>2026-07-13T14:32:19.000Z</time>
      </trkpt>
      <trkpt lat="46.16418" lon="13.75297">
        <ele>160.834226</ele>
        <time>2026-07-13T14:32:26.000Z</time>
      </trkpt>
      <trkpt lat="46.16397" lon="13.75293">
        <ele>160.816308</ele>
        <time>2026-07-13T14:32:30.000Z</time>
      </trkpt>
      <trkpt lat="46.16367" lon="13.75284">
        <ele>161.112201</ele>
        <time>2026-07-13T14:32:36.000Z</time>
      </trkpt>
      <trkpt lat="46.16342" lon="13.75263">
        <ele>161.381704</ele>
        <time>2026-07-13T14:32:41.000Z</time>
      </trkpt>
      <trkpt lat="46.16328" lon="13.7524">
        <ele>161.582418</ele>
        <time>2026-07-13T14:32:45.000Z</time>
      </trkpt>
      <trkpt lat="46.16323" lon="13.75228">
        <ele>161.674522</ele>
        <time>2026-07-13T14:32:47.000Z</time>
      </trkpt>
      <trkpt lat="46.16315" lon="13.75199">
        <ele>161.880236</ele>
        <time>2026-07-13T14:32:52.000Z</time>
      </trkpt>
      <trkpt lat="46.16312" lon="13.75192">
        <ele>161.939329</ele>
        <time>2026-07-13T14:32:54.000Z</time>
      </trkpt>
      <trkpt lat="46.16311" lon="13.75189">
        <ele>161.957159</ele>
        <time>2026-07-13T14:32:57.000Z</time>
      </trkpt>
      <trkpt lat="46.16309" lon="13.75185">
        <ele>161.989057</ele>
        <time>2026-07-13T14:33:17.000Z</time>
      </trkpt>
      <trkpt lat="46.16306" lon="13.75179">
        <ele>162.038774</ele>
        <time>2026-07-13T14:33:19.000Z</time>
      </trkpt>
      <trkpt lat="46.16292" lon="13.75157">
        <ele>162.231425</ele>
        <time>2026-07-13T14:33:24.000Z</time>
      </trkpt>
      <trkpt lat="46.16278" lon="13.75137">
        <ele>162.419856</ele>
        <time>2026-07-13T14:33:28.000Z</time>
      </trkpt>
      <trkpt lat="46.16265" lon="13.75117">
        <ele>162.116828</ele>
        <time>2026-07-13T14:33:32.000Z</time>
      </trkpt>
      <trkpt lat="46.16247" lon="13.75091">
        <ele>161.650219</ele>
        <time>2026-07-13T14:33:37.000Z</time>
      </trkpt>
      <trkpt lat="46.16235" lon="13.75074">
        <ele>161.353456</ele>
        <time>2026-07-13T14:33:40.000Z</time>
      </trkpt>
      <trkpt lat="46.16219" lon="13.75049">
        <ele>160.912417</ele>
        <time>2026-07-13T14:33:45.000Z</time>
      </trkpt>
      <trkpt lat="46.16209" lon="13.75035">
        <ele>160.65836</ele>
        <time>2026-07-13T14:33:48.000Z</time>
      </trkpt>
      <trkpt lat="46.16176" lon="13.74997">
        <ele>159.897612</ele>
        <time>2026-07-13T14:33:57.000Z</time>
      </trkpt>
      <trkpt lat="46.1615" lon="13.74974">
        <ele>159.340772</ele>
        <time>2026-07-13T14:34:04.000Z</time>
      </trkpt>
      <trkpt lat="46.16146" lon="13.74972">
        <ele>159.258732</ele>
        <time>2026-07-13T14:34:05.000Z</time>
      </trkpt>
      <trkpt lat="46.1613" lon="13.74963">
        <ele>159.196837</ele>
        <time>2026-07-13T14:34:09.000Z</time>
      </trkpt>
      <trkpt lat="46.16122" lon="13.74957">
        <ele>159.224542</ele>
        <time>2026-07-13T14:34:11.000Z</time>
      </trkpt>
      <trkpt lat="46.16118" lon="13.74955">
        <ele>159.238437</ele>
        <time>2026-07-13T14:34:12.000Z</time>
      </trkpt>
      <trkpt lat="46.16085" lon="13.74941">
        <ele>159.344757</ele>
        <time>2026-07-13T14:34:20.000Z</time>
      </trkpt>
      <trkpt lat="46.1605" lon="13.74927">
        <ele>159.460328</ele>
        <time>2026-07-13T14:34:28.000Z</time>
      </trkpt>
      <trkpt lat="46.16012" lon="13.74909">
        <ele>159.583889</ele>
        <time>2026-07-13T14:34:37.000Z</time>
      </trkpt>
      <trkpt lat="46.15986" lon="13.749">
        <ele>159.66723</ele>
        <time>2026-07-13T14:34:43.000Z</time>
      </trkpt>
      <trkpt lat="46.15977" lon="13.74897">
        <ele>159.695704</ele>
        <time>2026-07-13T14:34:45.000Z</time>
      </trkpt>
      <trkpt lat="46.15943" lon="13.74882">
        <ele>159.659887</ele>
        <time>2026-07-13T14:34:53.000Z</time>
      </trkpt>
      <trkpt lat="46.15908" lon="13.74862">
        <ele>159.57487</ele>
        <time>2026-07-13T14:35:01.000Z</time>
      </trkpt>
      <trkpt lat="46.15894" lon="13.74859">
        <ele>159.541847</ele>
        <time>2026-07-13T14:35:04.000Z</time>
      </trkpt>
      <trkpt lat="46.1589" lon="13.74858">
        <ele>159.530757</ele>
        <time>2026-07-13T14:35:05.000Z</time>
      </trkpt>
      <trkpt lat="46.15854" lon="13.74846">
        <ele>159.446898</ele>
        <time>2026-07-13T14:35:12.000Z</time>
      </trkpt>
      <trkpt lat="46.15814" lon="13.74828">
        <ele>159.349307</ele>
        <time>2026-07-13T14:35:20.000Z</time>
      </trkpt>
      <trkpt lat="46.15769" lon="13.7481">
        <ele>159.202148</ele>
        <time>2026-07-13T14:35:29.000Z</time>
      </trkpt>
      <trkpt lat="46.15728" lon="13.74795">
        <ele>159.048832</ele>
        <time>2026-07-13T14:35:37.000Z</time>
      </trkpt>
      <trkpt lat="46.15675" lon="13.74774">
        <ele>158.850098</ele>
        <time>2026-07-13T14:35:47.000Z</time>
      </trkpt>
      <trkpt lat="46.15633" lon="13.74756">
        <ele>158.691145</ele>
        <time>2026-07-13T14:35:55.000Z</time>
      </trkpt>
      <trkpt lat="46.15601" lon="13.74743">
        <ele>159.417942</ele>
        <time>2026-07-13T14:36:01.000Z</time>
      </trkpt>
      <trkpt lat="46.15591" lon="13.74738">
        <ele>159.771073</ele>
        <time>2026-07-13T14:36:03.000Z</time>
      </trkpt>
      <trkpt lat="46.15572" lon="13.7473">
        <ele>160.450678</ele>
        <time>2026-07-13T14:36:07.000Z</time>
      </trkpt>
      <trkpt lat="46.15564" lon="13.74728">
        <ele>160.716452</ele>
        <time>2026-07-13T14:36:09.000Z</time>
      </trkpt>
      <trkpt lat="46.15561" lon="13.74727">
        <ele>160.842698</ele>
        <time>2026-07-13T14:36:12.000Z</time>
      </trkpt>
      <trkpt lat="46.15555" lon="13.74725">
        <ele>161.024881</ele>
        <time>2026-07-13T14:36:17.000Z</time>
      </trkpt>
      <trkpt lat="46.15552" lon="13.74725">
        <ele>161.139871</ele>
        <time>2026-07-13T14:36:19.000Z</time>
      </trkpt>
      <trkpt lat="46.15538" lon="13.74721">
        <ele>161.613004</ele>
        <time>2026-07-13T14:36:24.000Z</time>
      </trkpt>
      <trkpt lat="46.15518" lon="13.74711">
        <ele>162.320453</ele>
        <time>2026-07-13T14:36:30.000Z</time>
      </trkpt>
      <trkpt lat="46.15492" lon="13.74699">
        <ele>163.244232</ele>
        <time>2026-07-13T14:36:36.000Z</time>
      </trkpt>
      <trkpt lat="46.15451" lon="13.74673">
        <ele>164.698267</ele>
        <time>2026-07-13T14:36:44.000Z</time>
      </trkpt>
      <trkpt lat="46.15443" lon="13.74663">
        <ele>164.632384</ele>
        <time>2026-07-13T14:36:46.000Z</time>
      </trkpt>
      <trkpt lat="46.15429" lon="13.74644">
        <ele>164.512832</ele>
        <time>2026-07-13T14:36:49.000Z</time>
      </trkpt>
      <trkpt lat="46.15426" lon="13.74639">
        <ele>164.48243</ele>
        <time>2026-07-13T14:36:50.000Z</time>
      </trkpt>
      <trkpt lat="46.1541" lon="13.74611">
        <ele>164.33142</ele>
        <time>2026-07-13T14:36:54.000Z</time>
      </trkpt>
      <trkpt lat="46.15407" lon="13.74604">
        <ele>164.294652</ele>
        <time>2026-07-13T14:36:55.000Z</time>
      </trkpt>
      <trkpt lat="46.15393" lon="13.74565">
        <ele>164.106463</ele>
        <time>2026-07-13T14:37:00.000Z</time>
      </trkpt>
      <trkpt lat="46.15379" lon="13.74521">
        <ele>163.904711</ele>
        <time>2026-07-13T14:37:06.000Z</time>
      </trkpt>
      <trkpt lat="46.15369" lon="13.74493">
        <ele>163.767753</ele>
        <time>2026-07-13T14:37:10.000Z</time>
      </trkpt>
      <trkpt lat="46.15362" lon="13.74472">
        <ele>163.667253</ele>
        <time>2026-07-13T14:37:13.000Z</time>
      </trkpt>
      <trkpt lat="46.15358" lon="13.74457">
        <ele>163.601164</ele>
        <time>2026-07-13T14:37:15.000Z</time>
      </trkpt>
      <trkpt lat="46.15355" lon="13.74436">
        <ele>163.905101</ele>
        <time>2026-07-13T14:37:18.000Z</time>
      </trkpt>
      <trkpt lat="46.15353" lon="13.74396">
        <ele>164.464323</ele>
        <time>2026-07-13T14:37:24.000Z</time>
      </trkpt>
      <trkpt lat="46.15352" lon="13.74357">
        <ele>165.012209</ele>
        <time>2026-07-13T14:37:31.000Z</time>
      </trkpt>
      <trkpt lat="46.15348" lon="13.74319">
        <ele>165.560071</ele>
        <time>2026-07-13T14:37:39.000Z</time>
      </trkpt>
      <trkpt lat="46.15342" lon="13.74293">
        <ele>165.95336</ele>
        <time>2026-07-13T14:37:45.000Z</time>
      </trkpt>
      <trkpt lat="46.15328" lon="13.74259">
        <ele>166.495569</ele>
        <time>2026-07-13T14:37:53.000Z</time>
      </trkpt>
      <trkpt lat="46.15315" lon="13.74233">
        <ele>166.955471</ele>
        <time>2026-07-13T14:38:00.000Z</time>
      </trkpt>
      <trkpt lat="46.15297" lon="13.74201">
        <ele>167.721421</ele>
        <time>2026-07-13T14:38:09.000Z</time>
      </trkpt>
      <trkpt lat="46.15279" lon="13.74186">
        <ele>168.428287</ele>
        <time>2026-07-13T14:38:16.000Z</time>
      </trkpt>
      <trkpt lat="46.15265" lon="13.74177">
        <ele>168.962981</ele>
        <time>2026-07-13T14:38:22.000Z</time>
      </trkpt>
      <trkpt lat="46.1526" lon="13.74172">
        <ele>169.16384</ele>
        <time>2026-07-13T14:38:27.000Z</time>
      </trkpt>
      <trkpt lat="46.1526" lon="13.74172">
        <ele>169.16384</ele>
        <time>2026-07-13T14:38:28.000Z</time>
      </trkpt>
      <trkpt lat="46.15253" lon="13.7417">
        <ele>169.410791</ele>
        <time>2026-07-13T14:38:34.000Z</time>
      </trkpt>
      <trkpt lat="46.1525" lon="13.74172">
        <ele>169.525</ele>
        <time>2026-07-13T14:38:35.000Z</time>
      </trkpt>
      <trkpt lat="46.15242" lon="13.74185">
        <ele>169.921787</ele>
        <time>2026-07-13T14:38:39.000Z</time>
      </trkpt>
      <trkpt lat="46.15241" lon="13.74189">
        <ele>170.0269</ele>
        <time>2026-07-13T14:38:40.000Z</time>
      </trkpt>
      <trkpt lat="46.15237" lon="13.74203">
        <ele>170.384468</ele>
        <time>2026-07-13T14:38:43.000Z</time>
      </trkpt>
      <trkpt lat="46.1523" lon="13.74223">
        <ele>170.932121</ele>
        <time>2026-07-13T14:38:48.000Z</time>
      </trkpt>
      <trkpt lat="46.15226" lon="13.74233">
        <ele>171.198853</ele>
        <time>2026-07-13T14:38:52.000Z</time>
      </trkpt>
      <trkpt lat="46.15221" lon="13.74248">
        <ele>171.583743</ele>
        <time>2026-07-13T14:38:57.000Z</time>
      </trkpt>
      <trkpt lat="46.1522" lon="13.74252">
        <ele>171.686621</ele>
        <time>2026-07-13T14:38:59.000Z</time>
      </trkpt>
      <trkpt lat="46.15218" lon="13.74254">
        <ele>171.786656</ele>
        <time>2026-07-13T14:39:01.000Z</time>
      </trkpt>
      <trkpt lat="46.15216" lon="13.74255">
        <ele>171.84129</ele>
        <time>2026-07-13T14:39:02.000Z</time>
      </trkpt>
      <trkpt lat="46.15214" lon="13.74255">
        <ele>171.913195</ele>
        <time>2026-07-13T14:39:03.000Z</time>
      </trkpt>
      <trkpt lat="46.15203" lon="13.74253">
        <ele>172.294023</ele>
        <time>2026-07-13T14:39:06.000Z</time>
      </trkpt>
      <trkpt lat="46.15186" lon="13.7424">
        <ele>172.962105</ele>
        <time>2026-07-13T14:39:10.000Z</time>
      </trkpt>
      <trkpt lat="46.15182" lon="13.74238">
        <ele>173.099742</ele>
        <time>2026-07-13T14:39:11.000Z</time>
      </trkpt>
      <trkpt lat="46.15179" lon="13.74238">
        <ele>173.209303</ele>
        <time>2026-07-13T14:39:12.000Z</time>
      </trkpt>
      <trkpt lat="46.15174" lon="13.74243">
        <ele>173.399584</ele>
        <time>2026-07-13T14:39:14.000Z</time>
      </trkpt>
      <trkpt lat="46.15161" lon="13.74251">
        <ele>173.236139</ele>
        <time>2026-07-13T14:39:19.000Z</time>
      </trkpt>
      <trkpt lat="46.15158" lon="13.74252">
        <ele>173.20252</ele>
        <time>2026-07-13T14:39:20.000Z</time>
      </trkpt>
      <trkpt lat="46.15143" lon="13.74264">
        <ele>173.006333</ele>
        <time>2026-07-13T14:39:26.000Z</time>
      </trkpt>
      <trkpt lat="46.15133" lon="13.74284">
        <ele>172.811538</ele>
        <time>2026-07-13T14:39:33.000Z</time>
      </trkpt>
      <trkpt lat="46.15124" lon="13.74296">
        <ele>172.672222</ele>
        <time>2026-07-13T14:39:38.000Z</time>
      </trkpt>
      <trkpt lat="46.15121" lon="13.74301">
        <ele>172.615954</ele>
        <time>2026-07-13T14:39:40.000Z</time>
      </trkpt>
      <trkpt lat="46.15116" lon="13.74313">
        <ele>172.50273</ele>
        <time>2026-07-13T14:39:44.000Z</time>
      </trkpt>
      <trkpt lat="46.15115" lon="13.74321">
        <ele>172.442959</ele>
        <time>2026-07-13T14:39:46.000Z</time>
      </trkpt>
      <trkpt lat="46.15114" lon="13.74325">
        <ele>172.408297</ele>
        <time>2026-07-13T14:39:47.000Z</time>
      </trkpt>
      <trkpt lat="46.15113" lon="13.7435">
        <ele>172.21098</ele>
        <time>2026-07-13T14:39:53.000Z</time>
      </trkpt>
      <trkpt lat="46.15112" lon="13.7436">
        <ele>172.126756</ele>
        <time>2026-07-13T14:39:56.000Z</time>
      </trkpt>
      <trkpt lat="46.15109" lon="13.74382">
        <ele>171.948281</ele>
        <time>2026-07-13T14:40:02.000Z</time>
      </trkpt>
      <trkpt lat="46.1511" lon="13.74383">
        <ele>171.935191</ele>
        <time>2026-07-13T14:40:05.000Z</time>
      </trkpt>
      <trkpt lat="46.15108" lon="13.74388">
        <ele>171.889979</ele>
        <time>2026-07-13T14:40:17.000Z</time>
      </trkpt>
      <trkpt lat="46.15106" lon="13.74397">
        <ele>171.816586</ele>
        <time>2026-07-13T14:40:20.000Z</time>
      </trkpt>
      <trkpt lat="46.15097" lon="13.74414">
        <ele>171.648825</ele>
        <time>2026-07-13T14:40:26.000Z</time>
      </trkpt>
      <trkpt lat="46.15095" lon="13.74414">
        <ele>171.626112</ele>
        <time>2026-07-13T14:40:27.000Z</time>
      </trkpt>
      <trkpt lat="46.15093" lon="13.74414">
        <ele>171.601962</ele>
        <time>2026-07-13T14:40:28.000Z</time>
      </trkpt>
      <trkpt lat="46.15084" lon="13.74412">
        <ele>171.504132</ele>
        <time>2026-07-13T14:40:31.000Z</time>
      </trkpt>
      <trkpt lat="46.15066" lon="13.7441">
        <ele>171.331693</ele>
        <time>2026-07-13T14:40:36.000Z</time>
      </trkpt>
      <trkpt lat="46.15053" lon="13.74422">
        <ele>171.305658</ele>
        <time>2026-07-13T14:40:40.000Z</time>
      </trkpt>
      <trkpt lat="46.15035" lon="13.74452">
        <ele>171.25942</ele>
        <time>2026-07-13T14:40:45.000Z</time>
      </trkpt>
      <trkpt lat="46.15033" lon="13.74457">
        <ele>171.25228</ele>
        <time>2026-07-13T14:40:46.000Z</time>
      </trkpt>
      <trkpt lat="46.15018" lon="13.74483">
        <ele>171.213525</ele>
        <time>2026-07-13T14:40:50.000Z</time>
      </trkpt>
      <trkpt lat="46.15013" lon="13.74497">
        <ele>171.194805</ele>
        <time>2026-07-13T14:40:52.000Z</time>
      </trkpt>
      <trkpt lat="46.15007" lon="13.74543">
        <ele>171.140059</ele>
        <time>2026-07-13T14:40:58.000Z</time>
      </trkpt>
      <trkpt lat="46.15006" lon="13.74566">
        <ele>171.112632</ele>
        <time>2026-07-13T14:41:01.000Z</time>
      </trkpt>
      <trkpt lat="46.15006" lon="13.74581">
        <ele>171.094894</ele>
        <time>2026-07-13T14:41:03.000Z</time>
      </trkpt>
      <trkpt lat="46.15006" lon="13.74596">
        <ele>171.07799</ele>
        <time>2026-07-13T14:41:05.000Z</time>
      </trkpt>
      <trkpt lat="46.15007" lon="13.74624">
        <ele>171.044975</ele>
        <time>2026-07-13T14:41:09.000Z</time>
      </trkpt>
      <trkpt lat="46.15009" lon="13.74637">
        <ele>170.962698</ele>
        <time>2026-07-13T14:41:11.000Z</time>
      </trkpt>
      <trkpt lat="46.15013" lon="13.74657">
        <ele>170.635852</ele>
        <time>2026-07-13T14:41:14.000Z</time>
      </trkpt>
      <trkpt lat="46.15015" lon="13.7467">
        <ele>170.447586</ele>
        <time>2026-07-13T14:41:16.000Z</time>
      </trkpt>
      <trkpt lat="46.15015" lon="13.74675">
        <ele>170.357041</ele>
        <time>2026-07-13T14:41:17.000Z</time>
      </trkpt>
      <trkpt lat="46.15015" lon="13.74682">
        <ele>170.261866</ele>
        <time>2026-07-13T14:41:18.000Z</time>
      </trkpt>
      <trkpt lat="46.15018" lon="13.747">
        <ele>169.970279</ele>
        <time>2026-07-13T14:41:21.000Z</time>
      </trkpt>
      <trkpt lat="46.15018" lon="13.74707">
        <ele>169.870428</ele>
        <time>2026-07-13T14:41:22.000Z</time>
      </trkpt>
      <trkpt lat="46.15018" lon="13.74713">
        <ele>169.776709</ele>
        <time>2026-07-13T14:41:23.000Z</time>
      </trkpt>
      <trkpt lat="46.15021" lon="13.74739">
        <ele>169.371389</ele>
        <time>2026-07-13T14:41:27.000Z</time>
      </trkpt>
      <trkpt lat="46.15023" lon="13.74752">
        <ele>169.166683</ele>
        <time>2026-07-13T14:41:29.000Z</time>
      </trkpt>
      <trkpt lat="46.15026" lon="13.74776">
        <ele>168.784448</ele>
        <time>2026-07-13T14:41:33.000Z</time>
      </trkpt>
      <trkpt lat="46.15026" lon="13.74783">
        <ele>168.678534</ele>
        <time>2026-07-13T14:41:34.000Z</time>
      </trkpt>
      <trkpt lat="46.15026" lon="13.74808">
        <ele>168.302223</ele>
        <time>2026-07-13T14:41:38.000Z</time>
      </trkpt>
      <trkpt lat="46.15025" lon="13.74847">
        <ele>167.700535</ele>
        <time>2026-07-13T14:41:44.000Z</time>
      </trkpt>
      <trkpt lat="46.15026" lon="13.74859">
        <ele>167.508384</ele>
        <time>2026-07-13T14:41:46.000Z</time>
      </trkpt>
      <trkpt lat="46.15024" lon="13.74872">
        <ele>167.312182</ele>
        <time>2026-07-13T14:41:48.000Z</time>
      </trkpt>
      <trkpt lat="46.15022" lon="13.74893">
        <ele>167.038299</ele>
        <time>2026-07-13T14:41:51.000Z</time>
      </trkpt>
      <trkpt lat="46.15007" lon="13.74948">
        <ele>166.863461</ele>
        <time>2026-07-13T14:41:59.000Z</time>
      </trkpt>
      <trkpt lat="46.14997" lon="13.74992">
        <ele>166.725413</ele>
        <time>2026-07-13T14:42:05.000Z</time>
      </trkpt>
      <trkpt lat="46.14992" lon="13.75007">
        <ele>166.676235</ele>
        <time>2026-07-13T14:42:07.000Z</time>
      </trkpt>
      <trkpt lat="46.14983" lon="13.7503">
        <ele>166.598321</ele>
        <time>2026-07-13T14:42:10.000Z</time>
      </trkpt>
      <trkpt lat="46.14976" lon="13.75046">
        <ele>166.544032</ele>
        <time>2026-07-13T14:42:12.000Z</time>
      </trkpt>
      <trkpt lat="46.14971" lon="13.75062">
        <ele>166.490995</ele>
        <time>2026-07-13T14:42:14.000Z</time>
      </trkpt>
      <trkpt lat="46.14957" lon="13.75106">
        <ele>166.34821</ele>
        <time>2026-07-13T14:42:20.000Z</time>
      </trkpt>
      <trkpt lat="46.14951" lon="13.75123">
        <ele>166.291251</ele>
        <time>2026-07-13T14:42:23.000Z</time>
      </trkpt>
      <trkpt lat="46.14946" lon="13.75134">
        <ele>166.272909</ele>
        <time>2026-07-13T14:42:25.000Z</time>
      </trkpt>
      <trkpt lat="46.14942" lon="13.75145">
        <ele>166.260796</ele>
        <time>2026-07-13T14:42:27.000Z</time>
      </trkpt>
      <trkpt lat="46.14938" lon="13.75155">
        <ele>166.249255</ele>
        <time>2026-07-13T14:42:29.000Z</time>
      </trkpt>
      <trkpt lat="46.14928" lon="13.7518">
        <ele>166.221301</ele>
        <time>2026-07-13T14:42:34.000Z</time>
      </trkpt>
      <trkpt lat="46.14921" lon="13.75199">
        <ele>166.20005</ele>
        <time>2026-07-13T14:42:38.000Z</time>
      </trkpt>
      <trkpt lat="46.14919" lon="13.75204">
        <ele>166.194432</ele>
        <time>2026-07-13T14:42:39.000Z</time>
      </trkpt>
      <trkpt lat="46.1491" lon="13.75222">
        <ele>166.173274</ele>
        <time>2026-07-13T14:42:43.000Z</time>
      </trkpt>
      <trkpt lat="46.14906" lon="13.75231">
        <ele>166.162848</ele>
        <time>2026-07-13T14:42:45.000Z</time>
      </trkpt>
      <trkpt lat="46.14902" lon="13.7525">
        <ele>166.143125</ele>
        <time>2026-07-13T14:42:49.000Z</time>
      </trkpt>
      <trkpt lat="46.14897" lon="13.75259">
        <ele>166.132454</ele>
        <time>2026-07-13T14:42:51.000Z</time>
      </trkpt>
      <trkpt lat="46.14888" lon="13.75275">
        <ele>166.112421</ele>
        <time>2026-07-13T14:42:55.000Z</time>
      </trkpt>
      <trkpt lat="46.14874" lon="13.75296">
        <ele>166.084271</ele>
        <time>2026-07-13T14:43:01.000Z</time>
      </trkpt>
      <trkpt lat="46.14865" lon="13.75311">
        <ele>166.064905</ele>
        <time>2026-07-13T14:43:05.000Z</time>
      </trkpt>
      <trkpt lat="46.14861" lon="13.75342">
        <ele>166.033984</ele>
        <time>2026-07-13T14:43:11.000Z</time>
      </trkpt>
      <trkpt lat="46.14858" lon="13.75351">
        <ele>166.272198</ele>
        <time>2026-07-13T14:43:13.000Z</time>
      </trkpt>
      <trkpt lat="46.14857" lon="13.75365">
        <ele>166.874762</ele>
        <time>2026-07-13T14:43:16.000Z</time>
      </trkpt>
      <trkpt lat="46.14856" lon="13.7539">
        <ele>167.895416</ele>
        <time>2026-07-13T14:43:21.000Z</time>
      </trkpt>
      <trkpt lat="46.14855" lon="13.75395">
        <ele>168.095741</ele>
        <time>2026-07-13T14:43:22.000Z</time>
      </trkpt>
      <trkpt lat="46.14847" lon="13.75426">
        <ele>169.450569</ele>
        <time>2026-07-13T14:43:29.000Z</time>
      </trkpt>
      <trkpt lat="46.14838" lon="13.75438">
        <ele>170.151177</ele>
        <time>2026-07-13T14:43:33.000Z</time>
      </trkpt>
      <trkpt lat="46.14822" lon="13.75459">
        <ele>171.48496</ele>
        <time>2026-07-13T14:43:41.000Z</time>
      </trkpt>
      <trkpt lat="46.14812" lon="13.75476">
        <ele>172.385743</ele>
        <time>2026-07-13T14:43:46.000Z</time>
      </trkpt>
      <trkpt lat="46.148" lon="13.75506">
        <ele>173.80399</ele>
        <time>2026-07-13T14:43:53.000Z</time>
      </trkpt>
      <trkpt lat="46.14793" lon="13.75533">
        <ele>174.98351</ele>
        <time>2026-07-13T14:43:59.000Z</time>
      </trkpt>
      <trkpt lat="46.14785" lon="13.75555">
        <ele>176.019603</ele>
        <time>2026-07-13T14:44:04.000Z</time>
      </trkpt>
      <trkpt lat="46.14781" lon="13.75568">
        <ele>176.584016</ele>
        <time>2026-07-13T14:44:07.000Z</time>
      </trkpt>
      <trkpt lat="46.14775" lon="13.75596">
        <ele>176.692706</ele>
        <time>2026-07-13T14:44:14.000Z</time>
      </trkpt>
      <trkpt lat="46.1477" lon="13.75631">
        <ele>176.692706</ele>
        <time>2026-07-13T14:44:22.000Z</time>
      </trkpt>
      <trkpt lat="46.14768" lon="13.75662">
        <ele>176.692706</ele>
        <time>2026-07-13T14:44:29.000Z</time>
      </trkpt>
      <trkpt lat="46.1477" lon="13.75688">
        <ele>176.692706</ele>
        <time>2026-07-13T14:44:35.000Z</time>
      </trkpt>
      <trkpt lat="46.14778" lon="13.75721">
        <ele>176.692706</ele>
        <time>2026-07-13T14:44:43.000Z</time>
      </trkpt>
      <trkpt lat="46.14783" lon="13.75759">
        <ele>176.692706</ele>
        <time>2026-07-13T14:44:51.000Z</time>
      </trkpt>
      <trkpt lat="46.14777" lon="13.75795">
        <ele>176.692706</ele>
        <time>2026-07-13T14:44:59.000Z</time>
      </trkpt>
      <trkpt lat="46.14772" lon="13.75817">
        <ele>176.692706</ele>
        <time>2026-07-13T14:45:04.000Z</time>
      </trkpt>
      <trkpt lat="46.14771" lon="13.75821">
        <ele>176.692706</ele>
        <time>2026-07-13T14:45:06.000Z</time>
      </trkpt>
      <trkpt lat="46.14771" lon="13.75821">
        <ele>176.692706</ele>
        <time>2026-07-13T14:45:08.000Z</time>
      </trkpt>
    </trkseg>
  </trk>
</gpx>